GFSGL_sfc_wetblb_000.txt.gz
Wetbulb
34.26 34.86 34.56 34.79 35.00 35.07 34.96 35.41 35.47 36.27 37.31 36.97 37.22 37.06 34.85 34.76 34.41 31.39 30.55 30.47 31.15 29.97 27.99 27.90 27.62 27.23 26.50 26.51 26.37 25.97 25.17 25.55 22.56 25.32 29.37 31.43 31.79 34.66 35.38 37.06 37.03 35.97 36.65
33.58 33.98 33.83 34.28 34.39 33.95 33.72 33.99 34.62 34.49 34.87 35.59 35.65 35.33 35.06 33.14 31.40 29.90 29.70 29.76 28.27 27.49 27.09 26.55 26.48 28.09 25.22 24.63 24.35 24.05 24.45 25.47 24.33 23.44 26.95 28.46 30.52 32.97 33.32 34.30 36.04 35.36 34.11
32.09 31.90 33.20 33.90 33.61 33.21 32.36 32.81 33.42 33.14 33.74 34.44 35.18 33.63 32.12 31.08 30.24 29.64 29.35 28.48 26.66 26.52 26.52 25.89 25.67 25.36 23.69 23.56 23.62 23.99 24.85 27.11 27.70 27.27 26.33 28.11 29.09 30.57 31.03 33.20 33.05 32.78 33.56
31.76 31.92 32.80 33.32 33.69 33.26 33.12 32.83 33.24 34.34 34.71 33.42 32.86 32.57 30.91 30.24 29.75 29.08 27.69 26.36 26.01 26.60 26.80 26.07 25.38 25.02 24.21 23.81 24.77 24.36 25.56 24.55 25.32 26.10 26.21 26.24 27.08 29.31 28.27 28.04 27.90 29.79 29.70
32.22 32.00 32.96 34.00 34.07 33.90 33.81 33.90 34.06 34.32 35.96 33.26 32.70 29.58 28.75 29.24 29.03 27.13 26.99 26.41 25.80 25.50 25.60 25.85 26.45 27.63 30.06 28.72 26.31 24.61 23.95 24.36 24.26 24.84 24.64 25.62 26.38 25.01 24.48 26.58 25.61 26.10 27.66
31.90 31.90 33.98 34.26 34.19 33.65 33.75 33.61 34.04 36.31 32.71 29.30 26.79 27.78 27.93 28.71 31.86 32.28 31.40 28.28 27.00 25.44 26.40 26.59 26.23 26.77 26.58 27.23 26.48 26.80 26.07 23.65 23.01 23.72 23.30 23.37 24.99 26.57 26.59 25.36 24.26 23.43 23.01
31.72 32.64 33.64 33.81 33.48 32.99 33.29 32.99 32.83 32.05 30.57 29.19 27.58 27.56 26.26 28.40 32.21 32.05 30.20 25.83 24.93 24.24 23.64 22.47 22.77 24.35 24.08 23.88 24.81 25.88 26.37 27.61 27.96 26.55 24.33 24.45 25.78 26.59 26.30 24.66 23.48 23.45 23.42
31.25 31.66 33.10 32.85 32.36 32.22 32.04 32.13 31.80 31.65 30.52 25.41 25.96 26.22 27.00 27.79 29.70 29.31 27.78 23.70 23.05 22.26 21.83 21.89 21.52 21.58 22.97 23.84 24.29 25.33 24.78 25.88 26.18 25.90 25.84 26.06 27.05 27.43 26.57 26.17 25.34 24.76 25.03
30.74 30.92 31.82 32.34 31.57 31.47 31.50 30.78 30.74 30.65 28.06 27.07 27.04 25.75 23.78 23.95 28.01 27.34 25.70 22.36 21.72 21.19 22.42 22.23 22.18 21.85 24.09 26.65 24.19 23.12 23.28 24.29 27.02 27.68 27.62 27.72 27.75 28.18 29.07 26.90 23.77 23.56 22.13
30.81 31.04 31.83 31.92 31.09 30.81 30.42 29.42 29.04 26.00 27.01 26.61 25.18 23.32 24.81 22.20 25.34 25.68 24.66 20.20 16.33 19.90 21.68 22.16 22.70 23.04 24.87 25.74 24.46 22.41 20.76 23.08 24.45 25.44 25.19 25.56 26.13 25.87 27.05 26.30 26.02 24.05 24.38
31.17 30.95 31.11 31.03 30.27 29.67 28.31 27.42 25.34 25.06 24.60 23.50 23.77 22.19 22.39 23.09 21.77 24.66 24.77 18.56 19.01 20.88 20.27 20.05 21.59 23.62 24.51 24.69 25.18 23.02 23.84 24.03 23.26 23.31 23.57 24.16 24.37 23.97 24.04 24.76 25.29 24.48 22.87
30.35 30.10 30.00 29.76 29.97 29.45 26.53 24.65 25.10 23.56 22.28 20.66 14.37 17.51 19.54 20.28 22.59 22.94 24.49 23.97 23.31 13.81 18.70 20.05 19.70 23.40 22.95 22.86 22.36 24.21 23.99 22.32 21.57 21.03 21.05 21.56 22.70 23.65 25.14 26.03 25.77 25.61 26.07
29.68 29.59 29.58 29.47 28.96 28.23 25.31 23.62 22.91 21.68 18.54 18.82 20.64 15.25 17.22 20.57 18.33 22.34 23.36 23.51 22.67 15.35 17.74 19.39 21.54 21.46 20.96 20.54 20.75 21.68 21.12 19.91 19.97 19.06 19.64 20.60 22.88 25.12 26.64 27.56 27.99 28.46 28.20
29.48 29.12 28.73 28.06 28.29 28.08 26.26 25.74 23.65 18.92 17.67 20.99 19.55 18.35 15.00 15.97 14.78 15.83 17.46 13.85 17.45 18.75 15.35 14.19 15.47 19.19 15.56 17.11 17.62 17.19 17.72 18.64 18.43 18.14 18.70 20.71 23.53 24.88 25.56 27.21 26.73 26.96 26.23
29.80 29.74 28.66 26.90 27.34 27.46 25.63 25.28 24.65 23.74 22.59 19.91 19.18 17.97 7.74 4.34 13.22 18.69 20.04 14.71 10.28 14.95 7.86 5.89 9.89 13.23 13.60 15.17 15.62 15.09 14.82 15.09 15.62 16.63 17.51 18.19 20.03 22.11 24.92 27.14 27.47 27.47 25.72
29.82 30.24 28.70 29.79 31.22 28.48 26.19 26.41 29.06 28.81 28.10 28.54 27.66 18.83 12.28 19.79 23.47 25.10 25.70 24.30 22.84 21.40 9.69 3.97 -0.14 1.26 9.27 13.28 13.77 13.25 12.37 11.57 12.55 14.77 15.73 16.24 16.63 18.35 21.33 23.93 24.87 24.51 24.92
30.31 30.71 30.18 30.56 30.48 27.40 24.66 23.62 20.80 22.85 28.06 29.45 29.94 29.03 26.74 21.19 25.07 25.79 25.67 24.63 21.79 17.60 6.78 4.45 -1.75 -1.39 3.86 13.41 13.88 13.18 12.07 11.01 10.56 11.90 13.20 13.88 14.85 17.07 19.20 20.40 21.46 21.75 21.95
30.86 29.57 28.86 28.05 26.96 27.46 25.20 23.69 21.71 16.70 15.34 16.64 22.65 27.69 28.44 27.96 27.48 26.64 25.76 21.42 11.53 10.68 8.59 6.21 4.08 4.11 7.49 11.21 12.82 12.27 11.66 9.82 7.77 7.78 9.70 11.36 12.44 14.66 16.17 17.60 18.50 18.50 19.44
31.54 29.85 28.06 26.14 17.56 19.06 20.74 19.34 20.60 19.21 19.63 16.80 13.92 18.58 19.69 28.05 27.91 27.39 25.16 10.86 9.22 8.01 8.54 9.66 5.65 5.96 8.29 8.89 3.24 4.09 6.70 7.69 6.92 4.69 6.39 7.11 8.31 12.12 14.51 15.86 14.83 13.28 15.51
32.06 29.80 27.51 25.58 24.01 18.58 17.53 21.27 21.18 19.43 20.53 18.13 14.28 14.87 11.97 16.92 9.81 8.07 0.20 -0.37 1.45 8.41 8.03 9.16 10.36 8.56 6.36 5.31 -0.86 -3.56 2.18 4.59 8.36 8.20 6.64 5.96 6.51 8.02 11.09 11.60 12.31 12.37 13.80
32.27 30.83 26.09 21.12 24.44 26.45 23.98 19.20 19.07 17.42 21.21 19.40 16.15 10.98 11.71 15.37 15.83 11.68 9.65 5.91 7.20 9.75 9.00 8.92 8.39 4.00 1.03 0.23 5.49 1.13 1.39 1.21 4.67 7.97 8.09 8.96 6.17 8.13 10.17 10.88 10.75 12.63 13.70
30.63 29.44 27.03 26.54 25.79 25.02 24.91 22.52 17.97 16.87 17.74 18.87 19.84 11.02 12.63 6.94 12.26 12.36 11.62 11.69 11.49 10.83 11.48 9.67 9.78 9.08 8.33 8.44 6.55 -1.93 -1.24 -2.29 -0.91 2.26 5.73 7.62 9.28 10.19 9.80 9.54 9.41 9.60 11.07
29.43 28.86 27.40 24.90 25.61 21.18 14.38 17.53 17.42 14.60 16.12 18.12 19.30 18.09 13.99 16.53 13.92 13.59 17.89 15.27 11.44 9.70 8.31 8.16 6.85 6.68 5.41 2.91 1.52 4.42 4.20 4.97 4.37 0.05 0.06 3.20 8.38 9.51 9.18 8.52 9.25 9.70 9.11
30.81 30.41 28.80 24.67 23.28 18.04 15.28 15.59 16.11 15.21 17.18 19.74 18.95 19.19 19.18 17.57 16.44 16.28 15.08 13.47 9.77 8.00 2.46 5.99 8.25 8.75 7.87 2.43 -0.56 1.21 5.13 2.24 2.28 4.15 -0.69 0.79 5.10 8.35 8.75 9.33 9.38 8.76 8.57
31.48 31.15 29.02 25.82 24.18 23.75 24.47 23.15 22.61 22.05 22.33 21.95 22.12 22.27 22.25 20.88 19.15 17.64 16.55 14.03 11.06 7.21 7.06 4.54 6.67 8.20 8.26 7.04 4.69 4.76 1.88 6.10 1.30 0.41 2.14 1.48 1.15 1.26 4.31 8.88 7.95 9.39 8.32
31.49 31.34 30.45 28.76 27.08 27.06 26.68 26.43 26.39 25.65 25.14 25.48 25.51 24.04 22.93 22.41 22.30 21.32 19.90 16.32 12.83 11.06 8.72 5.15 6.67 7.62 7.25 6.81 6.50 4.71 0.77 2.00 1.42 0.39 -0.88 5.10 2.64 3.41 3.38 4.26 7.83 8.74 9.31

GFSGL_sfc_wetblb_003.txt.gz
Wetbulb
40.60 40.80 41.23 41.30 41.64 41.67 41.23 41.33 41.46 42.41 43.17 42.84 42.36 42.25 41.80 40.63 40.56 40.00 39.10 38.12 37.47 38.19 37.13 35.54 34.87 35.25 34.32 33.86 33.44 32.86 31.51 30.93 27.23 29.86 31.86 33.78 34.38 35.08 36.41 39.21 40.80 40.22 40.09
39.68 39.87 40.20 41.00 40.99 40.50 40.36 40.49 40.78 40.50 40.97 40.53 40.95 40.78 40.59 40.06 39.22 38.37 37.76 37.65 36.80 35.57 35.39 34.34 33.95 33.48 32.87 33.32 32.49 31.33 30.76 31.11 28.55 26.19 30.17 30.70 32.46 34.88 35.43 36.80 38.49 38.82 39.17
38.78 39.25 39.75 39.96 39.92 39.86 39.71 39.89 39.88 39.62 39.93 40.86 40.55 38.79 38.36 38.35 37.47 37.02 36.20 36.03 35.24 34.80 34.12 33.22 32.66 32.07 31.50 31.91 31.12 29.93 29.16 28.84 28.27 27.10 26.98 30.09 31.37 33.50 34.01 35.59 36.97 37.92 37.17
38.53 38.62 38.65 39.40 39.57 39.58 39.45 39.56 39.60 40.09 39.95 39.88 38.85 38.87 38.18 36.30 35.84 35.68 35.06 34.45 33.84 33.45 33.25 32.69 32.08 31.50 30.62 30.17 29.80 29.80 29.20 27.36 26.46 25.61 25.80 26.82 28.93 31.74 32.33 32.50 33.22 35.67 34.99
38.03 37.77 38.52 39.65 39.74 39.48 39.17 39.01 39.23 39.68 40.30 39.08 38.01 35.21 35.21 35.06 34.08 34.70 33.75 33.40 33.35 32.74 32.45 31.47 31.05 29.96 29.19 28.95 27.79 27.56 26.65 25.10 25.04 25.04 24.15 25.75 26.75 27.75 28.83 30.83 31.62 33.27 34.06
37.52 37.57 38.43 38.94 39.13 38.84 38.47 38.56 39.08 39.49 39.65 37.01 36.33 34.92 33.72 33.17 33.00 32.76 32.25 31.87 30.18 28.92 27.82 28.25 28.13 27.10 27.50 26.29 26.08 26.38 26.59 24.77 24.70 24.13 25.58 24.47 25.93 27.52 28.99 28.78 28.76 29.45 28.59
36.82 37.19 37.58 37.92 38.11 38.12 37.72 37.49 37.96 38.53 38.94 37.93 34.51 33.92 33.59 33.43 31.06 30.11 28.23 29.30 28.02 27.42 26.56 25.81 25.81 26.35 25.89 26.35 26.22 26.52 27.16 27.12 27.15 26.77 25.10 25.78 26.16 28.03 28.76 28.25 28.05 27.91 28.00
35.87 36.54 37.14 37.66 37.30 37.49 37.06 36.86 37.82 38.03 37.00 36.67 33.93 33.22 32.61 30.60 28.65 28.20 27.36 28.66 27.62 26.50 25.68 25.56 25.13 25.43 25.98 25.16 26.16 26.14 26.07 26.78 27.57 27.51 28.02 28.06 28.75 29.61 28.64 29.07 28.61 28.71 30.03
35.59 36.41 37.05 37.25 36.79 36.64 36.43 36.94 36.98 35.89 35.88 34.97 33.43 31.57 29.53 29.30 27.07 26.78 27.02 27.25 25.88 25.12 25.67 25.99 25.37 24.94 25.00 26.25 25.40 24.44 24.76 25.54 27.89 27.90 28.51 28.41 28.52 28.51 28.82 28.46 27.40 26.39 25.85
36.19 36.51 37.12 37.18 36.89 36.35 36.56 36.45 35.83 34.96 32.52 32.97 30.22 29.25 25.89 27.50 25.14 25.80 26.23 26.79 24.75 24.88 25.48 25.50 23.94 23.92 24.59 25.15 24.48 24.07 22.28 24.73 24.91 25.94 27.04 27.79 28.36 28.68 27.67 28.55 27.88 25.81 26.86
36.21 36.51 36.70 37.00 36.27 36.53 36.29 35.40 33.96 32.83 31.76 30.57 28.45 28.04 27.15 26.58 26.58 24.73 25.28 26.31 25.16 24.48 23.55 23.53 24.72 23.46 24.17 24.01 23.84 23.82 23.78 24.54 24.09 24.58 24.90 26.17 26.79 27.31 28.38 29.34 29.51 28.27 26.82
35.98 35.72 35.85 36.32 35.73 35.13 34.98 34.32 32.02 31.49 30.07 28.49 27.78 27.34 27.85 26.44 23.54 24.50 24.99 24.94 24.74 24.18 23.16 23.48 24.04 23.16 22.86 22.54 22.69 22.38 22.81 22.79 23.73 23.72 23.76 24.24 25.04 25.90 27.31 28.40 29.18 29.94 30.45
34.85 34.84 35.11 35.25 35.11 34.62 33.56 32.43 30.62 30.11 29.38 28.51 27.62 27.76 27.66 27.54 27.01 23.52 24.30 24.58 24.27 23.92 24.84 23.39 22.00 21.69 21.15 21.19 20.92 20.79 20.22 21.94 21.56 21.36 21.87 23.13 24.68 26.63 27.81 28.58 29.62 30.15 30.13
33.43 33.69 34.51 33.86 33.54 33.93 33.18 32.14 30.58 29.61 29.53 28.65 28.93 28.06 27.95 27.17 26.89 26.60 26.32 27.18 24.16 24.22 22.82 22.95 20.60 20.54 19.31 19.73 20.95 21.03 20.71 19.83 19.37 20.27 21.14 22.98 25.09 26.43 27.98 30.33 28.96 30.03 28.47
32.69 32.88 32.12 32.53 33.11 33.29 32.32 32.06 30.64 31.18 31.41 30.73 30.00 29.04 28.60 27.44 27.41 25.96 25.61 27.06 26.54 24.17 21.23 22.34 21.70 20.66 20.27 20.32 20.38 19.98 19.45 18.53 18.06 19.18 20.72 21.85 22.98 24.54 26.33 29.00 29.44 29.75 29.05
31.80 32.90 32.66 32.18 32.30 33.05 32.89 32.09 30.05 30.23 28.20 29.01 28.76 28.42 29.71 26.64 24.93 25.42 26.08 26.32 24.98 23.16 22.44 21.29 20.29 19.63 19.13 19.22 19.03 18.38 18.95 16.72 17.15 18.26 19.92 20.82 21.49 22.93 24.17 26.40 27.56 28.08 28.07
31.84 32.63 33.26 32.08 31.83 32.38 32.45 31.62 30.59 30.49 28.80 29.95 30.76 30.70 29.08 27.54 26.03 27.05 26.96 26.59 25.31 22.70 22.75 22.15 21.22 20.70 19.75 19.61 19.14 18.76 17.52 17.32 16.04 17.73 18.60 19.18 19.95 21.98 23.56 24.18 25.08 25.74 25.71
32.87 31.91 33.23 32.94 33.00 32.82 33.09 32.69 31.31 30.06 30.22 30.75 29.77 28.42 30.24 29.74 28.33 27.53 27.48 26.61 25.34 23.26 22.92 22.63 22.19 22.09 21.38 20.13 19.63 18.51 18.14 17.42 16.25 15.93 17.63 18.08 18.60 20.30 21.69 22.16 23.00 23.01 24.27
33.47 34.43 33.93 33.23 32.40 30.44 29.87 30.05 30.94 30.11 29.82 29.65 30.45 27.21 27.82 27.36 29.34 28.88 28.55 27.32 25.97 25.11 24.82 23.87 24.13 22.85 22.26 21.68 20.90 18.90 17.53 17.37 15.69 15.23 16.72 16.85 17.68 18.97 20.03 20.59 21.66 20.30 20.73
34.29 32.72 32.79 33.54 32.00 30.53 30.53 30.60 30.82 31.27 30.98 30.25 29.64 29.79 29.84 23.80 27.90 28.81 28.86 27.93 26.47 25.35 25.54 25.01 25.02 24.36 23.45 22.43 21.83 19.84 18.52 18.41 17.19 16.72 16.10 16.90 17.15 17.78 18.32 19.08 20.12 20.54 20.89
34.10 33.48 31.65 32.28 31.76 31.77 30.90 30.64 30.99 31.12 30.11 30.11 30.29 31.69 26.78 27.46 28.46 29.05 28.97 27.77 26.09 26.36 26.46 26.37 26.39 25.61 24.56 22.93 21.36 21.03 18.63 18.47 16.88 16.22 16.21 17.00 16.75 16.12 17.11 18.77 19.10 20.08 19.92
32.09 31.97 31.99 31.23 30.61 30.92 31.58 31.96 31.14 30.17 29.60 29.14 29.80 30.96 22.78 23.95 27.60 28.46 29.08 28.75 28.71 27.75 27.86 27.39 26.90 26.58 25.75 24.54 23.33 22.12 19.23 17.58 17.80 16.84 16.08 14.96 16.66 17.46 16.92 16.72 17.37 18.09 18.36
31.96 31.67 31.51 30.89 30.64 29.91 30.38 30.30 30.16 29.62 29.05 28.93 28.74 28.86 29.82 28.46 28.12 28.34 28.91 29.69 29.34 28.68 27.94 26.38 25.80 25.38 25.12 22.96 22.91 22.05 20.18 19.24 19.24 17.44 15.29 15.36 16.54 17.52 17.11 16.51 15.85 15.73 15.75
32.77 32.11 32.02 31.77 31.93 30.61 29.56 29.25 29.63 27.53 28.24 29.00 29.05 29.04 28.73 29.99 29.75 29.21 29.45 30.19 29.12 28.30 27.57 24.51 24.03 24.34 24.77 23.35 22.64 21.11 19.93 18.90 18.40 16.96 13.66 14.60 15.83 16.42 16.86 16.20 16.30 14.93 15.15
32.47 32.29 32.29 32.08 31.38 31.19 30.25 29.40 29.50 30.26 29.99 29.80 29.99 30.16 29.96 30.16 29.66 29.87 29.99 29.79 28.67 27.68 26.75 23.35 23.11 23.31 21.92 20.44 21.05 19.36 18.29 14.85 15.68 14.11 15.20 13.77 14.25 13.61 14.80 15.50 15.33 16.10 14.66
32.35 32.34 32.25 32.16 31.72 31.57 31.02 31.01 31.01 31.20 31.02 31.20 31.02 31.02 30.95 30.53 30.46 30.33 29.79 29.18 28.38 27.10 26.42 26.28 23.87 21.39 22.11 22.08 20.37 17.82 12.87 11.83 13.79 9.95 14.46 15.45 14.82 15.62 15.96 14.76 13.44 16.09 14.92

GFSGL_sfc_wetblb_006.txt.gz
Wetbulb
46.26 45.81 45.97 46.39 45.51 45.52 44.58 44.32 44.10 44.57 44.53 44.77 45.68 45.56 44.54 43.76 44.09 43.28 41.72 40.87 39.68 39.76 40.11 39.20 38.17 38.39 37.69 37.70 37.48 36.78 35.60 34.64 30.92 33.21 35.10 36.27 35.52 35.72 37.07 38.03 39.56 40.04 41.72
45.05 45.17 45.29 45.79 44.90 44.20 43.98 43.60 44.07 43.60 44.06 43.65 43.83 43.74 43.70 43.30 42.97 41.11 40.13 40.11 39.51 38.71 38.71 38.23 37.34 37.17 36.93 36.96 36.34 35.36 34.70 34.53 31.04 29.01 31.89 32.06 33.14 34.37 35.53 35.70 36.71 38.33 40.75
44.17 44.52 45.31 44.99 44.38 43.47 43.41 43.23 43.45 43.30 43.36 43.59 43.51 42.61 41.70 41.58 40.74 40.34 40.36 39.75 39.11 38.61 38.09 37.12 36.63 36.32 35.31 35.40 34.97 33.94 32.99 31.74 32.29 30.47 29.24 31.02 31.70 32.98 33.00 35.17 35.24 37.97 38.93
43.54 43.88 43.72 43.70 43.51 43.47 43.31 42.88 42.71 42.99 42.69 42.85 42.89 42.78 41.94 40.73 39.99 39.86 39.33 38.97 38.50 38.07 37.57 37.04 36.18 35.08 33.94 33.10 31.92 31.35 30.58 29.34 30.04 29.25 27.74 28.24 30.56 32.37 32.68 31.79 33.13 35.95 36.56
42.95 43.01 42.91 43.52 43.76 43.30 42.65 42.36 42.40 42.70 42.66 43.11 41.47 40.59 40.34 39.72 38.18 38.17 37.97 38.25 37.49 35.99 35.69 34.62 33.99 31.73 28.91 29.03 29.27 29.41 28.47 27.53 26.84 25.70 26.73 27.53 27.38 28.35 29.27 31.25 30.73 32.64 34.21
42.99 42.67 42.97 42.81 42.72 42.53 42.07 41.78 41.86 41.78 42.16 42.28 41.86 40.73 39.99 38.57 32.97 31.27 31.59 35.38 35.00 33.84 32.59 32.48 32.43 30.45 30.04 27.45 27.59 27.24 27.59 26.58 25.02 25.51 25.79 25.94 26.37 28.29 30.50 30.12 30.12 29.63 28.44
42.08 41.91 41.41 41.69 41.52 41.67 41.47 41.44 40.82 41.00 41.63 41.10 41.10 40.32 39.24 38.84 31.15 29.28 28.62 34.10 33.81 32.79 31.57 30.97 30.34 30.36 29.57 29.98 28.38 28.09 28.51 28.27 28.02 27.71 25.13 25.95 27.38 29.29 29.85 29.03 29.05 29.72 29.73
40.87 40.81 41.31 41.19 40.74 41.03 41.13 40.81 40.95 41.00 40.43 39.70 39.64 39.63 38.80 35.51 28.65 27.71 27.74 33.46 32.90 31.87 30.96 30.33 30.11 29.76 29.63 27.09 27.52 27.94 28.83 29.80 29.08 28.93 28.74 28.96 30.04 30.66 30.34 30.12 29.79 30.29 31.67
40.18 40.51 40.17 40.28 40.36 40.36 40.08 40.73 41.17 40.46 39.69 39.29 39.09 38.23 36.67 34.99 27.34 26.73 27.69 32.19 31.05 30.14 30.31 30.29 28.81 28.33 26.82 25.66 26.14 25.79 27.27 28.20 29.42 28.41 28.36 28.44 28.83 29.35 29.55 29.44 27.32 26.78 27.24
39.93 39.51 40.24 40.55 39.97 39.69 40.29 40.61 41.11 40.38 38.93 38.01 36.71 36.59 30.00 33.24 26.07 25.97 27.53 31.44 29.31 29.18 29.91 29.14 26.40 25.84 24.28 24.92 25.16 24.95 24.04 25.55 26.07 26.55 27.35 28.46 29.34 29.74 29.08 30.05 28.29 25.87 26.73
39.71 40.09 39.92 40.11 39.85 40.29 40.61 41.03 40.51 39.65 38.11 36.67 34.17 34.48 33.59 32.04 31.14 25.47 25.39 29.47 29.27 27.95 28.17 28.23 28.53 25.13 24.43 24.23 23.87 25.06 23.86 24.63 24.63 25.37 25.94 27.41 29.22 29.64 29.58 30.68 31.10 29.67 27.01
39.85 39.32 39.48 39.65 39.37 39.29 39.48 39.84 39.47 38.21 36.43 34.88 33.46 33.42 34.39 32.71 26.77 26.53 25.27 25.53 26.02 27.16 26.89 28.46 27.68 24.46 23.99 23.47 23.47 22.29 22.40 23.31 25.61 24.94 25.28 25.39 27.01 27.75 29.39 30.79 31.22 31.12 32.11
38.85 38.55 38.57 38.78 38.54 38.76 38.38 38.52 37.66 37.18 35.57 34.46 33.36 33.48 34.14 34.19 33.23 26.13 25.24 25.13 25.43 26.95 28.10 26.38 23.92 23.37 23.51 24.39 23.03 22.05 22.53 24.82 23.83 23.25 23.18 24.23 26.27 28.33 29.60 30.20 31.23 31.59 31.89
37.09 37.24 37.67 36.59 35.53 37.61 38.29 37.96 37.18 36.32 35.39 33.80 33.53 33.23 33.50 33.15 32.92 33.02 31.67 31.30 27.68 27.33 27.94 28.02 25.73 23.15 23.92 24.69 25.56 25.59 25.32 23.90 22.21 22.23 23.23 24.84 27.38 28.51 29.45 31.04 31.29 31.28 29.94
36.25 35.99 36.12 36.21 34.71 34.02 35.20 37.46 36.26 37.21 35.80 35.25 34.89 33.88 32.78 31.66 31.79 31.02 29.81 30.15 30.17 28.30 25.50 27.56 27.51 26.89 25.70 26.08 26.04 25.18 25.17 23.82 22.13 22.80 23.18 23.99 25.18 26.45 27.69 30.17 30.22 31.17 30.09
34.66 35.69 36.47 36.32 35.64 33.93 33.89 34.33 32.55 31.21 30.41 30.23 29.97 31.33 34.60 31.18 27.62 27.53 26.75 26.81 26.96 25.98 25.90 26.15 26.63 26.44 25.57 25.14 24.82 24.57 24.87 22.94 21.86 21.67 22.48 23.36 23.60 24.19 25.61 27.89 29.11 29.44 29.42
34.87 35.59 36.04 35.17 35.54 34.92 34.89 32.83 33.69 32.59 30.97 30.81 30.89 30.89 30.54 30.56 29.17 27.71 27.66 27.48 27.29 26.17 25.54 26.67 26.30 26.32 26.22 25.76 25.16 24.41 23.44 23.52 21.56 21.44 21.83 22.09 23.08 23.59 25.20 25.79 26.45 27.22 27.69
35.88 32.60 36.02 36.76 36.96 35.41 34.45 34.78 34.49 33.79 33.89 33.71 31.57 30.69 30.82 31.01 30.66 29.12 28.26 27.92 27.39 26.43 27.06 26.49 26.59 26.60 26.55 26.17 25.85 24.76 23.85 23.38 22.89 21.71 21.24 21.96 22.12 22.37 23.70 23.94 24.95 24.42 24.79
35.44 36.31 36.94 36.67 36.34 35.87 35.45 35.21 34.68 33.33 33.09 32.94 33.14 30.66 31.29 29.50 30.02 30.44 29.38 28.74 27.70 27.56 28.31 27.93 28.25 27.35 26.89 27.04 26.37 25.55 24.15 23.09 21.46 21.13 21.63 21.36 21.85 21.91 22.69 22.91 23.71 23.40 23.73
36.72 33.40 33.49 33.97 33.46 34.61 35.39 34.80 33.50 33.44 32.75 33.10 32.40 33.02 33.10 30.12 31.51 31.52 31.70 31.34 30.88 29.18 29.54 28.80 28.88 28.66 28.32 27.31 26.91 25.91 24.96 24.37 23.34 22.19 21.82 21.87 22.45 21.57 21.13 21.88 22.86 22.57 23.22
37.46 36.61 32.81 34.78 34.40 33.31 34.81 33.93 33.82 33.80 33.83 33.65 34.49 34.84 31.67 32.26 32.17 32.35 31.68 33.08 31.60 30.82 31.65 30.49 30.56 29.83 29.06 28.11 26.76 25.80 24.97 24.53 23.42 21.70 21.49 21.59 21.24 21.10 21.54 21.45 22.33 22.59 22.87
37.01 36.24 35.39 34.42 34.42 34.70 33.59 33.87 34.09 33.96 34.17 33.27 34.75 34.18 31.28 32.82 32.06 32.73 33.27 33.40 33.89 34.08 33.52 32.90 31.58 31.30 30.03 28.89 27.99 26.83 25.34 24.20 23.57 22.70 21.65 19.97 20.72 21.92 21.56 21.29 20.64 20.70 21.29
35.88 35.10 34.16 34.54 34.24 33.36 33.47 32.18 32.56 33.34 33.56 33.52 34.31 33.72 34.17 33.14 32.78 32.75 33.35 33.34 34.18 33.98 34.23 33.81 32.14 31.55 32.03 30.97 30.10 28.63 26.34 25.44 24.58 23.52 21.08 20.35 20.66 21.99 21.69 21.16 20.24 19.50 19.12
36.40 33.88 33.92 33.96 34.06 34.46 33.11 31.84 31.92 31.70 32.42 32.41 32.43 32.97 32.94 32.79 32.43 32.43 32.43 32.61 32.97 32.79 32.61 32.73 32.52 31.67 30.53 30.95 29.09 28.90 27.72 26.33 24.90 22.87 19.79 19.81 20.03 20.75 21.02 20.37 20.21 18.88 19.23
35.51 33.52 33.31 33.46 32.79 32.97 32.25 32.01 32.07 32.25 32.25 32.07 32.07 32.43 33.15 33.15 32.79 32.43 32.61 32.61 32.61 32.07 32.43 32.25 32.33 31.30 29.51 29.22 29.03 27.97 26.67 22.80 22.40 21.70 21.36 19.23 18.76 17.90 18.51 19.27 19.03 19.84 18.35
34.39 32.87 33.28 33.67 32.25 32.79 32.61 32.25 32.43 32.25 31.89 32.07 32.25 32.07 32.07 31.98 32.19 32.32 32.37 32.40 32.22 32.36 32.25 32.07 31.66 30.69 30.07 28.70 27.67 26.46 24.06 19.24 19.16 17.19 20.80 20.56 19.79 20.10 20.11 19.23 17.69 18.85 19.35

GFSGL_sfc_wetblb_012.txt.gz
Wetbulb
48.71 47.74 47.36 46.61 46.93 46.62 44.83 43.46 42.71 42.77 42.88 42.38 42.50 42.22 41.86 41.60 41.56 40.45 40.19 39.34 38.98 37.52 38.69 35.97 36.26 37.60 33.71 33.26 33.30 32.99 31.49 31.15 27.81 29.96 32.00 31.51 31.15 31.33 32.68 33.26 34.21 33.21 34.00
48.42 47.48 46.93 47.39 47.04 45.46 44.53 43.47 42.94 42.11 42.57 41.99 42.23 41.88 41.99 41.69 40.46 39.72 38.67 38.30 37.52 36.34 36.80 36.48 35.07 36.97 33.01 32.64 31.47 30.40 30.27 29.81 27.83 25.61 28.46 29.01 28.87 30.55 30.57 30.48 32.79 34.48 33.46
48.25 46.75 46.50 46.52 46.87 44.89 43.61 43.40 43.02 42.06 41.51 41.45 41.94 41.49 41.33 40.59 40.03 39.68 38.83 38.11 37.16 36.65 36.54 34.57 34.84 33.29 29.78 29.44 28.38 27.53 27.86 29.75 27.75 25.64 25.22 27.83 28.12 29.02 28.71 30.07 30.82 31.50 34.49
47.42 46.00 45.47 45.57 45.91 44.47 43.67 43.14 42.83 42.02 40.79 40.83 41.48 41.90 40.96 39.90 39.74 39.07 38.09 36.44 35.97 36.16 35.51 34.47 33.15 31.13 27.97 26.33 26.60 24.95 26.20 24.64 24.97 24.25 24.29 24.73 25.30 26.91 28.03 27.04 26.43 29.38 29.75
46.27 45.13 45.41 45.60 45.19 44.62 43.61 43.59 42.83 41.97 41.19 41.14 40.68 41.08 40.48 40.30 39.96 35.67 35.55 34.13 33.29 32.85 33.13 33.77 32.11 31.82 31.72 28.35 26.63 24.27 24.19 23.02 22.84 22.69 22.71 23.52 23.75 23.52 23.42 25.92 25.92 27.31 28.42
45.64 45.29 46.01 45.00 44.61 43.10 42.86 42.77 42.50 41.54 40.90 40.13 39.73 39.91 39.02 40.66 33.79 32.86 32.34 30.28 32.24 32.12 30.95 30.70 30.65 32.82 31.59 30.53 31.55 30.93 28.02 23.42 22.53 22.32 22.45 22.23 22.97 24.18 26.70 26.37 24.96 24.82 23.45
44.80 44.83 44.90 44.15 42.18 42.05 42.24 41.98 40.82 40.07 40.50 39.97 39.55 38.87 37.69 34.33 33.38 31.87 30.06 28.64 30.30 31.09 30.14 28.87 29.41 31.70 29.54 26.83 27.98 27.92 27.51 29.38 29.64 25.93 24.05 24.36 25.69 24.23 25.00 22.90 22.64 22.74 23.20
44.06 43.72 42.73 42.65 42.09 42.09 41.45 40.63 40.47 40.37 39.75 39.09 38.63 38.50 37.79 34.19 32.80 31.20 29.47 27.22 29.57 30.27 28.93 28.32 27.38 26.51 24.31 24.97 23.60 23.24 24.08 25.11 26.01 27.68 23.71 23.40 24.54 25.13 25.02 25.24 24.33 24.46 25.13
42.73 41.61 41.81 42.03 40.61 40.50 39.74 39.47 39.38 39.25 38.60 38.68 38.99 37.71 36.36 31.08 31.61 30.08 28.13 27.55 29.36 28.65 29.96 29.40 28.08 25.57 26.24 26.72 23.57 22.73 22.21 23.22 28.63 27.70 27.20 28.09 29.61 30.19 29.78 26.67 23.42 23.01 21.03
43.04 42.65 41.18 40.79 40.10 39.13 38.79 38.78 39.00 38.81 38.45 38.79 37.61 36.74 33.26 30.10 31.00 29.68 27.98 27.01 27.33 27.49 27.63 27.84 28.92 25.70 26.08 26.14 22.54 21.66 20.07 21.67 21.65 22.01 23.52 26.03 27.43 27.92 30.92 29.70 26.59 23.58 23.08
41.34 41.05 40.50 40.51 39.16 39.37 38.78 38.86 37.99 37.33 37.09 34.86 33.08 33.56 33.18 31.52 28.84 30.19 29.00 26.22 26.78 26.46 25.82 25.39 26.29 27.35 26.78 26.82 25.85 22.47 21.87 23.17 23.00 22.41 23.62 24.21 25.78 26.69 26.53 27.51 28.55 28.26 26.29
40.14 39.92 39.75 39.25 39.29 38.83 37.42 36.77 37.02 36.26 34.96 34.11 32.97 32.51 32.07 31.46 31.59 30.26 29.57 28.10 27.95 22.99 25.27 25.70 26.21 28.33 27.71 27.05 25.83 26.20 26.72 24.40 20.77 19.46 21.02 22.49 23.18 23.72 25.54 27.11 28.28 30.39 30.45
39.65 38.68 38.03 38.50 37.91 37.28 34.99 34.42 34.72 35.34 33.70 33.10 32.32 31.04 30.28 31.75 30.67 30.44 30.21 29.02 27.87 23.20 25.47 27.71 28.94 28.05 28.64 26.87 28.61 27.91 23.63 20.98 20.86 15.15 18.11 21.50 22.97 24.98 26.14 26.82 28.06 30.05 32.22
36.48 36.37 36.81 36.10 35.83 35.75 36.15 35.56 33.96 33.27 33.07 32.07 31.34 30.37 31.25 31.00 30.71 27.72 27.14 26.54 26.69 26.16 25.94 26.85 24.78 24.99 22.82 23.60 22.91 25.70 24.93 22.83 20.80 18.81 16.63 19.81 22.91 23.64 23.61 25.31 24.96 26.45 26.58
35.96 35.65 35.55 34.37 35.14 35.40 36.10 34.78 32.71 33.42 31.95 30.88 31.21 31.33 30.72 29.69 29.32 31.61 30.05 29.79 29.00 28.25 22.45 21.41 21.21 23.12 22.77 24.40 22.87 23.53 23.35 22.35 20.34 19.48 15.89 18.38 20.40 22.30 22.69 23.90 24.95 25.76 24.90
34.41 34.14 34.45 34.54 34.45 34.58 34.38 34.11 34.45 33.77 33.89 33.96 32.49 31.07 31.08 33.51 31.79 31.59 31.23 30.72 29.49 27.23 21.77 18.85 18.00 19.04 20.21 21.26 19.73 20.61 20.70 20.12 20.20 18.84 17.31 17.12 17.98 19.24 20.97 22.42 25.20 24.33 23.62
33.40 33.72 33.95 32.84 33.84 33.57 33.07 32.03 31.11 33.23 34.53 33.61 32.63 31.95 31.48 33.63 32.06 31.71 31.16 30.36 29.40 27.11 19.07 19.94 20.40 20.98 23.19 22.45 21.18 20.90 18.87 19.32 19.33 19.11 17.14 15.81 16.52 18.36 19.81 20.89 22.23 23.61 22.38
34.46 33.01 33.41 33.80 34.50 33.64 32.92 33.16 34.04 32.55 32.28 32.53 32.90 31.33 31.47 31.64 31.68 32.10 31.70 29.98 23.27 25.55 23.85 23.41 23.34 22.56 22.85 22.83 22.35 21.08 20.00 18.18 17.80 18.45 14.52 15.80 14.42 16.07 14.71 18.77 19.61 18.03 19.98
34.80 34.91 34.73 34.23 33.60 32.37 32.91 32.60 31.78 31.73 32.69 32.32 32.34 31.46 30.98 31.67 31.39 31.29 31.43 27.21 24.96 24.74 25.41 25.68 25.94 25.72 25.19 23.68 20.51 20.19 19.33 17.82 16.19 13.09 14.68 16.92 18.00 16.38 15.01 15.33 17.27 17.78 16.93
36.58 33.93 33.18 34.71 34.95 33.91 33.01 32.11 31.27 31.48 31.04 32.04 32.75 32.41 31.80 30.61 29.92 28.91 28.76 28.25 27.21 26.84 26.83 26.44 26.34 25.90 24.76 23.83 23.62 22.10 20.26 21.69 19.52 19.83 15.53 13.18 18.38 13.97 12.47 16.09 12.23 15.45 18.41
36.69 36.50 34.04 34.35 34.23 33.92 33.06 32.41 31.97 31.43 31.28 31.08 31.86 32.66 33.23 32.87 31.50 30.76 29.37 29.28 28.77 28.44 28.43 28.42 28.16 28.37 28.02 26.22 24.96 24.47 22.41 20.63 20.08 18.28 15.64 15.23 15.34 11.38 15.11 15.19 14.94 15.49 17.83
35.01 35.32 35.47 34.89 34.92 33.89 33.61 33.79 33.69 32.95 32.23 31.44 31.49 31.39 31.78 32.15 32.55 32.42 31.94 31.84 31.85 31.19 31.23 30.43 29.79 29.79 29.75 28.91 28.88 27.58 24.38 21.43 20.80 19.24 15.82 14.39 14.10 13.50 14.20 18.40 16.36 13.02 14.22
33.32 33.82 34.13 34.16 33.93 33.72 33.66 33.61 32.72 31.82 31.85 31.98 31.56 30.58 30.59 31.80 32.51 32.62 32.65 32.63 32.54 32.35 32.83 32.83 32.23 31.72 31.76 31.62 30.74 29.55 27.68 25.55 24.23 22.79 18.43 14.56 14.37 13.25 16.31 12.34 13.60 12.74 11.24
29.37 29.60 29.82 30.76 31.09 32.44 32.90 33.10 32.59 32.08 32.05 31.92 32.36 31.08 31.49 32.11 32.13 32.27 32.30 32.03 32.00 32.59 32.80 32.84 32.47 32.06 32.06 31.96 32.06 31.48 29.93 28.44 24.54 22.86 19.23 16.34 13.80 13.75 11.47 12.50 12.62 11.35 9.94
28.68 28.96 29.10 29.74 29.62 30.31 31.79 32.11 32.16 30.93 31.35 31.31 31.60 31.32 31.99 32.15 31.40 31.55 31.76 31.77 31.76 32.15 32.26 32.60 32.74 32.45 32.30 32.23 31.72 31.25 30.01 28.84 26.35 21.69 20.86 14.94 12.87 10.84 11.38 10.76 9.84 11.66 10.03
25.37 24.06 25.04 28.03 30.24 31.18 31.11 31.38 30.66 29.46 29.88 30.97 31.24 31.06 30.29 28.89 28.84 28.88 28.45 28.78 28.23 28.47 28.08 28.74 27.81 30.35 31.83 32.06 32.05 31.72 30.48 28.83 26.57 23.43 21.22 20.15 14.40 11.52 10.47 11.02 10.32 9.61 11.59

GFSGL_sfc_wetblb_015.txt.gz
Wetbulb
44.01 43.42 42.79 42.46 43.39 42.52 41.51 40.76 40.76 39.55 41.48 39.32 39.57 39.29 39.21 38.65 38.25 36.75 36.41 36.15 36.52 35.16 35.88 35.10 34.32 35.65 32.09 31.35 30.14 29.01 27.67 26.24 22.57 25.45 27.43 28.03 27.47 27.88 29.83 30.33 31.93 31.26 31.86
44.03 43.76 42.88 43.59 43.38 42.76 42.52 41.54 41.02 39.73 39.57 38.99 39.26 39.13 39.75 39.49 38.43 37.87 37.20 36.22 35.61 35.65 35.70 34.60 33.78 35.89 30.63 28.75 27.29 25.40 24.59 24.77 23.40 21.83 24.16 25.09 25.24 26.95 26.99 27.06 30.29 32.82 31.54
44.38 43.33 43.67 44.62 44.59 43.29 42.48 41.56 40.61 39.60 38.42 39.99 39.43 39.14 39.43 38.93 37.98 37.81 37.00 36.07 35.12 35.47 35.17 33.41 32.78 30.91 26.47 25.44 24.84 23.78 23.58 26.40 23.30 21.39 22.09 24.07 24.42 24.89 25.91 27.03 28.16 28.71 31.37
44.54 43.51 43.58 44.82 44.54 43.40 42.19 41.01 40.14 39.90 39.38 39.14 39.07 40.01 39.78 39.00 38.58 37.34 36.10 34.37 34.13 33.78 33.37 32.24 31.05 28.14 26.29 24.84 25.04 23.26 24.10 22.42 22.21 21.45 21.74 22.61 23.51 25.05 24.69 23.55 24.12 27.11 27.34
43.45 42.71 43.45 44.52 43.97 42.48 41.74 41.24 40.32 40.58 39.58 39.54 39.20 39.09 39.48 39.12 38.66 35.01 33.85 32.23 32.04 31.53 31.19 31.55 30.27 30.87 33.13 27.88 25.76 22.76 22.83 21.76 21.37 21.41 21.07 21.92 22.19 22.62 22.16 25.46 24.46 23.94 24.84
42.93 43.27 44.47 43.50 42.49 41.16 41.03 40.83 40.69 40.43 39.71 39.06 38.34 38.27 38.06 39.42 35.25 35.33 32.57 29.31 30.31 30.07 29.13 28.83 28.20 30.60 31.09 31.22 29.83 29.16 27.05 22.03 20.74 20.13 21.77 21.29 21.94 21.90 25.93 22.90 21.64 20.57 18.83
41.83 43.34 42.83 41.19 40.66 40.29 40.39 40.70 40.24 39.85 38.98 38.21 38.08 37.92 36.86 35.52 34.61 33.70 31.95 28.19 28.27 28.20 28.58 26.69 27.63 29.55 26.82 25.02 25.74 26.45 25.49 27.26 27.08 23.28 20.86 19.82 19.67 21.93 22.67 21.62 21.50 21.13 20.94
42.01 40.55 40.42 40.09 40.34 40.52 40.29 39.96 38.34 38.20 37.57 37.05 37.21 37.30 35.48 34.29 34.13 33.15 30.77 26.71 27.40 28.46 27.24 26.58 25.49 23.92 24.53 24.66 23.06 22.28 22.19 23.01 23.76 24.65 21.19 20.62 21.76 23.63 23.49 24.43 23.68 23.35 23.72
39.78 40.10 40.78 39.98 39.57 39.91 38.49 37.23 37.65 37.12 36.38 35.91 36.64 36.10 33.91 32.14 33.39 31.62 28.68 27.07 27.99 27.28 28.18 27.81 27.03 24.09 26.94 26.84 23.34 22.13 21.49 22.19 26.13 27.50 26.83 27.42 28.03 28.73 28.56 27.46 25.18 24.31 20.46
38.37 39.27 39.40 39.73 39.46 38.13 37.39 37.24 36.89 36.01 36.05 36.24 35.61 34.74 33.32 29.73 32.51 31.04 28.90 25.24 25.87 25.86 26.13 26.03 28.45 24.64 26.72 26.58 22.82 20.74 19.28 20.61 21.49 21.84 22.52 23.76 25.52 25.74 28.97 26.41 25.61 23.50 23.25
40.49 39.78 39.65 40.07 39.13 38.11 37.31 36.58 35.19 34.78 34.71 32.83 31.57 30.77 30.05 29.12 29.41 31.49 30.92 26.15 25.13 25.56 25.00 24.29 24.65 27.56 27.21 28.08 28.00 22.37 20.78 22.97 23.54 22.04 21.71 22.15 23.13 24.15 24.91 25.74 26.33 26.06 24.99
38.69 38.86 39.03 39.20 38.28 38.01 35.35 34.53 34.31 33.83 31.81 31.27 29.25 28.99 28.59 28.78 30.11 31.76 31.39 28.82 28.13 22.06 24.31 24.63 24.41 29.37 29.06 28.86 27.47 27.36 27.68 25.89 16.33 17.28 18.39 19.08 20.15 21.52 23.42 25.17 26.12 26.77 27.95
39.21 38.94 37.70 37.36 37.23 36.17 34.39 33.12 31.85 31.45 28.56 30.85 29.72 28.63 28.36 29.15 27.97 31.47 31.57 30.73 29.56 22.83 23.69 24.96 28.42 29.52 29.00 27.56 28.79 28.93 25.33 20.81 16.51 11.63 15.72 16.39 18.40 22.12 23.85 24.40 25.61 26.24 27.15
35.56 35.38 35.71 34.86 34.58 34.32 34.36 33.77 31.95 28.02 27.46 28.63 28.51 28.42 27.61 28.34 26.44 25.80 27.02 27.71 27.43 25.59 24.16 24.84 23.38 24.37 21.51 22.52 22.52 24.70 23.38 21.69 20.02 16.43 14.46 15.80 18.35 19.30 19.35 22.28 21.95 23.12 23.77
34.02 34.03 33.58 31.94 33.01 32.92 33.50 32.64 30.47 30.69 30.21 27.58 27.15 28.18 30.49 27.09 27.42 28.48 27.40 25.18 23.44 25.00 18.85 17.06 18.22 18.34 20.38 22.12 21.10 21.56 21.14 20.39 17.91 13.87 13.03 13.70 16.81 18.73 19.30 21.06 22.06 23.39 20.17
32.50 31.84 30.54 30.06 29.95 31.63 31.04 30.90 33.17 32.87 32.65 33.41 32.81 29.76 27.61 31.68 32.75 33.03 31.83 30.65 29.75 28.84 24.98 17.77 14.09 12.90 15.74 19.63 19.33 19.15 16.69 17.63 17.67 16.44 11.50 14.21 14.13 14.06 17.84 20.31 21.86 21.69 20.95
30.31 30.09 29.00 29.85 28.64 28.89 29.30 28.92 27.14 29.37 33.04 33.37 33.41 33.44 32.63 30.68 32.82 32.71 32.31 31.67 30.99 28.59 16.50 17.07 13.47 14.73 16.88 20.68 21.06 19.47 15.83 17.03 16.90 15.89 13.08 10.93 11.46 15.06 15.03 17.40 19.10 18.67 19.53
30.69 30.40 29.69 29.26 29.02 30.19 29.93 28.90 25.48 25.34 27.07 28.65 30.97 32.60 32.64 32.57 32.54 32.63 31.95 30.89 23.41 26.18 21.12 20.80 19.62 19.69 20.81 22.42 22.27 20.59 16.63 14.02 13.82 13.66 9.88 6.98 5.66 9.96 10.84 14.31 15.89 13.14 15.33
31.24 29.41 30.30 30.57 30.54 30.45 29.87 29.76 31.74 31.52 29.06 28.61 28.50 26.67 28.07 32.49 32.50 31.91 31.88 29.46 25.41 23.78 23.75 23.20 23.05 22.73 22.84 23.41 23.10 21.25 18.07 13.74 11.71 7.70 7.43 8.24 6.74 10.42 9.88 11.50 13.43 12.24 13.99
32.49 29.79 29.72 31.25 31.28 31.01 32.87 32.85 32.43 31.46 29.33 28.21 28.30 28.93 27.58 25.49 29.04 30.33 29.65 29.17 27.53 26.11 25.44 24.89 25.17 25.09 24.73 24.96 24.71 24.09 18.73 15.74 13.52 10.74 9.56 5.62 4.79 6.02 7.25 7.54 8.50 8.01 14.31
30.80 31.39 30.27 32.13 32.28 31.91 32.67 32.88 32.30 30.97 29.62 28.74 28.70 29.03 27.34 31.16 31.04 31.68 30.61 29.31 29.01 28.22 28.04 27.72 27.24 27.06 26.57 25.34 23.30 22.21 23.01 22.96 20.44 17.33 15.11 11.74 2.67 7.58 8.99 8.40 9.91 12.38 14.79
27.95 27.52 27.10 26.95 28.14 28.52 29.83 31.16 31.18 31.69 31.98 31.72 32.14 31.73 26.72 28.80 29.10 29.95 32.03 30.93 29.87 29.78 30.45 29.99 28.98 28.09 27.82 27.14 27.35 26.74 24.80 23.80 22.28 20.08 16.09 13.11 12.08 8.70 8.02 8.46 9.04 9.00 9.92
23.04 23.41 24.35 25.37 26.09 26.17 26.78 27.46 29.02 30.15 31.57 31.76 31.72 31.28 27.58 28.15 29.57 28.81 30.51 32.52 32.65 32.02 31.63 31.02 30.72 30.03 29.59 29.74 29.71 29.19 27.45 25.50 24.96 24.10 21.28 16.18 13.70 10.87 6.28 8.47 9.15 7.74 6.57
22.92 23.09 21.84 21.76 22.00 22.52 25.40 27.93 28.81 29.59 29.81 31.09 32.08 31.31 30.58 30.80 29.30 31.14 31.83 32.37 32.37 32.34 32.17 31.82 31.64 31.68 31.69 32.13 32.08 31.80 30.25 29.07 27.55 25.34 23.75 19.57 16.43 12.88 7.37 7.08 7.48 7.99 6.46
18.84 17.10 16.38 16.56 18.09 18.99 19.68 20.52 23.40 26.08 28.42 30.04 29.15 26.66 30.77 29.07 31.37 29.83 28.90 28.71 27.23 28.48 30.00 30.75 31.51 31.14 31.43 31.16 31.42 31.45 31.48 29.56 28.08 26.86 23.47 20.59 16.38 13.44 11.88 8.37 5.92 7.97 6.35
15.92 12.81 12.08 13.46 14.20 15.14 15.59 16.59 17.10 17.32 18.41 19.17 20.48 22.00 22.78 22.42 22.25 23.34 22.97 20.59 20.47 21.38 21.20 21.65 21.87 22.09 23.76 26.77 28.62 29.62 31.52 30.59 28.63 26.14 24.27 21.77 18.04 13.48 10.30 10.80 7.16 5.05 7.87

GFSGL_sfc_wetblb_018.txt.gz
Wetbulb
46.17 44.52 42.24 41.25 41.37 40.68 40.56 41.11 40.47 39.43 40.57 40.43 40.08 38.66 39.55 37.98 38.42 37.29 36.60 35.74 35.49 34.97 34.71 34.02 33.78 34.57 32.15 30.98 29.07 27.95 25.75 24.39 21.41 23.15 24.77 25.31 24.69 25.08 27.19 28.04 29.49 28.56 29.69
43.87 42.90 42.55 43.47 43.18 41.41 40.35 39.90 40.62 40.16 39.92 40.01 38.46 39.54 39.33 38.39 38.27 36.89 36.21 36.26 35.48 34.46 34.44 34.33 34.30 35.63 30.10 27.84 26.10 24.68 23.93 23.51 22.63 20.52 21.92 22.74 23.11 24.14 25.05 24.72 28.18 30.66 28.93
43.78 43.93 42.91 43.16 42.29 42.24 41.40 41.03 39.57 40.13 39.30 39.06 38.76 38.24 38.32 38.54 38.45 37.78 36.60 35.93 35.14 34.85 35.21 33.74 33.12 31.41 27.33 26.33 25.05 23.75 23.22 25.72 22.67 20.85 21.31 22.36 22.63 23.83 24.40 25.28 25.78 25.95 30.08
44.08 43.15 42.57 43.21 43.58 43.00 40.66 38.90 38.52 38.38 37.31 37.38 38.51 38.58 39.49 38.88 38.19 37.60 35.48 33.52 33.22 33.12 32.98 31.89 30.79 28.62 26.73 25.08 24.34 22.97 23.47 21.93 22.03 21.12 21.49 21.94 22.32 24.11 23.42 22.55 24.07 26.03 25.45
43.92 43.19 43.43 44.56 44.46 42.30 39.09 38.37 38.30 38.01 38.19 38.88 38.24 38.97 39.28 38.65 38.33 36.06 34.67 32.64 32.04 30.88 30.59 30.53 29.33 29.96 32.75 27.62 24.86 22.86 22.49 21.46 20.97 20.62 20.48 21.15 21.46 21.75 21.58 23.34 23.60 23.01 23.20
43.40 42.83 44.47 44.05 41.71 40.30 38.37 38.03 38.41 39.08 39.84 38.50 38.70 37.97 37.39 38.26 37.18 36.58 33.80 30.22 30.28 29.44 28.63 28.30 27.40 30.33 31.22 31.27 30.00 28.64 25.64 21.06 19.79 19.36 20.20 19.25 19.31 19.70 21.41 20.80 21.11 19.96 19.32
41.90 43.89 43.51 41.42 39.87 39.76 39.42 38.10 38.80 39.15 39.33 39.01 38.04 37.55 36.34 35.93 36.36 36.32 34.23 28.87 29.71 28.47 27.84 26.80 27.14 28.94 27.33 25.39 26.55 26.12 24.78 26.03 25.38 21.50 18.77 19.05 18.76 20.06 20.75 21.11 21.52 21.50 21.00
40.52 41.10 40.63 40.35 39.37 39.63 38.80 38.58 38.60 38.55 36.76 35.91 35.72 36.16 35.57 35.51 35.19 34.84 32.27 28.77 28.08 28.75 27.29 26.21 25.69 24.73 24.46 24.74 23.20 22.62 22.36 22.60 23.03 23.70 21.28 20.82 21.41 23.27 23.96 25.03 24.85 25.52 24.71
39.29 39.66 40.18 39.77 38.61 38.40 37.76 37.93 37.59 37.09 36.06 34.57 35.45 35.82 34.85 32.84 34.53 33.29 29.75 26.39 28.01 27.43 27.96 27.54 26.60 24.71 26.34 28.65 23.76 22.61 21.76 22.06 25.74 27.02 27.23 27.48 27.80 27.38 27.60 26.44 22.84 22.17 20.15
38.31 38.37 38.81 38.42 38.58 38.13 37.84 37.63 37.22 35.17 35.17 35.28 34.48 34.27 34.47 31.82 34.01 32.79 29.95 26.47 26.18 26.12 26.37 26.36 28.88 25.74 28.13 27.61 23.13 21.49 19.35 21.17 21.07 22.18 22.84 23.45 24.88 24.15 27.12 24.42 23.77 21.50 21.70
39.27 39.72 39.85 40.09 39.52 38.85 38.27 37.14 35.59 33.99 33.00 31.87 31.48 31.77 31.02 29.92 30.17 32.84 32.11 26.51 26.07 25.85 26.05 24.59 25.08 28.54 28.28 28.37 28.62 23.44 20.78 22.97 23.28 23.32 22.07 21.55 22.16 22.33 23.40 24.29 24.24 24.08 22.19
39.52 39.86 39.86 39.84 39.12 37.89 35.20 34.44 33.42 32.33 30.33 30.41 29.01 29.61 27.43 28.40 30.71 32.51 32.47 29.90 28.11 24.46 25.31 25.18 24.62 28.83 29.03 29.55 27.95 28.27 28.89 26.27 20.18 18.16 17.66 18.98 19.19 19.87 21.69 23.25 24.49 24.93 25.15
39.27 38.69 38.70 37.01 36.02 35.42 33.00 32.14 30.88 31.07 27.54 28.09 27.12 24.99 26.78 28.05 27.47 31.68 32.37 31.75 30.22 24.28 24.60 25.04 26.89 28.57 29.25 28.13 29.16 28.70 25.14 22.06 17.72 10.77 17.39 16.60 18.07 20.05 22.18 22.88 23.67 24.37 24.99
34.52 34.11 33.81 32.98 33.00 33.14 33.15 32.51 30.19 27.15 26.16 28.41 27.43 26.64 26.07 27.33 28.79 27.65 28.38 29.65 29.04 26.24 24.32 25.63 23.02 24.42 20.95 21.53 21.45 24.47 23.51 21.33 20.23 17.85 14.48 15.37 16.91 17.51 17.85 20.14 20.31 21.53 21.85
32.40 32.42 32.34 29.78 30.67 30.82 31.05 30.75 30.02 29.88 29.15 28.38 27.72 27.04 24.49 24.38 29.20 32.31 30.02 26.91 26.76 26.67 19.67 15.49 16.62 17.91 20.27 21.16 20.40 21.02 20.91 19.90 17.05 14.19 14.94 14.99 14.97 17.02 17.79 19.11 19.85 20.67 15.90
31.46 30.65 28.71 27.84 27.76 29.29 29.83 30.31 32.67 32.87 32.72 32.81 32.74 29.71 27.69 31.06 32.54 33.11 33.17 31.74 30.62 27.89 22.45 15.98 19.20 17.29 18.77 19.99 18.03 18.15 18.04 17.14 17.60 16.26 13.77 14.03 12.83 12.36 15.41 18.22 18.92 17.00 17.42
30.14 30.21 28.65 28.40 28.17 28.08 28.58 28.47 28.37 31.58 32.23 32.80 33.25 33.44 33.40 33.19 32.68 32.78 33.54 32.32 31.27 29.70 24.94 25.42 22.07 18.95 18.60 19.10 19.06 18.70 18.09 18.06 16.71 17.17 14.87 12.85 9.76 12.69 12.56 15.04 15.37 16.22 17.16
30.27 29.42 28.65 28.94 29.07 29.38 28.89 29.32 29.41 29.53 30.63 31.95 30.33 32.27 32.81 33.26 33.60 33.05 33.04 32.31 29.18 29.62 25.85 23.71 20.64 19.54 18.47 19.77 20.02 19.73 19.91 15.73 15.38 15.78 12.31 8.18 2.71 8.28 9.15 11.47 12.88 7.98 13.36
30.73 29.53 29.64 29.55 31.07 31.62 31.46 31.55 31.72 31.61 31.92 32.12 31.73 27.37 28.97 32.08 32.85 33.18 32.65 30.85 28.31 25.40 25.89 24.13 23.53 22.28 21.67 22.23 21.61 21.09 20.70 17.81 15.24 14.63 12.45 9.37 3.08 9.18 7.56 9.30 8.62 9.75 8.80
27.51 26.31 25.47 26.51 26.11 26.18 27.51 28.38 28.82 30.61 31.91 32.28 31.47 30.20 30.04 24.56 26.93 26.69 29.08 30.81 30.49 28.67 26.68 26.06 25.49 25.00 24.28 23.80 23.10 22.40 21.93 18.49 18.31 16.05 12.44 8.54 6.47 5.89 6.11 6.00 3.61 5.83 12.86
22.46 23.35 22.53 24.09 23.99 24.37 24.51 24.32 25.08 25.36 25.90 27.39 29.21 31.43 27.87 28.93 29.90 28.52 30.76 30.22 29.80 29.38 28.91 27.87 27.41 27.19 26.63 26.27 25.29 24.17 23.14 22.01 21.72 21.05 19.93 14.72 6.07 5.49 9.88 6.36 4.79 9.89 14.39
21.60 21.85 22.82 21.61 21.38 20.77 21.36 22.19 22.52 24.05 25.53 25.83 26.59 28.54 31.44 30.14 30.18 30.95 30.84 31.55 31.85 30.87 30.61 28.95 28.47 28.71 28.53 27.12 26.29 24.65 23.12 22.12 21.79 22.80 21.39 19.06 14.37 11.27 9.89 6.18 4.66 5.48 9.45
18.65 16.54 17.02 16.99 16.73 17.46 17.54 18.21 18.86 19.42 18.94 21.28 24.42 27.42 28.31 29.43 29.98 30.32 30.08 30.08 31.54 32.12 31.83 30.52 30.80 30.44 30.09 29.60 29.47 28.83 26.86 24.97 24.44 24.67 22.77 20.11 16.94 12.86 8.61 6.00 5.94 4.58 4.63
16.09 11.31 11.98 12.53 12.84 12.97 13.06 13.50 15.39 14.82 15.13 15.65 16.82 19.15 20.45 26.40 30.59 29.33 29.23 31.11 31.21 29.90 29.99 31.36 31.66 30.90 30.34 29.74 30.04 29.98 29.40 29.45 28.08 26.62 26.21 23.55 20.06 15.67 10.46 5.59 6.76 4.30 3.22
11.17 6.59 7.47 8.50 9.20 8.96 9.57 10.68 10.65 11.16 12.32 13.18 13.98 14.67 15.90 17.08 19.37 18.70 19.88 19.70 20.23 21.10 20.00 20.91 21.47 21.69 21.96 26.92 30.09 29.94 30.83 30.57 29.74 27.40 26.39 25.18 22.25 18.56 15.63 11.44 5.50 6.07 4.26
9.03 10.22 4.63 6.08 7.17 7.12 7.29 7.98 7.55 8.24 8.79 10.05 11.71 12.36 13.50 14.20 14.56 15.15 15.46 15.81 16.01 16.23 16.08 17.56 17.88 17.74 19.06 19.50 20.97 23.26 24.90 28.10 30.58 28.99 27.20 24.98 22.71 19.73 16.67 13.68 10.36 8.19 8.40

GFSGL_sfc_wetblb_024.txt.gz
Wetbulb
47.63 47.94 47.70 46.10 45.77 44.22 42.94 41.69 41.40 41.80 41.60 40.85 40.44 39.98 39.40 39.06 38.92 37.95 36.59 35.03 34.20 33.65 33.93 33.47 32.86 33.31 32.85 31.93 29.83 28.90 27.53 26.27 23.78 25.18 25.58 26.10 25.34 25.43 26.41 26.82 27.81 27.59 28.26
47.46 46.65 46.72 44.40 43.35 41.70 41.33 41.15 40.83 41.33 41.20 40.62 40.13 39.71 39.69 39.05 38.69 37.19 35.47 35.34 34.30 33.03 33.03 32.83 32.99 34.14 31.58 30.42 28.50 27.23 26.07 24.99 23.87 21.98 23.18 23.96 23.99 24.80 25.06 24.83 26.65 28.51 28.22
45.80 46.29 45.02 44.81 42.57 41.78 41.29 41.52 41.54 41.12 40.14 40.09 39.71 39.29 39.37 39.14 38.54 37.01 36.18 35.16 33.92 33.44 33.26 32.37 32.49 32.02 30.47 28.46 27.04 25.87 24.87 25.91 23.94 22.42 22.19 23.92 23.73 24.15 24.40 25.51 25.70 26.07 27.26
45.99 44.74 44.95 44.54 43.02 42.73 42.15 40.10 39.01 40.25 39.45 38.95 39.36 39.39 39.24 39.04 38.01 37.81 36.46 34.61 33.92 33.64 33.11 32.91 32.34 31.03 30.43 28.24 26.67 25.24 24.39 23.01 22.56 21.91 21.87 21.81 22.05 23.95 23.83 22.35 21.66 24.33 24.16
44.81 44.57 43.86 42.87 42.99 41.89 39.35 39.75 39.95 39.50 39.25 38.96 38.66 38.58 39.29 38.57 37.69 36.64 35.08 34.28 32.80 32.05 32.10 31.72 31.08 31.64 33.35 29.24 26.20 24.59 23.04 22.03 22.05 21.19 20.17 20.36 20.33 20.13 20.30 21.47 20.48 22.36 23.62
44.05 43.74 43.73 42.58 40.80 39.75 38.86 39.41 37.48 38.47 38.14 37.08 37.75 39.65 39.11 38.48 37.17 37.21 36.49 33.15 32.37 30.73 29.99 28.92 29.04 33.15 33.10 34.18 33.62 30.06 25.54 22.66 21.24 19.61 19.73 18.86 19.03 19.96 20.97 20.28 20.88 20.48 19.67
42.22 41.95 41.35 40.32 38.90 39.25 38.97 38.36 38.28 38.81 39.78 39.49 39.91 38.66 37.05 36.43 36.40 36.97 36.43 33.28 30.96 30.97 29.29 29.16 28.52 28.81 29.77 27.86 31.52 31.46 29.41 28.64 26.91 22.37 19.53 19.38 19.40 21.27 21.82 21.14 21.66 21.73 21.80
39.27 39.23 39.06 38.62 38.81 39.21 38.89 39.14 39.20 39.73 40.09 39.77 38.47 37.80 35.61 35.17 35.61 35.88 35.25 32.95 30.41 29.44 28.62 28.49 28.02 27.35 26.38 26.22 25.74 24.94 24.14 24.14 24.40 24.21 21.99 21.60 22.14 23.20 23.13 23.87 22.87 22.68 23.61
37.43 37.37 38.20 39.06 39.28 39.15 39.02 39.10 39.57 39.49 39.10 38.34 37.37 35.33 35.06 33.66 34.78 35.07 34.25 29.80 28.12 27.70 28.31 28.23 27.35 26.35 28.45 31.12 25.04 23.58 23.01 23.54 27.03 28.51 27.82 27.38 28.01 28.57 27.53 24.28 20.86 19.86 18.55
36.97 37.72 39.51 40.30 40.12 39.40 39.56 39.28 39.33 38.74 37.65 35.93 34.89 34.61 33.29 31.16 33.18 34.65 34.40 26.79 26.78 26.92 26.95 27.59 31.57 27.55 29.57 30.55 26.79 23.45 21.33 22.98 23.90 23.21 23.44 24.78 26.67 25.35 27.00 24.87 22.37 19.02 19.14
39.14 39.43 40.63 41.03 40.38 40.24 39.41 38.95 38.00 36.97 35.39 31.95 30.55 30.31 30.41 30.92 30.31 33.60 34.47 27.73 27.63 27.01 27.15 26.73 27.63 31.15 31.33 31.23 30.38 24.28 22.81 24.06 23.43 22.83 23.12 24.04 24.07 23.65 23.64 23.96 23.49 21.94 19.72
38.87 38.95 39.59 40.30 40.19 39.48 37.84 36.85 33.86 30.95 29.45 28.96 27.11 29.13 28.76 29.44 31.24 31.52 32.81 33.80 29.64 26.52 27.45 27.59 27.72 30.14 31.37 31.42 29.90 28.80 28.21 25.70 23.41 22.06 20.91 21.38 21.38 21.56 22.65 23.29 23.63 24.03 24.10
35.87 35.09 34.40 34.23 33.72 32.65 30.96 30.22 29.50 28.62 25.78 27.74 27.90 28.19 29.21 29.45 28.84 31.11 32.20 32.84 32.76 27.69 28.63 28.86 29.09 29.86 31.24 30.19 30.89 29.85 27.10 24.92 21.70 17.27 19.28 20.34 20.62 22.45 23.05 22.66 23.65 23.89 23.92
30.85 30.57 30.48 30.04 30.25 29.84 29.81 29.79 28.76 26.82 26.46 28.48 28.33 28.36 28.72 29.43 27.81 27.85 27.73 28.22 29.78 30.02 28.15 28.52 27.66 27.75 27.82 27.51 26.56 28.92 28.69 25.07 23.29 21.27 19.91 19.41 19.10 19.09 19.59 21.04 20.06 21.14 20.25
30.35 30.02 29.09 28.00 28.29 28.91 29.13 28.89 28.77 28.66 28.95 29.07 29.29 28.76 28.26 28.73 30.36 31.02 30.64 27.96 27.74 28.70 28.54 22.08 22.81 24.86 24.84 25.34 24.77 25.17 25.29 23.82 20.82 19.14 17.47 17.94 18.04 18.31 18.92 19.91 19.61 19.66 17.14
28.01 27.66 26.78 26.31 25.78 27.11 27.44 26.67 30.45 31.53 32.05 32.57 32.74 31.84 31.47 32.39 32.97 33.39 33.55 33.25 32.63 30.95 28.00 26.43 25.71 25.31 24.31 25.22 24.45 24.77 24.50 23.91 22.78 20.85 18.29 18.22 17.92 17.58 17.97 18.50 18.89 18.12 16.78
25.65 25.96 25.10 25.00 24.46 23.68 23.40 23.23 21.48 24.52 27.72 28.33 28.69 28.71 28.83 29.37 29.90 31.13 32.11 32.35 33.38 32.50 29.73 28.52 26.90 25.87 25.23 24.31 24.70 24.63 24.17 23.61 24.10 20.99 20.77 17.92 17.29 17.10 15.53 17.04 17.06 16.91 16.82
23.54 23.41 22.22 22.30 21.34 21.40 20.11 20.97 21.15 20.61 19.20 19.80 23.69 24.68 25.56 26.10 26.06 28.31 29.60 29.85 28.56 31.25 30.47 29.17 27.92 26.56 26.30 24.55 24.78 24.93 24.70 24.37 21.09 20.13 18.04 17.03 14.80 15.94 14.60 15.51 16.24 13.87 15.06
21.69 21.02 20.62 18.92 18.63 19.03 19.02 19.21 18.74 18.60 18.73 18.50 18.87 18.95 19.36 21.10 22.52 24.44 26.57 25.87 25.87 27.44 29.40 29.82 27.71 28.41 28.32 27.49 25.85 25.83 25.19 23.53 22.00 17.99 18.67 16.14 13.56 15.54 14.58 15.52 14.93 11.48 11.18
19.51 18.69 17.70 18.12 17.22 16.59 16.45 15.37 16.14 15.04 15.60 15.08 14.78 14.79 16.34 15.35 14.66 15.95 16.54 16.97 19.39 25.46 28.12 29.13 30.00 29.77 28.71 27.00 26.05 24.64 24.39 23.37 21.72 18.63 18.21 17.54 14.61 14.97 17.05 16.50 14.21 12.75 15.01
15.56 15.32 13.73 14.92 14.28 13.93 12.58 12.70 12.87 12.89 11.49 11.43 11.95 12.49 12.69 12.88 12.70 13.30 14.46 14.69 15.26 16.23 19.48 29.88 29.81 29.26 28.44 27.64 26.09 24.99 23.93 22.95 22.76 21.88 20.11 18.55 14.33 15.58 17.26 17.86 16.63 13.84 14.76
12.83 11.80 12.20 11.73 11.72 9.77 9.11 10.40 9.87 9.12 8.61 7.97 8.59 9.88 10.15 11.03 11.42 11.76 12.37 12.66 13.28 15.60 17.35 17.69 30.01 29.70 28.84 27.85 27.11 26.07 24.73 23.86 23.90 23.36 21.47 20.16 17.10 17.00 17.05 17.27 15.87 12.43 13.94
11.40 5.47 7.08 8.74 6.49 4.95 4.36 5.18 5.81 4.85 5.34 5.12 5.55 6.55 7.73 7.84 8.89 9.96 9.48 11.33 11.69 12.88 14.65 15.96 17.69 21.25 26.94 29.39 29.59 28.49 26.31 25.11 25.57 25.43 23.58 21.61 18.84 18.16 18.72 17.28 16.11 11.92 11.51
7.70 0.94 4.87 3.35 0.63 2.04 -3.93 -4.12 -1.45 0.05 2.48 2.32 1.44 3.38 4.71 4.71 6.14 5.60 7.07 8.95 9.50 10.25 11.92 13.20 14.98 16.11 17.31 20.13 23.51 29.66 29.35 28.83 28.02 27.06 26.74 24.42 22.01 19.87 19.74 18.63 17.14 14.08 13.02
-2.00 -5.19 -5.37 -4.83 -10.81 -10.08 -11.00 -6.84 -8.09 -7.06 -3.23 -2.21 -1.71 0.55 1.65 1.66 3.73 3.33 4.51 6.38 7.37 7.26 9.08 10.67 12.13 13.18 15.00 16.15 19.67 22.05 23.54 28.44 28.21 27.61 27.04 26.13 23.82 21.80 20.42 19.31 17.69 15.39 10.93
-0.22 -3.26 -4.83 -9.00 -11.35 -12.08 -13.17 -12.80 -10.27 -11.90 -7.11 -4.81 -4.03 -3.00 -1.95 -1.27 1.30 0.90 1.66 3.20 3.87 5.11 7.08 8.81 9.74 10.89 13.05 15.32 17.35 18.72 19.50 21.34 24.52 27.30 27.29 26.09 23.86 21.85 20.50 19.20 17.92 16.91 14.36

GFSGL_sfc_wetblb_027.txt.gz
Wetbulb
59.23 57.76 56.26 54.37 53.71 52.14 50.11 48.86 46.06 43.77 43.67 43.74 42.05 44.52 43.64 42.89 44.21 44.22 44.17 43.80 43.60 43.60 42.63 41.99 41.65 41.83 41.35 41.01 40.84 39.97 38.50 37.26 33.49 35.27 35.71 35.64 34.33 33.95 34.01 33.75 33.17 32.98 33.70
54.44 55.80 55.27 53.88 52.35 50.37 49.31 46.72 44.68 43.06 43.82 42.65 43.29 42.56 43.29 42.45 43.23 42.99 42.51 41.92 41.65 41.25 41.57 41.21 41.00 40.56 40.77 41.23 40.00 38.61 37.68 37.53 34.50 32.01 34.36 33.07 32.56 33.49 32.47 31.36 31.31 32.15 32.43
53.78 52.88 52.06 51.32 50.32 50.13 48.89 46.51 44.91 43.59 42.49 43.18 43.64 43.22 42.90 42.85 42.92 42.19 41.27 41.40 41.03 41.33 41.58 41.06 40.93 40.73 40.12 39.89 38.98 37.91 37.25 35.03 34.27 32.15 31.58 32.76 32.08 32.28 30.85 31.04 31.18 31.38 31.43
51.56 51.65 50.81 50.26 49.42 48.91 48.15 45.68 43.42 43.66 41.94 43.00 43.26 43.31 42.56 42.13 41.54 41.00 41.50 41.63 41.06 41.13 41.05 40.63 40.55 39.95 39.79 39.75 38.53 37.27 35.83 33.92 33.32 31.58 30.78 30.44 30.84 31.10 29.72 28.31 28.05 30.33 29.67
50.24 50.14 49.83 49.66 48.59 47.32 44.47 42.41 41.95 41.36 41.23 41.19 40.55 41.71 41.87 41.17 42.15 41.44 41.07 41.13 40.92 40.68 40.59 40.00 40.06 39.93 38.52 38.80 37.18 36.97 34.77 32.99 32.11 30.95 29.73 29.45 29.08 28.57 26.80 28.39 26.90 28.17 29.50
48.86 48.73 48.35 47.64 45.55 43.82 42.48 41.75 40.85 40.93 39.95 41.57 40.27 41.68 43.29 42.55 38.64 37.88 38.17 40.57 40.01 39.52 39.31 40.07 39.85 37.13 37.19 35.29 33.98 33.15 34.16 33.24 31.30 30.38 29.24 27.88 28.17 27.95 28.16 27.21 26.62 25.39 23.99
47.28 46.92 46.13 45.18 43.71 41.80 41.26 40.38 39.14 39.72 40.49 41.60 42.48 42.35 41.78 42.59 37.51 37.23 36.57 39.28 39.29 39.58 39.56 39.39 38.46 36.63 35.70 36.72 34.42 33.71 31.41 29.83 30.43 31.89 28.67 28.66 28.00 28.06 27.94 26.60 26.79 26.24 25.86
44.20 43.61 43.62 43.59 42.20 41.22 40.88 40.28 41.26 41.84 41.75 41.50 40.96 41.95 41.76 38.93 36.32 36.30 35.51 38.62 39.01 39.12 39.11 38.90 38.49 37.72 35.95 35.44 34.36 33.76 33.51 32.99 31.77 30.23 30.72 30.59 30.15 29.56 29.03 28.01 27.14 27.32 28.09
41.26 41.36 41.84 42.25 41.69 41.89 41.78 41.24 41.51 41.28 40.95 41.57 42.12 40.25 37.69 37.87 37.43 35.44 35.10 37.63 37.41 37.52 37.89 37.45 37.25 37.18 35.17 32.41 32.51 31.55 31.51 31.36 30.32 29.37 29.14 29.39 27.86 27.81 29.19 29.32 26.50 25.42 23.79
40.81 41.48 42.42 42.56 42.40 41.68 42.29 41.74 42.42 42.68 41.38 40.00 37.63 37.58 37.36 39.76 36.14 34.60 34.97 37.10 36.01 36.02 36.79 35.54 32.74 35.04 33.29 31.72 32.54 31.47 29.20 30.70 30.68 29.52 29.92 29.38 29.27 30.05 29.01 29.73 28.66 24.87 24.15
42.66 42.94 43.01 43.28 42.99 43.24 41.95 40.46 39.36 38.19 37.32 36.75 36.89 37.99 37.58 36.97 37.45 34.77 34.45 35.54 35.69 35.18 34.83 34.90 34.55 32.21 32.06 31.92 32.38 31.91 31.11 32.04 29.55 29.41 29.51 29.37 29.60 29.95 30.35 30.75 30.26 27.77 24.82
42.21 41.14 40.25 39.82 38.86 38.45 38.67 38.07 37.89 37.57 36.48 36.22 35.41 35.92 36.94 36.65 34.39 34.44 33.94 33.63 34.39 34.11 34.04 35.16 35.43 32.48 32.43 32.64 32.38 32.09 30.53 28.89 30.57 29.63 28.81 28.16 28.48 28.95 29.90 30.48 30.23 29.50 29.10
36.54 35.80 35.74 35.96 35.71 35.76 35.92 35.56 35.50 35.62 34.87 34.53 34.09 34.48 35.00 36.10 36.54 34.11 32.96 32.52 32.49 33.94 35.33 34.86 32.84 32.14 31.99 31.57 32.39 31.82 30.29 30.54 29.96 28.73 27.99 28.32 29.35 30.16 30.26 29.25 29.00 29.04 28.38
34.17 33.40 33.32 33.20 33.40 33.54 33.88 33.65 33.05 32.60 32.02 31.89 31.58 31.32 32.02 32.96 33.85 35.17 35.25 36.40 33.77 33.24 32.93 34.67 32.50 31.34 31.23 32.69 31.91 32.09 32.41 32.24 30.90 29.97 29.21 29.81 30.24 28.75 28.30 29.22 27.37 27.00 25.32
31.28 30.42 30.06 30.31 29.71 29.90 30.17 29.82 29.42 30.57 30.16 29.20 29.61 29.14 28.16 28.15 28.71 28.32 28.64 28.98 30.50 32.22 32.69 33.19 33.66 32.23 31.69 31.68 32.05 32.08 31.83 31.86 29.89 29.94 29.80 28.40 27.71 27.75 27.80 28.83 27.25 25.99 24.18
28.37 28.24 27.33 28.02 27.65 27.41 26.78 26.79 27.07 26.67 27.12 26.99 26.62 26.54 26.93 26.71 25.63 25.54 26.22 26.90 27.95 29.39 29.61 29.12 31.85 31.98 30.86 30.93 29.65 29.65 30.39 29.94 30.55 29.68 29.29 28.39 27.40 26.98 26.92 27.70 26.93 25.36 24.32
25.76 25.46 25.88 25.39 25.23 24.34 23.94 23.72 22.86 25.10 24.88 24.52 24.31 24.20 24.17 23.26 23.34 23.91 24.80 23.99 26.54 29.15 29.61 30.42 30.09 31.97 32.22 30.57 30.00 29.74 30.13 30.79 30.79 29.57 28.13 28.04 27.68 27.10 26.50 26.68 26.51 25.40 24.51
24.39 22.69 24.12 23.71 23.03 22.58 22.38 22.16 21.93 20.99 20.07 21.16 22.54 21.43 20.79 20.68 20.80 21.87 22.26 22.25 21.54 22.65 23.83 26.68 29.59 31.04 32.00 31.43 31.11 30.07 30.58 30.49 29.37 28.71 28.15 29.03 27.89 27.32 26.37 26.09 26.42 25.34 24.67
22.27 21.19 22.02 21.72 21.15 20.14 20.29 19.91 19.97 19.14 18.65 18.46 19.11 19.39 18.46 17.44 18.61 19.35 19.48 18.85 17.61 18.03 19.35 19.96 21.40 24.08 30.33 32.15 31.90 30.74 30.13 30.63 30.78 28.11 28.21 27.96 27.79 26.70 26.22 26.86 27.07 23.64 22.12
20.21 18.09 18.28 19.29 18.75 17.85 17.59 17.05 16.89 16.65 16.05 15.56 15.32 15.26 15.41 14.54 15.16 15.59 16.83 16.54 16.46 16.29 16.94 17.70 19.28 21.13 22.53 32.33 32.20 31.33 30.82 29.79 29.29 28.30 28.10 28.24 27.63 26.68 26.15 26.32 26.54 26.09 23.69
18.36 17.43 14.86 16.86 16.24 15.16 14.50 14.27 14.11 14.14 13.03 13.15 13.29 13.52 9.83 11.46 12.93 13.38 14.27 13.92 14.31 14.65 14.85 15.98 17.83 19.42 20.29 27.83 32.61 31.10 29.95 29.26 29.20 28.55 27.14 27.67 26.97 25.07 26.28 27.53 27.55 25.92 25.53
15.24 14.22 14.75 13.73 13.83 12.59 11.18 11.98 11.89 10.89 10.55 10.53 10.94 11.17 9.15 11.91 11.46 11.68 12.09 11.80 12.37 13.78 14.31 14.70 15.65 16.47 19.35 19.04 23.72 30.49 29.38 28.06 27.84 28.03 27.39 27.03 25.87 25.84 25.99 26.49 26.50 26.28 25.07
13.02 11.55 12.07 11.70 10.65 8.68 9.16 8.52 8.42 8.37 8.24 8.72 8.37 7.99 8.96 9.08 8.44 9.35 9.71 9.62 10.25 11.57 12.54 12.45 13.82 14.70 15.99 17.24 19.44 23.49 30.31 29.15 29.88 30.55 28.41 27.06 25.36 26.11 25.80 25.74 25.62 25.21 24.81
11.87 10.41 9.94 9.42 7.80 6.71 5.73 4.88 5.93 4.59 4.69 5.90 6.10 5.88 6.31 6.55 6.38 6.98 7.85 8.15 7.64 8.95 10.14 10.91 11.89 12.64 13.08 14.19 17.67 20.76 24.12 28.31 32.32 30.76 29.29 27.73 25.92 25.96 26.24 26.32 25.93 25.10 24.44
10.32 9.47 8.74 7.00 4.68 3.77 3.21 3.65 3.74 3.47 3.65 3.70 4.10 4.22 4.63 4.74 4.89 5.53 6.23 6.00 5.41 6.06 6.03 8.00 10.75 11.18 11.31 11.89 14.71 16.70 18.54 22.84 29.03 30.49 30.11 29.15 27.17 26.33 26.37 25.84 25.51 24.99 24.17
9.68 7.71 7.40 6.29 4.78 3.39 3.00 1.64 1.45 1.62 1.15 1.88 2.55 2.71 2.51 2.61 3.36 3.51 3.77 3.99 3.63 2.94 4.75 6.69 8.48 9.00 10.43 12.36 14.70 14.95 16.13 19.02 22.00 26.10 29.92 29.33 28.16 27.00 26.59 26.13 25.17 24.89 22.68

GFSGL_sfc_wetblb_030.txt.gz
Wetbulb
65.06 64.52 63.84 62.75 59.54 56.83 55.93 54.98 54.43 54.59 52.36 48.81 45.72 45.06 44.78 46.74 48.05 47.06 46.61 46.81 45.40 45.47 46.77 45.52 45.17 44.78 43.93 44.07 44.03 43.19 42.18 41.26 37.76 39.75 41.17 41.45 40.03 39.00 38.71 39.07 38.22 37.06 36.91
64.51 64.06 63.51 60.80 59.11 58.12 57.38 56.37 54.88 54.00 47.83 44.76 44.91 44.49 44.89 47.64 46.97 44.74 45.06 43.87 43.16 43.41 44.42 44.94 43.99 43.49 43.96 44.38 43.85 42.68 42.20 42.00 39.70 37.25 39.50 39.09 39.12 39.10 38.00 36.76 35.96 35.96 36.56
61.95 60.78 60.81 60.01 58.11 56.71 54.97 53.42 50.80 46.86 45.07 45.56 44.44 43.16 44.06 43.83 44.71 44.10 43.73 42.34 43.12 43.83 44.80 44.28 43.94 44.16 43.62 43.90 43.49 42.57 42.29 41.09 40.69 38.10 37.05 38.84 38.52 37.99 36.62 36.27 35.49 35.89 35.85
59.45 59.49 58.90 57.90 57.64 57.14 55.20 52.73 51.73 49.77 46.52 44.59 44.06 44.55 43.09 44.60 44.37 42.72 43.28 44.30 45.26 44.88 43.74 44.55 44.48 44.17 43.71 43.74 43.23 42.78 41.84 40.60 40.14 38.01 36.81 36.54 36.69 36.86 35.83 33.48 32.91 34.77 34.03
57.10 57.05 56.56 56.65 56.24 55.07 54.15 53.67 52.15 49.58 46.23 43.14 42.81 42.39 44.28 43.04 44.52 44.29 44.04 42.98 44.48 43.90 44.55 44.58 44.67 43.72 41.33 41.79 42.66 42.08 41.63 39.67 38.89 37.02 35.89 35.66 34.66 34.07 33.00 33.72 31.68 32.97 33.70
54.77 54.13 53.84 53.34 52.44 51.44 49.57 47.29 44.94 43.52 42.70 41.42 42.23 41.65 43.82 43.82 39.29 39.02 39.78 42.66 43.45 42.91 43.00 43.49 44.22 42.18 41.01 38.10 37.80 37.25 38.75 40.03 37.76 36.42 35.70 33.70 33.53 33.84 34.07 32.23 31.34 30.06 28.39
52.59 51.89 51.30 50.66 49.31 48.40 47.16 44.87 42.78 41.08 41.49 40.74 42.20 42.98 42.74 43.62 39.81 38.35 37.03 39.68 41.22 42.93 42.57 42.40 42.11 42.46 40.68 42.23 37.47 35.19 33.72 32.85 33.31 37.10 35.20 34.47 33.45 34.28 33.76 31.32 31.16 30.56 29.76
49.34 48.95 49.11 48.68 47.02 46.27 45.14 43.41 41.17 42.14 42.25 43.18 42.95 43.05 42.46 43.00 38.34 36.84 36.41 39.28 42.39 41.97 41.95 41.73 41.44 41.59 42.11 41.43 41.01 39.61 37.89 38.39 35.65 34.17 35.25 35.59 35.54 35.42 33.87 32.36 31.59 31.42 32.25
46.61 46.52 46.92 46.98 46.52 46.14 45.02 44.37 45.01 44.86 44.53 43.24 42.49 42.85 41.88 43.40 37.68 37.69 38.02 41.29 40.13 40.14 40.84 41.21 41.25 40.87 38.76 37.23 39.00 38.33 38.40 38.11 35.67 34.38 33.65 32.43 30.38 29.44 29.68 31.45 29.64 28.89 28.26
45.79 45.86 46.55 46.55 45.91 45.34 45.50 44.63 44.93 44.44 43.62 42.40 40.69 39.50 37.65 38.73 38.82 37.79 37.03 39.84 38.43 38.99 40.15 40.23 36.61 37.57 36.09 34.67 37.74 37.70 36.05 37.20 37.16 34.94 33.12 31.65 30.93 32.21 29.65 31.12 31.18 28.33 28.51
45.86 45.47 45.16 45.39 44.44 44.03 43.61 41.67 39.62 38.77 38.73 39.88 40.83 41.77 41.60 40.51 40.46 36.41 35.77 37.50 37.90 38.23 37.97 38.59 39.88 35.39 34.13 34.13 34.13 37.21 36.66 37.89 35.16 35.35 34.71 34.34 34.21 33.53 33.33 33.06 33.09 31.71 29.46
44.41 43.35 42.42 41.26 40.38 41.10 41.30 41.34 41.06 40.69 39.66 39.28 39.65 39.17 40.56 40.74 36.84 36.61 35.07 34.22 34.54 35.77 35.81 38.43 39.71 35.96 34.75 33.48 33.54 33.56 33.87 32.16 35.53 34.76 32.94 32.59 32.62 32.37 33.45 34.02 34.09 34.03 33.92
40.65 39.77 39.60 39.73 39.85 39.85 39.72 39.26 39.44 39.10 38.14 37.10 35.98 36.01 36.18 36.70 36.99 33.20 31.21 30.74 31.15 31.37 32.97 34.73 33.45 33.20 33.81 33.31 32.54 32.70 31.76 34.95 34.61 33.56 32.29 32.66 33.51 33.60 34.56 33.51 33.56 33.42 32.87
38.25 37.75 37.87 36.50 36.89 36.76 37.42 36.18 35.59 34.55 33.29 32.43 32.15 32.09 32.29 32.21 32.73 31.58 29.66 30.11 28.84 30.13 30.87 33.50 30.97 29.67 32.33 33.74 34.17 34.95 35.39 35.89 34.90 33.80 33.73 34.47 34.20 32.83 32.35 32.54 30.59 30.96 29.91
35.80 34.72 34.66 34.10 33.65 33.75 33.22 32.56 31.35 31.94 29.21 29.01 29.50 29.13 28.38 27.79 28.02 25.88 25.63 26.79 27.70 27.05 27.49 30.55 31.04 31.46 30.60 33.75 34.42 34.65 34.81 35.56 34.30 34.54 33.57 33.21 32.55 31.41 30.89 31.97 30.66 29.88 28.36
32.87 32.30 31.27 32.27 32.28 31.91 31.43 32.03 26.55 26.26 25.62 25.40 24.81 25.46 26.38 25.03 23.56 23.43 23.91 24.39 24.04 25.02 26.06 29.24 31.09 31.67 31.34 31.33 32.67 33.90 34.79 33.83 32.87 32.90 33.44 33.43 31.77 30.81 29.89 30.17 30.33 28.96 28.07
30.67 30.13 30.42 29.75 29.81 28.92 29.24 28.76 27.69 28.51 25.23 24.14 23.25 22.85 22.57 21.15 21.25 21.98 22.69 22.39 23.96 24.32 25.07 24.78 25.25 27.27 28.33 28.47 32.02 32.84 33.66 33.98 33.79 32.67 32.95 32.87 32.63 31.05 30.44 29.49 29.21 28.27 28.00
28.04 24.98 29.40 28.95 28.52 28.38 27.66 26.89 27.02 25.21 24.11 25.28 24.51 22.19 21.01 19.94 19.71 20.90 21.37 22.45 23.12 23.38 22.81 21.57 22.16 23.00 23.32 25.28 27.37 27.76 33.99 34.10 32.95 32.53 32.42 32.03 32.28 31.40 30.05 29.06 28.65 28.35 27.96
27.31 27.14 27.23 27.23 25.75 24.36 25.48 25.23 24.66 23.69 23.08 22.76 23.43 23.12 21.89 18.23 19.44 20.71 20.67 21.42 19.35 19.57 20.03 19.68 20.49 20.85 21.49 22.75 25.25 26.07 29.17 33.37 33.17 32.64 32.07 31.11 31.37 31.21 29.89 29.67 29.09 28.39 27.66
24.36 20.69 22.13 25.03 24.94 23.67 23.42 22.57 22.19 21.79 21.32 20.97 20.77 20.27 19.55 17.08 19.07 19.73 20.20 19.58 18.62 18.00 17.95 17.96 18.62 19.23 19.94 20.96 22.91 25.41 24.02 32.43 31.92 32.21 31.37 31.01 31.37 31.32 30.86 29.88 30.02 29.05 27.34
25.49 23.24 18.54 23.66 22.45 21.47 20.95 20.58 20.22 19.97 19.14 18.75 19.11 18.91 12.18 14.04 17.75 17.69 17.52 17.80 16.65 16.28 16.10 16.75 17.20 18.24 19.27 20.10 19.38 20.99 23.23 26.80 33.19 32.60 30.88 30.56 31.37 30.22 30.72 30.35 30.16 28.79 28.07
21.45 20.71 20.72 19.63 20.14 19.54 17.47 18.27 18.35 17.65 17.00 16.47 17.12 17.10 13.26 16.85 16.51 15.85 16.09 16.32 15.70 16.01 15.87 15.75 15.43 16.39 17.27 18.08 17.95 18.67 20.84 21.63 31.53 32.28 31.74 30.32 30.37 30.46 30.45 29.72 29.67 29.31 28.09
19.17 18.71 18.96 17.86 17.49 14.70 16.87 16.45 16.01 15.65 14.97 14.91 15.17 14.81 14.75 14.81 14.02 14.28 14.09 14.64 14.95 14.25 14.69 14.29 13.87 14.26 16.56 17.18 17.39 17.70 19.20 20.48 23.06 27.53 31.34 31.09 29.80 30.01 30.01 29.58 29.20 28.73 27.20
18.17 17.99 16.57 16.51 15.46 14.15 14.88 13.50 13.89 11.86 11.81 13.27 13.77 13.89 13.41 12.98 12.86 12.71 12.74 13.44 12.65 12.93 12.94 12.35 11.99 13.51 14.67 15.17 16.16 17.14 18.41 19.40 21.35 23.86 32.28 31.90 30.49 29.45 29.84 29.11 29.44 29.18 27.75
17.50 16.93 16.19 15.03 13.76 13.16 12.38 12.21 11.96 12.19 12.18 12.08 12.17 12.31 12.04 11.68 11.46 11.82 12.04 11.42 10.31 10.66 9.94 10.58 12.53 12.52 12.78 12.53 14.62 16.19 16.27 16.52 19.42 22.66 29.15 31.81 30.70 29.56 29.24 29.29 29.52 28.89 27.73
16.26 14.52 14.08 13.69 13.10 12.00 11.04 10.46 10.42 10.37 9.71 10.08 10.25 10.63 10.59 10.28 10.29 10.19 9.40 9.09 8.57 7.21 8.95 10.81 11.21 11.27 12.27 14.33 16.11 15.61 15.02 17.05 18.34 20.10 24.14 30.40 30.59 29.57 29.09 29.59 29.07 29.12 27.75

GFSGL_sfc_wetblb_033.txt.gz
Wetbulb
66.04 66.07 65.80 64.46 63.48 63.04 61.00 58.36 56.83 55.33 54.30 53.44 51.97 51.04 48.69 46.95 45.61 45.89 47.67 47.73 47.20 47.45 47.18 46.18 46.78 47.22 45.97 44.95 44.57 44.01 42.57 41.99 39.00 41.03 42.42 44.00 42.81 42.03 41.89 42.01 41.08 39.56 39.14
65.94 65.49 64.47 62.74 60.23 59.20 58.49 57.86 57.18 56.46 56.27 53.90 52.57 49.12 46.79 45.35 46.01 46.91 45.71 45.58 46.33 44.84 45.11 45.78 45.84 45.81 45.12 44.88 43.95 43.89 43.01 43.50 41.12 38.99 41.70 41.62 41.55 42.09 42.01 39.97 38.60 38.70 37.87
65.08 65.23 64.46 60.85 59.16 58.19 57.67 57.73 56.70 55.12 52.71 49.95 47.40 45.79 45.33 45.30 45.60 46.06 46.16 45.66 45.29 44.51 44.49 46.02 45.72 45.87 44.72 44.54 44.50 43.62 43.29 42.79 43.00 40.79 39.56 41.92 40.83 41.18 39.84 39.40 38.35 37.77 37.33
63.59 62.50 62.25 61.06 58.96 58.18 57.54 55.75 53.59 49.66 46.75 45.71 45.96 44.83 44.16 44.83 44.79 44.15 44.18 44.69 44.28 44.31 45.33 46.31 45.17 44.88 44.83 44.51 44.20 44.16 43.35 42.86 42.57 40.66 39.95 39.93 39.68 40.48 38.97 36.02 35.61 37.23 35.37
60.94 60.69 59.96 59.32 59.11 57.56 56.43 55.12 53.50 51.18 49.22 47.15 44.38 43.51 43.29 43.96 43.90 44.13 44.49 44.22 43.27 43.61 45.13 45.34 45.54 44.79 42.01 41.97 43.23 43.75 43.59 42.19 41.20 40.03 38.87 38.65 37.73 37.68 35.82 36.29 34.29 34.49 34.86
57.94 56.97 57.06 56.64 56.02 55.23 54.02 52.15 50.93 49.85 47.89 45.55 43.77 44.63 43.07 43.24 39.96 40.17 42.62 43.86 42.69 42.65 42.64 43.71 44.84 42.67 42.86 38.81 39.19 38.60 40.50 41.48 40.62 39.75 39.01 37.45 37.39 37.26 37.11 35.52 33.90 31.53 28.96
55.01 54.46 54.06 53.48 51.97 51.12 50.16 48.64 47.33 46.26 45.39 43.36 42.87 42.64 42.73 44.09 39.34 39.18 37.88 41.05 39.62 39.95 40.46 41.65 42.72 43.52 41.58 43.49 40.61 37.04 37.06 36.27 36.33 39.21 38.88 38.69 37.75 37.82 36.68 34.43 33.11 31.75 31.00
52.25 51.95 51.91 51.06 49.64 49.20 48.08 46.38 44.63 44.25 43.76 43.90 43.87 44.29 44.82 44.32 39.31 38.40 36.84 39.02 38.98 40.28 42.58 43.02 42.33 42.41 42.48 41.40 42.03 41.50 42.26 42.62 40.88 38.28 37.70 39.82 39.94 38.66 36.72 35.19 33.71 32.31 32.66
49.71 49.66 49.75 49.82 48.52 47.86 46.80 46.62 46.64 46.14 45.61 45.05 45.09 44.15 43.14 43.21 38.36 37.29 37.47 39.86 41.23 40.99 41.41 41.56 41.31 40.96 39.27 38.28 39.45 39.32 40.12 40.85 39.50 37.15 36.83 35.41 31.78 31.18 31.32 34.53 30.67 29.07 29.25
48.65 48.73 49.12 48.90 47.95 46.75 45.22 44.76 44.68 44.85 44.38 44.65 42.95 42.19 39.35 41.67 39.51 37.62 37.89 39.37 38.04 38.77 39.41 40.11 37.51 38.42 36.17 35.79 38.58 38.25 36.94 39.25 39.19 38.91 37.37 34.54 32.87 33.32 30.51 32.08 31.38 28.43 28.76
48.35 48.24 47.59 46.98 45.42 44.99 44.88 44.27 43.27 43.49 43.10 42.74 41.99 42.81 42.06 40.93 40.56 35.81 34.45 36.81 34.02 31.79 33.80 35.72 37.98 35.62 35.36 34.84 35.02 37.33 36.73 38.63 37.21 38.25 37.29 36.42 35.56 34.66 34.28 33.46 32.60 30.62 29.89
46.36 45.48 44.86 44.49 43.52 44.05 43.73 42.92 42.10 41.81 41.13 40.83 40.24 40.08 41.33 41.13 35.07 32.75 32.21 29.83 29.60 30.35 30.55 33.05 34.07 32.68 32.30 32.39 32.72 34.14 34.51 33.18 36.17 36.54 36.99 35.64 34.50 34.66 35.50 35.57 34.90 34.33 34.84
43.70 42.31 41.62 41.66 41.54 41.88 41.31 40.69 40.84 39.89 38.55 37.18 35.94 35.82 36.05 36.60 36.26 32.06 30.48 29.28 29.04 29.16 30.83 30.82 29.72 29.68 30.26 30.66 31.59 31.77 32.84 34.64 34.52 33.27 33.74 35.04 35.34 35.94 35.95 35.32 35.34 35.58 34.81
41.25 40.52 40.15 39.60 38.70 39.21 39.01 37.74 36.85 35.65 34.31 33.23 32.79 32.36 32.42 32.36 32.54 30.28 28.06 28.03 27.44 28.16 28.21 28.88 27.69 27.94 28.83 29.63 30.72 32.96 34.20 33.45 33.44 32.89 33.86 35.52 36.85 35.11 34.01 34.79 32.70 32.91 31.40
38.93 38.08 37.38 36.66 36.52 35.75 34.98 33.62 33.26 30.62 29.02 29.59 29.93 29.55 28.63 27.68 27.24 24.27 24.03 24.75 25.80 25.28 25.15 27.45 29.11 29.76 29.11 30.26 31.23 32.30 33.53 33.83 32.19 33.47 33.14 33.17 34.40 34.45 33.25 33.82 32.68 31.24 29.70
35.98 35.38 34.87 34.83 34.45 34.38 34.02 31.70 26.93 27.17 25.89 25.31 24.40 24.82 26.03 24.71 22.84 22.47 22.96 23.52 23.52 24.07 24.62 25.84 26.88 26.62 25.58 25.72 26.31 27.41 30.09 30.65 30.67 32.42 33.35 33.04 32.48 32.39 31.73 32.08 31.86 30.65 29.38
34.46 33.09 31.40 32.48 32.42 31.56 31.86 31.13 30.88 26.85 26.15 25.49 23.97 22.66 22.05 21.19 21.31 21.37 22.36 22.73 23.28 24.59 24.11 24.20 24.03 23.86 23.68 23.64 24.20 24.92 25.02 27.45 27.13 29.82 32.62 32.81 32.34 32.55 31.49 31.10 30.79 30.17 29.69
30.78 27.63 32.06 31.67 31.07 31.06 30.22 29.33 29.30 27.80 26.54 27.80 25.36 23.59 22.05 21.18 20.47 21.12 22.29 22.52 23.52 23.71 23.03 21.94 21.93 21.89 21.68 21.45 21.97 22.56 23.71 24.65 26.04 25.10 32.86 32.45 32.65 32.22 31.26 30.71 30.83 29.70 29.10
30.74 30.20 30.18 29.63 27.95 26.64 28.03 27.62 27.12 26.20 25.58 24.92 25.81 25.73 24.81 21.00 20.61 22.44 22.56 22.27 20.65 20.34 20.82 20.20 20.38 20.21 20.29 20.38 21.57 22.02 22.63 22.53 23.13 26.09 27.44 32.90 32.28 32.03 31.57 31.44 30.99 30.02 29.41
25.01 23.40 25.32 27.45 26.84 26.13 26.04 25.21 24.49 23.84 23.42 23.26 22.95 22.78 22.42 18.65 18.95 21.69 22.07 21.10 20.20 19.37 18.88 18.33 18.54 18.65 19.11 19.41 20.40 20.79 21.33 20.67 21.56 24.88 23.42 32.09 32.28 32.57 31.59 31.28 30.95 30.12 28.79
26.93 24.52 20.73 25.41 24.65 24.01 23.27 22.61 22.30 22.12 21.55 21.16 21.31 21.33 14.32 15.82 17.81 19.88 19.49 19.40 18.93 17.89 17.51 17.10 17.45 17.81 17.88 18.73 18.73 19.25 18.84 19.37 20.75 21.44 20.22 32.33 31.92 31.20 31.72 32.08 31.56 30.21 29.32
24.42 23.55 23.03 22.18 22.00 21.61 19.99 20.53 20.69 20.05 19.76 19.46 19.79 20.47 17.56 17.77 19.00 18.14 18.33 18.02 17.51 17.51 17.63 16.74 16.29 16.09 16.35 16.42 17.23 17.62 17.14 17.41 19.09 19.01 18.89 21.00 31.50 31.13 31.32 31.18 31.02 30.17 29.16
21.15 20.81 20.58 20.36 19.95 17.53 19.42 19.60 18.95 19.09 18.11 17.72 17.82 17.82 18.08 17.78 16.85 16.45 16.26 16.31 16.25 15.86 15.88 15.38 15.17 14.58 15.30 16.73 16.93 16.97 16.64 17.12 18.38 17.31 17.03 21.19 22.87 31.12 31.61 30.76 30.33 29.78 28.64
19.71 19.84 18.97 18.75 18.77 16.03 17.72 16.89 17.45 16.02 16.12 16.74 16.95 16.94 16.74 16.29 15.99 15.17 15.11 15.42 14.61 14.44 14.83 14.12 12.97 13.22 15.05 15.11 16.44 16.97 17.90 19.05 17.71 17.18 18.49 19.36 20.68 30.99 31.02 30.66 30.44 29.79 28.76
19.58 18.84 17.94 17.41 16.94 16.66 16.08 16.73 16.15 16.21 15.91 15.63 15.39 15.29 15.03 14.79 14.38 14.23 14.20 13.34 12.41 12.57 11.66 11.58 13.53 13.31 13.05 12.94 14.59 16.20 17.32 16.23 17.63 18.60 18.55 19.56 21.67 30.97 30.52 30.16 30.35 29.61 29.28
18.23 17.49 16.81 16.77 16.39 16.11 15.27 14.35 14.19 14.17 13.52 13.67 13.27 13.25 13.19 12.84 12.68 12.53 12.04 11.00 10.83 8.89 9.54 11.50 11.65 11.67 12.57 14.63 15.44 16.36 15.85 17.30 17.91 18.02 18.70 19.50 24.33 28.10 30.38 29.40 30.09 29.51 28.73

GFSGL_sfc_wetblb_039.txt.gz
Wetbulb
60.10 60.45 60.16 60.32 60.75 60.83 59.98 59.08 57.56 54.63 54.30 53.48 54.01 52.00 48.32 47.29 47.93 47.20 46.71 47.44 46.12 46.01 45.85 45.14 44.55 45.09 44.12 44.06 42.21 41.14 39.01 38.01 32.63 33.30 35.11 36.01 34.69 35.30 36.45 36.78 36.66 36.74 36.40
58.32 60.47 60.23 59.57 59.63 58.03 58.14 56.96 55.40 53.45 54.22 54.20 52.83 50.72 48.97 48.12 47.27 46.41 45.82 46.02 45.22 44.87 44.68 44.26 43.80 44.84 43.41 43.62 43.06 40.65 38.14 36.87 34.50 32.33 33.00 34.04 34.50 35.15 35.08 33.48 36.71 37.95 35.33
58.80 60.25 59.86 59.79 60.69 58.24 57.20 56.72 54.93 54.19 53.80 52.28 50.39 49.03 47.66 47.15 46.14 46.02 45.74 45.47 45.36 44.67 44.11 43.57 43.22 42.70 42.12 41.49 40.38 38.87 39.72 40.26 37.62 34.00 33.47 33.89 34.13 35.01 35.33 34.67 34.51 33.93 35.06
60.59 59.41 57.60 56.88 56.56 55.88 55.54 54.35 52.49 51.76 50.73 50.56 49.21 47.89 47.06 46.00 45.90 45.20 45.19 44.61 43.75 44.00 43.91 43.05 42.67 42.28 42.13 41.99 39.76 37.79 37.90 36.58 36.72 37.36 38.05 37.68 35.34 36.00 35.73 34.31 33.18 32.58 33.21
59.12 57.56 56.40 56.08 55.84 54.44 52.80 50.62 48.57 48.36 47.25 46.30 45.59 45.43 45.49 44.98 44.88 44.69 44.82 44.03 42.96 42.52 42.53 42.89 43.11 42.75 41.50 40.36 40.37 39.61 39.10 37.58 37.50 37.73 37.39 37.56 36.22 34.83 32.97 36.34 33.30 36.04 30.30
56.04 55.88 56.29 56.08 55.17 54.30 52.15 49.73 48.36 46.35 45.44 44.83 44.13 44.13 43.67 44.17 40.17 40.66 42.73 42.58 41.82 41.04 40.64 40.39 40.49 41.41 41.22 39.40 39.35 38.75 38.14 36.60 35.09 34.23 34.51 33.61 34.27 33.17 34.01 32.92 32.18 29.66 29.51
53.32 52.80 51.38 50.52 49.00 47.91 48.69 48.85 47.13 44.93 41.65 40.45 40.16 39.70 39.34 39.23 39.25 39.59 39.33 40.01 38.53 36.86 36.04 37.02 40.05 40.97 38.53 38.11 35.42 34.94 34.32 35.26 35.34 33.91 33.12 33.56 33.66 34.62 35.15 33.52 29.73 31.71 30.83
50.00 49.49 49.02 47.77 46.15 44.31 42.79 41.05 40.08 39.80 39.19 38.99 39.30 40.32 39.60 39.33 38.36 38.17 36.93 36.36 35.91 38.05 39.20 39.04 36.26 34.86 33.54 33.16 31.43 29.82 30.20 31.52 32.46 33.63 33.12 33.45 33.91 34.82 34.57 35.33 34.87 33.92 29.93
48.07 47.74 47.08 45.59 43.18 42.15 40.84 39.53 39.57 39.38 38.81 38.84 39.56 39.25 39.12 38.79 38.51 36.80 36.59 36.85 38.81 34.72 33.86 32.27 31.64 30.24 33.46 32.63 28.38 26.48 26.08 25.79 30.01 31.47 32.22 33.02 33.63 33.61 34.63 34.34 33.49 30.45 29.38
46.32 46.03 45.48 44.56 43.60 42.15 41.17 40.46 40.02 39.91 40.15 41.59 40.49 40.67 38.40 38.84 36.37 36.49 34.75 29.38 27.40 26.31 27.61 29.41 30.71 30.15 31.42 30.45 26.34 24.51 23.68 24.38 25.54 26.71 27.72 28.94 30.48 30.52 33.23 33.43 33.76 31.50 30.19
46.18 45.29 44.25 43.56 42.53 42.07 41.34 40.36 39.80 38.76 38.05 36.02 36.43 36.69 33.67 31.02 30.46 31.24 29.84 25.70 25.30 25.82 25.32 24.84 25.22 28.82 28.56 28.47 28.94 26.01 25.98 27.95 28.48 28.04 28.05 28.16 28.63 29.12 30.79 30.86 32.39 33.09 31.40
43.70 43.11 42.74 42.31 42.58 42.00 40.20 39.61 39.94 38.45 35.62 32.78 31.27 29.95 28.91 29.01 29.34 29.04 28.46 27.45 26.60 24.16 24.24 24.10 24.56 26.66 27.18 28.22 27.84 28.82 28.16 26.11 25.53 25.40 25.38 26.76 27.33 28.12 29.67 31.86 30.38 31.41 33.61
42.43 41.80 41.36 41.71 41.49 40.77 38.28 35.38 34.24 33.67 29.58 28.27 29.73 28.95 26.38 26.11 24.16 25.83 25.62 25.42 24.98 23.07 23.93 23.97 25.01 25.73 26.48 25.92 26.77 26.27 24.38 23.33 21.88 20.38 21.02 22.83 23.69 25.34 27.83 30.76 33.48 32.87 31.67
39.67 37.70 36.22 35.07 33.76 32.42 33.60 31.33 28.75 26.39 26.33 27.09 26.41 25.74 24.95 21.97 21.29 21.13 21.96 21.58 23.39 22.87 22.91 21.73 21.55 23.52 22.96 22.77 23.33 23.40 22.92 22.01 20.30 19.24 19.79 20.96 21.76 22.58 24.07 26.87 29.40 30.65 28.78
35.61 34.28 32.91 31.01 28.78 27.29 27.85 25.96 23.98 25.29 26.42 24.20 23.31 24.67 21.42 19.24 21.57 22.37 22.40 22.31 19.81 22.75 16.94 16.48 19.30 20.76 20.53 20.56 20.66 20.54 20.17 19.62 18.11 18.45 18.67 18.82 18.77 19.78 21.81 24.62 26.37 31.33 27.57
32.65 31.16 28.55 27.98 27.62 26.78 25.90 25.08 27.30 27.00 27.14 26.93 26.59 24.79 24.12 23.63 22.94 23.09 23.09 23.42 23.94 24.71 20.34 14.86 11.52 10.93 15.13 17.40 16.89 16.94 16.71 15.91 16.84 17.46 18.20 16.76 16.57 17.51 20.83 21.17 23.91 29.88 29.99
29.56 29.94 28.36 27.65 28.01 27.23 26.18 24.51 22.44 25.40 26.80 26.27 25.51 25.15 24.64 22.59 22.08 22.97 22.93 23.30 23.84 22.49 15.75 15.56 9.32 7.52 11.77 16.18 15.63 15.02 13.82 15.10 16.70 16.21 15.06 15.21 16.20 17.68 17.56 19.09 20.60 28.10 28.45
28.77 28.77 27.89 27.40 27.03 26.40 25.62 26.11 25.38 24.21 22.97 23.08 24.96 23.93 23.54 22.02 22.34 22.70 23.61 23.04 18.70 19.41 18.53 15.41 11.26 11.08 13.98 14.45 13.99 13.15 13.00 13.37 13.48 13.84 13.29 13.85 14.97 15.94 15.21 15.96 16.71 25.28 27.74
27.77 26.76 25.40 24.48 24.67 25.38 25.61 25.58 25.53 24.78 24.13 23.52 23.44 22.52 20.82 20.95 20.95 20.75 22.14 16.30 14.15 15.47 16.31 15.02 11.74 11.79 13.02 12.96 7.76 7.36 9.00 10.89 11.55 10.36 11.61 12.71 13.72 14.15 13.35 14.58 16.37 20.17 27.43
25.40 25.59 25.94 25.41 24.93 24.59 24.18 23.51 22.90 22.54 22.44 21.89 21.49 20.14 18.75 15.90 10.50 9.48 11.77 9.48 10.27 13.64 12.08 13.30 13.45 11.68 7.39 9.01 6.16 5.61 8.54 9.98 9.43 10.29 10.56 11.36 13.30 12.76 12.61 13.71 15.00 14.55 27.53
23.03 23.81 24.14 23.71 22.35 21.94 21.62 20.92 21.03 20.85 20.22 19.74 18.73 15.78 15.23 15.72 14.30 14.21 16.02 10.66 11.40 10.96 6.41 10.57 6.53 2.25 2.30 7.38 8.73 6.84 9.32 8.42 8.93 9.65 10.08 12.07 11.22 11.74 13.43 14.71 15.17 16.13 28.08
22.63 22.11 21.36 20.53 21.34 19.59 18.38 18.91 19.66 18.76 18.64 17.50 17.12 16.01 16.01 13.20 14.99 15.06 13.07 7.58 6.12 7.27 9.79 6.20 3.54 6.11 7.57 6.24 6.75 8.59 7.22 7.16 7.79 9.22 11.43 9.70 11.35 12.84 14.07 14.42 14.84 16.13 24.65
20.93 20.29 19.85 19.69 19.07 17.73 17.86 18.34 16.65 16.36 15.43 15.33 15.42 15.52 15.09 11.58 11.77 12.59 8.98 1.51 5.53 3.44 1.87 0.85 -0.98 1.06 3.46 3.89 7.89 7.54 7.80 8.35 9.88 12.02 10.68 10.19 11.28 12.78 13.77 14.18 15.01 15.88 19.38
19.76 18.71 18.57 18.17 16.64 15.78 14.81 13.04 13.45 14.55 14.89 13.79 11.16 10.85 11.19 8.67 4.19 2.47 4.24 2.62 1.71 -5.26 -6.89 -5.72 -2.39 0.10 6.39 4.66 4.43 7.52 9.95 11.21 12.85 11.85 11.86 11.64 11.67 12.85 14.19 14.99 15.55 17.25 19.40
18.06 16.87 16.26 15.80 13.70 12.58 11.39 12.23 11.44 10.71 10.04 8.49 7.67 6.69 6.61 3.46 1.95 -0.64 -4.18 -2.04 -4.91 -4.91 -4.76 -4.56 -5.80 0.03 0.94 1.45 3.71 6.97 10.22 10.71 10.61 11.42 11.75 11.22 12.67 14.60 14.82 15.56 16.52 18.23 20.64
16.74 15.43 14.18 13.39 11.15 8.97 7.20 5.17 4.42 2.55 2.04 2.09 -0.84 -4.53 -4.35 0.15 -1.13 -6.53 -4.78 -5.08 -2.31 -5.20 -5.66 -6.43 -2.86 -1.37 0.12 5.11 7.01 10.28 7.43 9.11 9.27 10.30 9.78 12.53 13.22 14.01 14.98 15.60 16.89 18.34 22.21

GFSGL_sfc_wetblb_042.txt.gz
Wetbulb
58.43 58.73 58.57 58.67 59.04 58.53 57.93 57.66 56.88 56.84 56.26 54.57 53.21 51.69 50.81 50.54 49.32 48.53 47.83 47.76 47.51 46.96 46.80 46.48 45.52 45.09 44.39 44.07 43.95 43.61 42.12 39.17 36.82 34.78 34.13 35.38 34.07 34.65 35.98 38.73 38.30 37.49 38.26
59.26 59.42 58.60 58.25 57.69 58.28 58.42 57.64 57.32 57.38 57.00 55.72 53.45 53.27 51.05 49.29 48.85 47.42 46.77 47.35 46.43 45.37 45.10 44.67 44.13 44.91 43.27 43.43 43.16 41.99 41.35 40.80 38.22 36.26 33.45 32.91 33.03 34.24 33.84 33.09 37.39 37.63 36.68
58.71 59.50 59.37 59.14 59.07 59.58 59.58 58.26 58.72 58.08 57.30 54.21 53.83 52.08 50.09 49.26 47.66 46.71 46.71 46.11 45.53 45.28 44.78 44.09 43.66 43.12 41.49 41.72 41.60 41.11 39.89 39.43 36.69 32.85 35.84 33.60 33.53 34.25 35.34 36.60 35.02 36.40 37.94
57.49 57.70 58.04 58.38 59.29 59.84 59.78 57.59 56.84 54.86 53.56 52.80 51.29 50.35 48.67 47.39 46.80 46.32 45.69 45.14 44.63 44.59 44.38 43.81 43.19 42.01 41.51 41.32 40.58 39.24 39.05 37.08 37.07 36.40 36.01 35.90 35.30 37.76 35.19 36.77 37.82 37.65 35.62
57.75 57.37 56.83 57.98 59.18 57.83 55.37 54.53 53.20 52.64 51.58 50.53 49.85 48.47 46.70 46.09 45.56 45.21 44.78 44.10 43.70 43.30 43.35 42.70 42.55 42.47 41.49 40.14 40.15 39.17 38.27 37.99 37.94 36.96 35.32 34.97 36.17 35.81 34.73 34.95 34.65 35.49 35.70
58.72 58.64 57.33 56.58 55.90 54.24 52.20 50.11 48.86 48.56 47.71 46.29 45.91 45.11 44.53 44.91 40.44 41.42 43.20 43.29 42.91 41.95 40.91 40.80 40.74 40.66 40.67 37.58 35.46 35.19 34.07 30.56 28.97 28.71 29.36 29.84 30.72 30.87 32.66 32.15 33.31 32.78 31.96
56.06 55.94 55.42 54.50 53.02 51.41 50.25 48.44 47.35 44.83 44.03 43.36 43.52 43.83 42.81 43.26 39.69 40.34 39.98 41.77 40.39 39.33 37.99 38.08 39.32 38.52 35.91 34.25 32.79 32.35 31.53 32.77 32.82 29.23 27.40 27.50 29.11 29.83 32.94 32.51 32.83 33.11 32.09
51.18 50.94 50.62 49.95 49.55 48.88 46.52 44.16 41.44 41.64 41.16 38.92 38.61 39.36 39.38 39.43 38.41 38.14 36.83 36.81 35.46 37.06 37.87 35.62 33.76 32.25 32.88 30.11 28.06 26.51 26.16 26.70 26.23 27.01 24.94 25.73 26.49 28.17 28.38 29.22 28.21 28.91 30.94
48.74 48.17 47.53 46.39 45.04 43.62 41.29 40.22 39.12 39.03 38.48 38.16 39.02 38.16 37.85 37.16 37.45 36.61 35.62 34.79 33.58 31.54 32.19 32.31 30.86 28.55 30.67 30.61 26.66 24.83 24.46 25.29 29.36 30.55 31.06 31.84 31.95 32.22 31.93 29.62 26.89 26.38 24.79
45.39 44.29 43.97 42.87 41.58 39.89 38.97 38.27 38.07 37.91 38.18 38.96 37.76 37.31 36.57 35.25 36.65 36.84 36.36 32.65 28.78 27.75 27.27 27.04 28.73 27.89 28.92 28.33 25.10 24.03 23.94 24.49 25.22 25.30 25.75 27.72 29.55 29.09 31.39 29.61 28.54 26.97 27.39
44.31 43.46 42.75 41.94 40.67 39.92 39.40 39.08 38.26 37.61 36.80 35.50 33.65 32.93 31.95 32.17 31.57 31.74 30.35 26.93 25.69 25.38 24.51 24.44 24.82 26.96 27.13 27.86 28.87 25.92 25.57 24.84 24.39 23.53 22.77 22.69 23.95 25.75 26.13 25.93 27.00 28.06 26.47
42.95 42.13 41.44 41.34 41.44 40.64 39.45 38.97 38.74 37.24 33.50 30.87 28.93 27.63 27.75 27.19 29.20 29.10 28.79 27.20 25.77 24.34 23.91 24.46 24.10 26.04 27.13 27.74 26.58 26.66 26.04 24.16 22.09 20.84 19.85 20.04 20.53 20.93 21.57 22.33 24.11 26.12 29.52
41.60 40.91 40.86 40.75 40.56 39.81 38.16 36.75 35.52 33.62 31.19 29.47 27.31 24.86 23.44 23.20 23.35 25.94 26.06 25.18 24.41 23.11 24.15 23.87 24.50 25.29 25.61 25.26 25.08 24.56 22.42 21.79 19.38 17.02 17.61 18.23 19.42 20.39 21.25 21.30 23.18 24.88 26.70
39.94 38.93 36.88 32.75 31.92 31.35 30.73 31.50 30.12 27.59 27.90 29.00 27.39 24.74 22.51 21.81 21.64 22.57 22.40 22.81 23.46 23.25 23.05 22.56 22.17 23.26 22.77 22.13 22.51 22.31 21.77 20.30 18.45 17.40 16.73 17.77 19.86 18.17 17.76 19.39 19.79 22.24 22.05
34.15 31.79 29.51 29.04 28.36 25.57 24.63 25.48 26.29 26.90 27.25 26.34 25.63 25.58 21.03 19.98 22.34 23.25 23.01 22.70 21.51 23.22 19.63 18.15 20.12 19.41 18.58 18.68 19.32 19.31 18.61 18.03 16.25 16.13 15.32 15.86 15.10 16.03 16.26 18.38 18.78 18.59 18.60
30.21 28.48 27.00 26.33 26.18 25.12 24.45 24.59 28.35 28.13 28.34 27.94 26.77 24.73 24.01 24.25 23.83 23.73 23.33 23.40 24.22 24.05 20.65 16.87 13.29 11.56 14.41 16.32 15.53 15.24 15.35 14.46 14.70 14.67 13.89 13.69 12.74 13.29 13.86 15.94 16.76 16.83 17.62
27.81 27.69 27.16 26.59 25.31 25.17 25.41 24.89 23.11 25.72 27.10 26.82 26.66 25.79 24.32 23.62 23.51 23.52 23.20 23.27 23.40 21.84 17.54 15.68 10.33 9.26 11.97 14.85 13.95 13.19 12.05 12.89 13.90 11.93 11.67 10.72 11.37 12.46 12.77 13.43 14.44 15.78 15.82
28.08 28.14 27.06 26.82 26.68 26.70 26.39 25.13 24.98 24.03 22.98 23.40 24.89 24.55 24.05 23.18 22.60 22.56 23.50 22.98 19.22 19.32 18.20 15.72 13.84 13.80 13.59 13.00 12.63 11.50 11.17 9.38 9.19 10.35 8.86 8.64 10.05 10.37 11.42 11.21 12.83 13.46 14.53
25.51 25.19 25.56 25.45 25.48 25.68 25.67 25.62 25.48 24.74 24.23 23.96 23.57 22.64 22.27 21.31 20.53 20.75 21.11 17.70 16.43 15.48 14.98 14.25 14.00 12.79 12.21 11.78 6.27 2.98 -3.69 3.27 6.92 0.25 6.88 8.42 7.73 9.95 9.62 10.31 12.03 13.07 14.39
25.73 25.76 25.40 24.89 24.57 24.32 24.36 23.56 22.90 22.53 22.06 21.50 21.31 19.47 18.85 17.26 14.15 13.79 14.43 13.18 14.09 13.90 13.14 13.29 12.34 11.11 7.98 7.36 -0.61 -6.41 -2.61 4.86 5.06 6.02 6.68 6.75 8.08 9.40 8.40 9.92 11.50 12.16 13.68
24.20 23.91 23.70 23.42 22.83 22.12 21.27 20.91 21.17 20.54 19.82 19.49 17.77 16.60 16.78 16.67 15.55 15.73 15.80 12.83 12.49 13.03 10.56 10.93 7.68 4.01 1.38 -0.83 4.58 -1.18 4.70 2.96 4.92 6.24 6.30 8.00 8.98 7.78 9.59 10.85 12.27 13.54 14.27
22.08 21.90 21.72 21.05 20.23 18.94 19.01 20.04 19.09 18.73 17.89 16.87 17.02 16.22 16.92 15.22 15.78 14.94 14.40 11.14 9.55 11.71 11.11 5.61 4.29 3.37 2.57 2.18 2.99 3.06 4.39 2.71 4.69 6.71 7.21 8.38 8.90 8.96 9.47 11.06 11.99 12.64 14.17
20.09 19.45 19.95 19.52 18.58 17.39 17.38 17.23 15.81 15.93 15.74 15.08 15.19 14.58 14.04 12.07 11.54 11.34 9.87 6.28 9.60 2.71 0.96 -0.60 -7.72 -3.44 -0.78 -3.18 -2.97 2.83 4.15 5.55 7.07 8.42 8.40 7.54 8.17 8.65 9.36 10.38 12.14 13.07 14.12
18.70 17.86 17.91 17.09 16.47 16.27 15.13 13.73 14.40 13.99 13.18 11.69 10.51 10.45 9.04 7.36 4.69 4.67 2.90 1.15 -3.00 -7.86 -10.05 -11.50 -7.52 -4.09 -1.45 -3.87 -5.35 1.97 6.55 7.83 9.78 8.23 8.07 7.67 7.40 8.09 8.75 11.45 13.20 14.26 14.80
17.13 15.90 14.98 14.43 13.32 12.27 11.04 10.83 9.42 8.00 6.47 5.61 4.30 2.14 2.05 -1.37 -4.08 -9.49 -10.94 -11.30 -7.87 -12.39 -9.42 -8.74 -8.97 -5.59 -4.07 -4.28 -2.70 1.00 5.31 3.68 4.92 7.49 7.66 7.25 6.57 6.92 9.86 11.41 12.67 14.00 14.96
14.22 13.12 12.62 11.85 10.28 9.55 8.59 7.08 5.52 3.39 2.16 -0.64 -4.79 -9.31 -8.59 -8.22 -7.69 -14.93 -12.21 -9.13 -9.68 -9.71 -8.71 -8.84 -6.71 -4.80 -3.94 -1.03 1.95 6.06 0.85 2.41 3.85 5.73 5.89 7.28 7.15 8.59 9.90 10.31 11.17 12.46 14.08

GFSGL_sfc_wetblb_045.txt.gz
Wetbulb
54.21 54.83 55.49 55.77 55.99 56.68 57.02 57.58 56.11 55.45 55.85 56.37 56.07 54.94 53.48 53.60 50.91 50.75 49.34 48.38 48.76 48.01 48.28 48.47 47.29 46.65 44.92 44.53 44.04 43.62 42.42 40.56 38.08 39.78 37.71 37.71 35.45 34.58 35.81 35.39 37.96 37.94 39.03
56.00 56.25 56.69 57.27 57.66 57.56 57.77 57.69 57.27 57.05 57.38 56.25 55.17 53.70 52.08 50.90 50.23 50.05 48.22 48.17 47.89 47.24 47.04 46.73 45.24 45.16 43.70 43.68 43.19 42.21 41.72 41.51 39.07 36.77 37.50 35.94 35.34 34.73 34.29 33.19 35.62 37.85 36.24
56.77 56.71 56.91 57.39 57.65 57.77 58.08 58.29 57.78 58.46 58.01 57.77 57.63 54.74 52.91 51.94 49.82 48.95 48.46 47.68 47.31 46.93 46.04 45.37 44.28 43.66 42.27 41.90 41.65 41.40 40.40 40.08 38.04 35.80 35.91 34.54 33.19 33.24 33.55 34.57 34.44 34.68 36.59
57.28 57.08 56.90 57.54 57.93 58.27 58.41 58.41 58.32 58.08 57.80 57.31 54.64 53.64 52.22 50.23 49.71 48.20 47.36 46.57 45.96 45.69 45.00 44.49 43.76 42.90 41.44 41.31 40.84 39.47 38.98 36.82 36.79 36.39 36.69 35.82 34.80 34.90 35.33 36.20 36.09 36.82 36.94
57.26 57.29 57.50 58.07 58.60 58.44 58.21 58.44 58.16 57.79 57.33 54.43 52.67 51.08 49.63 48.13 47.74 46.84 46.07 45.06 44.32 43.88 43.83 43.68 42.82 42.50 40.90 40.00 39.79 37.30 35.53 33.55 32.27 31.35 30.52 31.64 29.38 28.94 29.07 31.28 32.56 33.81 34.77
56.69 56.89 57.38 55.95 56.45 56.73 56.09 54.36 53.06 51.67 51.09 51.57 49.55 47.60 46.80 47.18 43.68 41.41 43.52 44.05 43.74 43.01 41.90 41.21 41.18 40.31 37.32 36.08 35.75 34.54 32.39 28.43 26.06 25.57 25.92 25.11 24.85 26.11 27.60 27.72 28.11 27.68 26.29
55.86 55.81 55.60 55.43 55.31 53.36 52.22 51.16 49.78 47.94 46.64 46.33 45.76 46.14 45.14 43.71 39.97 40.60 40.25 42.93 42.11 40.82 40.13 38.94 38.66 36.68 34.34 32.55 31.26 30.41 29.55 30.24 30.96 25.95 23.27 22.84 22.94 23.69 25.18 25.15 25.51 25.59 25.15
55.93 55.33 54.79 53.50 50.96 49.83 48.87 47.61 45.11 45.16 44.20 43.66 43.23 43.62 43.36 42.64 39.09 38.81 38.03 39.17 38.49 38.25 37.74 36.36 33.31 32.13 31.47 30.16 27.96 25.77 25.39 25.59 25.98 26.28 23.97 23.94 24.45 26.31 26.32 27.30 27.66 27.65 28.11
51.88 51.50 51.10 50.68 49.02 47.45 45.24 43.40 41.80 41.48 41.09 40.76 41.27 40.70 40.41 39.30 37.60 36.82 37.06 36.64 33.54 31.66 31.77 31.21 30.54 29.83 30.17 29.88 26.04 24.61 24.83 25.71 28.62 29.38 28.91 28.49 28.90 29.08 29.14 27.83 25.91 25.41 24.19
49.23 47.82 48.44 48.21 46.63 44.00 40.97 40.48 38.08 38.33 37.90 38.24 35.97 35.38 36.42 36.06 36.57 36.71 34.96 31.28 28.98 27.53 27.80 27.66 28.94 28.16 27.77 27.45 24.77 24.30 24.17 24.31 23.87 23.44 23.26 24.27 25.08 25.48 27.68 26.42 23.40 19.66 20.22
45.08 44.19 44.32 44.37 42.66 40.12 38.31 38.21 37.17 36.77 35.66 34.64 32.38 32.17 32.64 32.74 33.08 34.08 33.29 30.65 28.64 26.92 25.78 24.99 24.76 26.27 26.71 27.67 28.13 25.32 24.55 22.76 23.04 22.16 21.42 21.24 22.13 22.40 22.68 22.82 22.71 20.79 19.60
42.64 41.24 40.77 40.44 39.89 38.90 37.72 37.41 37.16 35.63 33.22 30.85 28.88 27.39 27.93 28.48 29.82 29.89 28.99 27.87 27.62 25.82 24.36 23.49 23.64 25.85 26.99 27.34 25.40 25.62 24.78 23.07 20.74 19.52 18.61 18.96 18.77 19.19 20.69 21.08 21.16 21.39 22.28
40.88 39.99 39.50 39.18 38.83 38.23 37.04 35.74 33.91 33.50 31.67 29.77 27.92 25.87 24.29 24.54 25.84 27.09 26.65 25.77 25.01 24.26 24.20 24.31 24.72 25.31 25.81 24.78 24.12 23.47 22.21 20.85 18.35 15.61 16.17 16.67 17.55 19.16 20.06 19.38 20.34 20.49 21.30
39.15 37.03 35.32 33.30 31.14 31.47 31.27 32.63 31.41 31.66 30.86 28.56 26.75 24.64 22.82 22.12 21.90 22.18 22.89 22.92 23.99 23.50 22.85 23.27 22.91 23.84 22.28 21.80 21.62 21.30 20.47 19.27 17.22 15.83 15.38 15.96 17.53 16.82 15.81 17.11 15.70 17.15 16.90
32.62 31.40 29.48 28.09 27.83 27.09 27.30 28.28 27.55 27.70 29.65 27.86 25.66 23.98 21.33 20.55 21.90 23.35 23.24 23.24 23.13 23.67 21.51 21.20 18.78 18.58 17.78 18.25 18.52 18.06 17.63 16.66 15.35 14.95 13.88 13.48 13.64 13.47 13.37 15.15 15.36 15.49 13.49
29.34 28.51 27.00 25.91 25.35 25.30 24.73 24.91 28.76 28.97 29.13 28.90 27.82 25.79 24.62 24.76 24.81 24.32 24.27 24.28 24.47 24.16 20.73 16.81 12.54 10.80 14.72 15.87 15.10 14.65 14.59 13.91 13.57 13.08 12.05 11.94 10.44 9.82 10.65 12.05 13.88 12.69 11.98
27.86 27.47 26.32 26.14 25.38 24.28 24.36 24.22 22.45 25.69 27.64 26.96 26.34 25.69 25.12 24.62 24.50 24.30 24.08 23.77 23.31 21.54 17.30 15.10 10.07 10.61 12.77 14.52 14.15 12.94 11.92 12.51 12.03 10.99 10.11 9.13 8.01 8.88 8.85 9.57 11.29 11.40 11.35
28.14 28.21 27.39 27.09 26.61 26.01 25.42 25.37 25.33 23.95 22.60 23.23 25.66 25.00 24.82 24.17 23.35 23.30 23.66 23.32 19.22 19.15 17.96 15.16 13.56 14.01 13.30 12.66 12.15 11.00 10.33 9.13 7.89 7.89 7.29 4.84 4.45 7.36 6.90 8.36 9.20 8.51 10.03
26.36 25.84 26.18 26.10 26.12 26.14 26.05 25.79 25.51 25.17 24.68 23.57 23.39 23.20 23.55 22.84 21.87 22.09 21.46 18.87 17.20 16.05 15.64 15.00 14.37 12.59 11.91 11.28 9.55 7.56 4.29 1.97 0.92 -1.63 -1.32 1.82 0.09 5.47 5.94 7.90 7.90 8.57 9.66
25.61 25.60 25.34 24.92 24.43 23.92 24.11 23.52 23.15 22.81 22.12 21.98 21.42 19.91 18.99 18.20 15.21 14.72 14.55 14.07 14.85 14.84 14.28 13.73 12.64 11.48 9.58 8.79 4.69 0.76 -1.46 -2.20 -1.27 -1.19 0.23 -3.43 -0.42 5.87 6.72 6.89 7.52 7.66 9.55
23.46 23.28 22.95 22.21 21.28 20.95 20.90 20.60 20.40 19.90 19.55 18.63 16.90 17.35 17.76 16.98 15.88 15.66 15.69 13.63 13.38 13.27 11.59 11.14 9.58 7.40 5.09 3.83 5.15 0.87 -1.26 -1.26 0.57 1.87 3.19 4.83 4.74 5.71 7.62 7.72 7.90 9.25 10.89
21.58 21.19 20.15 19.11 19.19 18.90 19.23 18.58 18.03 17.65 17.07 16.55 16.69 16.70 16.15 14.95 14.35 14.16 12.88 9.63 9.13 10.90 10.07 6.94 5.10 4.31 3.56 1.45 -0.55 -7.42 -3.27 -5.25 -3.46 2.48 3.96 5.42 6.49 6.46 6.52 6.70 7.00 7.83 10.21
19.55 18.71 17.92 17.61 17.70 17.24 16.07 16.15 15.77 15.48 14.53 13.84 13.57 12.40 11.72 9.50 9.18 9.29 8.63 6.72 7.60 4.84 2.60 1.24 -3.88 -3.87 -3.02 -6.36 -7.25 -4.55 -1.49 2.02 4.10 5.41 4.69 3.81 4.98 5.27 5.52 5.41 6.14 7.55 10.44
17.09 16.56 16.52 15.41 15.18 14.60 13.85 12.65 12.78 12.41 11.26 8.75 6.49 6.51 5.50 3.71 0.83 0.49 -2.01 -6.15 -6.51 -8.69 -11.25 -12.33 -8.21 -5.49 -4.17 -7.00 -8.73 -4.45 2.15 4.50 5.57 2.21 1.81 4.26 3.82 5.03 4.65 5.14 5.93 9.22 10.48
14.89 14.06 12.66 11.50 9.82 8.79 7.83 7.29 5.56 5.08 5.45 3.87 0.51 -1.31 1.63 -1.13 -3.84 -10.68 -15.40 -13.95 -11.59 -13.77 -7.78 -9.54 -11.61 -8.56 -7.22 -7.34 -6.63 -4.93 0.49 -1.32 -2.64 1.01 3.36 3.69 2.81 3.33 4.20 6.44 6.49 8.31 9.27
11.18 9.93 8.95 8.53 6.93 6.08 4.11 1.69 -0.57 -2.05 -3.25 -4.34 -7.06 -8.69 -4.54 -6.33 -9.23 -16.67 -14.31 -12.50 -12.13 -12.13 -11.98 -11.28 -9.17 -7.53 -6.96 -4.94 -2.42 2.66 -3.88 -2.98 -2.41 0.57 1.97 1.97 2.86 3.45 4.48 5.35 5.56 7.03 8.27

GFSGL_sfc_wetblb_048.txt.gz
Wetbulb
51.50 51.86 52.39 52.86 52.55 52.83 53.20 54.48 55.12 55.27 55.25 54.94 55.75 56.05 56.29 56.21 56.13 55.61 54.78 51.93 51.61 52.00 50.88 50.03 48.99 49.00 47.91 46.19 44.58 43.92 42.10 41.26 38.77 40.64 40.17 39.52 38.23 39.44 39.51 38.97 38.62 38.51 39.53
51.52 51.69 52.34 53.39 54.60 54.22 54.18 54.97 55.50 54.90 55.86 56.08 56.01 55.83 56.49 56.19 53.42 52.55 51.31 50.57 50.83 49.71 49.02 48.71 47.15 47.58 45.69 45.15 44.14 42.87 42.61 42.31 40.23 37.83 38.66 37.55 37.43 39.17 37.11 35.80 37.61 37.95 38.13
52.10 52.37 53.03 53.24 54.21 54.44 54.75 55.50 55.60 55.27 56.24 56.37 56.57 56.25 55.67 52.30 50.91 50.83 50.14 50.01 48.96 48.44 47.53 47.10 45.91 45.32 43.59 43.26 42.64 41.76 41.53 40.69 38.70 36.62 36.22 36.66 35.40 35.43 35.65 36.20 36.43 37.19 37.91
53.02 53.15 53.00 53.51 54.20 54.67 55.39 55.49 55.73 56.46 56.20 56.79 57.16 56.92 56.47 52.07 50.61 49.86 49.76 48.50 47.56 47.02 46.61 46.56 45.56 44.54 42.94 41.90 41.63 40.24 39.29 37.89 37.43 36.55 36.93 36.94 35.08 35.33 34.35 33.00 32.23 34.26 33.78
53.97 53.64 53.86 54.73 55.45 55.48 55.69 56.09 56.85 56.88 56.84 57.48 57.16 55.43 52.56 51.46 49.66 48.79 48.09 47.04 46.17 45.00 45.06 44.68 44.24 43.14 41.54 41.30 40.17 38.29 37.08 35.55 33.98 32.45 31.30 30.39 28.95 28.93 27.86 29.98 27.24 27.96 29.17
55.18 54.83 55.23 55.34 55.70 55.91 56.07 56.17 56.84 57.02 57.29 57.05 55.15 51.41 50.00 49.48 43.78 43.89 45.87 46.05 45.07 43.98 42.17 41.56 41.45 39.79 37.73 36.42 36.16 34.82 34.20 31.57 29.27 28.34 26.92 25.26 24.84 25.49 26.72 25.79 25.54 24.98 23.83
54.92 55.36 55.51 55.57 55.59 55.95 57.03 57.09 56.47 55.41 52.61 51.53 49.55 48.98 47.89 47.73 41.42 41.86 42.70 44.26 43.01 41.98 40.85 39.89 38.47 36.21 34.25 32.81 32.01 31.14 30.31 30.70 29.61 26.45 23.72 23.98 23.81 24.96 25.27 24.46 24.82 24.75 24.41
53.51 53.58 53.89 54.60 55.55 55.53 53.44 52.55 49.07 48.79 49.37 46.97 46.28 46.10 44.83 43.24 40.23 39.56 38.62 40.87 39.57 39.14 39.11 37.26 34.33 32.23 31.88 30.44 28.67 27.29 26.32 26.40 26.76 27.08 25.59 25.64 26.18 26.87 26.92 27.56 27.34 26.58 27.14
53.19 54.53 54.63 53.99 50.71 50.02 48.63 47.22 46.15 46.19 45.34 44.49 43.72 43.17 41.69 39.62 37.81 37.18 37.91 35.96 33.25 31.61 31.90 32.24 31.34 30.09 30.77 30.27 27.16 25.37 25.55 26.43 28.82 28.40 27.46 27.28 27.16 26.82 26.78 26.20 24.44 22.66 19.79
52.21 51.27 51.07 50.40 49.01 47.26 44.17 42.76 41.59 41.49 39.38 38.79 36.90 37.65 37.55 36.75 36.63 36.34 35.05 32.79 29.87 28.13 28.33 28.83 29.59 28.14 28.24 28.24 26.22 25.81 24.80 24.74 23.93 23.62 23.59 23.72 24.16 24.39 25.60 24.67 22.95 18.81 18.78
48.28 48.14 47.54 46.76 44.55 42.11 40.45 40.13 39.07 36.92 34.73 32.92 31.58 31.56 32.31 33.95 34.08 34.82 34.24 32.07 29.49 27.64 26.24 25.31 26.05 27.31 28.19 29.02 28.16 26.31 24.68 23.53 22.92 21.76 21.31 21.41 22.02 22.34 22.19 22.96 22.82 20.82 18.81
44.32 43.16 41.98 41.40 40.87 40.03 39.01 38.25 36.70 34.29 31.90 30.18 28.69 27.50 28.29 28.75 30.24 31.37 31.17 30.26 29.54 27.09 25.29 24.28 25.77 27.38 28.01 27.77 25.68 25.42 24.33 22.74 21.13 19.69 18.35 18.56 19.09 18.90 19.77 20.96 21.51 21.56 21.98
42.44 40.27 39.51 38.77 38.61 38.58 36.74 35.78 34.12 32.98 31.21 29.97 28.45 26.32 25.06 26.14 26.40 27.64 27.53 27.25 26.63 24.62 25.17 25.62 26.33 26.81 26.60 24.58 24.24 23.55 22.63 20.55 18.80 16.56 15.98 16.64 17.18 18.29 19.57 19.04 19.67 19.84 20.24
37.51 35.40 34.41 33.94 32.92 32.60 32.68 33.79 33.29 31.67 30.27 29.46 27.96 25.52 23.86 23.22 23.33 24.04 23.95 24.54 24.62 24.02 23.58 23.86 24.01 23.41 22.36 21.92 21.69 21.20 20.19 18.94 16.91 15.85 15.40 15.81 16.57 16.30 15.27 16.25 15.66 16.09 15.98
32.70 31.44 30.57 29.93 29.37 27.93 27.81 29.16 29.98 30.84 31.99 30.13 27.91 25.84 23.43 22.17 22.38 23.94 23.85 23.06 23.56 23.34 22.42 21.35 19.88 19.18 18.47 18.67 18.70 18.08 17.62 16.73 15.09 14.97 13.64 13.19 12.88 12.81 12.23 14.03 14.02 13.67 12.76
30.07 29.60 28.96 28.36 27.98 28.03 27.28 26.24 29.90 30.14 29.76 28.51 27.53 25.96 25.24 25.46 25.75 25.55 25.56 25.53 25.43 24.35 21.04 17.95 15.50 15.14 15.54 16.29 15.67 15.16 14.88 13.99 14.02 12.84 12.05 11.51 10.52 9.56 9.79 11.27 11.75 11.18 10.76
27.91 27.54 27.11 27.18 26.30 25.61 25.25 24.74 22.56 25.97 28.22 28.07 27.65 27.04 26.21 25.53 25.51 25.19 24.87 24.70 23.61 21.86 18.48 16.05 13.93 13.82 14.30 15.17 14.74 13.82 12.36 12.95 12.53 10.53 9.76 9.74 8.90 7.93 8.24 8.29 9.10 10.13 9.60
27.69 27.80 27.02 26.36 26.33 26.10 25.36 25.02 24.99 23.72 22.43 23.47 26.14 25.63 25.53 25.21 25.13 25.17 25.20 23.92 20.00 20.20 17.99 15.62 14.46 14.60 14.47 13.87 13.24 11.70 10.60 9.60 8.43 7.85 7.85 7.66 5.83 5.91 5.92 6.06 7.37 7.61 8.23
27.08 26.59 26.54 26.35 26.58 26.40 26.36 25.99 25.77 24.69 23.21 22.32 22.91 22.71 23.24 24.01 23.54 23.10 22.39 19.84 18.20 17.35 17.05 16.28 15.19 13.82 13.17 12.18 10.58 8.88 6.83 5.14 5.15 3.72 4.15 3.63 2.69 3.36 4.09 5.53 7.17 6.60 6.77
25.01 24.92 24.83 24.21 23.77 23.59 23.60 23.02 22.61 22.13 21.83 21.49 20.18 18.72 18.94 18.46 15.97 15.83 15.83 15.84 16.16 15.76 15.17 14.84 13.52 11.96 10.10 8.91 6.96 3.90 2.19 3.95 4.33 4.08 3.82 0.18 -0.49 1.87 4.40 5.72 6.68 6.11 7.57
21.88 21.51 21.38 21.09 20.74 20.62 20.47 19.77 19.90 19.21 17.95 17.05 16.06 17.42 17.85 17.24 16.27 15.54 14.91 13.25 13.17 12.80 11.12 11.06 9.45 7.07 5.63 4.32 5.45 3.39 1.91 0.75 1.00 1.29 1.55 2.45 0.04 3.58 6.12 6.68 6.37 7.13 7.85
20.12 19.57 19.17 18.66 18.48 17.39 17.23 17.34 16.78 16.39 16.37 15.69 14.32 13.06 13.03 12.61 12.18 11.38 9.57 8.07 8.44 9.55 8.44 4.90 3.58 3.83 3.88 2.18 0.73 -4.09 -3.55 -5.53 -4.29 -0.72 1.45 3.13 4.68 4.28 4.55 5.20 5.15 5.65 6.20
17.72 17.09 17.16 16.84 15.95 15.13 14.78 14.62 13.56 12.69 11.68 11.36 11.07 10.50 9.77 6.69 6.17 6.99 3.73 -3.55 1.53 -0.74 -1.73 -2.01 -6.84 -3.23 -0.91 -4.44 -6.21 -5.13 -4.29 -1.26 1.76 3.84 1.48 0.79 1.77 3.33 3.54 3.37 4.41 4.46 4.92
15.93 15.29 14.46 13.42 12.80 11.36 9.60 8.48 9.13 8.45 7.75 4.52 0.37 -0.14 -2.28 -6.26 -9.52 -9.34 -12.06 -13.87 -11.88 -14.06 -16.06 -14.61 -9.08 -6.73 -5.06 -6.83 -7.66 -4.98 -1.65 0.58 3.71 1.30 0.33 0.48 1.21 2.34 3.14 3.24 4.03 4.27 5.71
12.10 10.57 9.22 7.89 6.74 5.03 3.00 1.51 -2.13 -6.08 -6.80 -9.52 -10.43 -9.70 -2.47 -4.46 -8.99 -17.32 -19.13 -16.95 -14.60 -16.95 -11.75 -13.36 -13.53 -9.60 -7.76 -8.64 -8.10 -6.69 -4.88 0.36 -1.63 -2.74 -0.04 1.03 0.77 0.78 1.62 3.30 3.78 4.73 5.03
7.54 5.90 3.72 2.31 -0.78 -3.06 -7.00 -10.43 -14.96 -15.87 -15.50 -16.05 -16.41 -13.69 -11.88 -12.60 -12.42 -18.59 -16.59 -14.42 -12.06 -11.17 -10.30 -10.83 -9.15 -8.60 -8.38 -6.10 -4.39 -1.72 -1.64 -4.90 -5.75 -3.84 -1.02 -0.09 -0.28 0.70 2.43 2.61 2.54 3.97 4.67

GFSGL_sfc_wetblb_051.txt.gz
Wetbulb
56.20 56.70 56.77 56.36 56.47 56.49 55.58 55.61 55.87 56.08 55.76 56.48 57.60 58.29 58.53 58.78 59.30 59.11 59.33 58.84 55.38 55.86 55.87 54.08 53.74 53.75 51.48 50.80 49.86 47.23 46.12 45.64 44.07 42.20 43.79 43.42 44.03 45.76 44.03 44.75 44.79 46.17 46.50
55.91 56.01 55.84 56.35 56.11 55.72 55.55 56.26 56.81 56.41 55.51 55.72 56.71 57.63 57.95 58.53 59.15 58.13 57.64 55.76 54.58 53.94 53.70 51.97 52.04 50.70 50.17 49.16 47.54 45.45 44.48 44.72 42.63 40.99 43.63 41.13 40.16 41.63 42.17 44.72 44.26 44.30 45.48
55.17 55.41 55.66 55.61 55.60 55.01 55.62 56.24 56.98 57.07 57.17 57.88 57.38 57.27 57.57 56.97 57.89 57.88 57.35 53.90 52.81 54.13 54.22 52.29 50.54 49.13 47.82 46.18 45.35 44.86 43.54 43.27 42.08 39.47 38.74 39.42 39.90 40.59 42.90 43.18 42.71 42.60 42.08
54.85 54.99 54.88 55.31 55.48 56.09 56.54 56.77 57.17 57.37 57.44 57.98 58.27 58.17 58.31 57.54 57.52 55.86 55.31 56.12 54.97 53.66 52.93 49.79 48.58 47.76 47.02 44.29 43.65 42.82 41.44 39.64 39.29 38.65 37.99 38.38 39.06 41.65 39.95 38.66 37.39 37.91 35.80
54.65 54.57 54.58 55.43 55.95 56.35 56.94 57.45 57.51 57.49 57.76 58.34 58.40 58.55 58.89 58.23 55.67 54.75 53.71 52.41 51.78 49.44 48.44 47.40 47.13 46.06 43.11 43.14 42.62 40.93 40.17 38.45 37.94 36.11 34.86 34.33 36.42 35.06 35.66 35.71 32.51 33.31 34.12
55.76 54.92 55.60 55.95 55.85 56.31 56.57 56.92 57.64 57.74 57.72 58.19 58.03 57.89 57.59 56.36 48.16 45.62 49.62 51.30 50.25 46.75 44.55 43.11 42.97 41.07 39.14 37.88 37.50 37.14 39.36 36.12 33.09 32.50 33.66 34.22 35.30 32.54 33.26 31.61 30.60 29.82 29.18
56.36 56.39 56.44 56.77 56.45 56.90 57.00 56.80 57.21 57.81 58.36 58.28 57.96 57.05 55.42 54.16 43.63 43.45 42.36 47.64 46.39 45.16 42.05 40.44 38.81 37.41 36.92 35.25 33.02 32.32 31.73 31.04 32.22 33.49 32.24 31.96 30.28 32.33 31.03 29.90 30.33 29.75 29.58
56.81 57.00 57.16 57.08 56.71 57.19 57.17 57.19 57.79 57.82 56.87 55.20 53.03 51.02 49.01 46.41 41.09 40.33 40.55 43.65 42.38 41.81 41.40 39.45 36.59 34.76 33.91 31.95 29.77 28.40 28.09 28.73 28.72 30.30 31.65 32.22 32.56 31.52 30.53 29.83 29.29 29.42 30.86
56.07 56.60 57.02 57.38 57.15 57.05 56.46 52.60 49.35 48.29 46.37 45.28 45.27 45.05 44.08 40.88 38.79 38.01 38.84 37.45 35.22 34.64 34.93 34.64 33.40 32.15 32.45 32.23 29.21 27.46 27.66 28.26 30.04 28.60 27.69 26.75 26.17 26.22 27.05 29.07 27.62 26.43 25.48
54.91 55.85 56.53 56.58 53.56 51.76 48.36 45.90 43.39 42.50 39.95 38.87 37.45 38.61 37.69 37.82 36.97 36.85 36.63 34.13 31.56 30.40 30.63 30.50 30.60 30.05 30.22 29.46 28.51 28.23 26.79 28.01 27.48 28.33 28.60 27.27 26.18 27.03 24.81 27.20 26.87 23.57 23.73
52.68 52.39 52.01 51.62 48.50 44.79 42.30 41.56 39.43 36.87 35.09 33.42 32.19 32.54 34.03 35.39 35.62 35.87 35.55 33.48 30.48 28.87 27.45 26.59 27.88 29.03 29.61 29.13 29.21 28.51 27.23 28.20 25.04 26.16 25.77 25.24 25.62 25.76 25.47 25.47 25.86 24.51 22.84
46.88 45.29 44.07 43.43 43.86 42.01 39.64 37.83 36.41 34.58 32.18 30.72 29.59 28.54 29.07 30.57 32.71 32.77 32.40 31.74 31.24 28.15 25.92 26.40 27.74 29.09 29.35 27.86 27.88 26.26 24.86 25.16 25.40 23.84 22.42 22.39 22.83 22.65 22.90 23.45 23.76 23.82 24.55
42.56 41.53 42.22 41.84 39.45 39.10 36.76 35.22 33.94 33.60 31.94 30.66 29.24 27.17 26.25 26.97 27.52 29.29 29.36 28.56 27.68 26.09 26.76 27.41 28.28 28.28 26.80 25.81 25.09 24.31 23.23 23.78 22.90 21.62 20.82 21.31 21.24 21.46 21.69 21.80 22.08 22.22 22.90
38.62 37.19 36.60 35.37 34.67 35.19 35.27 34.55 33.33 32.39 31.45 30.28 29.22 26.66 25.59 25.14 24.77 25.46 25.75 26.25 26.27 26.45 26.46 26.67 25.50 24.80 24.53 23.83 23.67 22.97 22.68 22.15 20.32 20.16 19.84 19.75 19.96 19.18 18.61 19.24 17.80 19.11 18.88
34.88 34.03 33.35 32.45 31.13 30.20 30.40 31.55 31.65 32.82 34.50 33.04 30.44 28.54 26.73 24.30 23.98 25.36 25.05 24.73 24.99 24.80 25.12 25.21 24.01 23.05 21.94 22.16 21.58 20.82 20.91 20.20 19.47 19.29 17.72 16.79 16.38 16.65 16.05 16.94 16.86 17.58 16.18
34.27 33.72 33.09 32.51 31.89 30.77 29.05 27.81 30.19 29.81 29.26 28.66 27.81 26.83 26.39 26.93 27.45 27.56 27.16 26.24 25.09 24.09 23.12 21.54 20.26 20.67 20.49 20.44 20.30 19.69 18.91 17.23 17.08 16.18 15.07 14.51 14.14 14.46 13.91 15.29 15.99 15.56 14.91
31.09 30.62 29.96 30.00 29.41 27.95 26.95 25.73 24.05 26.89 28.62 28.45 28.19 27.94 27.31 26.99 26.47 26.08 25.42 24.76 23.51 23.42 22.11 20.49 19.74 18.90 18.79 18.68 18.36 17.41 15.94 16.05 14.72 13.78 13.16 13.31 13.57 13.24 12.29 13.05 13.89 14.01 14.11
28.12 28.38 28.09 27.39 27.14 26.68 26.31 26.19 26.56 25.58 24.89 25.37 27.19 26.87 26.97 26.96 26.64 26.62 25.25 24.16 22.31 21.68 20.66 19.59 18.42 18.11 17.38 16.89 16.43 15.21 14.43 13.50 12.64 12.14 11.87 12.17 11.85 11.41 11.28 11.61 12.37 12.19 13.37
27.42 26.77 27.08 27.14 27.49 28.15 28.36 27.77 26.74 25.86 24.51 23.08 22.77 22.72 23.96 24.30 23.73 22.97 22.65 22.07 20.77 19.75 19.28 18.70 18.09 16.81 16.14 14.99 14.37 12.88 11.75 11.28 10.63 10.22 10.72 10.31 10.68 10.56 10.18 10.87 11.47 10.01 10.60
24.77 24.72 25.16 25.78 25.27 24.55 24.92 24.96 24.46 24.00 23.54 22.26 21.00 20.30 21.24 21.27 19.86 19.26 19.42 19.56 18.54 17.71 17.49 16.56 15.51 14.63 13.70 12.95 12.19 11.64 11.18 10.80 10.65 10.49 10.06 9.77 10.08 10.23 9.50 9.68 10.50 10.41 10.91
23.70 22.70 22.14 21.83 21.51 21.72 21.73 21.02 20.85 20.13 19.50 18.79 17.81 18.22 17.61 18.48 16.99 16.67 15.79 15.46 15.19 14.38 13.64 13.59 12.91 12.00 11.90 11.16 10.55 9.73 8.45 8.23 7.87 7.72 7.96 8.32 8.56 8.15 9.56 10.13 10.01 10.40 10.71
21.75 20.75 20.25 19.70 19.76 19.75 19.73 19.52 19.19 18.60 17.65 15.91 15.33 14.66 14.33 15.56 14.74 13.69 12.88 12.47 12.58 12.09 12.04 10.64 10.17 9.66 9.13 7.87 7.11 6.43 5.26 4.85 5.79 6.67 6.92 7.01 7.65 8.01 8.06 8.60 8.75 9.27 9.73
20.02 18.93 18.43 17.69 17.24 16.36 16.54 16.27 15.60 14.83 13.91 13.83 13.53 12.66 12.48 11.88 11.33 10.81 9.42 9.25 9.63 8.93 8.08 7.86 6.86 5.49 6.74 5.72 5.41 5.03 3.59 3.83 5.12 5.76 5.73 5.48 5.65 6.40 7.20 7.09 7.71 7.96 8.56
17.30 16.57 14.97 14.16 13.76 13.41 13.11 12.74 11.78 10.25 10.88 10.98 10.99 10.34 9.62 8.66 8.12 6.81 6.42 7.02 6.90 6.85 5.82 4.44 3.91 2.48 2.51 2.60 4.11 4.47 4.48 4.37 4.94 5.78 4.07 3.42 3.78 5.11 6.33 6.24 7.00 7.32 8.08
13.47 12.44 11.43 10.91 10.36 9.87 9.31 8.57 8.30 8.49 8.17 7.91 7.75 7.51 7.04 7.29 6.35 6.03 5.34 4.21 2.66 3.48 3.15 2.47 2.31 1.98 1.37 -0.34 -0.11 0.35 0.96 0.75 2.29 1.05 2.45 3.10 3.05 3.58 4.26 5.20 5.93 7.18 7.34
9.96 9.26 9.09 8.89 7.98 7.77 7.12 6.03 5.30 5.27 4.85 4.78 4.91 4.87 4.71 4.63 4.67 3.75 2.66 2.03 1.47 1.22 1.09 2.18 1.66 -0.06 -0.72 0.56 1.09 0.39 -1.65 -2.60 -1.43 -1.96 -0.47 1.98 2.61 3.55 4.80 4.82 5.28 6.20 6.91

GFSGL_sfc_wetblb_054.txt.gz
Wetbulb
60.24 60.61 60.70 61.35 61.61 61.68 61.92 61.72 61.53 61.72 61.58 61.01 61.29 61.11 60.72 61.19 61.29 61.22 61.41 61.43 61.02 61.34 61.32 60.12 59.15 58.60 56.90 54.75 54.26 52.35 50.66 50.24 48.18 45.05 44.93 45.22 44.25 45.46 44.22 45.47 48.23 49.16 49.36
60.33 60.20 60.84 60.79 60.82 60.79 61.23 61.46 62.17 61.63 61.36 61.41 61.36 60.99 60.41 61.24 61.39 60.98 60.20 60.06 60.02 59.81 60.00 58.73 56.69 54.40 53.49 53.01 52.42 51.03 49.91 49.18 47.58 44.14 44.46 42.19 43.73 43.76 44.22 44.38 45.18 47.31 49.00
60.40 60.07 60.06 60.24 60.69 60.95 60.81 60.46 60.47 60.11 60.24 60.11 59.77 59.50 58.76 59.92 59.48 59.65 58.15 60.20 60.22 59.59 59.81 56.94 55.05 55.56 53.17 52.61 50.09 48.09 47.21 46.01 46.17 42.86 42.16 41.56 44.08 41.63 42.75 44.20 45.65 48.19 47.56
60.46 59.91 59.56 59.97 60.56 60.63 60.46 60.32 60.53 60.07 59.32 59.47 60.00 59.53 59.77 59.26 59.18 59.24 58.79 59.42 59.52 59.42 59.42 57.84 57.92 55.58 53.20 49.71 47.15 46.27 45.16 43.10 41.83 40.79 41.56 39.24 40.17 41.12 41.93 40.83 41.58 45.27 43.44
60.09 59.58 59.85 60.74 60.08 59.91 59.62 59.64 59.73 59.81 59.54 59.43 59.70 59.65 59.89 59.77 59.63 59.83 59.88 59.72 59.08 57.51 56.35 56.32 57.04 52.45 46.58 47.01 45.96 44.34 42.77 40.63 39.47 39.43 38.49 39.21 38.36 37.78 36.94 40.74 39.21 40.57 40.13
59.71 59.55 60.07 59.87 59.74 59.59 59.44 59.65 59.32 59.39 59.33 59.58 59.28 59.37 59.69 59.55 50.06 47.42 53.69 57.91 56.74 55.23 50.73 49.49 48.96 45.26 42.88 40.70 41.48 41.15 41.58 40.89 40.02 39.43 38.95 35.53 35.70 37.13 38.34 37.47 37.88 35.46 33.76
59.69 59.65 59.70 59.66 58.98 59.20 59.45 59.05 58.90 59.34 59.94 59.37 59.32 59.41 59.30 60.39 44.61 45.16 45.34 56.88 53.64 51.53 47.55 44.15 42.90 41.48 39.98 37.97 35.44 34.25 32.90 33.11 36.29 38.34 36.08 35.65 35.67 37.25 36.43 36.30 35.18 34.68 34.21
59.81 59.40 59.37 59.17 58.85 59.21 59.00 58.54 58.83 59.36 59.46 59.72 58.77 58.97 58.41 58.30 44.43 44.25 41.89 48.92 45.87 44.91 43.35 41.93 38.97 37.71 36.86 34.94 33.40 31.19 31.43 31.09 30.65 30.90 32.60 33.89 34.25 35.28 35.34 34.66 33.60 33.09 33.82
59.94 59.69 59.98 59.94 58.87 59.25 58.80 59.21 59.69 58.79 58.21 54.87 53.59 52.49 50.91 46.12 41.33 39.69 42.00 41.11 38.86 37.26 37.97 37.39 35.86 33.56 33.92 33.93 30.55 28.79 28.26 28.41 29.85 29.35 28.36 27.90 27.13 26.43 27.65 31.26 30.48 29.85 29.49
59.27 59.71 60.53 60.22 59.76 59.51 59.60 59.02 52.89 49.47 42.19 40.29 38.36 39.36 38.65 38.85 37.96 38.67 38.51 35.52 33.24 31.46 31.08 32.19 33.22 32.33 31.73 31.89 30.35 29.37 27.93 27.79 27.33 27.54 27.62 26.69 27.30 29.13 25.85 28.92 30.07 27.16 27.89
58.34 58.45 59.17 59.93 59.06 56.22 51.38 46.30 41.72 38.28 36.27 34.45 33.24 33.93 35.04 36.28 36.20 36.24 36.08 33.85 31.68 30.29 29.27 29.04 30.13 31.22 30.92 30.80 30.63 30.40 29.68 29.58 26.51 29.01 29.96 30.71 30.23 30.01 29.95 29.76 29.41 28.31 26.70
54.47 52.13 50.14 48.57 46.28 44.97 42.09 40.09 39.78 36.45 34.36 32.33 31.04 29.98 30.96 32.33 33.19 33.60 33.17 32.24 31.41 28.75 27.37 28.52 30.09 30.59 29.81 28.96 27.96 27.33 26.78 28.34 29.72 28.97 28.00 26.68 27.31 27.65 28.03 28.25 28.31 28.26 28.64
45.57 43.64 42.04 41.21 40.44 40.28 40.90 38.73 35.46 34.67 32.85 31.05 29.19 27.63 27.02 28.15 29.24 30.85 30.43 29.59 28.90 27.81 28.57 29.46 30.37 28.83 27.73 26.98 26.31 25.20 25.57 27.66 26.59 25.70 25.47 25.29 25.80 26.14 25.68 25.82 26.83 26.67 25.99
39.31 38.27 37.79 37.25 37.38 37.57 36.60 35.86 34.27 32.79 31.53 29.97 28.41 26.65 26.14 26.06 26.28 27.33 27.64 27.92 27.99 28.24 28.85 28.69 27.24 26.53 27.06 25.29 24.64 25.00 25.31 25.06 23.46 23.70 23.30 23.88 24.51 24.44 23.65 24.33 22.24 22.16 21.55
35.46 34.58 34.21 32.81 31.37 30.16 30.20 31.38 31.45 32.91 33.16 30.34 28.79 27.64 25.63 24.41 25.27 26.81 26.67 26.46 26.82 26.50 26.96 27.11 26.69 25.86 24.90 25.15 24.75 24.11 24.08 23.65 23.21 24.18 23.01 22.12 21.34 21.24 20.89 21.48 20.05 19.94 19.32
32.96 32.92 31.73 30.44 29.80 29.18 27.83 27.34 29.95 29.91 29.49 29.16 28.89 27.75 27.40 27.82 28.45 28.40 27.84 27.19 26.61 26.79 26.85 25.57 25.17 25.50 24.81 23.90 23.98 23.23 23.04 20.61 20.96 19.70 19.43 19.22 18.50 18.62 19.14 19.72 19.32 19.34 18.97
30.39 30.36 30.11 29.24 28.77 28.22 27.89 26.43 24.52 27.42 29.06 28.98 28.79 28.83 28.56 28.24 28.42 27.73 26.12 25.14 25.20 26.40 26.31 25.23 24.29 23.84 23.27 22.11 22.06 21.25 20.43 19.71 18.19 18.61 17.74 17.85 17.84 17.90 17.01 17.54 18.33 18.69 18.47
28.94 28.60 28.19 28.24 27.70 27.70 27.32 27.20 27.37 26.32 24.78 25.46 27.76 27.65 27.88 27.89 26.94 26.17 25.74 26.13 25.34 24.76 24.28 23.30 22.18 21.78 20.94 20.14 19.55 18.64 18.24 17.99 17.78 17.22 16.94 16.91 16.39 16.21 16.20 16.29 17.13 16.64 16.94
28.79 28.97 29.05 29.23 29.46 29.57 29.47 28.35 27.82 26.17 24.32 23.31 23.12 23.68 24.55 24.31 24.00 24.06 24.67 25.21 23.55 21.90 21.90 21.08 20.58 19.50 18.87 18.55 17.86 17.31 16.58 16.52 15.46 15.41 15.68 15.25 15.22 14.75 14.14 14.73 15.11 13.46 13.67
27.15 26.77 27.33 26.77 26.63 26.97 27.48 26.27 25.35 24.21 23.43 22.83 22.34 22.90 24.25 24.06 21.80 21.22 21.73 21.97 21.02 19.90 19.62 18.54 17.80 17.34 16.94 16.59 16.28 15.90 15.40 15.06 14.57 14.07 13.58 13.42 13.46 13.56 12.65 12.76 13.25 13.09 13.34
25.71 25.13 25.31 25.81 25.37 25.39 25.35 24.90 24.20 23.20 21.25 19.87 19.05 19.92 20.50 20.77 19.75 19.24 18.66 18.08 17.75 17.00 16.73 16.61 16.13 15.75 15.37 15.13 14.53 13.89 12.80 12.50 12.00 11.68 11.59 11.85 11.77 10.90 12.07 12.35 12.37 12.23 12.50
25.10 24.03 23.89 23.26 23.24 23.19 22.66 22.78 22.14 21.30 20.50 19.18 18.24 17.72 17.63 19.36 18.17 17.24 16.28 15.70 15.39 15.70 15.62 14.96 14.65 14.30 13.63 12.15 11.47 10.91 10.07 9.67 10.04 10.44 10.23 9.77 10.56 10.94 10.69 10.60 10.71 11.20 11.56
23.45 22.69 22.08 21.32 21.10 20.31 20.22 20.01 19.61 19.17 18.50 18.03 17.86 16.99 17.00 16.33 15.53 15.06 13.96 14.12 14.26 13.44 12.68 12.34 11.59 10.52 11.65 10.54 10.42 10.19 8.72 8.61 9.08 9.04 7.54 8.19 8.74 8.76 9.09 8.71 9.20 9.69 10.14
20.86 19.84 18.66 18.28 18.82 18.81 18.75 17.64 16.29 14.71 16.17 16.40 16.22 15.29 14.12 13.86 13.54 11.98 11.73 11.75 11.20 11.54 10.98 9.97 9.08 7.51 7.20 7.19 8.89 9.17 9.24 8.52 7.73 7.40 7.56 6.88 6.39 6.88 7.81 8.10 8.85 9.04 9.66
18.38 17.60 16.80 16.39 16.09 15.57 15.20 14.74 14.56 14.57 14.07 14.13 13.67 13.29 12.96 12.98 12.13 11.89 11.43 10.15 8.23 8.64 8.08 7.63 8.35 7.13 6.29 4.57 4.31 4.75 5.37 3.44 3.42 3.04 4.12 5.15 5.39 5.22 6.06 7.51 8.09 9.04 9.25
14.89 14.71 14.78 14.55 13.67 13.65 13.24 12.63 12.02 11.91 11.29 11.44 11.55 11.55 11.09 10.57 10.44 9.54 8.75 7.78 6.66 5.79 6.39 7.59 7.02 5.64 4.21 5.42 5.80 4.09 0.75 -0.71 -0.13 -0.08 1.58 3.48 4.16 5.96 7.42 7.65 7.43 7.72 8.30

GFSGL_sfc_wetblb_057.txt.gz
Wetbulb
61.94 61.79 61.23 61.43 61.19 61.38 61.76 62.69 62.77 63.13 62.13 61.57 61.59 61.50 61.18 61.33 61.68 61.44 61.04 61.10 60.86 61.05 61.70 61.50 61.08 61.71 60.92 60.72 59.12 57.11 55.12 53.54 50.49 51.45 48.15 47.50 45.20 44.77 45.19 46.16 48.10 47.58 47.28
62.05 62.78 62.94 63.46 63.23 62.13 62.34 63.60 63.83 63.23 63.38 62.74 61.87 61.78 61.48 61.23 61.61 61.42 60.73 60.60 60.55 60.14 60.40 60.46 60.12 60.19 60.37 59.66 58.64 55.53 54.66 53.79 51.32 49.20 45.52 43.13 43.36 44.19 45.74 44.54 45.92 47.07 47.28
61.69 62.25 63.18 63.32 63.07 63.03 63.25 63.64 64.16 63.52 63.33 62.70 62.37 61.72 61.15 61.27 61.22 61.49 61.10 60.89 60.94 60.73 60.44 60.00 59.97 60.25 58.45 58.16 55.61 53.32 53.55 51.54 50.18 46.20 42.34 42.44 43.55 43.12 42.95 43.61 44.22 45.12 46.85
62.16 61.79 61.85 62.50 62.81 63.09 63.70 63.65 63.49 63.60 62.92 62.74 62.63 61.97 61.92 61.87 61.46 61.28 61.02 60.97 60.94 59.98 60.74 58.98 58.14 59.78 57.76 56.51 55.14 53.78 51.43 48.24 46.07 44.70 41.97 39.70 42.39 41.28 42.10 41.98 41.04 43.77 44.22
62.76 61.90 62.01 62.58 63.00 62.78 62.94 63.12 63.22 62.97 62.53 62.47 62.11 62.16 62.16 61.59 60.78 60.73 60.36 59.95 58.66 57.99 58.98 60.51 60.30 58.27 51.41 54.15 54.55 52.64 48.71 45.46 44.04 42.19 40.50 39.00 38.68 38.87 38.51 40.42 39.16 40.23 41.49
62.94 63.02 63.18 63.01 62.01 62.43 62.46 62.67 62.64 62.39 62.42 62.22 61.39 61.35 61.14 60.78 50.99 46.58 54.04 60.40 58.57 56.76 56.72 58.72 58.94 50.56 48.13 44.00 43.51 43.41 46.21 44.37 41.80 40.16 39.58 38.21 38.84 38.85 38.99 38.40 37.07 35.93 35.50
63.16 63.06 62.85 63.19 62.33 62.37 62.48 61.95 61.74 61.64 62.06 61.31 61.20 61.13 60.86 61.47 46.62 44.62 44.57 58.93 59.75 59.47 58.77 58.10 50.74 46.50 44.80 43.21 37.61 35.26 34.90 35.17 38.16 40.46 38.39 36.26 36.29 37.84 37.45 36.05 35.41 34.95 34.59
62.03 62.15 62.55 62.60 62.23 62.26 61.96 61.54 61.41 61.47 61.07 61.24 61.03 61.25 60.75 60.14 44.63 44.04 43.82 57.02 57.59 54.45 53.39 50.13 44.86 40.75 40.27 39.19 36.39 33.92 32.52 31.99 31.95 33.26 33.99 33.18 32.36 34.04 34.41 35.22 34.70 35.13 35.23
61.12 62.02 62.08 62.29 61.67 61.77 61.35 61.15 61.47 61.29 61.08 60.68 60.73 60.32 57.90 55.42 42.37 42.55 43.75 43.48 40.19 38.78 39.70 40.37 38.72 36.33 36.48 37.02 33.21 31.19 30.45 29.98 30.91 30.90 30.21 29.19 28.82 28.41 27.77 30.73 30.81 30.49 30.90
60.00 61.91 62.56 61.98 61.54 60.96 61.20 61.13 61.24 60.73 57.28 47.06 41.41 40.96 38.41 40.16 41.10 41.46 42.18 38.12 34.51 32.82 33.30 34.16 33.99 33.26 32.91 32.87 31.05 29.71 27.37 26.75 26.68 26.71 26.30 26.86 27.16 27.65 26.77 27.95 29.52 27.50 27.63
58.68 59.91 61.82 62.16 61.54 61.65 61.69 61.20 52.56 45.90 40.15 36.74 34.55 34.64 35.52 36.23 36.75 37.72 37.31 34.52 32.19 31.09 30.65 30.53 31.50 32.26 32.50 32.69 32.21 30.95 29.19 29.13 28.29 28.69 28.88 29.96 30.54 30.81 30.74 29.80 29.83 28.28 26.28
58.81 58.65 54.85 54.56 52.88 50.99 47.31 44.23 42.18 38.53 34.92 33.08 32.13 31.77 32.09 32.87 33.45 33.69 33.47 32.54 32.18 29.95 28.94 29.70 30.62 30.95 30.72 30.42 29.15 29.73 28.88 29.42 29.89 29.04 27.78 27.70 27.72 28.44 29.66 29.62 29.53 29.59 29.50
50.03 46.82 43.83 42.78 42.65 42.06 40.36 38.52 36.53 35.64 33.77 32.36 30.71 28.53 28.21 29.71 30.42 31.55 31.54 30.96 30.35 29.16 29.58 29.60 29.80 29.05 28.13 27.14 26.85 26.70 27.91 28.08 27.15 26.77 26.42 27.35 27.32 27.61 27.45 26.84 27.35 28.02 27.94
38.72 38.25 37.23 36.30 35.87 36.15 36.27 36.70 35.41 33.62 32.82 31.19 28.82 26.87 26.63 26.90 27.59 28.39 28.94 29.53 29.42 28.64 27.89 27.70 26.95 26.92 25.98 24.91 25.26 26.72 26.58 25.52 24.60 24.38 24.70 25.30 25.77 25.60 25.09 25.61 23.76 23.24 21.35
33.66 32.86 31.64 31.16 30.24 29.20 29.66 31.12 30.85 31.80 31.58 29.36 27.98 27.35 25.46 24.93 26.75 28.39 27.86 27.00 26.82 26.62 26.87 27.53 26.70 26.99 26.56 26.03 25.11 24.53 24.73 24.64 24.39 24.30 23.29 23.01 22.33 22.30 21.94 23.07 22.02 21.28 19.88
31.03 30.56 29.94 28.86 28.57 27.98 27.08 26.79 30.03 29.75 29.85 29.30 28.82 27.67 27.89 28.93 29.26 29.19 29.07 29.04 29.23 29.39 29.16 27.92 27.29 27.37 26.28 25.65 25.36 24.40 24.12 22.64 21.53 21.03 20.76 20.28 19.41 19.48 19.50 20.54 20.62 19.53 19.02
30.53 30.21 28.64 28.72 27.87 27.04 26.15 24.77 23.30 27.13 29.23 29.57 29.59 29.04 28.78 28.10 27.82 27.58 27.44 27.33 27.66 29.21 27.01 26.17 25.15 24.73 24.03 23.41 22.58 21.81 20.97 20.71 20.11 19.90 19.30 18.90 18.75 18.30 17.91 18.02 18.54 19.08 18.48
29.69 29.45 28.56 28.42 28.27 28.04 27.30 26.29 25.66 24.47 22.75 23.24 27.27 27.37 27.60 27.58 27.58 27.22 27.48 27.64 25.16 25.30 24.43 23.25 22.19 22.03 21.16 20.60 19.75 18.88 18.75 18.71 18.97 17.84 17.32 17.61 17.28 16.74 15.86 15.74 16.46 16.47 16.01
28.68 29.24 29.97 29.70 28.67 28.07 26.94 25.76 24.92 23.71 23.00 23.05 23.63 24.09 25.35 25.68 25.50 25.70 25.51 24.50 22.52 21.81 21.22 20.06 19.99 19.45 19.09 19.20 18.77 18.73 17.96 17.83 16.79 16.48 16.21 15.77 15.67 14.71 13.92 14.29 14.38 14.16 13.74
27.75 28.10 28.14 27.52 27.66 27.55 26.79 25.58 24.26 23.77 23.53 23.40 23.02 24.21 24.86 22.91 21.42 20.99 21.75 21.54 20.42 19.82 20.23 19.13 18.95 18.47 17.93 17.73 17.49 17.21 16.55 15.93 15.50 14.57 14.13 13.79 14.04 13.68 12.36 12.58 12.76 12.25 12.54
27.16 27.08 26.74 27.47 27.75 27.08 26.42 24.86 23.38 22.12 20.44 19.40 19.71 21.50 21.81 20.88 19.44 19.14 18.44 18.22 18.18 17.93 17.82 17.98 17.84 17.28 16.87 16.38 15.50 14.60 13.62 13.15 13.01 12.65 12.57 12.42 12.38 11.04 12.29 12.53 12.12 11.86 12.04
25.49 24.80 24.52 24.55 24.58 24.26 23.79 23.56 22.72 21.46 20.27 18.79 18.43 19.13 19.81 20.13 18.99 17.93 16.82 16.51 16.87 16.71 16.65 15.92 15.73 15.02 14.60 13.22 12.54 12.09 11.54 10.79 11.36 11.34 10.62 9.97 10.20 10.61 11.03 10.56 10.37 10.50 10.82
23.69 22.94 22.84 22.08 21.98 21.18 21.35 21.06 20.35 20.19 19.37 19.25 18.65 17.67 17.39 16.86 16.42 16.06 15.12 15.32 15.22 14.67 14.07 13.74 12.79 11.82 12.78 11.71 11.82 11.41 10.08 9.83 10.04 9.80 8.25 8.18 8.53 9.07 9.00 8.20 8.69 9.22 9.79
21.55 20.82 19.28 19.15 19.85 20.33 19.93 18.93 17.70 16.89 17.85 17.33 16.88 16.27 15.69 15.27 14.95 14.17 13.56 12.96 12.74 13.13 13.08 11.74 11.11 9.97 9.00 9.01 10.11 9.92 9.96 9.48 8.32 7.01 6.81 6.81 6.52 6.94 7.50 7.53 7.58 8.40 9.25
19.84 19.04 18.59 18.11 18.02 17.83 17.48 16.72 16.53 16.54 16.20 16.33 15.76 15.29 15.01 14.99 14.16 13.81 12.85 12.15 10.38 10.53 10.27 10.12 10.53 9.59 8.89 6.89 6.41 7.01 7.00 3.98 3.47 2.32 3.23 4.53 5.11 5.34 5.47 6.79 7.94 8.91 9.46
16.81 16.65 16.58 16.69 16.37 16.23 15.60 14.80 14.32 14.58 13.96 13.98 13.76 13.77 13.27 12.68 12.32 11.65 10.88 10.22 8.07 7.33 8.85 9.76 9.14 8.24 6.96 7.71 8.01 5.43 1.77 0.49 1.01 1.09 1.90 2.74 3.25 4.70 6.37 7.64 7.34 7.14 7.90

GFSGL_sfc_wetblb_063.txt.gz
Wetbulb
56.44 57.17 57.81 57.51 57.74 57.63 56.58 55.94 55.54 55.22 54.97 54.78 56.46 57.52 57.99 57.59 57.45 58.23 58.79 58.57 57.76 57.53 57.50 57.23 56.91 57.37 56.64 56.72 56.57 56.28 55.06 54.75 52.40 53.86 51.89 50.64 49.01 50.57 49.47 49.83 50.16 49.80 49.78
56.48 56.37 56.67 57.84 57.78 57.90 57.35 57.42 57.38 55.64 55.77 55.37 55.22 56.31 57.45 57.94 57.79 57.13 57.09 58.30 57.59 56.72 56.77 56.62 56.11 56.97 56.36 56.78 56.24 55.79 55.86 55.86 54.22 52.84 54.19 48.13 48.44 46.76 47.59 46.89 48.52 49.21 48.50
57.60 56.87 56.48 56.63 56.63 57.21 57.86 58.06 57.88 57.64 56.76 56.67 56.06 55.18 55.54 56.23 56.92 57.74 57.81 57.62 57.84 57.68 57.28 56.56 56.52 55.99 55.62 56.40 56.26 55.96 55.71 55.68 56.11 54.55 53.93 47.68 47.88 44.00 44.66 44.94 45.93 47.00 47.76
58.18 57.29 56.57 56.24 56.19 56.25 57.40 57.87 57.85 57.94 57.09 56.87 57.07 56.63 56.25 56.37 56.49 56.54 57.01 57.38 57.48 57.47 57.13 56.79 56.75 56.36 55.71 55.59 55.03 54.67 55.00 55.11 55.15 54.35 53.86 46.52 43.76 43.21 45.32 44.11 42.24 44.69 44.31
58.41 57.91 57.38 57.30 57.36 57.02 56.66 57.42 57.98 57.68 57.68 57.83 57.54 57.32 57.09 56.44 56.58 56.65 56.67 56.36 56.27 56.14 56.52 56.54 56.37 54.86 50.79 52.88 55.61 55.08 54.65 54.48 54.81 54.22 52.48 43.88 42.29 39.15 41.12 43.22 43.18 41.93 42.53
58.83 58.51 58.57 58.87 58.04 57.61 57.49 57.38 57.79 57.66 57.65 58.04 57.26 57.70 57.75 57.52 50.77 46.41 52.54 56.10 55.99 55.60 55.20 55.58 55.71 49.42 49.18 45.69 45.44 47.15 52.63 54.30 54.08 53.11 51.86 49.63 46.15 44.51 42.26 40.66 38.99 36.40 35.68
54.18 56.86 59.14 58.87 58.46 58.66 58.79 58.35 58.00 58.06 58.58 58.07 58.19 58.53 57.85 58.25 48.20 45.97 44.99 55.80 55.77 55.30 55.09 54.96 54.97 54.96 49.61 53.00 38.59 38.31 38.08 38.25 37.67 51.64 52.46 47.43 38.59 38.20 38.88 36.75 35.25 34.57 33.70
48.86 49.25 52.38 54.73 56.87 58.76 58.70 58.77 58.96 59.02 58.52 58.37 58.46 58.51 58.72 59.02 48.58 46.94 44.10 52.68 56.12 56.65 56.44 55.99 55.59 53.81 49.88 44.49 37.93 33.67 32.32 32.44 33.26 34.79 33.74 32.00 32.10 33.98 34.34 34.37 32.79 32.01 32.16
43.30 44.53 47.53 51.69 50.44 50.89 56.54 57.81 58.60 58.46 58.43 58.29 58.80 58.60 58.43 58.41 45.48 44.84 44.46 52.57 53.52 39.86 37.58 39.41 41.96 41.45 38.79 39.58 34.86 30.65 29.25 29.34 32.40 32.73 31.93 31.32 30.99 32.06 33.08 31.60 29.55 29.05 28.21
40.39 42.08 45.13 47.77 46.16 46.42 47.98 51.59 58.57 58.35 57.77 57.68 47.34 41.11 38.57 43.53 38.06 41.03 44.08 46.22 35.62 32.87 32.99 33.75 34.98 35.67 35.41 34.92 31.99 29.95 27.14 26.89 27.88 28.36 29.22 30.10 30.81 30.97 30.53 29.62 29.25 27.02 27.16
39.27 41.49 41.55 41.32 41.25 42.30 43.40 43.89 53.94 52.08 41.04 37.77 35.69 35.58 35.69 36.65 37.80 40.24 41.18 40.74 36.03 32.42 31.46 31.31 32.62 33.62 33.53 33.15 32.16 30.15 28.31 29.14 28.63 28.24 27.95 28.39 28.71 28.72 28.28 28.02 27.72 26.89 25.14
37.56 36.52 35.16 34.81 35.38 36.66 39.66 40.64 41.17 40.33 38.38 36.43 34.41 32.44 31.83 32.80 33.94 34.83 34.88 34.52 33.83 30.92 30.11 31.00 31.61 32.43 31.90 31.35 30.27 30.55 30.10 29.08 28.43 27.27 26.77 26.55 25.56 25.62 26.18 26.79 26.97 26.99 26.92
33.46 31.87 31.18 31.43 31.08 31.67 31.96 34.55 36.43 37.08 35.21 33.55 32.53 30.12 29.01 30.56 31.30 32.32 32.22 31.82 31.45 29.60 29.86 30.55 30.66 29.93 29.58 29.09 29.58 29.44 28.39 27.71 26.55 24.75 23.70 23.56 24.77 26.28 26.75 26.59 26.49 25.83 25.69
30.12 29.33 29.34 28.83 28.32 28.88 29.66 30.07 30.10 32.56 32.59 31.54 30.10 28.36 27.96 27.55 27.41 27.84 27.65 27.61 27.31 26.80 26.30 26.40 26.27 25.52 24.89 24.97 25.48 25.85 25.18 24.79 24.07 23.01 22.20 22.69 23.49 23.47 22.40 22.90 21.81 21.91 20.76
28.37 27.98 27.61 27.74 27.46 26.79 27.51 28.12 28.02 29.25 29.84 28.47 29.10 28.62 27.15 25.15 26.75 28.54 28.00 26.68 26.32 26.18 26.82 25.98 24.51 24.11 23.34 23.19 22.92 21.84 22.04 22.16 20.77 20.76 20.31 20.03 19.67 19.57 19.02 19.86 19.27 18.56 15.79
27.20 26.37 26.42 26.08 26.32 25.92 25.58 25.53 29.41 29.98 30.41 30.50 30.49 29.85 29.72 30.51 30.76 31.03 30.74 30.74 30.29 28.87 25.38 23.12 22.03 22.05 21.76 20.73 19.18 18.66 19.56 19.70 19.23 18.56 17.70 17.35 16.12 15.81 15.59 16.14 15.92 13.89 12.47
25.50 25.51 25.10 24.55 24.44 24.13 24.19 23.73 21.85 24.90 28.04 29.18 29.97 29.88 29.74 29.30 29.33 28.98 28.06 27.29 26.77 24.96 21.40 20.46 19.75 19.05 18.69 18.58 17.87 17.51 16.88 16.92 17.48 16.24 14.93 13.71 13.16 12.85 12.11 12.40 12.27 12.23 11.57
25.88 25.90 25.23 24.38 23.74 23.32 22.73 21.97 21.99 20.47 19.36 20.09 25.39 25.98 26.99 26.95 26.73 25.96 24.95 22.85 19.18 20.32 19.15 17.86 17.36 17.17 17.51 16.69 16.33 15.76 14.52 13.71 12.75 12.36 10.46 8.97 7.70 10.30 9.62 10.03 10.51 6.49 9.50
25.09 25.26 24.63 23.83 23.10 22.13 21.75 21.20 21.60 21.52 20.04 19.54 19.78 20.14 21.56 23.72 23.33 23.16 22.22 18.53 16.87 16.52 16.60 15.62 15.72 15.26 15.15 14.11 12.87 11.85 11.18 9.18 6.89 4.33 5.02 7.31 2.80 7.15 5.24 6.95 6.79 5.75 5.87
23.41 24.52 24.47 23.38 22.13 21.00 20.23 19.41 19.01 18.86 18.30 18.17 17.81 17.79 18.20 17.10 15.12 14.76 15.21 14.97 14.60 15.58 15.15 14.40 13.74 12.61 12.03 11.03 8.70 5.14 6.62 4.91 5.71 6.54 -0.43 -1.11 -4.41 0.88 1.30 2.58 2.28 1.55 6.81
22.32 22.03 21.94 21.71 21.70 21.00 19.85 18.90 18.28 17.50 16.82 16.14 16.28 16.77 16.30 14.65 13.12 12.76 12.05 11.06 11.29 11.41 11.77 11.52 10.24 9.18 7.81 6.75 7.68 5.14 2.56 2.54 4.00 2.58 1.69 1.67 -8.10 -1.41 2.91 2.54 0.96 4.90 5.99
21.00 20.51 19.49 18.06 17.99 18.86 19.20 19.02 17.96 16.73 15.91 14.65 14.06 14.42 14.67 13.25 12.14 11.65 10.90 9.49 9.49 9.78 9.64 8.31 8.06 6.90 6.39 5.85 4.82 -1.36 1.84 0.63 -2.42 -2.29 -3.47 -3.81 -1.90 -1.46 -0.45 -2.96 -3.27 -4.30 1.23
18.05 16.95 17.49 17.64 17.52 16.31 15.52 16.00 15.05 13.64 13.01 13.11 12.86 12.13 11.39 10.24 9.45 8.70 8.24 9.26 9.01 7.68 7.66 6.06 4.19 2.21 3.19 1.78 2.03 0.05 1.63 0.00 -2.86 -8.48 -9.73 -9.73 -5.23 -6.66 -8.11 -6.65 -2.19 -3.80 -3.79
16.00 15.12 15.55 14.49 13.85 13.18 12.44 11.85 12.62 12.25 12.24 11.15 10.67 10.46 9.58 9.02 6.99 4.43 3.34 1.78 3.30 0.66 0.36 4.68 2.50 1.80 -0.56 -4.93 -6.91 -0.14 -1.85 -9.43 -6.01 -6.93 -12.85 -13.54 -8.64 -2.59 -6.11 -4.17 -2.46 -4.49 0.24
12.97 12.27 11.49 11.67 11.02 8.91 8.96 9.26 9.18 8.15 7.79 7.29 7.27 6.64 7.72 7.07 6.73 2.42 -1.42 -5.35 -4.50 -4.53 2.56 2.49 -0.88 -3.74 -6.76 -4.74 -5.65 -6.95 -7.84 -7.80 -12.39 -9.52 -10.85 -9.94 -11.72 -13.18 -9.73 -3.40 -1.97 0.95 -3.71
11.07 9.64 9.08 8.05 6.18 5.90 1.26 -0.75 1.18 2.47 -0.57 -2.57 -0.78 4.01 -0.43 -4.18 0.30 -0.35 -6.90 -5.37 -4.23 -1.73 -3.64 -5.35 -4.11 -3.56 -0.86 -1.02 -3.33 -5.57 -8.84 -7.03 -9.48 -9.57 -13.72 -8.83 -11.18 -9.55 -9.19 -8.47 -5.49 -3.63 -0.78

GFSGL_sfc_wetblb_066.txt.gz
Wetbulb
56.66 56.58 57.04 57.31 57.45 56.89 55.77 54.01 53.93 54.69 53.65 53.66 55.55 57.31 57.13 56.48 55.43 55.60 56.33 57.07 56.73 56.62 56.74 56.40 56.28 56.90 56.10 55.59 55.71 55.81 54.98 54.61 52.11 53.30 52.69 52.26 51.35 52.09 52.03 51.83 52.31 51.68 51.84
56.52 56.43 56.32 57.12 57.78 57.41 56.90 56.60 55.27 53.93 53.93 53.80 53.63 55.52 56.62 56.78 56.27 55.48 54.95 55.81 56.43 56.38 56.43 56.18 55.86 56.57 55.61 56.24 55.59 54.91 54.88 54.87 53.20 51.40 53.19 49.98 49.14 50.83 53.16 51.31 51.39 51.32 51.12
55.85 55.83 55.93 56.30 56.51 56.63 57.01 57.33 56.69 55.82 54.87 54.19 54.02 53.50 54.46 56.26 56.59 56.56 56.12 55.65 55.74 56.53 56.86 56.27 56.09 55.91 55.19 55.42 55.29 54.81 54.67 54.67 54.63 53.57 52.95 53.63 51.13 44.29 45.88 45.87 47.80 49.65 49.88
56.68 55.65 55.18 55.35 56.37 56.37 56.73 56.92 57.38 57.35 56.59 55.79 55.06 54.50 54.10 54.07 55.33 56.43 56.43 55.93 55.66 55.82 56.63 56.87 56.78 56.08 55.55 55.24 54.88 54.85 54.96 54.24 53.98 53.56 53.79 54.14 51.69 46.70 45.42 46.41 47.00 46.90 48.33
57.08 56.51 56.05 56.24 56.47 56.49 56.35 56.51 57.09 57.04 57.32 57.30 56.63 56.27 55.47 54.89 54.42 54.19 54.83 55.01 55.40 55.57 56.08 56.43 57.05 55.71 51.69 53.45 55.35 55.23 55.10 54.43 54.06 53.47 53.45 53.69 49.70 40.55 43.64 48.79 47.09 48.94 45.00
49.91 49.41 56.02 57.58 57.44 56.81 56.29 56.17 56.17 56.43 56.75 56.77 56.86 56.65 56.26 56.04 50.16 46.12 50.63 54.66 54.70 54.46 54.82 56.04 56.72 50.07 49.71 45.60 45.76 47.09 52.18 53.83 53.03 53.34 53.34 52.45 53.26 49.36 49.85 48.93 45.63 37.62 38.27
45.09 45.78 47.44 48.60 52.41 56.79 57.67 56.95 55.98 55.62 56.29 56.41 56.69 56.87 56.30 56.60 48.18 45.85 44.42 54.14 54.99 54.87 54.46 54.43 54.40 54.73 49.35 53.82 44.93 41.84 36.85 36.14 37.61 48.64 53.20 53.65 52.30 51.74 49.98 38.91 36.52 35.97 33.97
40.85 41.90 43.96 45.43 48.04 48.18 49.19 52.32 56.99 57.04 56.59 56.01 56.07 56.37 56.46 56.70 48.00 45.06 43.69 52.37 54.13 54.80 55.00 54.86 55.04 54.79 53.84 52.52 44.59 35.39 32.98 32.71 33.61 35.56 36.31 32.75 33.70 34.86 37.42 36.72 34.22 32.22 31.57
38.09 39.09 40.93 42.47 42.83 43.34 44.39 45.71 47.12 47.88 55.78 57.14 57.20 56.87 56.34 56.56 48.87 45.56 45.54 53.71 54.10 54.26 54.63 49.45 49.47 53.07 49.68 44.65 38.60 32.19 30.22 30.24 33.08 33.35 33.29 33.34 33.55 34.07 34.94 34.47 32.02 31.62 28.37
36.48 37.23 37.68 37.58 37.50 38.48 40.38 41.09 43.44 44.17 45.52 53.26 57.54 57.28 53.34 56.40 45.51 42.96 45.57 54.95 54.04 51.37 36.88 35.77 36.92 41.61 39.14 39.25 38.80 32.39 28.10 28.17 29.55 29.12 29.04 29.61 30.18 30.29 30.76 30.78 30.96 28.89 27.37
35.85 35.00 33.58 33.44 33.57 35.29 35.21 38.07 40.72 41.18 40.94 41.00 39.52 36.00 36.45 36.12 36.89 39.73 42.42 49.90 48.21 35.40 33.22 31.81 32.89 34.53 34.88 34.67 34.07 32.08 29.21 29.30 28.64 28.25 27.64 26.80 26.73 26.85 27.18 27.61 27.76 27.67 26.02
32.91 31.84 30.88 30.51 31.06 31.78 32.28 32.87 36.09 36.80 35.76 33.95 32.11 31.16 31.66 31.86 33.56 35.11 35.44 34.99 36.18 34.07 31.79 31.43 31.92 32.69 32.51 31.93 31.03 31.08 30.28 29.12 28.18 26.64 25.43 24.85 24.64 25.04 26.14 26.84 27.22 26.94 26.77
29.58 28.57 29.13 28.86 28.99 29.87 29.50 29.66 31.04 33.18 32.02 30.91 30.00 28.41 27.94 28.84 29.32 31.50 32.02 32.58 31.92 31.24 31.06 30.67 30.43 29.79 29.02 28.21 29.12 28.55 27.67 26.52 25.05 23.39 22.60 22.72 23.74 24.49 25.13 25.04 25.17 24.78 24.85
27.19 26.75 27.12 26.75 26.99 27.69 28.62 29.05 28.83 28.99 29.07 28.98 27.74 26.18 26.22 26.83 27.74 27.82 27.88 27.76 27.54 26.52 25.74 25.74 25.57 25.34 24.31 23.53 23.76 23.85 23.05 22.95 22.04 21.00 20.65 21.73 22.86 21.28 20.60 21.81 20.21 20.44 19.57
26.51 25.85 25.68 25.54 25.54 25.33 26.26 27.46 28.26 29.22 29.33 27.42 27.36 27.50 26.21 25.69 27.37 28.77 27.45 26.56 26.48 25.87 25.38 24.91 22.98 21.61 20.20 19.94 20.36 20.88 20.87 20.64 19.46 19.73 18.96 18.50 18.06 18.09 17.35 18.30 17.28 16.64 15.02
24.19 23.74 22.81 22.78 22.47 23.13 23.67 23.49 26.44 27.99 29.55 29.92 29.77 28.83 28.55 29.63 29.67 29.39 28.91 28.26 27.61 26.24 22.75 20.50 19.56 18.85 17.73 17.97 17.82 17.32 17.66 17.35 17.75 17.49 16.63 16.24 15.01 14.78 14.33 14.31 14.55 13.03 11.17
23.86 23.42 22.90 22.51 21.94 21.41 20.96 20.42 19.26 22.84 24.94 26.62 27.16 27.82 28.01 27.59 27.38 26.91 26.05 25.50 24.59 22.37 18.02 17.64 16.88 17.04 16.88 17.45 16.96 15.70 14.89 15.93 15.93 14.09 13.13 12.75 12.78 12.87 12.48 11.45 11.11 11.07 10.51
21.31 21.31 20.90 20.39 20.03 19.60 19.96 20.91 20.33 18.96 17.76 17.91 21.92 23.53 24.68 24.75 24.70 24.42 23.57 21.16 17.44 18.04 17.22 16.01 15.37 15.54 15.77 15.37 14.56 13.53 13.07 12.82 12.23 11.58 10.08 9.48 10.32 10.22 9.40 9.04 9.08 7.27 8.20
22.50 20.64 19.25 19.35 19.25 19.55 20.14 19.72 19.21 18.57 17.68 17.03 17.42 17.97 18.36 21.15 20.66 20.67 20.43 16.49 14.95 14.50 14.45 13.53 13.81 13.00 12.43 12.16 11.15 10.76 9.90 8.84 7.94 6.67 6.30 5.70 3.98 7.44 6.82 7.23 7.14 6.29 6.24
19.41 20.87 19.47 18.93 17.97 17.34 18.58 18.20 17.32 16.82 15.78 14.82 14.14 14.47 15.36 14.27 11.79 11.21 12.02 12.32 12.41 12.26 11.86 11.04 10.52 10.45 10.56 9.96 8.57 8.19 6.96 5.51 6.31 5.95 2.05 -1.47 -5.28 5.01 4.33 3.97 3.19 2.96 5.13
18.60 17.53 16.81 18.82 18.85 18.48 17.24 16.26 16.18 15.01 13.88 13.45 13.00 13.80 13.68 11.84 10.09 9.62 9.72 9.39 9.51 9.42 9.34 8.52 7.83 7.79 7.89 6.52 6.84 3.57 2.89 2.43 1.72 1.05 0.11 0.63 -3.52 0.30 1.94 0.48 -0.16 2.99 4.22
16.07 16.71 16.43 15.72 15.94 16.04 15.49 15.06 14.30 13.95 13.43 12.21 11.83 11.43 10.76 9.57 9.36 9.17 7.96 7.11 7.85 8.49 8.27 6.75 6.29 5.95 5.17 4.22 3.54 1.52 -0.09 -3.22 -4.48 -5.41 -6.11 -6.94 -5.71 -5.48 -5.46 -4.90 -5.63 -7.79 -2.11
14.70 12.51 13.55 13.83 14.27 12.84 12.45 13.01 11.60 10.71 10.23 9.88 10.22 9.33 8.24 6.23 5.45 5.57 4.78 3.52 4.05 3.19 3.07 2.00 0.45 0.57 0.75 -1.24 -0.21 -1.16 -1.98 -4.52 -7.79 -11.27 -14.51 -14.50 -8.18 -9.96 -11.59 -10.68 -6.69 -7.96 -7.06
11.73 10.76 12.23 10.24 8.81 9.52 8.84 8.02 8.99 7.70 7.42 6.79 7.24 6.43 5.73 3.42 0.72 -1.47 -3.76 -4.60 -2.93 0.27 -1.01 -1.76 -0.59 -1.13 -2.44 -8.14 -7.96 -4.79 -3.32 -10.74 -8.21 -9.86 -15.58 -15.76 -10.68 -7.83 -12.32 -7.78 -5.79 -8.14 -7.42
8.04 7.02 7.06 6.54 4.40 1.69 1.84 3.75 2.38 0.44 2.04 2.26 2.73 0.79 0.47 1.87 -2.39 -7.31 -7.64 -5.50 -3.39 -4.90 -2.24 -4.30 -7.29 -9.25 -9.25 -10.91 -10.10 -10.19 -10.91 -9.60 -13.58 -11.59 -12.68 -12.31 -14.85 -15.94 -13.22 -9.23 -10.86 -6.40 -8.88
6.40 4.58 3.20 2.50 0.03 -1.26 -2.08 -2.35 -4.70 -7.25 -9.41 -10.32 -9.23 -10.50 -11.05 -5.61 -7.79 -15.40 -14.13 -9.13 -9.48 -8.45 -7.57 -6.73 -1.04 -5.06 -6.88 -5.27 -4.91 -8.00 -10.32 -9.87 -13.48 -12.56 -18.66 -11.61 -15.40 -15.40 -15.03 -14.31 -10.16 -9.60 -5.82

GFSGL_sfc_wetblb_069.txt.gz
Wetbulb
55.75 56.39 55.68 55.59 54.80 54.09 52.98 52.44 53.28 53.46 53.07 53.72 56.67 56.16 55.61 55.74 56.08 55.60 55.19 54.95 54.37 55.27 55.61 55.30 55.38 56.01 55.75 55.84 55.46 55.14 54.49 53.90 51.94 53.36 51.77 51.41 49.98 51.55 52.29 51.71 52.11 51.33 51.60
56.90 56.62 55.97 55.51 55.77 55.29 54.78 54.36 53.24 53.61 53.62 53.43 53.25 55.63 56.93 56.05 55.74 55.58 55.78 56.27 55.74 54.82 54.77 54.68 54.84 56.10 55.89 56.35 55.59 54.86 54.70 54.99 53.62 52.10 53.68 51.99 49.14 52.20 52.13 50.67 51.45 51.99 52.27
55.97 56.20 55.91 55.11 55.47 55.55 55.84 56.42 56.06 54.48 53.85 53.51 53.74 53.02 54.80 55.62 56.33 56.14 55.37 55.02 54.99 55.52 55.79 55.57 55.42 55.29 54.76 55.38 55.88 55.45 55.39 54.96 54.71 53.32 52.81 53.83 52.87 46.84 48.34 46.94 48.92 49.89 51.25
55.63 55.77 55.35 55.59 55.67 55.91 56.07 56.11 55.78 55.79 55.16 54.25 53.64 53.61 53.54 53.80 54.99 55.54 55.32 54.83 54.52 54.35 54.42 55.00 55.31 55.28 55.14 54.99 54.68 55.03 55.05 54.47 54.06 53.00 52.79 52.71 52.83 49.94 45.81 49.57 50.03 48.13 50.06
51.77 52.08 53.98 55.98 56.49 56.93 56.57 56.16 56.42 55.96 55.75 55.55 55.29 54.84 54.43 53.56 53.38 53.36 54.57 55.16 54.85 54.53 54.75 54.80 55.28 54.50 51.30 52.94 55.02 54.67 54.04 53.27 53.07 52.86 52.58 52.94 52.94 48.58 47.79 51.60 49.23 52.07 52.21
43.99 44.93 46.98 48.77 53.03 54.86 56.63 56.73 56.63 56.66 56.81 56.60 55.50 55.40 55.23 55.06 49.03 45.50 48.77 53.06 53.69 54.14 53.95 54.52 54.90 49.58 49.46 45.67 45.43 47.20 52.16 53.34 52.59 52.62 52.85 52.09 52.58 53.22 52.72 51.02 51.38 48.44 46.15
40.48 41.65 42.97 44.28 45.24 46.10 47.33 48.82 54.37 55.83 56.48 56.31 56.50 56.36 55.75 56.05 47.47 45.58 44.03 52.75 53.22 53.04 53.15 53.38 53.49 54.36 49.81 54.36 47.20 43.35 44.24 43.43 46.16 54.09 53.14 53.02 52.90 53.49 53.73 50.94 49.69 50.69 47.16
37.83 38.63 39.31 39.44 39.79 41.17 42.90 43.89 44.38 46.39 47.43 51.26 55.67 56.32 56.22 56.50 47.94 46.14 45.89 52.76 54.13 54.07 53.87 53.75 53.56 53.50 53.44 52.95 52.98 50.97 48.07 47.39 39.10 39.79 46.77 48.32 41.19 38.82 41.21 42.42 41.56 32.70 32.08
35.23 35.26 35.06 35.60 35.68 37.30 38.31 38.44 39.82 42.98 43.90 44.96 47.09 47.85 53.23 56.28 48.11 44.16 45.04 52.77 53.33 53.80 54.80 54.55 54.21 53.55 50.51 46.55 50.59 49.43 37.33 33.10 34.27 34.83 34.51 33.97 33.73 34.24 35.73 36.10 33.40 34.14 28.75
32.80 32.17 32.07 31.75 32.58 33.73 34.20 34.99 36.62 39.00 40.86 42.10 40.16 36.46 34.93 34.70 36.04 36.03 38.67 51.46 52.63 52.62 53.11 52.01 35.50 35.38 36.92 40.91 49.38 49.48 37.70 30.78 30.08 28.62 28.06 28.43 29.37 29.80 30.36 29.58 31.87 28.85 27.02
31.51 31.03 29.98 29.85 31.29 31.74 31.95 32.78 33.92 35.57 36.85 34.91 32.61 31.44 30.73 31.09 32.69 34.84 36.95 40.84 47.50 46.91 36.38 32.06 32.41 33.73 34.08 34.92 35.25 35.79 32.58 29.47 28.02 27.19 26.35 26.08 26.25 26.29 26.45 26.82 26.66 26.89 23.72
29.82 28.97 27.90 28.08 29.46 30.08 29.91 30.95 31.88 32.72 31.91 30.80 29.40 28.50 28.72 29.13 30.65 31.71 33.51 34.45 35.12 32.77 31.67 31.54 31.42 32.41 32.37 32.36 31.13 31.21 29.80 27.88 26.48 24.95 23.91 23.27 22.81 23.17 23.82 24.74 25.17 24.86 24.64
27.67 26.91 26.85 26.63 27.16 28.65 28.16 28.24 28.65 29.62 29.09 28.27 27.68 26.87 27.02 28.11 28.17 29.56 29.85 29.80 30.18 28.86 28.58 28.35 28.46 28.31 27.80 27.24 28.45 27.69 26.16 24.96 23.35 21.25 20.43 20.13 21.23 22.69 23.18 22.84 24.50 23.52 23.34
25.83 25.51 25.65 25.94 24.98 25.07 26.51 26.87 26.49 27.05 27.09 27.34 26.69 25.98 26.27 27.01 27.20 27.30 27.05 26.78 26.71 25.71 24.67 23.91 24.12 23.81 22.82 22.37 22.22 22.74 21.93 21.84 20.84 19.46 18.79 19.26 20.05 19.29 18.88 19.96 18.85 20.25 18.52
24.06 24.10 23.44 23.64 24.02 24.04 24.76 25.11 25.05 26.45 26.67 24.77 24.69 25.52 24.65 24.23 26.41 28.06 27.37 25.45 24.81 24.53 23.00 21.83 20.58 19.90 18.87 18.76 18.68 18.82 19.02 19.02 17.62 17.90 17.30 16.97 16.53 16.33 15.69 17.10 16.75 16.16 14.48
23.50 22.90 22.14 22.25 22.10 21.96 22.22 22.50 25.73 25.92 26.81 27.41 27.35 25.20 25.42 26.72 26.89 26.96 26.63 25.86 25.12 24.00 19.87 17.75 16.98 16.96 16.01 15.82 15.45 15.41 15.80 15.42 15.62 15.55 14.85 14.64 14.22 14.07 13.21 13.91 14.13 13.24 11.69
22.18 22.46 21.16 20.70 20.69 20.51 19.33 18.75 16.80 19.66 23.57 24.27 24.89 25.41 25.78 25.20 25.39 25.02 24.17 23.23 22.93 20.41 16.19 15.67 15.18 15.01 14.67 14.86 14.47 13.84 12.53 13.27 14.05 12.76 12.51 12.23 12.48 12.36 12.22 11.16 11.07 11.18 10.74
17.78 18.28 17.69 17.56 17.52 17.22 16.69 16.33 16.19 15.03 13.83 14.63 19.62 21.47 23.13 23.33 23.29 22.67 21.81 19.22 15.05 15.54 14.20 12.88 12.42 12.76 13.01 12.62 12.37 11.71 11.09 10.82 10.45 9.61 8.80 9.13 9.52 9.83 9.64 9.15 8.68 7.31 8.07
18.44 16.96 15.23 15.85 15.84 15.83 15.66 15.57 14.63 13.37 12.55 12.41 13.12 14.49 15.52 19.34 18.94 18.77 17.76 13.35 11.74 11.20 11.55 11.18 11.47 11.38 11.18 10.52 9.52 8.44 7.70 6.66 6.03 5.02 4.85 5.35 4.41 7.45 6.35 6.41 6.46 6.07 4.74
15.40 17.45 15.92 15.70 15.39 14.77 14.37 13.46 12.88 12.15 11.09 10.24 9.98 10.45 11.75 11.32 9.19 9.30 10.15 10.15 9.75 9.47 9.74 9.27 9.25 9.01 8.86 8.64 7.32 7.41 6.30 5.86 5.45 5.03 2.20 0.83 1.40 4.84 3.34 3.41 3.01 2.07 4.37
13.12 14.16 13.14 15.64 14.87 14.53 13.61 12.89 12.29 11.19 9.92 8.92 8.17 8.91 9.19 8.77 7.03 7.38 7.99 7.80 7.93 7.76 7.56 7.61 6.92 6.67 7.16 6.25 5.54 3.18 1.51 1.39 1.42 0.57 0.78 0.99 -5.01 -1.81 -0.27 -1.45 -0.55 0.92 3.05
13.86 14.51 14.69 13.60 13.48 12.21 12.13 11.67 10.27 9.97 9.36 8.02 7.12 6.35 5.08 6.00 5.73 5.23 4.66 4.58 5.71 6.40 6.56 5.26 4.17 4.26 3.63 3.18 2.89 -0.65 -2.96 -5.75 -5.63 -5.89 -5.75 -7.38 -4.34 -4.16 -5.57 -6.76 -7.83 -8.01 -1.01
11.39 9.34 10.83 10.69 10.94 7.14 7.63 8.86 6.80 6.07 5.24 4.54 4.89 4.09 2.98 -0.16 -0.35 0.53 -0.97 -3.64 0.49 -0.74 0.77 0.39 -0.89 -0.43 -1.16 -3.25 -2.08 -2.64 -4.24 -6.77 -8.20 -11.48 -14.17 -12.17 -6.77 -9.28 -13.06 -11.98 -7.81 -8.17 -7.99
7.88 6.19 8.60 6.29 4.62 4.82 1.32 -1.28 0.67 2.09 2.75 -0.56 -4.18 -2.19 -4.92 -8.18 -11.98 -13.43 -10.16 -9.26 -6.90 -6.17 -9.63 -11.44 -5.90 -4.28 -5.34 -12.16 -11.61 -5.68 -4.28 -11.65 -8.22 -9.84 -16.34 -16.33 -11.98 -8.98 -13.80 -9.63 -7.81 -10.53 -11.07
3.65 1.76 1.52 -0.72 -4.20 -5.99 -4.39 -4.75 -6.54 -7.99 -5.81 -9.26 -9.98 -8.35 -4.56 -6.97 -8.75 -15.96 -17.60 -13.97 -11.63 -15.96 -11.61 -12.70 -12.70 -11.61 -12.52 -12.23 -12.07 -10.41 -11.07 -11.98 -14.70 -14.16 -15.07 -14.88 -16.51 -17.23 -15.06 -11.81 -13.98 -10.01 -11.80
2.23 0.32 -2.47 -3.38 -5.82 -7.63 -9.26 -11.79 -16.33 -16.33 -15.96 -16.33 -17.78 -18.50 -16.69 -14.70 -15.96 -20.50 -16.87 -14.33 -14.33 -13.61 -12.16 -11.43 -9.63 -10.34 -9.80 -5.64 -6.20 -8.35 -11.26 -11.43 -14.51 -15.24 -20.13 -12.91 -17.05 -17.23 -17.42 -15.96 -12.52 -11.98 -8.72

GFSGL_sfc_wetblb_075.txt.gz
Wetbulb
56.59 57.00 58.34 58.06 58.43 58.52 57.33 57.27 57.39 57.72 57.14 56.68 57.48 57.34 57.12 57.61 57.77 57.17 57.08 57.03 56.63 56.61 56.60 56.25 56.00 56.58 56.10 55.42 55.18 54.44 53.63 53.28 52.59 54.64 57.88 59.73 58.70 58.34 58.17 57.79 55.96 56.14 56.46
56.78 56.68 56.50 57.67 57.65 57.29 57.53 58.25 58.98 57.62 57.35 56.18 56.62 56.84 57.69 57.97 58.99 58.32 57.74 56.53 56.00 55.82 56.29 55.88 55.50 55.87 55.46 56.34 55.14 54.26 56.31 57.15 55.10 54.08 57.19 58.12 59.17 59.91 60.25 59.63 57.79 56.21 57.08
56.70 56.45 56.38 56.32 56.24 56.28 57.11 57.13 57.70 58.15 58.19 57.42 56.88 56.14 56.61 57.98 58.55 57.66 58.09 58.49 57.83 57.28 57.14 56.63 56.42 56.04 55.61 55.56 55.70 56.08 56.23 55.62 55.88 54.92 55.70 58.52 59.36 60.69 59.71 58.57 58.76 59.48 59.14
56.00 55.53 54.28 55.62 56.16 56.26 57.15 57.54 57.30 57.19 57.51 57.77 57.98 58.15 58.11 57.66 56.98 57.06 57.46 57.81 58.08 58.06 58.21 57.64 57.43 58.04 58.00 58.12 57.96 57.85 56.69 55.56 55.90 55.11 55.08 57.20 58.39 59.45 59.87 58.02 58.06 59.54 57.52
46.45 46.04 46.16 47.97 49.16 51.07 53.33 55.42 57.04 57.05 56.99 57.09 57.34 57.20 57.77 57.53 57.09 57.21 56.54 56.12 56.52 57.38 58.68 58.29 58.75 56.97 51.38 54.36 57.58 57.93 58.07 56.99 56.18 55.32 54.69 56.33 56.69 57.04 57.05 58.51 56.96 57.42 58.39
39.37 39.32 41.14 42.48 43.67 44.69 46.37 47.34 47.89 47.93 49.12 53.47 54.93 54.65 54.30 49.99 36.50 38.42 44.82 55.85 56.60 56.54 56.87 57.92 58.55 51.27 51.40 45.00 45.25 46.19 52.86 55.81 54.78 54.31 54.22 53.15 54.48 56.77 57.80 57.17 56.86 55.75 54.01
36.24 36.90 37.41 39.30 39.92 40.29 41.47 42.25 42.58 44.31 45.84 46.12 45.14 44.98 41.92 36.17 35.03 36.21 36.36 43.90 50.99 53.98 54.65 55.24 55.81 56.42 51.66 56.57 48.07 42.73 43.63 43.17 45.01 53.36 52.78 53.02 52.82 53.97 53.78 53.17 53.35 52.90 52.63
34.15 34.46 35.85 37.44 37.69 38.56 39.75 40.36 41.16 42.95 42.59 39.75 38.16 36.42 37.38 35.07 34.39 35.01 34.87 42.17 45.89 49.27 52.31 53.52 52.80 52.55 53.38 51.61 53.34 52.77 51.44 50.73 47.65 47.58 49.83 51.10 41.54 34.56 37.30 44.46 46.87 46.20 34.22
31.46 32.37 34.35 34.96 35.19 35.98 36.42 37.28 38.80 39.74 38.25 35.05 34.04 33.22 33.35 32.77 32.87 33.38 35.10 40.64 43.26 44.51 36.55 34.53 33.69 35.45 36.22 36.95 41.46 48.00 50.01 35.39 32.85 32.27 32.08 31.08 30.10 30.20 31.19 37.40 37.22 37.15 32.85
29.65 30.70 32.58 32.97 33.10 33.28 33.97 35.07 35.55 35.26 33.60 32.82 31.43 31.78 31.27 31.92 31.34 31.97 34.90 38.91 38.04 35.01 31.69 30.59 31.77 32.87 33.11 33.54 36.90 38.01 34.21 30.32 28.91 27.07 26.11 26.13 26.36 26.41 27.46 27.04 30.16 33.21 32.05
29.51 29.78 30.24 31.01 31.28 32.49 32.68 33.42 33.35 32.53 31.86 31.21 30.48 30.68 30.33 30.07 30.62 30.64 30.68 31.02 30.35 28.30 27.32 26.98 28.11 29.72 30.35 30.57 30.20 29.07 27.72 27.20 25.71 25.02 23.87 23.84 23.49 23.02 23.15 22.90 22.72 24.00 23.36
28.83 28.50 28.61 28.85 29.49 30.08 30.73 30.92 31.15 31.30 30.60 30.16 29.38 28.89 29.21 29.10 28.93 28.93 28.50 28.30 27.57 25.66 24.39 25.40 26.06 27.03 27.55 27.18 26.51 26.62 25.69 23.85 22.65 21.17 19.97 19.44 20.38 22.43 21.44 22.59 22.06 23.27 23.46
28.04 27.30 27.54 28.05 27.92 28.43 28.48 28.09 27.46 27.98 27.97 27.30 26.60 26.20 26.76 28.07 28.71 26.68 27.10 26.20 26.13 26.92 26.69 25.41 24.74 24.75 24.71 25.00 24.48 23.77 22.64 22.91 21.40 18.76 18.85 20.53 21.85 23.05 24.85 24.89 23.98 23.64 22.11
26.28 26.11 26.30 25.83 26.21 26.90 27.52 27.49 26.71 26.16 26.23 26.08 25.68 25.78 26.52 26.79 27.66 28.75 27.74 28.08 26.14 26.23 25.19 24.67 23.74 23.20 21.96 22.34 23.65 23.95 23.67 23.17 22.34 20.93 20.07 20.05 21.78 22.28 21.10 21.86 21.32 21.80 18.37
25.66 25.45 25.31 25.61 24.87 24.37 24.99 25.67 25.72 26.86 26.78 25.46 25.34 25.94 25.91 24.94 26.21 26.49 26.78 26.17 25.51 23.41 24.53 24.50 23.51 22.98 22.21 21.97 21.01 20.40 21.26 21.77 20.96 20.56 19.65 19.12 18.63 18.37 17.58 19.40 19.16 18.95 16.68
24.55 24.02 23.78 24.05 24.19 23.85 23.23 22.11 24.48 25.10 25.56 25.88 25.98 26.17 26.12 25.72 25.36 24.89 23.98 22.91 21.75 22.13 22.06 20.70 19.75 19.64 18.90 18.98 18.57 17.84 17.91 16.78 18.12 18.55 18.12 17.41 16.50 16.44 16.16 17.11 17.49 16.83 15.91
23.41 23.58 23.35 22.96 22.79 22.18 21.42 21.35 19.54 19.61 21.03 21.97 23.08 23.77 23.88 23.43 23.18 22.22 21.25 20.77 20.29 20.73 19.09 17.82 16.96 17.09 16.96 16.58 16.14 15.68 14.64 15.12 15.84 15.65 15.76 16.06 15.40 14.67 15.19 14.74 14.85 15.60 14.20
19.79 18.31 21.30 20.83 20.40 19.79 19.18 18.38 17.97 17.39 16.31 15.94 17.25 18.36 20.57 20.52 20.04 19.34 18.61 19.27 17.75 17.40 16.58 15.99 15.65 15.72 15.40 14.84 14.25 13.84 13.53 13.40 13.33 13.79 13.73 13.62 13.88 14.02 13.66 12.77 13.00 12.55 13.69
20.69 19.62 19.42 19.08 18.08 17.40 17.97 17.34 16.52 15.48 14.54 14.40 15.43 14.82 13.49 15.91 15.83 15.88 16.18 15.22 14.46 14.19 14.41 13.89 14.50 14.24 13.96 13.65 12.77 12.28 11.57 11.24 11.01 10.92 10.58 10.76 11.51 12.14 10.85 11.29 11.69 9.20 10.90
19.28 16.75 17.94 18.78 18.26 17.79 17.13 16.01 14.68 13.73 12.78 11.99 11.74 11.85 13.92 14.10 12.48 11.78 12.14 12.61 12.25 12.26 12.66 12.21 12.18 12.17 12.06 11.82 11.38 11.23 10.85 9.97 9.66 9.93 9.38 9.33 10.16 10.61 9.50 9.19 9.79 10.20 9.84
19.50 18.44 15.91 18.29 17.22 16.46 15.91 14.71 13.80 13.01 11.68 10.65 9.65 8.36 6.46 11.17 9.77 9.65 9.83 9.95 10.03 10.03 10.16 10.67 10.52 10.40 10.79 9.77 9.30 8.55 6.94 7.39 6.44 6.41 7.14 7.74 7.08 8.43 8.57 8.93 9.07 9.45 9.11
18.32 17.78 16.97 15.78 15.49 14.95 14.01 13.62 12.67 11.74 10.98 10.13 9.75 7.72 6.15 9.73 9.16 8.46 7.85 7.80 8.42 9.06 9.35 9.07 8.70 8.17 7.74 7.53 7.26 7.10 5.19 4.13 4.53 4.77 5.26 4.85 6.41 7.26 7.89 8.02 8.06 7.91 8.25
16.05 15.45 14.77 13.99 13.34 10.80 12.55 11.86 11.06 10.61 9.57 9.13 8.96 7.99 7.43 7.03 6.67 6.69 6.02 6.62 7.17 6.79 7.13 7.95 7.00 5.82 5.92 5.24 6.12 5.85 4.24 2.95 2.91 2.46 2.85 3.96 5.35 6.50 6.79 7.20 6.50 6.69 6.10
14.04 14.00 12.55 11.81 11.67 10.72 10.48 10.17 9.38 6.57 8.27 7.73 7.56 6.84 5.90 5.35 5.49 4.27 4.30 5.48 6.15 6.42 5.47 4.97 5.09 3.81 4.06 4.34 5.45 5.47 4.00 2.71 2.88 2.52 -0.66 1.47 3.62 4.38 5.71 5.52 6.00 3.92 5.32
11.69 10.87 10.54 9.78 9.28 8.68 8.51 8.13 7.41 7.42 7.55 7.70 7.20 7.09 6.18 6.05 4.96 4.50 3.90 3.37 2.55 4.32 3.01 3.23 4.04 2.03 1.45 -0.44 -0.02 0.75 -1.33 -1.87 -1.06 -4.34 2.18 0.46 -0.32 -0.95 1.12 4.13 2.82 5.00 3.45
9.51 8.90 8.63 9.00 7.78 7.94 7.81 7.17 6.56 6.88 6.21 5.43 4.91 4.51 4.47 4.35 3.86 3.29 2.61 1.99 2.23 2.20 1.17 3.45 3.00 0.65 0.13 1.23 -1.01 -0.04 -2.12 -2.43 -1.41 -6.37 -0.10 2.57 1.44 2.46 2.97 1.75 0.63 3.85 3.42

GFSGL_sfc_wetblb_078.txt.gz
Wetbulb
57.99 58.50 59.68 59.45 60.07 59.55 59.14 58.93 59.27 59.62 59.87 58.77 59.77 59.62 58.78 58.08 57.92 57.26 57.32 55.93 55.18 55.69 56.10 55.54 55.87 56.46 55.94 56.56 57.30 56.80 56.85 56.62 53.35 55.63 56.70 59.04 59.38 61.07 61.02 61.62 60.79 61.20 61.46
57.73 57.95 58.73 59.14 60.12 60.14 59.25 58.96 59.29 59.01 59.35 59.61 59.55 59.18 58.49 57.85 57.96 57.66 57.05 57.00 55.87 54.45 55.30 56.11 55.84 56.32 56.18 56.53 56.07 55.26 55.00 55.38 53.49 52.01 55.49 55.41 56.87 59.17 61.59 62.21 61.39 61.56 62.22
57.19 57.53 57.42 57.08 57.12 57.65 59.19 60.17 59.94 59.35 58.52 58.41 58.70 58.33 58.35 58.38 58.50 58.69 59.08 59.04 59.08 58.39 57.55 56.00 55.82 55.61 55.19 55.54 55.81 55.29 55.90 55.80 55.24 53.67 54.55 58.92 60.18 61.02 60.80 61.85 62.14 63.03 62.30
55.69 53.84 53.15 55.09 56.67 57.12 57.71 58.61 59.15 59.63 59.16 58.34 58.12 58.10 58.59 58.86 58.85 59.59 59.99 60.19 59.16 59.04 59.82 59.47 59.36 59.38 59.18 59.25 59.29 58.86 58.38 57.87 58.47 57.55 58.00 58.09 59.19 60.42 60.73 59.59 59.62 61.96 61.72
45.71 45.74 45.62 46.52 48.25 49.23 50.41 50.83 54.76 57.41 58.06 59.63 59.37 59.42 59.25 51.98 40.95 43.95 57.02 58.53 58.17 58.51 59.31 59.15 59.66 57.70 51.75 54.74 60.05 60.19 59.41 58.69 59.20 58.09 56.30 57.73 58.29 58.43 58.26 59.99 59.11 60.13 61.64
40.72 40.94 42.81 43.90 43.44 44.07 45.05 45.99 47.42 48.22 48.72 47.55 46.09 44.58 42.12 38.93 35.69 36.42 39.44 52.08 55.24 56.40 56.41 57.22 57.91 52.19 51.52 45.35 45.72 46.04 51.68 56.54 56.28 55.77 55.83 54.54 55.22 57.02 58.60 57.78 57.15 55.85 54.57
39.24 39.75 41.45 42.34 41.54 42.01 43.46 43.57 44.74 44.42 42.81 40.77 40.77 40.34 36.08 34.51 34.26 34.86 34.85 40.76 46.20 49.76 51.25 50.06 52.17 54.10 48.69 52.14 48.08 43.08 43.51 42.12 42.97 51.62 53.10 53.85 53.70 53.89 50.00 53.39 54.00 53.76 53.46
38.89 38.28 38.83 39.39 40.92 42.95 43.40 43.11 42.76 40.53 38.45 36.77 36.50 36.52 34.96 33.13 33.23 33.58 34.05 42.36 45.82 38.85 34.92 34.95 36.79 38.50 36.76 36.48 41.11 45.73 50.49 37.14 35.27 39.51 36.52 32.37 30.48 31.06 32.87 38.29 39.69 40.04 37.08
33.76 34.61 36.36 38.11 38.11 40.05 39.90 39.72 40.55 39.21 37.04 35.62 34.99 34.81 35.28 32.91 32.40 33.21 39.39 45.45 38.04 34.46 32.80 32.16 32.79 33.03 32.47 33.72 39.27 41.38 36.88 30.23 31.64 31.17 30.00 29.12 28.67 28.93 28.48 34.64 34.59 35.34 36.45
33.61 34.14 35.46 35.49 36.75 36.66 37.42 37.26 37.67 37.22 35.71 35.50 34.70 35.47 33.10 34.40 30.94 31.86 36.46 36.34 32.67 31.20 29.79 29.84 29.72 30.18 30.41 31.18 34.34 36.69 28.80 26.81 26.72 25.81 25.55 25.38 25.27 25.18 25.90 24.84 24.64 29.83 31.49
32.84 32.35 32.61 34.74 34.89 34.91 35.74 36.45 36.09 35.21 35.02 34.82 33.85 33.40 32.96 30.69 30.74 30.24 31.29 33.34 30.14 28.38 27.68 27.63 28.98 28.88 29.08 29.20 29.09 27.99 25.97 25.70 24.37 23.73 23.29 23.98 24.13 23.69 23.81 25.27 25.13 23.81 23.68
32.48 31.93 31.17 32.02 33.38 33.83 34.02 33.97 34.48 34.05 33.14 33.17 32.96 31.59 31.25 30.64 28.78 28.67 28.72 29.39 31.23 30.36 29.11 28.90 28.55 27.79 27.91 27.97 28.70 26.95 26.23 26.28 25.51 24.36 23.76 23.21 23.33 25.64 26.61 25.89 25.86 25.67 25.71
30.52 30.46 30.99 31.23 30.65 31.97 32.42 33.08 33.25 33.67 33.23 32.39 31.58 30.69 30.04 30.98 31.31 28.75 27.73 27.42 27.33 28.64 28.05 27.21 26.53 27.26 27.66 27.26 26.67 27.74 29.19 30.50 30.00 28.36 26.75 25.89 26.47 26.84 28.50 29.30 28.59 27.87 26.03
30.06 29.34 29.20 29.33 29.82 30.21 30.56 30.51 30.26 30.38 30.14 29.77 29.55 29.10 29.13 28.69 28.82 30.40 30.08 30.66 28.71 29.03 28.63 28.90 27.76 27.57 27.06 26.97 27.28 27.63 27.31 26.85 26.51 26.25 26.06 26.59 27.27 26.68 26.31 27.05 26.12 26.78 25.14
29.78 29.55 29.27 28.58 27.65 26.11 26.51 27.37 26.41 27.38 28.31 27.78 27.44 27.34 27.36 25.60 25.66 26.03 26.40 28.02 28.31 27.49 28.84 29.19 28.12 27.59 26.83 26.29 25.72 24.62 24.76 25.66 24.96 25.26 25.08 25.00 24.67 24.61 23.92 25.15 24.57 24.53 22.65
28.94 28.83 28.82 29.40 29.21 28.42 25.93 23.38 24.43 24.89 25.24 25.51 25.67 26.90 26.05 24.83 24.42 24.33 23.82 23.61 24.22 26.05 27.55 25.94 24.83 24.65 23.74 23.35 22.94 22.68 22.66 21.45 22.48 23.35 23.39 22.93 21.98 21.58 22.20 22.94 23.58 22.43 21.27
28.42 28.55 28.51 28.46 28.54 27.80 27.83 27.53 23.38 21.82 21.53 21.82 23.23 23.16 23.15 22.67 22.44 22.19 22.43 22.50 22.99 25.91 25.19 23.80 22.98 22.65 22.03 21.62 21.35 20.90 20.06 19.95 21.00 21.25 21.14 20.78 21.45 21.21 20.85 20.36 20.58 20.73 20.10
26.02 24.89 27.46 27.20 27.20 26.64 26.06 25.33 25.17 24.62 23.56 22.14 19.07 19.05 19.63 19.83 20.04 20.85 21.24 23.96 23.41 22.51 22.44 21.46 20.94 20.94 20.45 19.80 19.59 19.16 19.24 19.53 19.11 19.17 18.91 18.97 19.37 19.43 18.97 18.77 18.14 17.25 18.43
26.53 25.82 25.89 25.18 24.17 24.30 24.54 23.83 23.25 22.34 21.84 21.59 22.15 20.68 18.76 18.56 18.74 19.18 20.20 21.43 20.54 19.75 19.85 19.33 19.76 19.52 19.10 19.00 18.68 18.21 17.11 16.58 16.53 17.12 17.32 16.90 17.42 18.02 16.69 16.91 17.86 14.13 15.29
23.86 21.85 24.00 25.16 24.85 23.98 23.29 22.21 21.31 20.65 19.91 19.02 17.64 17.40 20.51 20.56 19.39 18.60 18.81 18.96 18.56 18.34 18.48 17.81 17.86 17.80 17.50 17.54 17.27 16.54 17.09 16.00 15.66 15.87 15.70 15.70 16.16 16.68 15.88 15.28 15.53 15.94 15.78
25.00 23.30 21.53 24.00 23.06 22.56 21.84 20.82 20.24 19.68 18.34 17.51 15.03 12.92 12.14 17.59 16.52 16.27 16.26 16.20 16.04 16.11 16.33 16.62 16.57 16.00 16.25 15.73 15.61 14.91 13.47 14.36 12.98 13.12 13.69 13.93 13.63 13.98 14.75 15.56 15.35 15.20 14.82
24.06 23.25 22.53 21.58 21.60 20.83 20.12 19.84 19.34 18.26 17.50 16.84 16.35 13.25 12.47 16.54 15.85 15.00 14.65 14.16 14.58 15.04 15.58 15.28 14.88 13.95 12.97 13.05 13.15 13.50 11.87 11.08 11.19 11.46 11.88 11.52 12.54 14.13 13.81 14.19 13.60 13.84 13.96
22.16 21.44 20.66 19.99 19.36 17.41 19.02 18.58 18.29 17.81 16.76 16.35 15.95 14.85 14.61 14.52 13.78 13.82 12.91 13.14 13.44 13.00 12.52 13.83 12.97 11.74 12.00 11.73 12.16 11.59 9.87 9.08 9.23 8.44 7.60 9.83 11.37 11.52 12.72 12.83 12.03 11.51 11.22
20.62 20.29 18.96 18.66 18.68 18.52 18.40 17.39 15.29 12.26 15.02 15.79 15.81 14.71 13.59 13.18 12.86 11.15 11.29 11.68 11.49 12.20 11.52 10.91 9.99 7.66 8.07 9.45 11.33 11.42 9.33 7.21 7.61 8.32 5.41 6.99 9.06 9.99 10.72 10.48 11.21 10.02 10.10
18.83 18.43 17.94 17.64 16.97 16.72 16.89 15.84 15.52 15.48 15.44 15.57 15.40 15.00 13.91 13.39 12.01 11.63 11.02 10.24 8.15 9.91 7.39 8.05 8.65 8.14 6.86 4.72 4.30 5.14 3.07 1.83 3.07 0.79 7.08 7.74 7.07 5.57 6.91 8.53 7.62 9.87 9.18
16.00 15.68 16.28 16.74 16.10 16.13 15.89 15.52 14.99 14.30 13.19 13.63 13.48 12.99 11.84 11.27 10.78 10.08 9.64 7.82 7.52 7.77 6.06 8.94 8.01 5.66 5.11 8.09 3.83 4.53 1.53 0.99 1.98 0.05 2.66 7.75 6.81 7.62 7.80 7.76 7.07 8.10 9.19

GFSGL_sfc_wetblb_081.txt.gz
Wetbulb
60.52 61.74 60.52 60.64 61.48 61.81 61.29 61.31 60.57 61.30 60.63 59.97 60.23 59.53 58.35 57.03 56.33 55.83 56.35 55.31 55.00 55.23 56.04 56.19 56.06 57.10 56.63 56.57 56.82 56.91 57.24 57.77 54.50 57.45 58.34 59.89 59.57 60.47 60.11 60.48 61.89 62.22 61.52
59.79 60.26 59.99 60.31 60.13 60.65 60.21 60.92 61.20 60.24 60.00 59.56 59.53 59.41 58.93 58.41 57.88 57.19 56.05 55.53 54.95 54.82 54.70 54.56 54.76 55.24 56.15 56.28 56.01 56.01 55.85 55.89 53.96 52.62 54.92 55.54 57.52 58.80 57.26 57.25 58.24 59.22 61.31
58.88 58.69 58.79 59.23 59.87 59.41 59.18 59.67 59.81 59.34 58.68 58.78 59.16 59.28 59.41 59.28 58.57 57.92 57.30 57.08 56.61 55.19 55.87 54.88 55.07 55.57 55.18 55.71 56.22 55.39 55.24 55.29 54.68 53.43 53.21 55.54 56.80 58.21 57.72 57.71 58.71 59.78 60.85
55.17 53.88 54.10 55.84 58.60 59.22 59.41 60.25 59.89 59.72 58.47 58.17 58.25 58.57 58.85 58.22 55.59 56.62 58.11 57.91 57.92 58.28 58.94 58.81 57.97 57.17 56.55 56.06 55.75 56.58 57.38 57.20 57.50 56.49 56.17 57.00 58.48 59.73 59.98 58.41 58.30 60.25 60.33
46.92 46.45 46.28 46.95 48.25 49.00 49.52 52.87 55.50 52.98 51.98 52.13 55.63 48.30 44.23 41.48 38.50 40.66 48.94 55.79 58.57 58.91 60.49 59.15 59.19 57.35 51.53 53.78 57.82 57.71 58.81 57.34 56.92 57.41 56.99 57.88 58.01 58.13 57.68 59.20 58.15 59.20 60.18
42.53 42.60 43.33 43.93 44.76 45.11 46.14 46.99 45.38 44.00 44.34 44.80 40.82 39.58 38.50 36.86 34.90 35.61 38.35 50.93 54.74 53.45 53.10 50.10 51.77 43.00 42.95 40.36 40.80 41.30 43.65 51.94 55.55 55.34 55.02 54.42 56.73 57.88 58.42 57.37 57.18 56.19 54.45
39.86 40.72 42.55 43.38 43.14 43.70 44.42 42.20 40.79 39.58 39.43 38.82 38.37 36.36 34.04 33.91 34.36 35.49 35.47 44.61 43.44 38.87 38.10 38.62 41.36 40.10 36.63 37.71 39.85 40.64 34.44 34.19 35.73 42.00 45.65 44.86 38.48 33.82 34.82 40.15 45.14 44.44 44.53
38.58 39.42 41.12 42.22 42.74 43.03 42.18 40.25 38.93 37.57 36.40 36.48 36.60 35.47 33.57 32.70 33.51 34.85 35.78 39.98 36.29 34.12 33.19 34.23 34.61 33.84 32.49 33.76 38.00 41.94 32.38 30.76 30.87 30.98 29.22 28.17 27.93 28.53 29.60 33.52 35.65 36.55 37.22
34.40 35.91 38.88 40.31 40.64 40.64 39.62 39.39 38.68 37.76 36.37 35.57 35.36 35.76 34.01 31.84 32.99 34.63 39.45 37.55 34.32 32.59 31.99 31.49 32.57 32.83 31.39 34.07 40.45 36.16 30.04 28.36 29.93 30.09 29.27 28.45 28.74 28.96 28.48 32.05 27.99 31.31 34.34
33.58 35.16 36.34 36.91 37.95 37.24 37.83 37.91 38.21 38.24 36.79 36.46 34.93 34.15 33.57 31.84 31.33 33.76 36.24 34.74 32.10 30.70 30.58 30.31 29.95 30.06 30.47 32.03 34.19 31.03 26.64 25.66 25.97 25.98 26.16 26.37 26.63 26.84 27.63 26.58 26.07 27.38 24.78
33.26 34.14 34.65 35.52 35.82 36.56 37.68 37.92 37.54 36.97 36.44 35.14 33.68 33.59 32.23 31.47 30.03 31.20 33.58 34.64 32.56 31.37 29.99 28.92 29.64 29.54 29.90 29.78 29.57 28.74 26.95 27.58 26.54 26.93 27.05 28.13 29.49 29.34 29.34 29.13 28.98 28.36 27.91
32.81 32.22 32.39 33.70 34.55 35.79 36.05 36.03 35.61 36.14 35.40 34.04 32.80 32.41 32.74 31.40 29.69 29.50 29.69 30.63 31.75 29.99 28.76 28.77 29.24 28.70 28.75 29.34 29.99 29.92 30.22 31.27 31.38 30.14 29.12 28.02 27.67 27.78 29.34 29.31 28.54 28.03 27.67
33.86 32.44 32.10 32.04 32.24 32.57 32.88 33.40 33.82 34.48 33.36 32.34 31.51 30.70 30.20 31.61 31.88 29.96 29.25 28.63 28.74 29.15 29.38 28.71 28.50 28.65 28.45 28.45 27.85 28.29 29.05 30.29 29.84 27.99 26.86 26.70 27.42 28.82 31.40 31.72 33.34 30.37 28.38
31.30 30.77 31.23 31.30 31.31 31.59 30.22 29.45 28.56 31.11 30.55 30.59 30.33 29.35 28.74 27.83 28.35 30.62 31.15 30.83 29.80 30.19 30.06 30.23 29.33 28.89 28.76 28.15 28.55 28.48 29.04 28.41 27.68 26.86 27.00 27.97 29.78 28.18 26.92 28.18 27.27 27.46 27.15
31.44 30.65 29.73 29.01 27.28 25.31 25.27 26.89 26.12 26.86 27.02 27.97 27.16 26.92 26.61 24.65 24.76 25.93 27.11 28.18 29.30 29.28 31.22 30.67 29.04 28.91 27.49 27.72 26.93 26.35 25.81 26.51 25.89 26.45 26.15 25.75 25.40 25.49 25.20 26.34 25.92 25.85 24.14
30.10 30.27 30.63 30.86 29.66 27.90 25.63 23.17 24.52 25.26 25.39 25.39 25.19 26.54 25.26 24.57 24.84 24.89 25.29 25.93 26.78 28.48 28.34 26.63 25.81 25.80 25.00 24.78 24.19 23.99 23.50 23.00 23.86 24.42 24.23 23.93 23.67 23.10 23.34 24.19 24.64 23.92 22.57
29.52 29.60 29.52 29.37 29.06 28.81 28.85 26.00 22.54 21.71 22.23 22.81 22.90 23.14 23.10 22.79 22.50 23.04 24.18 24.53 25.38 27.79 26.06 24.91 24.37 23.92 23.32 23.09 22.77 22.25 21.43 21.60 22.38 22.34 22.13 21.51 22.41 22.18 22.22 21.64 21.17 21.62 21.47
27.33 27.28 27.88 27.97 27.80 27.47 27.13 26.45 27.14 26.46 24.19 21.38 19.99 20.41 20.73 21.23 21.98 23.23 24.09 25.87 24.89 24.34 23.85 23.05 22.44 22.44 22.02 21.32 20.97 20.10 20.18 19.96 20.33 20.56 20.09 20.11 20.13 20.79 19.70 19.44 19.88 17.54 18.30
27.10 26.90 27.03 26.88 26.65 26.43 26.69 26.33 25.98 25.40 24.67 24.17 23.96 23.24 22.30 21.06 21.66 22.24 23.33 23.54 22.34 21.37 21.34 20.70 21.16 20.78 20.71 20.51 19.89 20.22 19.37 18.45 18.24 18.82 18.98 17.82 18.64 19.16 18.09 18.16 18.33 17.02 16.85
26.00 25.06 26.46 27.16 26.77 26.42 26.01 25.18 24.33 23.90 23.02 21.22 19.15 18.96 22.65 23.08 21.59 20.80 21.22 21.34 20.44 20.28 20.35 19.72 19.51 19.47 19.14 18.85 19.22 18.14 18.43 17.70 16.57 17.15 17.03 17.19 16.94 17.97 16.97 16.97 17.01 16.30 16.81
27.15 26.01 24.66 26.17 25.27 24.87 24.41 23.57 23.19 22.64 21.32 19.62 16.61 15.70 15.28 20.45 19.57 19.17 18.55 18.48 18.32 18.21 18.29 18.55 18.19 17.31 17.59 17.40 17.51 17.12 15.50 15.72 14.87 14.71 15.28 14.83 15.14 15.81 16.13 16.94 16.24 16.44 16.49
25.84 25.00 24.51 23.66 23.82 23.14 22.84 22.77 22.16 21.23 20.47 19.83 19.24 16.70 16.80 19.59 18.88 17.89 17.30 16.84 17.06 17.22 17.76 17.35 16.63 15.95 14.64 14.61 14.53 14.69 13.73 12.57 12.72 12.02 11.52 12.68 14.09 15.23 15.02 15.45 15.25 14.17 15.00
24.56 23.73 23.16 22.48 21.98 21.03 22.11 21.64 21.26 20.76 19.87 19.17 18.64 17.78 17.49 17.15 16.43 16.50 15.77 15.68 15.77 15.20 14.34 14.76 14.40 13.49 13.07 13.97 14.29 13.54 11.26 9.91 10.05 10.31 8.80 9.91 11.69 13.05 12.51 13.38 13.20 12.92 11.87
23.10 22.50 21.29 20.73 20.10 21.23 20.87 20.19 18.35 14.66 17.32 18.21 17.95 17.51 16.25 15.99 15.38 14.45 14.17 13.39 13.18 14.08 13.28 12.91 11.75 9.39 9.21 9.50 12.26 12.21 9.30 6.99 6.74 8.19 6.26 8.92 10.11 10.43 9.85 10.77 11.78 11.11 11.73
21.39 20.70 20.18 19.82 19.25 19.42 19.55 18.55 18.21 17.61 17.40 17.19 16.81 16.60 16.04 15.85 14.81 14.27 13.35 12.61 10.49 11.43 11.10 10.56 10.99 9.95 9.94 7.68 7.45 7.33 4.38 3.10 3.46 2.97 6.33 8.14 9.77 8.31 9.77 9.31 10.16 9.57 10.45
18.74 18.44 18.83 19.17 18.49 18.36 17.97 17.74 17.03 16.46 15.80 15.89 15.86 15.56 14.79 14.10 13.91 12.91 12.30 11.10 10.01 9.52 9.71 10.84 10.52 8.47 7.85 9.64 8.58 5.67 3.35 2.90 2.50 1.29 2.58 6.37 8.83 8.99 9.15 7.41 8.45 8.59 9.35

GFSGL_sfc_wetblb_084.txt.gz
Wetbulb
60.95 61.04 60.88 60.26 60.38 61.03 61.14 60.86 60.17 60.68 60.03 59.95 59.10 57.62 56.57 56.53 56.95 56.83 56.49 56.43 56.15 55.55 55.83 55.77 55.67 56.56 55.99 55.65 55.55 55.29 54.38 53.02 51.92 54.08 55.25 55.60 55.03 56.29 56.90 57.29 57.99 58.04 57.78
60.50 59.85 59.75 59.89 60.17 60.01 59.65 60.04 60.07 59.54 59.77 59.42 59.31 58.69 57.62 56.63 56.27 55.97 55.57 55.33 55.23 54.69 55.05 54.97 55.09 55.65 55.37 55.55 55.13 54.82 54.18 53.75 51.94 51.18 54.48 53.91 54.31 55.74 56.24 56.24 57.66 58.47 57.69
59.09 59.18 58.84 58.71 58.65 58.84 59.16 59.34 59.74 59.09 58.78 58.56 58.56 58.28 58.27 57.74 56.43 56.07 55.79 55.09 54.90 54.40 54.33 53.88 53.90 54.28 53.54 53.76 54.45 54.15 54.74 54.60 54.42 53.31 52.62 53.56 54.10 54.93 54.59 54.99 55.41 55.82 57.14
54.45 52.26 51.54 52.60 54.94 54.82 56.59 58.18 58.74 58.68 57.93 57.82 56.45 49.72 47.95 45.04 46.11 50.28 56.66 56.54 55.95 55.64 55.35 55.23 54.96 54.39 53.95 53.60 53.57 53.89 54.71 54.04 53.89 52.90 52.42 52.81 53.51 54.82 55.26 54.33 54.37 56.28 56.20
47.72 47.55 47.89 48.94 49.34 50.83 49.54 49.03 48.57 48.68 47.11 47.90 44.44 42.54 40.54 38.96 37.55 38.52 44.96 53.86 57.21 56.52 56.42 57.05 51.03 44.16 41.17 41.87 52.37 51.37 53.73 54.54 54.13 53.94 53.51 53.83 54.17 54.98 55.25 56.24 55.39 55.81 55.98
43.34 43.76 44.75 45.39 45.67 44.33 43.98 42.93 42.30 41.78 41.30 39.51 37.64 37.19 36.85 36.12 35.76 36.63 39.06 49.73 45.44 44.58 43.18 43.34 44.15 37.79 38.95 38.13 36.30 35.36 35.81 44.04 48.11 50.11 51.88 51.92 51.03 40.38 41.81 41.88 44.97 47.41 48.33
41.00 42.76 43.64 43.99 42.42 41.15 40.17 39.26 38.53 38.30 37.71 36.34 35.77 35.47 34.25 34.75 35.83 37.84 38.51 39.20 36.63 35.91 35.93 36.73 37.61 35.85 34.72 36.71 37.14 33.85 32.63 32.88 32.09 36.98 39.48 30.70 32.17 30.40 32.45 36.55 40.24 40.21 41.70
38.01 39.75 41.61 41.65 40.86 40.47 39.03 37.47 36.71 36.64 36.38 35.70 34.50 33.68 33.03 33.87 36.85 36.54 35.60 35.32 33.39 32.11 32.15 33.46 32.95 32.05 33.19 35.45 37.63 31.66 29.89 29.99 29.77 30.09 28.99 28.67 28.63 29.11 29.23 32.62 34.64 34.85 35.31
34.40 35.87 38.51 39.67 39.75 38.69 37.69 37.11 36.52 35.74 34.41 33.82 33.55 32.60 32.09 31.78 34.85 36.46 35.58 33.47 31.99 30.88 30.92 31.22 31.23 30.79 33.10 37.80 34.44 30.11 27.94 27.45 30.26 30.37 29.61 29.44 29.95 30.02 29.43 30.56 27.19 31.20 32.59
33.42 34.30 36.34 37.08 37.28 37.19 37.71 37.27 36.65 35.84 34.04 32.53 30.99 31.65 30.94 30.99 33.29 34.72 34.69 32.84 30.34 29.14 29.35 29.69 31.17 30.11 30.93 31.57 30.02 27.99 25.26 25.46 26.60 27.12 27.90 28.82 30.02 29.81 29.63 28.02 27.94 26.47 23.38
33.02 33.85 34.08 34.87 35.43 35.44 35.70 36.61 35.58 34.22 33.42 31.90 30.67 29.61 29.43 29.87 30.62 32.64 34.46 32.44 29.73 28.13 27.57 27.37 28.28 30.13 30.81 31.33 29.88 27.50 26.53 28.35 28.14 29.68 28.76 28.16 28.38 28.95 26.44 23.90 23.52 23.27 24.11
32.30 32.54 32.32 33.42 34.71 34.30 34.88 34.81 34.99 33.61 32.55 31.38 30.47 30.31 30.04 29.41 29.88 30.30 30.41 30.51 30.07 27.82 27.06 28.10 28.48 29.30 29.58 29.81 29.40 30.39 31.11 30.21 29.36 27.45 26.30 25.83 25.81 23.22 26.52 22.32 19.95 19.52 19.34
32.39 31.73 31.31 31.47 30.96 30.35 29.23 31.51 31.72 32.35 31.54 30.04 28.90 27.74 27.43 28.56 30.14 30.42 29.94 29.75 29.55 28.22 28.48 28.92 29.03 28.83 28.71 27.55 28.58 28.63 27.64 28.03 27.21 25.92 25.01 25.16 23.50 22.31 21.34 22.62 23.62 21.99 21.96
29.12 28.10 27.33 25.92 26.20 27.66 27.18 26.72 26.06 28.36 28.41 28.50 28.18 26.05 24.95 24.51 25.43 27.98 29.59 29.76 29.57 29.89 29.39 29.01 28.17 28.30 27.47 24.27 23.67 24.30 24.40 25.72 24.67 23.64 23.22 19.17 20.68 19.89 19.14 20.61 20.11 21.68 20.77
29.56 28.07 26.96 25.94 24.06 23.45 24.42 24.78 24.28 25.09 26.48 25.38 23.97 24.83 22.87 22.04 24.34 26.65 27.20 27.05 28.30 28.64 28.97 27.83 26.24 25.16 22.14 21.51 20.57 20.20 20.29 20.26 19.42 18.20 18.15 17.73 18.05 20.41 20.00 21.16 21.69 20.94 17.18
29.55 29.68 29.58 27.72 26.21 24.19 22.40 21.66 25.37 25.41 25.68 25.56 25.98 24.39 23.84 24.81 25.64 26.19 26.89 27.59 28.51 29.16 25.24 22.89 21.55 20.00 18.60 18.51 18.25 17.64 17.66 17.01 18.11 19.25 17.69 19.18 18.46 18.16 18.94 19.40 20.55 19.13 16.05
28.97 28.98 28.68 28.50 28.54 28.39 25.88 22.90 18.80 20.93 23.18 23.09 23.21 23.70 24.09 24.38 24.28 25.09 26.15 26.41 27.17 26.64 21.94 20.20 17.21 17.04 16.94 18.18 17.80 16.96 15.63 17.11 19.40 16.39 15.85 15.14 17.21 17.48 17.21 18.25 17.18 16.60 15.94
27.21 26.90 27.17 27.17 27.01 26.90 26.75 26.65 25.90 24.86 20.11 17.89 21.04 21.35 22.91 23.75 24.52 25.53 26.16 25.45 20.47 21.31 19.90 18.33 16.34 15.78 16.61 17.28 17.32 16.10 15.44 14.00 14.27 15.64 11.69 12.67 13.18 15.48 12.49 14.50 15.29 10.78 13.43
27.06 27.30 26.87 26.45 26.57 26.66 26.06 25.49 24.59 23.20 22.01 20.32 20.90 20.20 19.17 23.54 23.37 23.77 23.79 19.34 16.91 15.90 16.62 16.25 15.41 15.39 15.78 16.54 11.95 13.09 10.39 8.29 8.43 8.15 11.78 11.25 6.94 13.19 10.48 11.67 12.51 10.31 10.25
24.61 25.10 26.06 26.45 25.81 24.66 24.15 23.31 22.65 21.60 19.09 16.49 14.60 15.18 17.69 19.61 16.90 15.87 16.65 15.94 15.54 16.06 15.70 15.77 15.64 15.30 13.75 14.16 12.82 8.16 10.11 9.72 9.26 11.67 6.58 5.53 5.01 10.49 7.72 9.83 8.38 9.09 12.32
26.42 25.16 22.29 24.27 23.51 23.31 22.65 21.49 21.09 20.15 17.83 14.72 12.58 12.00 10.61 17.21 15.39 14.82 14.82 13.73 13.79 14.02 13.24 14.51 12.48 10.54 11.71 11.11 13.34 12.54 8.67 8.94 8.19 7.26 8.90 9.05 4.09 10.35 8.74 10.98 9.08 10.72 12.49
24.28 23.56 23.11 21.87 21.62 20.93 21.24 21.25 20.30 19.20 18.48 17.22 15.45 13.25 12.09 16.13 15.12 14.22 13.98 12.05 11.52 12.47 13.56 13.23 12.24 12.28 10.84 9.88 8.93 4.63 6.53 3.73 4.90 4.53 2.63 4.21 6.49 9.92 5.84 9.74 6.63 4.98 7.85
23.11 22.72 22.18 21.47 21.28 19.22 20.13 19.29 18.70 18.53 17.43 16.42 16.44 15.34 14.73 13.86 11.84 12.61 12.79 9.62 12.65 10.86 8.65 8.86 6.90 7.68 6.35 8.86 10.06 8.91 4.23 2.63 2.56 4.15 0.37 2.82 4.59 6.17 5.23 6.76 6.49 7.59 3.95
21.87 21.43 20.10 18.57 17.90 19.19 19.17 17.76 13.88 10.95 14.99 15.97 14.78 14.56 11.90 12.19 10.02 11.11 8.61 6.19 6.13 8.99 4.64 5.18 7.48 4.18 3.28 0.67 3.13 6.23 2.31 -1.95 -0.33 1.56 -4.25 1.29 5.49 4.99 0.07 2.89 4.72 0.75 1.68
19.86 19.60 18.74 18.28 17.77 17.80 17.60 16.49 15.63 14.79 14.86 13.65 14.08 13.55 13.16 12.58 11.78 10.02 8.53 6.36 3.22 3.48 6.24 4.90 5.01 2.89 2.98 -0.96 0.85 0.18 -4.09 -3.18 -5.78 -4.80 -2.37 -1.88 2.84 1.16 3.13 3.00 4.51 4.90 0.51
17.46 17.03 17.40 17.59 16.97 16.39 15.93 15.53 14.82 13.85 12.47 12.96 12.31 12.54 10.67 9.88 10.25 7.11 7.54 6.00 4.76 1.57 3.20 5.58 5.27 3.50 1.25 4.26 3.42 -1.34 -3.94 -3.40 -6.14 -5.85 -7.42 -0.75 2.78 1.27 0.36 -2.42 -1.10 1.50 2.97

GFSGL_sfc_wetblb_087.txt.gz
Wetbulb
60.84 60.20 59.48 59.47 59.91 60.42 60.28 60.20 59.97 59.19 58.61 58.28 58.02 57.14 57.02 56.98 57.39 58.43 57.96 58.01 57.44 57.28 56.72 56.70 56.02 56.16 55.16 55.44 54.99 53.39 53.59 53.02 50.30 52.03 53.77 54.83 54.16 55.05 55.89 56.19 57.27 57.70 57.82
59.46 59.04 58.87 59.18 59.86 59.75 59.51 59.08 59.79 59.48 59.47 58.48 58.16 57.28 56.78 56.70 56.80 56.56 56.84 57.36 56.74 56.22 55.62 55.36 55.06 55.64 54.67 55.07 55.02 54.05 53.85 53.59 52.21 50.46 52.38 52.12 53.90 53.89 54.86 55.05 55.98 57.53 57.55
58.60 58.16 58.11 58.49 58.86 58.42 58.58 58.87 59.08 58.67 58.15 58.32 58.45 57.78 57.02 56.52 56.32 56.36 56.26 55.92 56.26 56.14 55.64 55.38 54.76 54.90 54.26 54.29 54.09 53.66 53.93 54.05 53.42 52.18 51.17 52.41 53.94 53.07 52.92 52.96 53.96 54.93 56.06
52.58 52.92 52.42 53.88 54.05 53.30 54.02 55.49 56.34 56.85 52.88 49.47 48.33 47.02 46.66 46.22 48.94 54.43 56.02 55.40 55.44 55.23 55.23 55.41 54.81 54.85 54.52 54.12 53.85 53.39 53.35 52.53 53.70 52.87 52.06 52.25 51.10 52.10 53.35 52.49 52.89 54.64 54.55
48.17 48.42 48.64 49.85 49.33 47.89 46.93 46.79 46.03 45.57 45.19 44.76 42.77 41.51 40.86 40.34 39.08 43.30 51.44 54.18 55.32 53.26 51.94 45.08 42.12 41.54 39.31 40.55 51.97 50.59 51.67 53.09 53.07 52.24 51.96 52.39 52.55 52.82 50.80 48.35 50.52 50.06 47.27
43.77 44.68 45.25 44.49 43.68 43.16 42.20 41.85 41.13 40.14 39.09 38.42 37.32 37.72 38.24 38.41 37.43 38.17 44.10 43.25 43.17 42.88 42.62 41.71 38.59 38.75 37.05 35.90 35.50 34.46 34.75 40.32 47.20 48.23 49.84 46.46 42.52 37.91 37.88 39.49 41.70 44.86 44.73
41.14 42.23 41.91 41.36 39.72 39.38 39.33 38.88 37.54 36.61 36.21 35.50 35.61 36.16 37.13 37.75 36.77 37.00 36.75 36.42 35.51 35.56 35.78 36.60 35.91 35.78 37.35 35.13 33.46 32.70 32.24 32.25 31.57 36.93 33.37 30.97 31.52 29.97 31.27 36.09 39.12 39.59 39.23
36.87 39.67 40.18 39.64 38.74 38.20 37.17 36.14 35.71 35.17 33.96 33.59 33.30 34.07 35.28 36.18 35.51 35.02 34.08 33.42 32.43 32.10 32.23 32.45 32.96 34.38 36.57 35.16 31.83 30.41 29.77 29.91 29.94 30.26 29.44 28.72 29.43 30.08 29.32 31.29 32.42 33.23 30.66
33.46 35.03 37.83 38.50 37.49 36.90 35.59 34.73 34.53 33.55 32.38 31.68 32.14 32.22 33.19 34.17 35.46 34.44 33.23 31.79 30.64 30.45 31.31 31.48 31.63 32.17 35.14 34.57 30.96 28.35 27.22 27.67 31.26 31.63 31.44 31.06 30.43 30.17 29.91 27.70 26.27 26.91 29.17
32.33 33.02 34.68 35.72 36.37 35.75 34.66 33.90 33.32 31.99 30.90 30.67 30.25 31.27 32.30 32.38 33.86 33.78 32.44 30.45 28.30 27.96 28.96 30.03 31.85 30.57 31.34 30.92 29.02 27.72 26.03 26.27 28.28 29.04 28.95 29.69 29.85 28.44 27.99 23.05 22.38 23.75 17.66
32.42 32.36 32.84 33.53 33.19 34.30 34.59 33.93 32.46 31.31 30.34 29.21 28.87 29.27 30.08 30.90 31.69 32.42 31.68 29.68 28.10 27.44 27.51 27.90 29.73 31.65 32.14 31.78 30.76 28.95 27.58 28.36 27.93 27.01 24.46 20.53 20.59 20.60 20.99 19.86 18.36 19.13 16.74
31.84 31.32 30.97 30.90 31.24 32.17 32.52 32.46 32.63 31.44 29.94 29.32 28.69 28.10 28.75 29.39 30.69 30.82 30.55 29.92 29.27 27.29 26.92 27.94 28.72 30.24 30.38 30.30 29.53 30.57 30.07 26.93 25.41 20.92 16.72 16.64 16.48 17.60 17.57 16.60 15.99 16.30 14.56
28.20 27.02 26.85 28.27 28.13 28.14 27.60 29.10 30.96 30.84 29.00 26.99 26.12 25.30 25.70 27.35 29.84 30.23 30.04 29.73 29.26 27.68 28.14 28.75 28.83 28.22 27.67 27.29 28.31 28.22 26.24 25.17 21.26 20.21 17.34 17.11 12.70 12.79 19.28 18.92 20.03 19.96 20.41
26.70 26.17 25.99 25.56 25.42 25.90 25.94 25.99 26.11 26.75 26.21 26.26 24.46 23.06 23.78 24.93 26.33 28.36 28.94 29.41 29.00 28.89 28.27 27.81 26.69 25.01 23.41 22.57 22.20 22.28 21.70 20.65 18.29 15.74 10.69 9.22 14.34 17.01 18.24 18.44 17.56 19.67 18.47
26.82 25.61 24.26 23.91 23.87 23.69 24.19 23.88 24.35 25.84 24.88 23.02 22.94 23.03 22.02 22.41 25.66 28.27 27.79 27.18 27.74 27.01 25.50 24.08 22.32 21.04 20.07 18.80 18.62 18.44 18.57 19.37 18.16 17.53 17.01 17.18 17.90 18.65 18.97 19.55 19.64 18.78 14.50
28.44 28.09 25.90 24.07 22.98 22.01 21.39 21.40 25.70 25.93 26.39 26.43 25.39 23.58 23.67 26.38 27.59 28.35 29.00 29.30 28.34 26.25 22.00 19.32 18.01 17.61 17.29 17.23 16.28 15.62 16.40 16.10 17.02 18.06 15.49 16.43 16.46 16.67 17.13 17.42 17.26 14.93 12.94
26.93 27.45 27.31 27.41 26.21 22.35 20.85 19.27 17.45 20.98 24.08 24.79 25.46 26.08 26.25 25.74 26.26 27.18 26.83 26.55 25.78 23.40 18.10 16.22 13.88 13.58 15.22 15.64 15.51 14.96 13.16 15.31 17.40 14.73 13.54 13.15 13.85 14.35 14.36 14.99 14.79 14.77 13.88
25.06 25.51 25.56 25.60 25.05 24.65 24.02 20.49 19.63 16.94 15.50 14.21 22.06 22.90 25.15 25.82 26.07 26.10 24.55 21.90 17.18 17.85 15.93 14.20 13.44 12.48 14.76 15.08 15.66 13.91 12.36 11.83 10.78 12.39 8.46 7.55 8.69 10.75 8.92 11.93 12.73 7.46 11.36
24.00 20.69 20.59 19.36 19.82 20.31 20.69 20.67 19.99 17.99 15.68 14.44 14.68 15.79 17.94 23.04 22.77 22.38 20.69 14.00 12.11 12.15 14.09 13.63 12.46 12.55 13.39 12.58 6.93 9.88 3.55 4.72 5.37 1.55 4.80 6.78 3.03 7.46 6.15 9.51 9.38 6.85 8.38
18.52 20.74 20.67 20.36 19.64 18.26 18.08 18.74 17.13 14.43 11.27 8.84 8.89 8.91 12.88 14.69 11.53 11.36 11.37 10.07 11.49 12.31 12.49 12.18 11.44 10.61 9.32 12.47 7.47 -1.75 4.43 3.59 4.71 5.76 -0.49 0.47 3.69 7.84 4.51 8.38 5.61 3.99 9.55
18.19 19.33 18.11 19.52 18.50 17.99 16.93 16.70 16.42 13.34 10.68 8.47 6.07 4.82 10.58 13.22 10.92 9.27 10.24 8.65 9.09 10.50 11.20 10.73 6.56 5.20 4.14 2.54 7.48 4.71 2.33 2.24 3.04 1.84 0.40 1.74 -0.77 5.55 4.75 6.50 8.25 7.85 9.23
18.82 18.86 18.94 16.91 17.43 15.65 17.47 17.29 15.40 14.76 13.06 10.23 8.17 10.17 10.55 10.25 10.52 9.58 9.24 5.08 1.77 6.61 9.93 8.43 7.72 5.55 5.71 7.32 2.48 -2.51 -3.95 -6.97 -4.08 -2.33 -4.01 -2.58 0.64 2.45 0.21 2.24 2.80 1.76 5.19
18.63 17.89 18.43 17.00 18.51 14.62 12.81 13.47 12.74 11.23 9.38 8.58 10.27 10.18 9.11 3.61 4.41 6.89 3.44 -2.44 8.43 1.94 0.89 0.80 -2.47 -1.11 -0.43 1.77 3.50 -1.73 -3.67 -6.61 -6.79 -7.52 -11.14 -8.07 -1.26 2.33 -6.17 -5.00 -0.99 -1.31 -3.14
17.75 16.24 16.83 13.42 14.69 14.80 10.81 3.20 2.94 7.27 9.14 5.52 2.07 0.82 0.87 -2.15 -1.53 0.85 -5.16 -6.85 -5.07 0.57 -7.59 -5.35 -1.42 -1.60 -2.79 -7.62 -6.97 -3.96 -2.50 -8.71 -6.69 -6.31 -12.41 -11.50 -4.09 1.13 -0.37 1.61 0.69 -1.21 -4.63
11.54 9.96 7.62 8.81 7.41 5.85 3.84 5.30 4.35 2.89 3.15 2.28 3.55 4.42 4.92 6.71 6.40 0.90 -6.25 -6.93 -6.07 -7.38 -3.91 -2.09 -2.28 -3.85 -4.90 -7.01 -4.60 -7.43 -6.64 -6.28 -11.00 -8.94 -10.85 -10.24 -8.78 -1.61 -1.91 -3.83 -7.08 -3.12 -5.22
8.37 8.23 7.70 9.90 6.34 5.62 6.94 7.66 5.77 0.95 0.41 1.04 0.79 0.77 -1.79 -0.37 2.53 -3.20 -4.63 -3.55 -6.23 -6.96 -5.14 0.91 2.09 -1.30 -3.68 -1.39 -2.45 -3.64 -7.75 -6.98 -11.04 -9.34 -13.68 -8.79 -6.97 -7.16 -10.11 -8.84 -6.44 -7.00 -4.65

GFSGL_sfc_wetblb_090.txt.gz
Wetbulb
59.74 59.47 58.43 58.51 59.54 59.62 58.80 58.41 58.62 58.41 58.39 57.89 57.53 57.66 57.24 57.58 58.14 57.72 57.60 58.00 57.95 57.80 57.84 57.26 56.18 56.34 56.06 55.26 54.55 53.92 52.99 52.29 50.21 51.35 52.47 53.78 53.62 54.15 56.76 57.71 57.98 58.05 57.77
59.10 58.85 58.82 59.46 59.76 59.35 59.43 59.51 58.95 58.31 58.18 58.09 57.88 57.28 57.22 57.04 57.06 57.56 57.14 57.30 57.10 56.60 56.62 56.24 55.57 56.20 55.49 55.38 54.44 53.41 52.78 52.84 50.74 49.50 51.59 52.28 52.73 53.74 54.74 54.86 55.45 57.16 57.28
58.40 58.16 58.39 58.54 58.64 58.78 58.70 59.29 59.47 59.06 58.50 58.18 57.76 56.96 56.76 56.68 56.68 56.56 57.20 57.20 56.94 57.19 56.75 55.98 55.43 55.57 54.47 53.87 53.48 53.28 53.56 53.98 53.28 52.55 52.03 52.44 52.27 53.09 53.26 53.10 53.06 53.44 54.12
53.75 55.26 54.11 53.67 53.78 53.74 54.01 53.63 54.29 52.86 51.32 49.70 49.36 49.01 49.42 49.80 52.82 56.15 56.54 56.48 56.60 56.56 56.46 56.58 56.00 55.78 55.09 54.57 53.74 53.23 53.19 52.98 53.28 52.40 51.97 51.40 51.96 51.98 51.97 51.12 49.97 51.68 50.23
47.34 48.43 48.93 48.41 48.42 48.27 47.16 46.00 45.01 44.30 44.26 44.45 43.71 42.66 42.52 42.26 41.63 47.96 54.16 55.37 54.59 47.56 45.58 43.38 41.61 41.02 39.91 42.80 53.11 51.37 52.76 52.30 51.90 51.48 51.74 51.62 50.68 50.79 47.54 45.66 48.12 47.95 40.97
42.27 42.53 44.22 44.78 43.51 42.22 41.65 41.03 40.06 39.35 39.08 39.11 38.60 39.76 39.74 39.48 38.36 39.63 44.94 45.37 45.20 43.01 40.25 39.68 39.55 37.30 35.93 35.54 35.35 34.31 35.09 42.80 49.84 50.37 47.43 45.26 38.60 35.49 37.38 38.86 41.43 44.50 43.76
40.13 41.25 39.89 39.81 39.74 39.04 38.40 37.45 36.41 35.94 36.22 35.96 36.95 37.12 35.86 35.84 35.96 36.40 36.94 37.53 36.69 37.03 37.32 37.30 37.43 36.69 35.47 34.06 33.17 32.81 32.33 32.68 32.78 38.30 33.50 31.78 31.46 30.42 31.48 35.74 37.91 38.81 33.77
36.03 37.77 38.05 37.58 36.62 36.45 35.77 34.53 34.09 34.03 33.57 33.84 34.99 35.82 34.55 34.42 34.42 34.33 33.96 33.57 32.41 32.23 32.95 34.40 35.60 36.50 34.21 33.29 31.72 30.38 30.06 30.27 30.52 30.94 29.92 29.51 29.91 30.33 30.50 32.24 32.96 31.50 29.73
33.07 34.27 35.79 35.41 34.23 33.66 32.22 32.17 32.52 32.10 31.90 32.04 33.17 33.91 33.38 33.06 33.53 33.22 32.58 31.47 30.83 31.02 31.97 32.40 33.93 33.35 33.57 33.65 30.52 28.83 28.64 29.40 32.06 31.78 31.11 30.08 29.54 29.73 29.50 27.84 24.62 31.10 27.91
31.90 32.31 33.39 34.08 33.22 31.91 31.78 31.28 31.28 30.98 30.33 30.52 30.35 31.56 32.91 32.53 33.08 32.48 31.74 30.49 29.08 29.46 30.61 30.96 31.71 31.39 32.00 31.52 29.70 28.70 27.02 27.65 28.01 27.97 27.56 25.85 23.24 23.25 26.03 20.24 18.44 19.90 24.52
31.28 31.56 31.38 32.19 32.30 32.39 32.19 31.89 31.13 30.21 29.34 28.75 28.66 29.59 30.31 31.16 31.58 32.24 31.55 29.87 28.98 28.50 28.86 29.51 31.33 32.17 31.94 31.60 30.73 28.68 27.00 27.46 24.32 21.85 20.98 20.50 19.45 19.26 19.15 18.82 16.53 19.73 15.98
28.58 28.43 28.36 28.72 29.50 30.55 31.69 31.60 31.22 29.87 28.49 27.75 27.62 27.75 29.12 29.89 31.24 31.47 31.13 30.14 29.91 27.86 27.44 28.86 29.98 31.10 31.20 30.86 29.56 29.37 28.37 23.75 21.82 20.09 19.97 18.15 18.49 18.38 17.25 18.33 16.89 15.90 13.88
27.23 26.37 26.20 26.41 26.67 27.43 27.41 28.11 28.53 28.03 26.73 26.27 26.17 25.97 26.62 28.83 29.51 30.75 30.40 29.75 29.14 27.43 27.88 28.04 27.88 27.24 26.68 26.04 27.20 26.59 23.99 22.55 21.29 19.07 17.66 13.17 9.20 11.83 18.35 19.78 22.28 23.00 22.45
25.68 25.33 25.73 25.34 25.06 25.48 26.03 26.79 25.69 25.39 25.25 24.78 24.23 23.86 25.19 26.19 27.10 28.36 29.16 29.23 28.75 27.11 24.90 23.93 23.09 22.79 21.25 21.03 21.39 21.52 20.89 20.12 19.03 17.92 16.20 8.46 15.77 18.79 18.10 18.33 16.63 18.59 18.02
25.72 25.12 24.28 24.21 24.47 24.29 24.82 24.88 24.64 25.07 24.87 23.29 23.22 24.08 24.00 24.62 27.29 29.14 28.51 26.80 25.85 25.11 23.50 22.26 20.67 19.55 18.08 18.05 17.97 18.12 18.67 18.55 16.77 16.62 16.32 15.98 16.76 17.67 17.01 17.73 17.89 17.38 14.54
26.42 24.79 23.64 22.66 22.16 21.99 21.74 22.58 26.92 26.90 26.43 26.32 26.15 24.98 26.23 28.21 29.53 29.84 28.66 27.19 25.94 24.10 19.95 17.44 16.36 16.14 15.18 15.24 14.89 15.25 16.13 16.01 16.50 16.35 14.86 15.47 14.95 15.59 16.27 16.27 16.44 14.51 13.25
26.52 26.76 26.45 24.11 22.33 20.67 20.14 19.55 18.43 22.80 26.27 26.89 27.18 27.37 26.90 27.32 27.71 27.60 26.60 25.21 23.69 21.04 16.09 14.92 13.99 13.98 14.41 14.39 13.69 13.29 12.49 14.27 14.60 11.84 10.87 10.52 11.94 13.07 13.17 13.84 13.09 13.41 12.82
23.19 23.28 23.40 23.79 24.01 21.34 19.29 17.98 17.12 16.77 15.70 15.43 20.26 24.94 25.91 26.43 25.38 24.80 23.39 20.12 15.83 16.30 14.75 13.10 10.52 11.70 13.51 13.66 12.91 11.39 10.22 9.54 8.36 9.19 6.37 4.89 4.11 8.28 8.66 9.94 10.35 6.00 9.75
24.12 23.42 21.46 19.51 19.57 20.47 20.90 18.89 17.24 15.14 13.50 12.47 14.38 16.26 19.11 22.42 21.63 20.63 18.96 13.59 12.45 11.71 12.47 11.52 10.89 11.94 11.22 9.75 4.80 3.49 1.90 1.29 -2.40 -2.31 0.33 3.11 -1.30 4.97 5.15 7.47 7.27 4.95 6.77
18.92 20.46 19.27 18.44 18.46 18.87 18.19 15.83 13.82 12.16 11.06 10.38 11.22 8.61 12.95 12.81 10.05 9.48 8.83 8.33 9.55 10.42 10.56 10.32 9.70 8.22 7.20 7.42 1.13 -3.30 1.07 -0.85 0.83 1.45 -7.46 -6.73 -5.46 1.13 2.07 3.64 2.37 1.70 7.47
18.63 18.44 16.42 17.33 17.07 16.79 16.50 14.43 12.75 11.40 10.42 11.61 10.78 9.28 12.05 11.16 9.07 8.01 8.57 6.49 7.32 9.00 7.17 7.29 4.55 3.37 3.18 2.73 4.92 -0.24 -2.35 -4.24 -3.18 -3.88 -4.62 -2.83 -12.17 -3.49 1.06 2.69 2.00 5.43 7.32
18.41 18.53 18.18 17.16 17.54 16.15 16.34 16.30 13.58 12.67 12.64 11.76 11.00 9.04 9.62 8.00 8.09 8.27 6.19 0.65 -0.58 5.50 7.35 4.26 3.79 3.84 2.69 2.31 -1.68 -8.42 -10.38 -14.35 -12.17 -10.75 -10.91 -8.73 -4.93 -3.65 -4.33 -3.00 -3.34 -4.56 0.49
16.77 15.50 15.85 16.07 14.91 11.05 12.08 13.47 10.53 9.10 8.74 8.02 8.89 8.44 7.31 3.82 2.36 4.00 2.14 -4.74 0.04 -3.31 -2.46 -1.65 -2.98 -1.77 -2.07 -4.57 -6.45 -5.02 -6.26 -9.10 -9.09 -14.17 -15.07 -13.80 -6.20 -4.74 -8.18 -6.73 -3.11 -4.56 -6.20
14.72 11.46 14.17 11.74 12.05 9.82 2.12 -1.60 3.55 6.74 7.29 2.05 -2.75 -2.05 -1.04 -3.30 -4.56 -5.49 -9.81 -11.27 -8.36 -11.46 -13.26 -8.92 -4.69 -3.40 -6.05 -11.63 -11.27 -7.13 -4.77 -10.94 -8.57 -9.52 -14.89 -14.35 -9.63 -3.86 -7.10 -4.93 -4.43 -7.46 -7.82
7.46 6.50 5.61 4.77 3.92 3.93 3.18 3.42 -0.09 -1.84 2.49 1.06 -0.59 -0.99 -0.28 -0.93 -3.83 -10.00 -12.00 -11.63 -10.36 -10.90 -8.02 -2.74 -7.10 -7.01 -9.20 -9.81 -10.36 -8.31 -8.40 -8.73 -12.73 -11.83 -13.62 -12.53 -11.81 -11.99 -10.90 -7.65 -10.54 -6.77 -8.91
5.27 5.09 3.81 6.48 4.55 5.27 6.30 4.34 0.46 2.76 3.13 0.65 0.31 -3.48 -3.13 1.87 2.07 -8.00 -10.00 -8.97 -9.02 -10.00 -8.55 -7.82 -3.37 -5.49 -7.28 -5.25 -4.65 -6.33 -8.91 -8.55 -13.10 -12.18 -17.97 -11.31 -13.80 -13.80 -14.35 -12.55 -9.63 -9.83 -7.67

GFSGL_sfc_wetblb_093.txt.gz
Wetbulb
59.30 59.06 58.30 57.73 57.65 57.60 57.28 56.60 56.58 56.66 57.22 56.94 57.49 56.88 56.38 57.46 57.69 57.74 57.92 58.30 58.30 58.36 58.29 57.43 56.79 56.94 55.65 54.82 54.74 54.19 53.40 53.17 50.79 52.37 53.24 53.51 53.09 54.20 56.67 57.14 57.49 56.92 56.74
59.43 58.68 57.96 58.13 58.29 58.07 56.90 56.76 57.02 56.60 56.26 56.14 57.16 57.26 57.34 57.18 57.38 57.16 56.78 57.02 57.26 57.06 57.32 57.30 56.73 56.83 55.40 54.60 54.12 53.48 53.30 52.73 51.52 50.12 51.82 51.93 52.09 52.49 53.61 53.83 54.85 56.80 54.40
56.92 58.42 58.04 58.38 58.59 58.63 58.93 58.06 58.41 56.98 57.24 57.60 57.36 56.88 56.92 56.98 56.66 56.82 56.96 56.64 57.32 57.26 57.12 56.76 56.00 56.40 55.66 54.75 53.95 53.43 53.13 53.14 52.71 51.39 50.71 51.99 52.07 52.28 52.39 53.44 53.52 50.08 44.63
47.48 52.93 55.53 57.42 57.32 56.36 55.83 55.96 55.24 54.36 52.02 50.59 50.52 49.70 50.11 51.56 54.45 56.25 56.84 56.82 56.78 56.94 57.00 57.03 56.36 56.26 55.50 54.80 53.90 53.55 53.29 52.81 52.70 52.00 51.83 51.71 51.97 52.64 52.35 50.84 50.10 49.56 43.98
43.06 43.21 44.67 48.69 50.75 49.51 48.08 47.02 46.23 45.47 45.06 45.22 44.47 43.36 42.97 42.93 42.22 44.80 54.71 55.59 51.08 47.81 46.18 44.30 43.84 44.19 44.64 50.14 54.54 53.61 53.17 52.19 52.00 51.48 50.74 51.46 51.24 50.49 49.05 46.17 48.53 44.62 37.85
39.41 39.39 40.48 40.90 42.26 41.40 41.23 40.96 40.58 39.88 40.29 40.38 39.15 38.38 37.86 38.06 37.19 39.49 47.05 46.87 45.49 43.51 40.44 39.18 38.70 37.87 36.52 36.19 36.19 35.08 37.53 50.37 50.65 50.57 50.51 49.28 40.24 38.62 38.24 40.32 42.82 44.93 40.62
37.26 37.10 36.45 37.03 36.78 36.76 36.55 36.56 36.46 36.51 37.71 36.97 36.01 35.62 34.58 35.28 35.83 36.61 37.43 38.71 38.15 38.25 38.60 38.60 36.71 35.81 35.01 34.04 33.56 33.13 32.86 32.83 33.39 41.80 38.11 33.85 33.38 32.14 33.66 37.22 38.39 38.52 33.17
33.83 35.23 36.09 34.78 33.05 33.62 33.71 33.31 33.56 34.10 34.49 35.01 34.40 34.02 33.42 33.74 34.39 34.48 34.42 34.61 33.89 33.57 34.41 36.75 35.55 34.13 33.87 33.54 32.39 31.05 30.45 30.23 30.31 30.67 29.98 29.54 30.19 30.94 32.32 33.78 34.14 30.17 29.53
31.47 32.10 33.02 34.25 32.90 32.39 31.19 31.15 31.59 31.52 31.72 32.25 33.37 32.89 32.20 32.45 33.50 33.31 33.02 32.40 31.47 31.56 33.20 34.02 33.47 32.68 33.72 34.39 31.46 29.74 29.07 29.24 30.96 30.59 29.59 29.30 29.98 30.61 31.90 31.63 30.40 31.65 27.43
29.86 30.43 31.97 32.28 32.06 31.72 31.17 30.68 30.91 30.73 30.14 30.32 30.25 31.19 32.42 31.70 33.16 33.04 32.22 31.48 30.25 30.14 30.67 31.35 32.39 31.73 32.13 32.09 30.49 29.36 26.97 26.84 27.29 25.72 24.49 23.60 22.62 23.15 24.77 18.66 20.67 28.57 24.19
29.32 29.81 29.87 30.33 31.51 31.66 31.41 31.17 30.63 29.83 29.31 28.94 28.67 29.37 30.07 30.91 31.45 32.45 32.06 30.51 29.84 29.62 29.85 30.30 31.29 32.07 31.86 31.20 30.17 28.25 26.55 25.30 22.79 22.23 21.17 20.00 20.02 19.27 18.98 19.11 18.36 19.74 15.92
27.60 27.00 26.88 28.04 28.88 29.82 29.43 28.90 28.92 28.60 27.82 27.82 27.67 27.80 28.90 29.82 31.07 31.34 31.11 30.49 30.31 28.49 27.73 29.25 30.43 31.29 30.74 29.87 28.21 27.76 25.54 23.05 22.55 19.75 18.16 17.06 17.53 17.81 17.73 19.01 19.02 19.53 20.75
25.53 25.63 25.91 26.21 26.45 27.43 26.81 26.95 26.66 26.87 26.23 26.12 26.23 26.14 26.62 28.67 29.28 30.43 30.01 29.44 28.45 26.25 26.61 26.92 26.70 26.44 26.19 26.00 26.43 25.22 22.61 20.51 20.25 17.97 15.05 12.12 13.12 16.72 21.37 22.27 22.98 22.65 22.75
24.80 24.84 25.46 25.52 25.02 25.77 26.03 25.84 24.82 24.82 24.44 24.63 25.04 25.19 25.98 26.88 27.50 28.66 27.98 26.15 25.65 24.11 23.14 22.72 22.93 22.49 21.04 20.87 20.72 21.04 20.00 19.08 18.06 15.99 14.45 14.06 19.41 18.59 18.47 20.19 19.11 20.42 18.89
24.88 24.55 24.00 23.82 24.13 24.76 25.30 24.69 24.85 25.79 25.61 24.06 24.53 25.40 25.47 25.87 27.80 28.67 26.70 24.86 23.77 23.23 22.09 21.17 19.61 18.83 17.79 18.02 17.96 18.38 18.57 18.23 16.92 17.34 17.26 16.92 17.48 17.87 17.12 18.21 18.19 17.20 15.27
24.38 23.72 23.06 22.49 22.70 22.81 23.66 24.64 28.34 28.05 28.20 28.25 28.40 27.67 29.02 30.12 29.66 28.93 27.94 26.68 25.26 23.29 19.32 16.98 15.93 15.76 15.54 15.63 15.38 15.12 15.30 14.87 15.42 15.60 14.73 15.37 14.97 15.41 15.24 15.46 15.47 14.66 13.36
26.30 26.19 24.07 22.88 21.77 20.84 20.19 20.21 19.05 21.23 24.73 27.48 27.91 28.10 28.56 28.17 27.58 26.56 25.40 24.17 22.70 20.36 15.91 14.92 14.19 14.11 14.37 14.62 14.28 14.05 12.70 13.18 13.18 11.57 11.08 11.16 12.80 13.26 13.12 13.23 12.66 12.91 12.51
22.49 22.76 22.66 23.13 20.54 19.18 18.44 17.61 17.26 16.24 16.09 16.52 22.26 24.88 25.90 25.81 25.04 23.93 22.48 19.78 15.37 16.13 14.73 13.63 12.78 13.61 14.12 13.33 12.76 11.42 9.97 9.07 8.52 8.38 5.87 4.22 6.01 10.02 9.67 10.04 10.35 7.31 10.19
19.96 18.94 18.58 19.61 19.67 19.64 17.94 16.86 15.89 14.99 14.54 14.56 15.89 15.99 16.71 21.21 20.56 20.10 18.68 13.95 12.91 12.58 13.00 12.01 12.07 11.69 10.56 8.92 5.86 4.26 3.73 2.87 1.81 -0.97 0.27 2.71 -2.47 5.37 5.10 6.43 7.15 5.34 5.80
17.26 19.03 17.79 18.03 18.26 17.75 16.41 14.79 13.96 13.47 12.95 12.47 11.89 11.13 13.53 12.96 10.07 9.15 9.14 9.66 9.96 10.23 10.35 10.03 9.74 9.12 8.60 6.38 2.77 -0.04 -0.09 -0.10 0.89 2.07 -4.24 -10.40 -10.40 -0.17 1.09 1.93 1.39 1.96 6.67
15.45 16.31 15.27 17.02 16.44 15.55 13.75 12.08 12.30 12.04 12.01 11.19 8.88 8.03 10.30 10.11 8.33 8.17 8.46 7.30 7.92 7.81 6.69 7.12 5.40 4.28 3.70 2.94 3.72 -0.56 -1.84 -2.77 -2.04 -3.36 -3.25 -2.72 -14.03 -4.20 0.09 -0.04 0.63 4.09 6.51
15.85 16.37 16.87 15.56 16.14 14.66 14.85 13.85 12.21 11.89 11.58 10.45 8.73 6.43 7.35 6.52 6.84 6.07 5.45 1.02 1.89 6.44 6.43 4.33 4.33 3.54 2.99 1.49 -1.40 -7.98 -8.10 -13.12 -12.57 -10.45 -9.70 -8.42 -5.69 -5.16 -5.72 -5.15 -5.87 -7.14 -1.10
13.98 12.57 14.15 14.83 14.79 12.41 11.60 12.26 9.04 7.45 6.42 5.03 6.97 7.15 5.34 0.58 0.04 3.22 0.05 -7.32 -0.91 -2.88 -1.97 -1.70 -3.21 -2.49 -3.23 -7.55 -7.27 -4.44 -5.27 -8.42 -10.04 -15.30 -15.48 -14.21 -8.06 -9.31 -10.94 -8.41 -5.15 -6.61 -7.32
12.24 8.76 12.10 9.40 8.11 8.02 2.77 2.07 6.17 8.86 8.85 3.97 0.17 1.61 1.41 -2.50 -7.32 -7.50 -11.49 -13.48 -12.21 -14.39 -14.93 -10.96 -5.76 -3.76 -6.28 -13.12 -12.57 -7.41 -4.68 -11.67 -9.88 -10.81 -16.02 -15.66 -10.40 -6.77 -10.22 -7.35 -6.79 -9.86 -10.04
4.83 4.01 5.12 4.09 -0.07 0.30 -3.69 -2.42 -3.51 -1.33 -0.79 -4.96 -7.14 -7.32 -5.32 -6.96 -8.24 -12.94 -15.48 -14.21 -12.39 -13.84 -9.31 -11.31 -10.41 -9.59 -10.40 -11.85 -11.12 -9.51 -9.86 -9.31 -14.21 -14.04 -15.30 -14.39 -14.39 -15.48 -13.66 -10.22 -12.39 -8.62 -10.94
2.86 3.09 5.26 6.87 5.22 3.62 1.31 -2.08 -4.42 -2.97 -4.42 -3.69 -3.16 -6.77 -6.77 -4.78 -4.24 -11.67 -12.94 -12.76 -11.25 -11.55 -10.76 -10.40 -8.59 -8.06 -9.51 -7.18 -6.50 -8.13 -10.40 -9.49 -14.75 -15.29 -19.10 -12.26 -14.75 -14.57 -15.66 -14.03 -11.67 -11.85 -9.49

GFSGL_sfc_wetblb_096.txt.gz
Wetbulb
59.20 59.32 58.48 57.82 57.88 58.04 57.96 58.02 57.49 57.37 57.75 57.81 57.93 58.24 57.76 57.80 58.00 58.16 58.35 58.49 58.42 58.93 58.88 57.82 56.72 56.63 56.24 56.24 55.84 54.91 53.84 53.40 51.76 52.85 53.71 53.69 54.76 55.52 55.56 56.54 56.30 56.01 53.93
51.52 57.80 57.62 57.60 57.98 57.44 57.30 57.10 56.40 56.20 55.92 56.60 57.24 56.50 56.48 56.46 57.10 57.02 56.78 57.32 57.30 57.28 57.68 58.14 56.62 56.44 56.00 56.06 55.46 54.25 54.07 53.79 52.32 51.68 52.36 52.57 53.28 54.55 55.38 55.94 55.22 52.94 46.63
48.22 54.90 57.76 57.78 57.96 57.26 57.00 56.60 56.24 56.10 54.89 55.35 55.38 56.66 56.80 57.20 56.92 56.90 56.88 56.86 56.92 57.16 57.89 57.28 56.56 56.32 55.52 55.14 55.46 54.27 53.69 53.36 52.92 51.73 51.14 52.63 52.76 52.69 52.51 53.08 48.09 44.67 43.59
42.27 44.06 46.31 47.22 57.24 58.16 57.88 57.74 57.18 56.92 55.15 53.21 51.75 50.11 50.29 50.60 51.98 55.01 56.54 56.56 56.68 56.74 57.02 57.32 56.99 56.53 55.58 54.46 54.37 54.47 54.04 53.17 52.93 51.92 51.55 51.47 52.09 52.56 52.57 51.47 49.22 45.31 41.91
38.75 38.24 39.05 40.86 42.31 46.79 51.40 48.75 47.55 46.86 46.37 46.63 45.24 43.47 43.25 42.20 40.85 42.99 51.18 55.67 53.66 49.21 45.94 44.11 45.90 53.43 50.62 52.19 54.67 54.10 53.66 52.48 52.18 51.39 50.81 51.21 51.02 51.02 50.29 48.36 48.49 41.47 38.24
37.13 37.10 37.26 37.25 37.58 37.97 40.32 41.53 41.24 40.96 40.25 39.91 38.71 38.10 37.65 37.41 36.93 38.63 46.90 47.08 45.49 43.96 41.16 40.11 39.44 39.01 37.99 37.50 37.50 36.33 40.99 52.19 51.76 51.44 51.02 50.31 46.48 43.14 41.83 43.81 43.27 40.87 38.27
33.86 35.30 36.42 36.26 35.33 33.93 34.36 36.80 36.80 36.88 36.88 35.80 35.36 35.22 34.30 35.15 36.16 36.79 37.33 38.74 38.44 38.78 38.77 37.75 36.86 36.21 35.98 35.06 34.35 34.06 32.95 33.36 33.60 46.86 44.02 38.43 36.71 35.47 37.95 39.16 39.83 37.28 33.57
31.93 32.49 33.83 34.65 34.22 33.72 32.24 32.50 33.48 34.00 33.93 33.66 33.42 33.61 33.37 33.97 34.88 35.09 34.89 35.21 35.17 35.34 35.41 35.06 34.45 33.90 34.35 34.03 33.22 31.72 30.27 30.36 30.38 31.09 30.58 30.45 31.34 32.27 34.24 35.94 34.89 29.66 29.62
29.85 30.44 31.60 32.33 32.33 32.22 32.05 31.42 31.46 31.21 31.14 31.24 32.09 32.31 32.26 32.86 34.10 34.25 33.54 32.55 31.77 32.08 33.25 33.40 33.00 32.86 34.38 35.20 31.49 29.10 27.53 26.90 29.41 29.80 29.80 30.04 30.26 30.88 31.89 34.07 31.69 31.74 27.45
27.96 29.47 30.63 31.21 30.78 30.00 30.32 30.65 30.92 30.96 30.31 30.29 30.18 30.95 32.28 31.87 33.70 33.73 33.10 32.15 30.69 30.40 30.95 31.75 32.69 31.87 32.69 32.67 30.40 28.75 25.79 25.21 25.18 24.18 24.01 23.78 23.89 24.97 26.38 27.11 31.72 28.58 25.33
27.93 28.15 27.86 29.05 29.57 29.54 29.32 29.47 29.55 29.43 29.34 28.99 28.76 29.45 30.28 31.29 32.13 32.92 32.86 31.03 30.17 29.68 29.30 29.59 30.90 31.81 31.64 30.92 29.55 26.85 24.67 25.06 24.39 23.93 22.89 22.59 22.41 21.67 21.37 22.12 22.57 22.64 20.38
26.02 25.71 25.88 26.64 27.41 27.56 27.52 27.96 28.20 28.17 27.38 27.35 27.45 27.35 28.55 29.87 30.78 31.14 30.87 30.20 30.00 27.97 27.57 28.90 29.35 30.00 29.53 28.59 27.19 27.25 25.99 23.79 23.46 22.59 21.22 20.25 20.48 20.80 21.81 22.11 22.03 21.74 22.03
24.39 24.32 24.77 25.02 25.15 25.48 24.79 24.82 25.21 26.25 26.67 26.57 26.26 26.08 26.35 27.68 27.10 28.71 28.50 28.15 27.71 25.66 26.27 27.16 27.33 26.72 25.96 25.50 25.68 24.61 22.73 21.93 20.88 19.44 18.36 18.17 18.92 20.62 22.71 23.24 23.33 22.53 21.98
24.53 23.87 23.90 24.91 24.23 24.73 25.28 25.49 24.77 24.28 24.76 25.03 25.59 25.44 26.05 26.19 25.84 26.33 25.54 24.67 24.85 23.51 22.99 22.96 22.85 22.46 21.24 21.05 21.01 21.27 20.70 20.37 19.43 18.54 18.44 19.64 21.29 20.88 20.13 21.57 20.71 20.60 18.66
24.26 23.77 23.27 23.02 23.37 24.35 25.32 24.95 25.35 27.13 26.86 24.63 25.56 26.52 25.87 25.06 26.32 27.22 24.87 22.91 22.59 22.58 21.72 20.79 19.52 18.98 18.12 18.13 17.88 17.99 18.81 18.79 17.90 18.65 18.72 18.62 18.58 18.57 17.80 19.39 18.87 18.35 16.51
23.85 22.90 22.16 22.42 22.25 22.59 23.19 21.41 27.63 28.73 29.21 29.64 29.90 28.37 28.14 28.82 28.65 28.09 27.25 25.99 24.82 23.06 19.18 17.12 16.01 16.15 15.74 15.82 15.43 15.05 15.46 15.50 16.36 16.62 16.75 16.97 16.45 16.50 16.28 16.87 16.65 16.08 14.17
24.13 25.02 22.59 21.56 20.74 20.51 19.72 19.38 18.73 22.20 25.20 27.73 28.22 28.12 27.73 26.57 26.34 25.68 24.50 23.59 22.43 20.24 15.93 15.28 14.54 14.70 14.82 14.89 14.27 13.39 12.24 13.07 13.91 13.07 13.51 13.95 14.73 14.86 14.78 14.01 14.27 14.55 12.99
17.09 18.64 18.32 17.90 17.06 16.46 15.78 16.83 16.79 15.78 15.46 16.29 20.79 23.61 24.75 24.38 23.84 22.96 21.42 19.24 15.32 15.96 14.87 13.90 13.41 13.91 13.78 13.08 12.33 11.00 9.92 9.89 9.84 9.94 9.31 10.11 11.86 12.64 12.16 11.79 11.78 11.36 11.18
14.28 11.62 10.83 13.83 14.24 14.36 15.35 15.12 15.82 15.87 15.03 14.53 15.13 15.44 15.51 20.12 19.84 19.69 18.50 14.47 13.19 12.64 13.06 12.28 12.33 11.35 10.17 8.96 7.41 6.69 5.90 4.92 4.90 4.71 5.17 6.63 6.44 10.43 9.33 10.02 9.80 8.65 8.99
12.09 15.00 13.89 13.78 13.38 12.93 13.23 13.86 13.60 13.79 13.29 12.22 11.37 11.46 13.64 12.91 10.61 10.21 10.56 10.72 11.00 10.83 11.03 10.45 10.24 9.69 8.05 6.26 4.18 4.03 4.09 4.11 4.86 5.39 0.96 0.74 3.10 7.19 6.42 7.36 7.48 8.24 8.19
11.85 13.06 12.72 13.84 13.11 12.30 11.03 11.44 12.34 12.16 11.66 10.75 9.73 9.61 10.70 10.17 8.54 8.69 8.85 8.13 8.38 8.47 7.96 7.93 6.95 6.34 5.74 5.17 4.83 2.39 1.37 0.91 0.91 1.10 1.64 1.46 -2.04 3.05 4.49 5.02 5.68 7.26 7.27
13.69 14.41 15.05 13.22 14.07 11.47 12.28 12.95 11.15 11.28 11.46 10.30 9.16 7.31 7.91 7.49 7.40 7.27 5.94 3.66 4.67 7.02 7.37 6.44 5.92 5.43 4.97 3.86 1.10 -2.27 -3.25 -5.06 -3.95 -3.39 -2.65 -1.25 0.60 0.81 1.83 1.84 1.43 1.05 3.93
12.55 10.64 12.13 12.48 12.42 9.63 8.32 9.54 6.54 6.52 6.85 6.32 9.16 8.68 7.53 5.11 5.59 5.84 3.76 0.86 3.02 1.36 1.81 1.56 1.12 0.36 -1.26 -3.83 -2.44 -1.05 -1.57 -2.99 -4.23 -7.13 -6.16 -4.85 -1.45 -1.07 -1.33 0.31 0.77 0.91 0.87
9.46 5.77 10.20 8.32 7.33 7.02 -0.01 -0.19 3.94 6.41 5.31 0.33 -1.66 -0.10 -0.10 -1.01 -1.62 -4.35 -6.51 -6.87 -4.99 -7.99 -7.85 -5.13 -1.26 -1.63 -4.63 -9.32 -7.23 -3.14 -2.55 -6.69 -5.44 -6.31 -9.02 -6.48 -3.19 -2.96 -2.15 -0.83 -0.53 -3.03 -1.88
3.15 0.16 0.55 0.92 -1.63 -3.07 -4.33 4.56 0.83 0.64 1.38 0.68 -4.16 -4.52 -2.40 -6.89 -8.15 -12.49 -15.03 -14.31 -11.41 -12.67 -8.51 -10.32 -8.35 -5.84 -6.79 -9.10 -8.04 -6.74 -7.60 -8.87 -10.58 -11.98 -8.67 -7.77 -7.44 -8.23 -5.79 -3.25 -4.22 -1.81 -4.40
2.06 1.58 -1.08 1.45 3.19 3.38 -0.08 -1.86 -2.93 -2.56 -1.48 -1.63 -2.88 -0.77 1.81 1.63 0.85 -7.44 -13.04 -12.86 -10.50 -10.35 -10.14 -10.50 -7.07 -7.88 -7.32 -5.75 -5.70 -7.12 -10.50 -10.50 -12.20 -15.42 -10.43 -6.31 -7.22 -7.34 -7.18 -6.31 -6.23 -3.74 -3.62

GFSGL_sfc_wetblb_099.txt.gz
Wetbulb
47.02 58.43 60.00 59.93 59.08 59.22 59.39 60.60 60.27 59.65 59.54 59.42 59.61 59.88 60.36 60.56 60.86 60.16 60.14 59.99 59.59 59.63 59.61 59.01 58.16 58.50 57.32 57.16 57.15 56.65 54.94 54.40 51.95 53.17 56.45 58.45 58.88 59.09 58.51 59.09 59.45 59.51 54.33
45.05 50.89 58.37 58.97 59.43 59.48 59.07 59.54 59.70 58.32 58.58 58.82 59.04 59.07 58.81 59.29 59.07 58.91 58.53 58.73 59.01 58.17 58.31 58.34 57.77 57.74 57.16 57.26 56.27 55.35 54.92 54.48 53.52 51.44 53.79 56.20 57.47 57.77 58.75 59.03 58.83 54.46 48.98
42.80 43.80 45.81 46.84 56.57 58.74 58.96 58.28 58.57 57.96 57.72 58.02 58.32 58.29 57.97 57.65 57.24 57.11 57.97 58.75 58.62 58.04 58.38 58.40 57.87 56.97 55.99 56.07 56.03 55.11 54.70 54.18 54.68 53.56 52.69 55.35 56.83 58.18 57.75 53.61 48.31 45.96 43.35
39.98 40.48 40.18 42.25 43.56 49.18 58.26 58.51 58.25 58.05 58.35 58.41 57.42 55.69 54.89 53.78 54.75 56.93 57.49 57.65 57.21 58.42 57.49 57.61 57.98 57.48 56.39 55.93 55.43 54.80 54.54 53.92 53.97 55.73 53.40 53.04 55.82 54.99 56.52 51.28 47.38 45.30 42.14
36.69 37.78 38.06 39.09 38.98 39.79 44.58 44.58 55.89 53.05 50.98 49.42 47.38 45.31 44.43 43.98 42.56 46.17 52.28 56.29 57.45 52.28 47.56 45.12 42.89 51.59 51.12 53.74 55.55 55.03 54.28 53.80 53.62 52.94 52.36 52.19 52.21 52.24 52.57 52.38 46.84 41.15 39.89
33.73 34.62 37.03 37.38 37.28 36.11 36.71 38.64 40.02 42.62 41.73 40.73 39.44 39.33 39.28 38.97 37.17 39.46 47.75 49.18 46.49 44.72 42.49 41.18 39.43 39.62 38.82 38.52 39.06 41.04 50.36 53.74 53.26 52.81 52.09 51.12 51.24 49.10 47.42 49.44 41.46 39.38 37.62
32.43 33.04 34.16 35.82 35.92 36.34 35.23 34.78 33.83 35.47 36.45 35.70 35.71 35.87 35.44 36.75 36.59 37.61 38.27 40.81 39.69 39.08 38.61 37.94 37.94 36.98 37.11 36.52 35.20 34.61 33.50 34.00 37.93 51.15 51.15 47.24 42.90 41.81 42.55 42.73 43.22 40.82 34.99
30.27 31.03 31.91 32.96 33.82 34.90 34.46 33.05 31.98 31.96 33.10 33.58 33.70 34.63 34.50 34.86 35.10 35.64 35.92 36.89 35.40 34.61 34.58 35.09 34.93 34.70 35.17 35.39 34.34 32.57 31.67 31.77 32.21 33.13 33.31 32.16 32.72 34.65 36.88 38.33 35.01 30.15 30.05
28.65 28.83 30.38 30.90 30.41 31.42 32.04 31.98 31.81 31.49 31.18 31.63 32.58 32.80 33.25 33.95 34.49 34.40 34.50 33.95 32.55 32.50 33.22 33.56 33.43 33.53 34.38 34.84 31.85 30.14 27.92 27.27 30.97 31.83 31.89 32.05 32.33 33.13 35.15 35.47 32.92 32.68 28.41
28.20 29.08 29.80 29.99 29.48 28.69 29.35 30.35 31.47 31.34 30.11 30.55 30.20 31.36 32.62 32.66 33.99 33.98 33.76 32.87 31.29 30.71 31.55 31.91 32.84 32.47 32.45 32.36 30.94 29.41 25.75 25.02 25.73 25.42 25.24 25.72 26.44 27.60 28.80 30.31 33.99 31.10 26.81
28.43 28.29 28.53 29.66 29.14 29.22 29.39 29.78 29.43 29.25 29.33 28.60 28.11 28.54 29.38 30.74 31.72 33.10 32.89 31.24 30.40 29.43 28.76 29.03 30.18 30.91 30.73 30.25 29.16 26.95 25.37 25.94 25.11 24.56 23.84 23.28 23.67 23.25 23.23 24.07 25.43 28.08 25.43
27.24 27.62 27.29 27.80 28.90 29.66 28.56 28.87 29.64 29.89 28.53 27.81 27.16 26.50 26.74 27.75 29.44 30.12 30.14 29.92 29.73 27.75 27.14 28.28 29.08 29.69 29.20 28.45 26.91 27.06 26.61 25.45 24.24 22.78 22.03 21.41 21.78 21.51 22.37 23.54 24.47 24.88 26.58
26.72 25.82 27.63 27.64 28.31 29.45 29.22 28.86 29.28 29.58 28.94 28.58 27.96 27.84 27.72 28.31 27.48 28.10 27.74 27.13 27.18 25.40 25.94 26.47 26.60 26.57 26.04 25.74 26.07 25.18 24.14 23.93 23.04 20.98 20.01 21.12 22.48 24.60 25.26 24.58 25.18 25.11 25.20
26.59 26.35 26.83 27.04 26.97 28.55 28.98 29.15 28.74 29.39 28.77 28.94 29.21 28.08 27.69 27.85 27.98 27.35 27.26 27.21 26.32 26.04 25.31 25.43 24.03 23.25 23.05 22.96 23.09 23.43 23.10 22.49 22.26 21.88 21.35 22.69 23.93 23.88 23.97 25.47 23.88 23.61 22.45
26.17 26.44 26.24 26.32 26.31 25.98 27.24 28.21 28.83 29.93 29.64 28.31 28.62 28.97 28.00 26.80 27.46 27.87 27.20 26.63 25.59 25.07 25.49 25.42 24.70 23.30 21.72 21.51 21.16 21.35 22.26 22.31 21.97 22.56 22.61 22.45 22.64 21.93 21.15 22.40 22.05 21.34 19.60
26.69 25.05 24.83 25.79 25.72 25.48 25.44 25.37 26.84 28.84 29.19 28.67 28.43 28.77 28.69 28.00 27.21 26.95 26.35 25.85 24.94 24.15 24.42 22.82 21.83 21.40 20.02 19.81 19.39 18.92 19.49 19.48 20.29 20.75 20.54 20.24 20.01 20.24 19.70 20.18 20.69 19.74 18.33
24.78 24.51 24.28 24.17 23.95 24.21 24.04 23.47 23.43 24.39 24.43 25.67 26.76 26.62 26.35 25.67 25.12 24.80 23.98 23.03 22.47 22.77 21.37 20.55 20.33 20.06 19.40 18.81 18.61 18.04 16.98 17.37 18.26 18.61 18.64 18.86 19.04 18.84 18.97 17.81 18.34 18.62 17.06
23.66 20.46 23.26 22.80 22.90 22.95 22.82 22.60 22.56 21.93 20.37 20.32 20.73 22.49 23.66 23.82 23.17 22.30 21.73 21.83 19.98 19.99 19.66 19.16 18.51 18.44 17.01 15.82 15.73 15.47 15.20 15.60 15.94 16.27 16.64 17.67 18.37 18.27 17.37 16.31 16.73 16.71 16.33
24.21 23.82 23.18 22.70 21.64 20.93 22.23 22.00 21.46 20.41 19.37 19.20 20.15 19.45 18.28 20.00 20.08 20.03 20.20 19.38 18.30 17.53 17.34 16.71 17.01 16.29 15.46 14.85 14.06 13.34 13.53 12.88 13.63 14.11 14.47 15.18 16.68 17.10 15.91 15.49 14.31 12.97 14.55
22.73 19.85 20.80 22.99 21.81 21.05 20.76 20.62 20.02 19.16 18.20 17.55 16.91 17.28 18.81 18.84 17.31 16.56 17.07 17.29 16.85 16.38 16.38 15.59 15.20 15.10 14.40 13.48 13.13 12.89 12.82 12.98 13.22 12.73 12.48 13.83 15.15 15.53 14.32 14.30 14.94 14.41 13.68
22.89 22.79 18.49 22.43 20.59 19.93 19.58 19.17 19.21 18.37 17.16 16.24 15.63 14.90 13.01 16.25 15.34 15.17 15.10 15.12 14.96 14.95 14.94 14.68 14.25 13.64 13.44 12.81 12.65 12.00 10.70 10.60 10.84 11.39 11.86 11.22 12.86 12.66 13.47 13.40 13.19 12.96 13.14
21.58 21.14 20.95 20.73 20.11 19.56 19.29 19.27 18.85 17.96 16.81 15.89 15.21 13.62 12.18 14.98 14.09 13.23 12.74 12.70 13.27 13.46 14.11 13.94 13.02 12.37 12.16 11.35 10.40 9.63 7.83 7.54 8.76 9.53 9.96 9.94 11.44 11.53 12.06 11.59 11.25 11.22 11.67
19.17 19.41 19.34 19.13 19.58 17.03 18.57 18.21 18.13 17.96 16.76 16.48 15.78 14.57 14.11 13.53 12.79 12.25 11.25 11.43 11.09 10.64 11.27 11.60 10.70 8.77 8.55 8.45 9.40 9.39 8.05 6.43 6.18 7.66 8.54 9.79 10.27 10.54 11.51 10.76 9.89 10.39 10.35
16.92 17.02 16.50 17.03 16.00 16.88 16.98 17.60 17.72 14.45 16.20 16.15 16.09 15.25 14.22 13.34 12.82 10.92 10.23 10.52 9.77 9.00 8.94 8.79 8.74 7.49 5.42 6.63 7.69 7.54 5.86 5.26 5.74 4.15 2.74 7.91 8.50 8.13 9.51 8.62 8.68 6.04 8.13
15.40 15.15 14.79 14.24 14.02 13.91 14.59 15.24 16.03 16.36 16.48 16.00 15.67 15.19 14.21 13.17 12.45 12.21 10.93 9.83 8.39 9.74 7.28 7.27 8.17 6.19 5.05 4.00 4.77 4.87 3.64 -0.58 2.72 0.42 4.81 4.51 4.52 3.74 6.19 7.98 7.22 7.63 4.56
13.62 13.35 13.40 13.71 13.47 13.40 13.38 13.19 13.10 13.46 13.79 14.50 14.51 14.51 14.21 13.66 13.55 12.43 9.74 7.99 8.65 8.57 6.55 8.61 7.57 4.78 5.04 5.48 4.46 2.33 -0.26 -0.99 0.52 -2.56 4.83 5.52 5.29 5.76 6.28 4.98 -0.78 7.18 3.52

GFSGL_sfc_wetblb_102.txt.gz
Wetbulb
41.90 45.65 49.01 61.30 62.76 63.15 63.11 62.84 61.98 63.06 63.78 62.54 62.32 61.23 60.66 61.58 62.42 61.73 61.08 62.17 61.89 60.15 61.60 60.64 60.78 60.96 59.86 59.77 60.63 62.32 60.82 59.98 53.51 54.67 56.56 57.66 57.26 57.97 58.83 60.46 60.83 61.04 54.63
39.90 43.07 46.43 48.42 54.89 59.95 60.22 60.64 61.69 61.16 62.29 62.47 62.07 60.30 60.35 61.24 61.18 61.48 61.24 60.89 60.56 59.67 59.84 59.51 59.61 59.50 59.51 59.70 60.22 59.31 57.51 57.95 55.60 52.79 55.17 56.07 56.84 57.70 58.48 59.77 60.35 54.11 49.31
37.95 41.06 42.29 42.46 45.42 47.63 57.95 59.94 60.55 61.41 61.65 60.82 60.70 59.92 59.86 61.91 61.19 60.22 60.50 60.07 60.13 60.10 59.75 59.33 59.68 59.22 58.66 58.24 58.63 56.91 56.81 55.83 55.16 53.82 53.50 55.93 57.09 58.15 57.71 54.82 50.94 48.54 44.50
35.69 38.08 38.82 41.40 41.70 42.41 46.41 53.62 59.03 59.64 59.63 59.86 60.82 59.49 59.41 59.14 59.44 58.96 58.73 58.81 58.83 60.03 61.47 60.38 60.52 59.26 58.56 57.59 57.07 56.63 56.05 54.92 54.57 53.54 53.16 54.07 55.36 57.54 52.63 47.50 45.76 46.95 43.94
33.89 33.87 36.66 38.55 39.11 39.06 39.32 41.22 44.94 51.86 57.60 56.66 53.53 51.49 51.57 51.33 45.61 49.95 56.25 58.51 58.24 57.81 51.67 49.46 45.44 43.45 45.04 53.37 56.57 56.35 55.51 54.26 53.64 53.49 52.79 53.34 54.34 54.63 51.80 50.79 46.03 41.92 41.65
32.48 33.10 34.39 35.29 37.78 38.30 37.17 36.42 37.08 37.63 40.66 44.13 44.77 45.23 42.12 39.47 37.36 39.04 46.37 53.71 50.44 49.63 46.21 44.14 41.93 40.86 40.28 40.39 41.87 44.61 51.98 53.93 53.15 52.96 53.15 52.40 52.65 53.85 54.47 50.70 42.31 40.13 36.39
31.00 31.87 31.95 32.65 33.89 35.34 36.18 35.38 33.89 34.21 34.59 36.01 38.29 37.82 36.75 37.12 36.96 38.20 39.63 45.32 42.09 40.69 40.80 41.38 40.55 39.32 38.79 37.97 36.20 35.77 34.77 35.70 41.88 53.78 52.90 52.46 49.51 49.20 49.51 44.20 44.58 43.16 37.75
30.63 30.31 30.87 31.24 31.42 32.51 34.19 33.68 33.00 32.82 32.08 32.10 33.38 35.44 35.23 35.06 35.38 35.92 35.99 37.31 37.05 36.11 36.13 37.11 37.31 37.26 36.08 37.02 35.78 33.40 32.57 32.49 33.12 35.45 37.52 33.18 34.45 37.90 44.02 44.65 40.23 31.84 31.82
30.50 30.73 30.90 30.39 30.16 30.53 29.93 31.41 32.04 32.15 31.47 30.64 31.42 33.12 33.84 34.20 34.72 34.66 34.83 33.86 32.83 32.75 33.49 34.38 34.14 33.80 34.50 35.81 33.69 31.64 29.92 28.33 31.91 33.12 32.90 33.12 33.71 34.31 36.64 37.20 34.22 33.87 29.87
29.54 29.82 31.47 32.04 30.67 30.13 31.04 30.34 30.58 30.35 28.94 29.06 28.27 29.98 31.76 32.23 33.96 33.83 33.58 32.65 30.97 30.93 31.33 31.58 32.29 31.94 32.32 32.91 30.66 29.29 25.85 26.83 27.57 27.26 27.62 27.21 27.78 28.38 30.45 31.29 35.72 33.79 28.91
30.75 30.70 30.63 31.55 31.54 31.73 31.73 31.92 31.73 30.83 29.43 28.19 27.04 26.96 27.98 29.94 31.29 32.45 32.35 30.75 29.54 29.18 29.31 29.34 30.70 30.76 30.75 30.33 29.17 27.39 25.74 26.67 25.64 25.34 24.79 24.44 24.41 24.50 24.62 26.19 27.25 29.93 27.24
30.59 30.57 30.40 31.07 31.89 32.46 32.28 32.28 31.92 31.73 30.96 29.95 28.63 27.65 27.30 27.68 28.85 29.74 29.74 29.37 29.26 27.54 27.18 28.38 29.26 29.64 29.25 28.84 27.57 27.60 26.94 26.02 25.25 23.66 22.72 21.75 21.78 21.99 23.11 24.51 25.32 26.16 27.93
30.97 29.95 30.66 31.48 31.49 32.39 31.67 31.49 33.01 32.37 31.95 31.05 30.19 29.18 28.58 29.67 29.28 28.67 28.11 27.35 26.78 24.73 25.76 26.66 26.99 26.94 26.67 26.51 26.68 26.30 25.75 24.26 23.23 21.61 21.54 22.24 23.74 25.23 25.77 24.74 25.06 24.73 25.10
30.51 30.11 30.01 30.18 30.34 30.25 31.38 31.19 29.25 30.55 30.85 30.06 29.90 29.73 29.77 29.25 29.91 30.50 30.12 29.72 28.38 27.86 27.26 27.01 26.61 25.93 25.27 25.15 25.26 26.29 26.43 25.12 23.40 22.55 22.18 24.09 26.02 25.78 25.65 25.84 24.85 24.07 22.27
30.17 30.10 30.28 30.03 29.79 29.16 27.65 27.62 28.72 28.76 28.72 29.07 28.84 28.32 27.44 26.07 27.73 28.30 29.02 28.99 28.66 28.24 29.58 29.52 28.11 28.22 26.91 25.86 26.47 27.06 27.52 27.11 26.31 26.54 25.58 24.27 23.61 23.85 23.66 25.05 24.13 24.36 22.15
28.87 28.43 28.36 29.29 29.44 29.51 29.18 27.22 26.08 26.41 27.10 27.35 27.37 28.10 27.33 26.59 26.18 26.11 25.86 25.71 26.72 28.18 29.10 27.81 26.37 26.47 25.95 25.45 25.00 24.87 25.61 25.60 25.79 25.54 25.36 25.24 24.91 24.44 23.77 24.05 24.45 23.18 21.60
26.40 27.42 28.24 27.71 27.85 27.57 27.07 26.52 26.06 26.50 24.56 23.63 25.25 25.55 25.40 24.39 24.34 24.18 24.37 24.48 25.28 27.17 26.60 25.87 25.31 25.42 24.91 24.69 24.38 23.96 22.94 23.02 24.10 24.32 23.74 23.29 23.21 22.88 23.32 22.58 22.18 21.46 19.67
27.61 25.57 27.48 27.32 27.30 27.31 27.05 26.70 26.33 25.30 24.70 24.37 22.55 22.26 22.70 22.85 23.10 23.00 23.59 25.23 24.38 24.45 24.57 23.92 23.01 22.66 22.14 21.97 21.57 21.14 21.86 22.71 22.74 22.53 23.06 23.08 23.20 22.75 22.08 21.32 21.48 20.77 19.91
26.56 26.92 27.67 27.78 26.64 25.94 26.62 26.28 25.76 25.08 24.27 24.05 24.90 24.06 22.85 21.31 21.97 22.35 23.27 24.06 22.52 21.46 21.29 21.15 21.64 21.26 21.07 20.78 20.92 20.75 20.70 20.83 21.51 21.45 21.22 21.30 22.23 21.65 20.24 19.60 18.56 17.82 19.14
26.99 24.07 25.35 26.84 26.11 25.61 25.68 25.03 24.52 24.00 23.29 22.66 21.58 20.88 23.64 24.03 22.78 22.22 22.93 23.03 22.23 21.21 20.73 19.95 19.82 19.72 19.07 19.49 19.81 20.29 20.32 20.09 19.77 20.03 20.57 21.04 21.49 21.28 19.92 19.55 19.97 19.11 18.65
26.64 26.25 24.12 26.17 25.03 25.03 24.81 24.18 23.83 23.32 22.22 21.61 20.36 18.07 16.41 21.20 20.94 20.72 20.50 20.60 20.53 20.33 20.27 19.86 19.74 19.39 19.24 18.69 18.64 18.00 17.81 18.27 18.27 18.28 18.19 18.61 19.05 18.40 19.28 19.32 18.78 18.26 17.81
24.63 24.45 24.28 23.72 24.08 23.66 23.25 23.28 22.87 22.01 21.35 20.68 20.53 19.10 16.68 20.60 19.93 19.12 18.66 17.95 18.26 18.98 19.54 19.36 18.68 17.94 17.54 16.99 16.64 16.58 15.29 15.33 16.12 16.79 16.25 16.31 17.36 17.48 17.98 17.49 17.17 17.34 16.64
22.38 22.32 22.51 22.39 22.12 21.13 22.04 21.79 21.29 20.97 20.04 19.86 19.53 19.15 18.95 18.68 17.93 17.70 16.75 16.79 16.84 16.48 16.59 17.16 16.39 14.94 15.18 15.02 15.63 15.74 14.58 13.16 13.45 15.50 15.69 16.05 16.33 16.63 17.20 16.30 15.41 15.84 15.98
20.61 20.41 19.73 19.96 19.74 20.00 19.78 20.32 20.77 17.70 18.36 18.72 19.05 18.57 17.69 17.89 17.13 15.78 15.86 16.20 15.82 15.47 15.09 13.78 13.32 12.18 11.78 13.37 14.33 13.24 11.80 11.77 12.31 10.99 10.57 15.34 13.84 13.57 15.50 14.28 14.28 11.61 13.28
19.36 18.76 18.58 18.52 18.21 17.97 17.92 18.15 18.40 18.61 18.58 18.54 18.71 18.31 17.73 17.34 16.85 16.71 16.38 15.78 13.73 14.85 11.80 12.42 13.35 10.13 9.16 8.71 9.62 9.11 6.28 4.56 7.25 6.30 12.18 11.32 10.71 9.73 12.16 13.69 13.08 12.60 9.88
17.72 17.25 17.34 17.39 16.85 16.62 16.38 16.22 16.31 16.66 16.53 17.07 17.02 17.19 16.62 16.49 16.41 16.95 15.97 14.17 14.00 13.54 10.81 13.92 11.61 6.67 7.47 9.67 8.62 5.52 3.66 3.64 5.43 3.09 11.46 12.10 11.49 12.04 11.82 10.33 4.59 12.46 8.46

GFSGL_sfc_wetblb_105.txt.gz
Wetbulb
38.89 39.96 41.88 44.27 47.41 52.19 62.86 64.28 65.24 66.20 65.73 64.78 64.35 62.81 62.38 62.48 60.80 61.05 62.39 61.63 62.42 63.36 62.97 62.33 61.24 62.31 62.27 61.34 60.55 61.39 59.12 58.05 54.71 56.93 59.61 60.62 59.16 58.42 58.45 59.01 59.01 58.67 53.05
37.83 38.55 40.04 41.50 43.69 46.47 50.26 57.60 64.18 64.50 64.65 64.61 62.84 63.29 62.94 62.05 62.62 58.66 57.81 60.09 61.13 61.86 62.05 61.15 60.07 60.77 61.52 61.55 60.99 58.75 58.49 58.88 57.21 55.02 58.05 57.75 58.05 58.10 58.15 57.50 58.85 58.89 51.35
36.59 36.55 37.70 38.75 41.22 42.05 43.79 47.54 60.09 62.70 62.34 61.76 62.56 62.53 62.78 62.48 62.31 61.26 58.79 58.14 61.24 62.30 61.98 60.63 59.59 60.63 59.49 59.77 60.03 58.94 59.40 58.61 58.71 55.49 53.91 57.20 57.15 57.63 57.03 55.12 48.73 46.08 44.47
35.73 34.85 34.54 36.31 38.63 40.53 40.87 43.07 43.51 49.80 60.53 60.82 61.55 62.05 61.46 61.66 62.19 62.44 61.10 60.32 60.90 61.39 61.54 61.25 60.69 59.81 59.04 59.42 58.63 58.46 58.74 57.70 56.71 55.59 54.64 54.47 55.43 56.39 55.39 46.64 45.06 45.51 42.93
32.96 32.83 32.81 34.47 36.62 38.48 39.13 38.77 39.83 39.44 41.23 50.64 56.96 54.52 56.58 54.92 55.19 59.98 60.36 59.44 59.46 59.30 56.53 54.68 49.10 44.27 41.65 43.35 54.47 57.98 57.31 56.53 55.39 53.85 53.08 53.72 54.09 52.35 49.47 48.74 44.72 41.65 41.00
32.09 31.76 32.73 33.81 33.63 34.52 35.91 37.11 36.39 36.87 35.81 37.43 40.35 43.60 42.56 41.30 38.67 41.18 53.73 55.45 53.59 52.37 47.65 46.09 44.58 42.29 42.10 37.93 40.08 42.31 50.06 55.73 54.25 53.36 52.65 52.47 53.28 51.86 49.89 46.00 40.83 38.23 35.74
32.38 31.92 32.13 32.09 32.11 31.97 33.57 33.93 34.32 34.78 34.72 33.24 34.10 35.99 36.46 37.60 38.04 40.49 41.13 44.44 41.28 41.22 41.47 41.60 42.08 41.21 40.81 40.50 37.59 36.39 35.18 35.73 41.33 54.09 52.72 52.68 52.63 53.30 50.64 44.14 43.38 42.18 38.34
31.74 31.77 32.13 31.85 31.50 31.75 31.34 31.15 31.68 32.29 32.29 31.79 31.59 32.79 34.16 34.87 35.79 36.71 36.72 37.94 36.51 35.54 35.74 36.59 37.61 38.42 37.57 39.23 36.68 33.47 32.64 32.50 33.32 36.23 39.41 34.15 36.32 43.74 49.23 47.14 43.78 32.95 33.86
30.78 31.13 31.90 32.52 32.04 31.88 31.20 30.38 30.16 28.88 28.90 29.04 30.13 30.49 31.80 32.27 34.16 35.05 34.99 33.71 32.44 32.00 32.69 33.59 34.33 34.57 34.12 36.94 34.21 31.86 31.38 30.82 32.56 33.53 33.51 33.77 34.35 35.40 39.44 39.83 35.97 35.58 31.75
30.62 30.93 32.34 32.77 32.52 31.97 32.15 31.97 31.94 30.91 28.52 27.80 27.67 28.58 30.25 30.24 32.59 33.20 32.97 32.11 30.30 30.22 30.81 31.19 32.04 31.90 32.62 32.76 32.08 30.95 26.94 26.73 29.06 29.28 28.67 28.54 29.90 31.25 32.64 34.68 38.58 38.04 29.87
32.01 32.00 31.70 32.53 32.67 32.82 33.24 32.70 32.34 31.97 31.76 29.77 27.91 27.17 27.54 28.59 29.61 31.45 31.62 29.85 29.03 28.37 28.10 28.37 29.80 30.90 31.12 30.60 29.92 28.05 26.50 27.58 26.55 26.19 25.32 25.13 25.31 25.87 26.66 29.30 31.45 33.65 30.03
32.81 31.88 31.34 31.20 32.36 32.66 32.17 33.03 32.88 32.34 31.97 31.60 31.04 29.79 29.92 28.47 29.28 29.36 29.18 28.80 28.56 26.71 26.35 27.58 28.71 29.58 29.58 29.23 28.07 28.55 27.80 26.69 25.53 24.12 23.34 22.46 22.27 22.46 23.78 25.76 27.42 28.88 29.93
33.67 32.19 32.10 31.71 31.04 31.74 30.59 29.84 29.95 32.23 31.03 30.50 29.64 28.11 27.84 30.17 31.00 30.49 29.36 28.03 27.49 25.47 26.56 27.36 27.84 27.97 27.91 27.25 27.84 27.27 26.25 25.36 24.54 22.87 22.35 22.85 23.64 24.83 25.31 24.69 25.18 26.30 26.66
31.91 31.93 32.38 31.91 30.63 29.76 29.28 29.23 27.53 26.92 28.79 28.11 27.22 27.59 27.31 27.20 27.64 29.75 30.83 30.32 30.06 30.17 30.38 29.92 28.68 27.89 27.83 27.51 27.28 27.17 26.27 25.55 24.26 23.34 23.37 24.62 25.84 25.81 24.90 25.21 23.49 23.41 22.11
30.95 30.54 31.32 31.25 31.12 30.04 27.39 26.87 26.55 26.92 26.42 25.54 27.06 25.51 24.87 24.12 26.10 27.70 27.93 28.45 29.58 30.04 31.13 31.06 30.08 29.03 28.15 28.07 27.82 28.22 28.29 28.45 26.86 25.99 24.81 24.27 24.23 24.32 24.28 25.34 24.75 23.87 20.87
29.50 29.79 29.20 30.07 30.60 29.92 28.96 27.72 26.18 25.71 25.49 25.96 26.03 26.00 26.77 25.28 25.60 26.25 26.75 27.26 28.52 29.86 29.73 28.37 28.04 28.22 27.09 26.67 26.03 26.39 27.59 27.04 27.42 27.90 27.68 26.81 25.84 25.53 25.14 25.60 25.42 24.32 22.56
27.41 28.51 29.21 28.72 28.68 28.12 28.37 27.68 26.53 26.97 25.03 24.10 24.16 24.16 24.38 24.53 24.67 25.24 25.84 26.36 27.14 28.89 27.10 26.29 25.71 25.71 25.14 24.68 25.13 24.75 24.17 25.54 26.68 26.51 25.92 25.42 24.85 24.97 24.83 23.84 23.92 22.99 22.23
28.22 27.21 28.34 28.09 27.89 28.01 27.77 27.39 27.56 26.58 25.85 26.63 24.68 23.58 23.52 23.98 24.57 25.32 26.46 26.80 24.94 25.27 24.61 23.53 23.07 22.96 23.08 23.08 23.59 23.57 24.22 24.63 25.01 25.39 25.47 25.59 25.42 24.69 23.84 23.45 23.14 22.48 21.89
27.24 27.18 29.44 29.14 28.32 27.99 28.16 27.56 27.25 26.37 25.80 25.19 25.19 25.14 26.27 24.65 24.97 25.17 25.70 24.89 22.98 22.02 22.26 22.16 22.26 21.79 22.01 21.95 22.30 22.17 22.73 23.20 23.93 24.09 24.19 24.01 24.30 23.56 21.60 21.07 20.74 21.10 21.57
29.00 25.82 26.69 27.99 27.49 27.22 27.29 26.65 26.01 25.63 25.06 24.34 22.22 19.58 21.89 25.34 24.37 23.96 24.10 24.07 23.48 22.87 22.63 21.70 21.52 21.44 21.41 21.50 22.06 22.46 22.34 22.02 22.04 22.46 22.97 23.65 23.69 23.04 21.65 21.14 21.39 20.64 20.43
27.15 27.09 25.57 26.76 26.37 26.00 25.79 25.30 25.17 24.69 23.81 23.40 22.18 19.83 18.03 22.43 22.10 22.10 21.47 20.79 21.10 21.18 21.19 21.32 21.21 20.75 20.66 20.37 20.35 20.05 20.02 20.19 20.14 20.13 20.46 20.74 21.53 20.65 21.26 20.93 20.23 19.46 19.13
25.32 25.11 25.26 24.95 24.81 24.31 23.74 24.67 23.80 23.13 22.55 21.83 22.00 21.50 20.32 21.28 21.00 20.45 19.56 19.10 19.67 19.74 20.23 20.19 19.32 18.65 18.15 18.60 18.73 18.18 17.80 17.77 18.50 18.84 18.20 18.70 19.23 19.31 19.60 19.10 18.73 17.80 17.42
23.68 23.30 23.16 23.17 22.95 22.26 23.17 22.80 22.62 22.09 21.85 21.79 21.46 20.50 20.52 19.98 19.23 18.39 18.24 18.11 17.77 17.67 17.00 18.18 17.55 16.56 16.89 16.80 17.25 17.37 16.31 15.06 15.54 17.46 17.99 18.18 18.73 18.56 18.64 17.62 16.91 16.98 16.29
22.57 22.15 21.31 21.55 21.16 20.72 20.73 20.69 21.45 20.97 20.79 21.06 21.18 20.69 19.92 18.96 18.58 18.35 17.33 16.61 16.57 16.51 16.62 15.33 14.20 12.63 13.85 15.51 15.93 14.76 13.31 13.69 14.41 13.84 15.59 16.96 15.77 16.73 17.10 15.88 15.42 14.10 13.77
21.09 20.55 20.24 19.55 19.20 18.88 19.09 18.98 19.30 19.97 19.63 20.10 20.42 19.80 19.63 19.46 18.99 18.80 18.32 16.99 14.94 15.50 14.07 14.05 14.35 12.05 10.39 9.80 9.66 7.88 6.15 5.76 8.21 8.18 14.19 14.47 13.90 13.85 14.19 14.76 14.49 13.57 12.42
20.18 19.41 19.11 19.10 18.41 18.25 17.62 17.30 17.07 17.79 17.70 18.02 18.27 18.58 18.62 18.14 18.07 18.33 18.56 15.89 15.09 14.87 12.47 14.99 13.52 10.57 9.36 11.64 9.50 5.74 5.16 5.15 6.31 5.97 11.60 13.48 13.12 13.02 12.83 12.16 9.32 13.34 11.65

GFSGL_sfc_wetblb_111.txt.gz
Wetbulb
35.49 35.98 36.44 36.56 37.58 38.17 39.25 40.40 41.29 43.20 45.49 48.48 51.13 59.62 60.60 60.89 60.89 60.62 60.58 59.73 59.14 58.42 59.36 59.05 57.78 60.24 59.90 59.86 59.52 58.82 56.37 55.93 54.62 52.75 54.76 55.76 59.45 59.94 59.72 59.47 59.31 59.22 56.05
35.40 35.33 35.54 35.92 36.40 36.35 36.99 38.35 39.73 40.53 42.79 44.95 49.57 56.19 60.63 60.22 60.40 60.70 59.94 59.86 59.38 59.43 59.58 59.12 58.61 59.69 59.05 59.15 59.28 58.47 58.01 57.34 56.60 53.52 55.18 56.26 57.00 58.96 59.71 58.15 58.13 57.80 56.90
34.82 34.49 34.58 34.49 34.83 34.40 34.92 35.94 37.03 37.84 39.41 41.01 44.23 46.15 51.95 59.92 60.77 61.55 61.00 61.16 60.83 60.47 59.96 58.99 58.12 58.17 58.61 59.13 58.57 58.28 58.03 58.22 57.98 55.77 54.66 57.13 57.26 58.22 58.01 57.47 52.91 48.82 47.75
33.79 33.80 33.36 33.98 34.32 33.67 33.70 33.54 33.95 35.25 35.96 37.65 39.38 41.23 42.98 44.29 46.51 50.27 60.00 59.50 57.45 57.18 57.56 56.30 55.70 57.47 58.10 58.85 58.71 58.46 58.17 57.65 57.53 56.67 55.79 55.84 57.01 57.47 57.61 50.08 45.69 46.14 43.77
32.65 32.96 32.67 33.73 34.43 33.57 32.50 31.77 31.93 32.07 33.00 34.64 36.04 36.70 37.31 38.17 37.24 39.60 46.40 57.23 55.49 55.00 53.21 50.89 49.56 48.24 47.24 50.77 57.39 57.45 57.45 57.07 56.77 56.06 55.26 55.04 55.12 54.55 53.78 51.69 46.19 40.52 40.04
32.03 32.35 33.16 33.25 33.48 33.01 32.37 31.11 30.29 29.91 30.38 31.06 31.92 33.37 33.80 35.57 35.74 35.71 40.39 56.79 54.70 52.13 47.08 45.02 44.26 41.37 39.83 40.45 40.21 38.19 42.75 56.13 55.96 55.64 55.36 53.78 54.21 54.49 51.29 48.89 40.98 39.63 37.57
31.53 32.04 32.65 32.48 32.82 32.63 32.62 31.44 30.24 29.14 29.23 28.89 29.01 30.39 30.89 32.75 35.09 34.59 34.93 40.35 43.45 42.83 41.97 42.08 40.76 41.07 41.85 38.93 37.10 35.64 34.55 34.90 35.57 43.44 53.00 54.55 53.62 54.42 51.50 47.48 44.23 44.80 38.42
30.55 30.70 31.85 30.90 30.86 31.99 31.95 31.83 31.73 30.47 29.20 28.42 28.38 28.49 29.37 31.04 33.80 33.88 32.45 32.09 32.04 32.61 33.12 34.47 35.23 35.91 37.82 39.39 36.13 33.94 31.71 32.26 32.79 34.00 34.56 33.86 36.57 51.06 51.90 49.68 46.35 37.11 35.17
29.39 29.60 30.43 30.30 29.23 29.44 29.37 30.76 31.38 29.84 28.96 28.46 29.06 29.01 28.48 29.32 31.98 32.50 32.43 30.18 29.62 29.23 30.47 32.33 32.29 32.70 35.65 37.67 34.43 31.84 30.43 29.73 32.50 33.13 33.31 33.25 34.28 39.27 44.68 41.12 36.54 35.98 32.02
29.95 28.75 29.33 29.73 27.98 27.34 27.53 28.52 29.68 29.86 28.77 28.49 27.55 27.62 29.77 29.54 32.18 30.99 29.66 28.92 27.27 27.50 28.98 29.70 31.83 31.61 32.47 32.70 31.40 30.74 27.07 26.22 27.99 28.84 28.93 29.59 29.73 31.19 33.91 35.81 39.47 39.42 31.90
31.64 29.87 28.50 28.31 27.31 26.32 26.50 26.71 26.86 27.21 26.26 26.32 26.03 26.61 26.89 28.74 29.96 32.27 30.74 27.18 26.51 26.39 26.91 27.69 29.57 31.07 31.30 31.02 30.00 27.78 26.52 27.24 26.79 26.93 26.38 26.35 26.82 27.27 28.31 31.56 32.96 38.33 35.43
30.79 30.22 28.13 27.60 27.79 26.92 24.59 24.49 24.90 24.59 24.29 22.67 22.96 23.61 25.35 26.67 29.57 30.81 32.00 31.45 30.40 27.69 26.95 28.17 29.03 30.25 30.29 29.86 28.57 28.94 28.25 26.74 26.22 25.13 24.13 23.30 23.71 24.52 26.69 28.74 30.43 31.77 32.31
28.21 28.39 27.98 27.27 26.32 26.40 24.21 23.02 22.09 22.44 21.81 22.29 21.02 20.65 21.96 24.59 26.42 29.06 30.62 31.43 30.95 28.86 29.35 29.65 29.93 29.80 29.63 27.94 28.34 27.51 26.17 25.62 24.79 23.49 22.80 23.14 24.67 25.95 26.97 27.78 29.54 29.83 28.86
26.64 26.62 27.50 27.08 25.43 25.20 24.67 23.72 22.47 21.13 20.80 20.64 20.49 20.79 21.64 23.82 25.16 26.76 27.88 29.08 28.89 29.47 29.14 28.66 28.01 27.52 27.31 27.00 27.11 27.51 26.21 25.36 24.08 23.28 23.40 24.60 25.64 25.18 24.51 25.62 25.59 27.18 26.20
26.49 25.69 25.50 25.91 25.83 25.01 24.79 24.01 23.78 24.06 24.00 22.14 21.34 21.32 21.94 22.45 25.38 27.03 26.70 26.49 26.75 26.37 26.40 25.68 24.55 24.80 24.12 24.21 24.95 25.57 26.54 26.77 25.22 25.32 24.70 24.34 24.08 24.36 23.89 25.17 25.41 24.91 23.68
24.83 25.14 24.78 24.80 25.01 25.14 24.61 22.57 27.48 26.97 26.09 25.41 25.77 25.28 21.68 26.32 27.66 27.41 26.61 26.42 25.94 25.43 22.08 20.62 20.63 21.41 21.75 22.40 22.42 23.01 24.46 24.64 24.88 25.00 24.85 24.80 24.25 23.89 23.69 24.25 24.51 23.59 22.26
22.97 24.23 25.01 24.83 24.69 24.05 23.55 22.92 20.29 22.05 25.17 23.88 24.50 25.06 26.84 25.90 25.83 26.40 26.02 24.75 24.36 22.59 18.95 18.82 18.71 19.10 19.33 19.84 20.59 22.27 22.07 23.93 25.21 24.64 24.48 24.12 23.73 23.35 22.73 22.35 22.95 23.17 22.37
19.23 20.31 21.28 20.36 20.02 20.64 18.69 17.87 17.20 15.57 14.41 15.43 19.68 22.65 24.59 24.93 24.00 23.78 23.58 22.30 19.19 20.22 18.68 17.71 17.64 18.92 19.38 18.78 18.99 19.54 20.39 21.40 22.30 23.04 22.80 22.86 22.54 23.05 21.91 21.27 21.42 20.98 21.25
18.98 17.78 16.48 18.01 17.90 17.75 19.25 17.18 17.01 15.82 10.80 7.70 10.96 15.39 17.53 22.80 21.52 20.84 20.17 16.18 15.64 16.25 18.10 17.74 17.35 17.26 17.61 18.23 18.21 18.87 18.57 18.78 19.47 20.07 19.87 19.68 18.95 19.83 19.45 20.20 20.85 20.38 19.99
17.74 17.96 17.67 19.02 18.57 18.51 19.31 19.38 18.52 17.67 14.91 10.11 11.02 9.45 14.04 15.91 14.67 12.70 12.82 12.47 13.16 13.46 15.04 15.32 14.80 14.32 15.06 16.04 15.94 16.41 16.85 16.90 17.33 18.14 17.40 17.47 15.36 17.16 16.85 16.95 17.24 17.57 17.07
17.43 18.72 15.13 18.79 17.66 18.34 17.87 17.47 18.76 16.52 15.77 16.22 9.89 7.68 10.02 13.79 10.42 11.13 11.68 10.97 10.81 10.22 10.34 13.29 12.99 11.74 12.15 12.10 12.42 12.82 12.82 12.28 13.24 14.19 15.31 16.88 15.93 15.49 16.28 16.38 16.23 17.30 16.75
18.33 18.46 18.87 17.64 17.75 16.32 16.37 17.47 16.70 16.33 16.34 16.09 16.68 13.45 9.69 6.82 7.76 7.45 7.24 1.96 1.78 6.72 8.24 8.32 8.75 9.14 8.50 8.39 9.03 7.92 7.74 7.53 8.15 8.56 10.47 12.27 13.64 14.36 14.01 12.84 13.16 13.90 15.04
16.63 14.33 15.48 16.66 15.30 12.82 11.94 14.04 11.72 9.43 11.52 11.39 13.27 15.98 15.93 12.06 7.76 7.92 3.39 -2.40 2.64 0.98 1.36 1.33 -2.18 1.34 5.12 5.72 2.12 2.40 1.10 2.64 5.46 7.92 7.76 11.18 10.24 10.70 12.49 12.62 11.89 10.56 9.64
14.74 10.85 14.51 11.89 8.17 10.06 2.71 0.72 2.54 8.08 8.43 5.56 2.95 5.55 7.43 13.28 10.47 8.50 5.58 -0.92 -3.27 -3.50 -5.74 -2.62 -2.42 -2.40 -2.48 -5.84 -6.61 -2.89 0.01 -4.43 -0.74 4.46 4.42 6.55 9.79 11.44 9.68 8.87 9.25 6.81 5.95
8.95 5.65 5.87 7.86 3.13 2.58 1.53 2.21 -0.35 -1.38 -0.54 -0.48 -1.45 -0.97 3.84 4.98 4.31 2.77 12.25 9.89 1.35 -4.49 -2.45 -2.97 -2.60 -3.90 -6.14 -7.68 -8.00 -7.15 -8.38 -6.07 -4.70 -1.12 0.98 3.84 5.55 7.23 5.96 6.70 5.21 6.94 5.15
11.10 10.13 8.67 8.52 8.77 12.12 10.26 11.84 12.16 10.78 8.29 -0.64 -2.48 -1.51 -1.16 -0.20 0.38 -1.20 -1.12 2.83 5.58 1.01 -2.83 1.70 -1.58 -2.28 -2.99 -5.01 -3.89 -4.49 -7.30 -6.70 -4.22 -0.81 0.03 1.82 -1.49 -0.55 -1.47 2.71 4.26 3.60 5.20

GFSGL_sfc_wetblb_114.txt.gz
Wetbulb
34.64 34.90 34.87 35.03 35.78 36.46 36.41 36.44 36.96 38.11 39.21 40.54 41.45 44.03 47.59 50.03 57.00 55.49 55.77 58.63 59.37 59.11 58.11 57.87 59.36 59.98 59.44 59.30 59.08 58.69 57.39 55.53 53.10 52.71 53.78 55.12 58.66 58.71 58.84 59.24 59.24 59.05 56.30
34.54 34.22 33.86 34.34 34.66 34.39 34.38 34.66 35.30 35.42 37.18 38.13 39.82 41.38 43.90 44.88 48.99 58.62 56.63 58.26 58.37 58.53 58.50 56.92 56.86 58.45 58.87 58.93 58.90 58.62 57.64 57.35 55.66 51.93 53.91 54.97 57.14 58.64 59.30 58.52 59.21 59.78 59.40
34.34 33.55 33.58 33.51 33.45 33.03 32.87 33.31 33.34 33.51 34.13 35.21 37.12 38.25 39.00 40.38 41.36 46.20 57.22 58.26 58.24 58.26 58.93 57.73 56.67 56.11 55.33 56.60 57.66 57.58 58.34 57.87 57.96 55.78 54.13 56.22 56.72 57.57 58.21 57.71 57.28 55.74 52.82
33.13 33.08 32.92 32.78 33.44 32.99 33.00 32.70 32.04 32.28 32.07 32.41 34.01 35.14 36.24 37.69 38.06 39.13 44.26 52.36 57.18 59.20 59.46 59.20 58.54 56.82 56.57 57.53 57.21 56.25 56.94 57.31 57.20 56.14 53.88 55.76 56.12 56.76 57.72 52.46 47.71 47.47 45.66
32.08 32.17 32.05 33.20 33.79 33.47 33.23 33.04 32.09 31.43 31.48 31.49 31.59 32.51 33.39 35.60 35.80 35.98 42.75 48.17 50.88 56.32 56.96 55.37 55.82 56.18 51.71 53.51 56.74 57.49 57.77 57.02 56.58 55.98 54.71 55.02 55.46 54.57 55.00 53.24 50.87 42.04 40.78
30.32 31.17 31.13 31.26 31.64 32.51 32.59 32.02 31.33 30.52 30.60 30.75 30.22 30.77 31.10 33.00 34.81 35.33 37.27 37.25 36.49 42.55 48.74 45.82 44.31 43.44 41.37 41.27 40.88 43.08 53.35 56.62 55.58 55.26 55.15 54.22 54.94 55.44 55.70 51.28 42.08 40.96 41.70
29.67 29.95 30.66 30.05 29.92 30.15 31.34 31.12 30.45 29.29 28.26 28.36 29.00 30.21 30.42 31.13 33.27 34.67 34.38 33.15 32.98 32.41 33.20 37.14 40.77 40.74 40.54 38.61 37.27 37.24 35.31 36.01 39.97 52.99 54.91 54.05 53.77 54.89 52.79 48.90 45.70 44.18 42.71
28.40 28.29 29.27 28.42 28.34 28.91 28.85 29.15 28.28 29.28 27.95 27.51 27.65 28.73 29.79 31.39 32.48 32.04 32.80 32.86 31.32 30.19 31.09 31.60 32.75 33.76 36.21 39.08 37.27 34.29 33.11 33.05 33.40 34.79 36.18 33.48 34.02 38.37 48.84 52.38 49.25 38.01 34.47
27.91 27.29 27.50 26.87 25.43 26.02 25.60 26.07 27.23 26.45 26.48 26.44 27.00 27.08 28.06 29.59 33.04 31.90 29.79 29.79 29.68 29.59 29.92 31.17 30.89 31.44 33.46 35.26 34.77 33.04 31.29 29.72 33.32 33.61 33.34 32.86 33.17 35.24 39.72 43.57 38.45 38.65 31.82
29.15 28.04 27.93 27.78 25.31 23.55 22.98 24.21 25.11 24.96 23.83 24.63 24.91 25.78 27.75 28.15 32.68 33.02 30.75 28.52 27.33 28.11 28.77 29.45 31.32 30.65 31.51 31.85 30.42 30.65 28.73 26.56 28.56 29.12 28.51 29.14 30.07 31.00 33.02 34.91 41.60 41.61 32.37
30.33 28.54 27.26 26.67 26.12 24.81 23.95 23.45 23.17 23.28 23.27 22.81 22.99 24.52 25.57 27.36 28.99 32.50 32.23 28.91 27.77 27.23 27.35 27.68 29.18 30.58 30.66 30.69 30.31 28.41 27.09 27.43 26.89 26.82 26.50 26.51 27.21 28.45 29.25 31.29 32.75 37.27 34.17
27.87 28.14 26.40 25.99 26.38 25.59 23.69 23.34 22.73 22.19 21.43 21.26 22.31 23.22 25.53 26.18 28.45 29.90 30.88 30.35 30.18 27.22 26.53 27.65 28.73 30.17 30.42 29.54 28.08 28.55 28.26 27.11 26.55 25.48 24.84 24.16 24.42 25.32 27.47 28.91 30.18 31.85 32.54
26.51 25.74 25.72 25.41 25.12 24.81 23.29 22.91 22.55 22.59 21.92 21.43 21.25 21.74 23.47 25.44 25.66 27.81 28.55 28.55 28.02 26.58 27.57 28.34 28.71 28.45 28.34 27.66 29.45 28.45 26.12 25.40 24.87 23.58 22.91 23.23 24.58 25.80 27.28 28.69 30.19 30.34 29.41
24.96 25.17 25.59 25.28 24.62 25.00 24.50 24.00 22.26 21.08 21.52 21.62 21.52 20.79 21.89 23.94 23.94 24.51 24.88 25.06 24.72 24.52 24.66 24.72 25.22 25.89 25.64 25.92 26.05 26.86 26.86 26.37 25.08 23.97 23.85 24.82 25.71 25.48 25.35 26.86 26.54 27.43 26.59
25.71 24.96 24.59 25.12 24.54 23.95 24.57 25.15 23.03 21.83 23.40 22.18 22.85 22.60 21.15 20.98 24.07 25.28 24.28 22.77 22.92 22.71 22.10 22.01 21.32 21.24 21.37 22.49 23.54 24.54 25.20 25.39 24.48 24.92 24.71 24.70 24.35 24.62 24.35 25.63 26.00 25.99 24.23
23.58 24.28 23.74 23.37 23.06 23.58 22.96 22.43 26.38 24.11 24.40 25.33 25.82 24.69 22.25 23.88 24.80 25.35 25.01 24.62 23.92 23.21 19.43 18.16 17.95 18.29 18.42 19.31 20.07 21.41 22.78 23.38 24.08 24.62 24.07 23.70 22.98 22.96 23.55 24.63 24.98 24.20 23.22
21.22 22.95 21.96 21.59 21.29 20.62 20.01 19.47 16.58 18.25 22.24 22.77 23.32 23.97 23.54 22.62 22.39 22.81 22.70 21.99 22.65 20.72 16.48 16.09 15.74 16.62 17.48 18.53 18.96 19.56 19.91 21.53 23.41 22.94 23.09 22.99 23.19 22.78 22.58 22.58 23.57 23.68 22.18
16.41 17.39 16.97 17.16 16.23 15.97 14.42 13.90 11.46 11.69 11.25 11.94 16.96 20.58 21.78 21.10 20.57 20.19 19.56 17.38 13.63 15.67 14.76 13.78 13.43 14.65 15.67 16.38 17.21 17.43 18.33 19.26 19.94 20.29 20.51 20.83 21.41 21.76 21.73 21.48 21.63 21.17 21.03
15.20 11.97 11.58 12.17 15.02 14.31 16.35 15.04 13.65 9.72 5.87 4.53 6.20 11.78 12.02 19.37 18.59 17.88 16.73 10.18 9.25 10.33 13.05 11.87 11.63 12.20 12.66 13.71 13.87 14.75 15.68 16.01 16.53 17.10 17.64 18.15 17.74 19.56 19.55 20.80 20.75 19.90 20.39
16.22 16.37 15.46 15.97 16.16 15.86 15.99 16.42 16.87 14.58 14.44 14.19 10.25 8.26 10.96 11.53 6.16 5.66 7.37 1.17 6.78 8.33 10.01 10.81 10.26 9.52 9.17 10.42 10.55 10.89 10.78 10.64 11.32 13.36 14.98 15.86 16.17 17.18 16.21 17.59 19.41 18.10 17.68
15.92 16.55 12.94 15.97 15.20 15.00 14.57 14.66 15.01 14.11 13.39 13.88 15.47 14.21 9.62 10.64 5.34 4.27 6.93 3.75 3.84 6.25 4.06 6.88 6.72 5.50 6.49 6.10 7.77 6.27 6.19 5.56 6.65 8.38 10.40 13.20 13.40 13.87 15.62 16.13 16.77 16.92 16.68
15.61 16.31 16.79 15.26 15.86 12.98 13.77 14.93 12.24 11.36 12.29 11.71 10.89 12.97 10.72 10.89 8.78 5.09 3.54 -1.87 -2.60 2.63 4.15 0.47 1.58 3.49 6.25 1.32 0.13 -4.60 -0.58 1.02 3.10 5.01 6.94 9.55 11.69 10.62 11.59 13.04 13.25 13.21 15.13
14.41 11.78 13.67 14.76 12.71 10.37 8.21 10.27 6.41 3.42 4.15 1.81 5.18 8.41 8.32 4.95 6.52 6.59 4.65 -4.96 -1.17 -3.01 -3.01 -3.64 -6.60 -3.57 -2.86 -8.06 -7.50 -6.05 -5.50 -4.62 -2.62 3.34 4.36 6.69 10.01 8.87 8.50 8.74 9.13 8.83 8.69
12.12 9.01 12.77 11.54 9.84 9.84 6.05 6.28 7.99 9.01 8.22 3.09 -5.68 -3.15 -2.05 -1.69 -4.23 -3.69 -1.51 -3.37 -5.72 -9.13 -10.94 -8.77 -5.58 -4.63 -4.52 -10.10 -13.30 -6.52 -2.75 -7.67 -4.11 2.49 2.83 3.59 8.35 8.79 6.60 8.00 6.54 4.09 5.61
7.07 5.52 5.51 4.98 0.30 0.12 0.28 4.80 6.47 5.05 5.56 6.32 6.61 4.55 1.63 -2.82 -2.13 -5.68 -6.59 -1.87 -1.74 -8.04 -5.54 -7.49 -6.78 -6.46 -7.70 -9.02 -9.10 -8.73 -11.31 -7.31 -5.91 -1.85 2.90 2.83 3.78 3.31 3.94 4.97 4.18 6.75 4.93
7.60 5.82 4.21 3.51 2.51 1.16 -0.43 -1.16 -1.56 -0.38 2.21 4.71 4.88 6.46 6.49 6.07 5.58 -1.08 -2.29 -4.23 -2.60 -3.69 -4.43 -5.32 -5.33 -3.05 -6.43 -6.09 -4.88 -4.12 -8.91 -8.79 -7.14 -6.25 -5.74 0.65 0.14 0.22 0.72 -3.37 -1.86 1.12 2.87

GFSGL_sfc_wetblb_117.txt.gz
Wetbulb
34.65 34.68 34.81 35.07 35.21 34.44 34.29 34.20 34.01 34.88 35.42 35.75 36.77 38.41 39.34 39.88 42.18 42.72 44.38 54.48 54.00 55.79 58.79 58.18 57.96 58.52 58.87 59.23 58.90 58.66 57.69 56.97 54.29 53.24 54.91 55.47 57.87 58.07 58.18 58.25 58.49 58.27 55.28
34.16 34.39 34.33 34.39 34.50 33.80 32.76 32.91 33.37 33.12 34.03 34.13 35.21 36.00 36.64 37.51 38.87 39.59 40.40 43.94 54.72 55.51 57.69 57.42 56.97 57.50 57.47 58.29 58.61 57.55 57.49 57.84 56.37 54.40 53.80 54.72 57.09 57.87 57.49 57.61 57.92 58.96 58.65
33.58 33.24 33.33 33.68 33.27 33.02 32.62 32.54 33.06 32.59 32.71 33.15 33.59 33.76 34.31 35.97 36.33 37.17 38.24 40.75 45.57 56.19 57.10 57.63 57.45 57.42 57.45 58.50 58.72 58.13 57.78 57.22 56.98 55.93 53.54 55.63 56.47 57.66 57.73 57.63 57.41 57.91 57.09
32.69 32.04 31.41 31.67 32.32 32.55 32.35 31.69 31.19 30.99 31.05 31.28 32.45 33.16 33.44 34.33 34.21 35.45 36.44 41.55 46.59 51.94 56.79 58.07 58.09 57.42 56.70 57.30 57.85 57.64 57.21 56.65 56.63 56.45 54.81 54.62 55.51 56.19 57.16 54.43 50.03 49.45 48.74
30.84 31.05 30.51 31.15 30.79 31.53 31.13 30.86 29.85 29.73 30.20 30.32 30.49 31.58 32.61 32.70 32.83 33.35 35.22 36.95 38.80 39.91 40.17 45.20 51.69 50.33 51.67 54.03 57.34 56.41 55.51 54.73 55.19 55.51 55.33 55.01 54.85 54.58 54.07 54.60 53.30 44.76 42.91
29.56 29.55 29.51 29.50 29.07 29.24 29.66 28.46 28.98 27.99 27.97 28.34 28.38 29.49 30.51 32.28 33.40 33.29 33.69 33.48 33.92 34.45 35.08 35.75 38.15 39.01 42.79 43.51 45.21 45.75 51.67 53.91 53.01 53.37 53.72 54.19 54.90 55.19 55.51 52.55 44.41 43.83 44.97
28.06 28.10 27.08 26.23 25.81 25.87 26.88 27.00 26.21 26.52 26.76 25.82 26.06 27.10 28.54 31.36 33.45 33.13 32.17 31.49 31.33 31.75 31.88 33.77 33.83 34.61 35.13 39.36 37.43 37.07 36.95 37.99 42.74 55.56 54.80 54.70 54.74 55.41 54.44 49.92 46.71 45.76 46.32
27.36 27.21 27.04 25.45 24.21 23.77 23.62 23.29 23.99 23.78 23.61 23.95 24.51 25.68 26.76 29.64 33.12 32.79 31.37 30.02 29.67 29.78 30.54 31.12 31.84 32.11 32.72 36.08 35.96 33.57 32.19 32.55 33.26 36.61 48.34 37.03 37.76 41.30 51.73 52.38 50.82 41.20 34.66
26.95 26.49 26.73 25.51 23.28 22.40 20.56 20.71 21.91 22.26 22.21 22.91 24.19 24.99 25.63 27.13 32.35 32.58 30.56 29.05 28.40 28.25 29.41 30.19 30.57 30.92 32.75 34.01 32.71 33.12 32.26 30.08 32.40 34.12 34.05 34.11 34.28 35.11 39.52 44.96 38.83 39.69 32.50
26.74 26.13 26.05 26.25 23.34 21.51 20.43 19.84 20.47 20.78 21.41 23.24 23.86 25.10 26.58 25.29 29.92 31.61 30.40 28.55 27.00 27.20 28.05 28.59 30.72 30.71 31.46 31.43 28.85 27.97 28.55 27.36 27.93 28.69 30.90 30.08 30.85 32.26 33.72 34.13 41.12 42.93 32.70
28.60 27.07 26.03 25.31 24.32 23.07 22.80 22.35 21.83 21.23 21.57 21.33 22.76 24.64 24.85 25.32 25.75 29.00 29.19 26.59 26.03 25.80 26.13 26.44 28.00 30.50 31.01 30.60 29.73 27.65 26.80 27.44 27.71 27.37 27.54 27.75 28.03 28.46 29.37 30.52 32.32 35.96 34.13
26.30 26.11 25.19 24.93 25.18 24.34 22.04 21.58 22.13 21.91 21.67 21.86 21.48 22.02 24.19 24.70 26.28 26.49 27.43 26.85 26.21 23.95 23.71 25.37 26.78 28.70 29.35 29.74 28.74 29.35 28.48 26.90 26.84 26.19 24.93 24.22 24.50 25.44 27.25 29.58 30.15 32.10 32.88
25.53 23.92 23.62 24.07 24.40 24.09 22.22 20.02 21.02 21.63 21.61 21.44 20.41 20.03 20.55 23.35 24.06 25.77 25.49 25.74 24.44 21.88 23.67 24.65 25.80 26.00 26.43 25.87 28.03 28.30 26.69 26.21 25.33 24.14 23.34 23.61 24.78 26.10 27.87 28.32 30.21 31.14 30.57
24.78 24.64 25.00 24.26 24.42 24.63 23.59 21.46 19.98 21.02 21.06 21.62 19.38 18.42 18.80 19.94 21.93 23.09 22.62 22.12 22.10 21.48 21.39 21.30 21.48 22.91 22.44 22.89 23.82 24.88 25.26 25.29 24.63 23.73 23.77 25.10 26.10 25.86 25.41 26.82 26.61 27.50 26.92
24.57 23.77 23.27 23.24 22.72 22.25 23.37 20.80 20.34 20.68 21.47 20.01 20.19 18.24 17.70 16.84 19.66 23.21 22.31 20.91 20.48 19.89 18.79 18.63 17.94 18.19 18.43 19.16 20.27 21.51 22.51 23.24 23.01 23.98 23.64 23.53 23.70 24.39 24.68 25.93 26.01 26.05 24.22
22.47 21.68 21.19 21.33 20.59 21.00 20.45 18.54 22.57 22.96 23.23 23.13 23.21 20.90 18.28 20.99 21.49 21.81 21.73 21.67 21.06 20.28 15.29 13.63 13.59 14.48 15.05 16.08 16.79 17.73 19.34 19.94 20.94 22.03 22.25 22.59 22.54 22.75 23.31 24.74 25.31 24.20 23.27
20.05 20.42 19.43 19.77 19.15 17.86 16.90 15.84 12.40 15.09 21.31 21.48 21.59 21.76 21.21 20.38 20.08 19.62 19.11 18.16 18.49 16.08 11.28 10.65 10.32 11.19 12.39 14.02 14.65 15.40 15.80 17.54 19.70 19.33 19.68 20.41 21.51 22.35 22.50 22.32 22.59 22.95 22.19
12.34 14.30 13.66 13.63 11.29 10.78 6.77 7.81 4.94 5.38 0.43 6.30 13.78 18.52 19.89 19.83 19.14 18.33 16.98 13.89 9.10 11.21 10.33 8.96 8.22 9.04 10.36 11.25 11.49 12.04 12.55 13.54 14.37 16.36 16.95 18.09 18.76 20.89 20.73 20.78 20.99 20.77 21.26
13.33 9.86 6.09 4.34 5.75 8.11 10.22 9.90 11.94 11.20 11.19 9.49 6.03 11.07 8.71 17.70 17.02 16.23 14.56 6.22 6.01 6.48 7.96 7.84 7.81 7.69 7.75 8.71 8.03 7.98 8.39 8.24 9.11 10.41 13.02 15.34 15.80 18.02 19.22 20.15 19.94 19.27 19.80
12.31 12.62 11.74 12.97 12.49 12.64 13.24 12.85 12.59 11.54 10.92 10.67 11.60 11.86 11.14 9.00 0.35 2.04 1.37 -5.20 2.68 5.25 5.69 6.30 6.47 5.33 4.36 4.32 4.29 3.31 5.21 5.14 6.22 7.88 8.61 10.47 12.53 15.67 15.97 17.04 17.90 17.86 18.10
13.14 14.56 11.19 14.48 13.15 12.92 12.34 11.77 12.06 10.61 9.25 9.22 7.83 5.48 6.55 8.81 5.13 2.96 4.72 0.43 -0.47 2.80 -1.15 2.98 2.32 1.33 2.58 1.34 1.43 -1.91 -1.13 -1.14 1.37 3.52 6.11 8.38 9.62 9.67 13.12 14.53 15.51 16.51 17.08
14.27 14.99 15.70 14.05 14.43 11.50 11.33 12.69 10.11 9.05 9.87 8.23 6.80 7.46 4.70 3.20 5.36 3.84 3.22 -2.65 -3.74 0.21 1.39 -2.32 -1.78 0.09 -0.45 -3.55 -4.54 -9.55 -4.38 -4.68 -2.22 -0.16 1.95 5.60 8.57 10.14 9.34 10.05 10.79 11.19 14.28
12.69 10.83 12.47 11.62 11.22 7.72 7.17 8.86 6.82 6.17 6.01 4.98 4.51 5.84 6.13 1.84 0.06 3.12 1.28 -7.73 -2.33 -2.69 -3.41 -5.26 -9.72 -3.58 -4.91 -12.13 -12.82 -9.39 -7.91 -3.38 -2.30 -1.51 1.29 3.89 7.63 5.60 2.96 3.55 6.28 7.37 9.14
10.21 7.06 10.27 7.28 4.54 4.67 -0.20 -2.30 0.93 1.83 2.99 2.81 3.35 5.21 4.57 3.57 1.18 -2.12 -0.02 -2.47 -7.00 -10.45 -12.26 -12.26 -7.73 -4.38 -3.37 -9.76 -14.49 -7.10 -3.48 -5.05 -3.47 -0.05 1.14 3.09 5.19 6.87 4.66 4.46 3.76 1.83 3.69
3.29 1.18 -0.04 -1.03 -5.73 -8.45 -8.27 -5.01 -5.94 -5.43 -4.13 -2.67 0.74 2.97 3.55 4.05 3.86 2.34 3.03 3.77 3.13 -1.17 -0.61 -5.19 -7.18 -2.68 -5.02 -4.79 -6.91 -6.82 -9.47 -7.73 -7.73 -7.57 -1.31 3.16 2.37 1.44 -1.18 -1.34 -2.91 0.89 0.39
3.21 1.85 -1.66 -3.05 -5.37 -7.18 -7.36 -10.45 -11.72 -11.53 -10.46 -6.90 -3.44 -0.13 -1.52 0.60 1.41 0.88 1.88 2.36 2.06 2.40 1.23 1.40 1.44 0.20 -0.89 -3.38 -1.16 -1.70 -9.72 -9.36 -9.18 -9.72 -12.06 -2.74 -2.59 0.16 0.96 -3.94 -4.58 -4.86 -1.76

GFSGL_sfc_wetblb_120.txt.gz
Wetbulb
34.06 34.66 34.67 34.47 34.89 34.69 34.38 33.86 33.89 34.30 34.31 34.40 35.15 35.75 36.02 36.41 37.79 37.90 38.65 40.48 41.35 44.02 53.15 54.91 57.28 58.61 58.25 58.31 58.40 58.57 57.74 56.86 54.52 55.30 56.63 57.66 58.29 58.34 58.34 58.33 58.90 58.89 57.10
33.56 33.19 33.11 33.61 33.82 32.96 32.19 32.01 32.12 32.13 33.33 33.25 34.23 34.66 34.66 35.04 35.46 35.50 36.26 37.57 39.57 41.89 45.62 53.44 55.41 57.77 57.69 57.84 57.89 57.32 57.54 58.26 56.76 54.62 54.38 55.10 57.21 57.56 58.23 57.32 57.99 58.75 58.33
32.98 32.16 31.68 31.72 31.62 31.38 31.61 30.77 30.60 31.12 31.58 32.20 33.06 33.38 33.92 34.28 34.03 34.43 36.10 37.34 38.45 41.24 43.64 47.75 55.51 56.90 56.82 56.79 57.07 57.03 57.41 57.30 57.01 55.64 54.56 55.58 56.26 57.59 57.47 57.60 57.63 57.60 57.47
31.76 30.75 30.08 30.33 30.20 30.55 30.62 30.22 29.99 29.91 29.35 29.69 31.02 32.30 33.77 33.64 33.55 33.22 34.66 34.82 35.25 36.47 38.64 39.68 41.43 39.84 42.33 52.30 56.84 57.43 57.45 57.06 56.64 56.10 55.69 54.51 54.84 56.36 57.34 55.52 53.71 53.91 52.84
28.68 28.03 27.32 28.65 28.53 28.68 28.51 27.89 28.29 27.84 27.92 28.28 28.95 30.23 31.99 32.35 33.01 32.12 32.27 32.44 32.26 32.78 33.78 35.11 37.45 37.76 37.69 37.95 45.89 56.77 57.46 57.12 56.56 55.73 54.93 54.26 54.11 54.25 54.12 55.78 53.96 48.90 46.20
27.26 26.69 26.57 26.46 26.03 25.49 25.75 25.68 25.07 25.01 25.78 26.75 27.37 28.07 29.22 31.24 33.31 32.89 31.74 30.69 30.54 30.23 30.17 31.33 33.54 34.72 34.89 36.93 37.89 40.19 43.16 56.36 55.69 55.19 55.09 54.15 54.34 54.94 55.49 55.22 48.19 45.64 46.93
27.46 27.10 26.10 25.70 24.57 23.97 23.69 23.24 22.87 22.83 23.72 25.28 26.02 26.54 27.05 29.45 32.07 32.00 31.49 30.16 29.29 28.60 28.89 29.46 30.49 31.75 32.51 34.48 36.51 35.02 34.45 34.17 34.70 44.52 53.90 54.94 54.92 55.78 55.69 54.38 50.16 52.50 51.26
26.64 26.28 25.94 24.98 23.76 22.91 22.18 21.09 20.99 21.08 21.23 23.36 24.49 24.83 25.21 27.64 30.89 30.46 29.64 28.48 28.25 28.20 27.97 29.11 28.77 29.72 30.94 31.97 34.38 33.87 32.36 32.42 32.32 33.07 33.19 33.92 37.94 54.82 56.47 55.49 53.45 45.84 36.12
25.93 25.18 25.59 24.54 22.13 21.38 19.63 18.86 20.14 19.74 20.43 21.41 24.54 23.81 23.67 24.18 28.97 29.33 26.64 26.19 25.75 26.16 27.36 27.94 28.96 28.55 31.60 31.81 29.66 30.70 30.91 30.19 32.70 34.30 33.57 33.67 33.60 34.55 40.18 49.46 43.17 43.71 33.24
25.17 24.99 25.32 25.00 22.26 20.40 20.01 19.69 20.52 14.81 19.62 21.19 21.09 23.34 25.26 23.36 27.72 27.97 26.47 24.47 23.01 24.21 25.16 25.78 28.60 29.13 30.68 30.74 27.22 26.67 25.68 25.72 28.05 31.47 32.10 31.79 31.90 31.92 33.27 33.75 45.90 46.78 33.96
26.84 25.80 24.94 24.65 23.57 22.07 20.02 19.79 19.93 18.32 19.63 19.37 18.92 19.73 21.71 23.83 23.43 26.82 26.92 22.87 21.76 22.36 22.35 22.83 25.18 28.14 28.93 29.60 29.04 26.91 26.52 27.49 27.07 28.32 29.57 30.42 30.36 28.74 29.65 31.25 32.09 35.22 35.23
25.04 25.39 24.25 23.77 24.50 23.12 19.70 20.37 20.86 21.32 19.48 17.43 17.57 17.49 19.01 20.82 24.52 24.62 25.46 24.64 23.34 20.62 20.58 22.04 23.52 25.91 26.53 27.41 26.75 27.58 27.61 26.56 26.24 25.82 25.55 24.88 25.59 26.95 27.65 29.41 30.92 31.19 32.65
25.06 23.13 23.46 24.19 24.36 21.86 19.95 18.63 19.31 19.78 19.18 16.92 16.01 15.86 16.50 18.71 20.54 23.38 23.35 23.25 21.79 18.31 20.30 21.43 22.64 23.08 23.19 22.55 24.71 25.25 24.08 23.99 23.97 23.03 23.04 23.47 25.07 26.68 27.88 28.12 30.22 30.86 31.39
23.66 23.22 23.16 22.83 22.28 21.53 20.98 20.27 18.99 18.34 18.09 17.11 15.08 14.57 15.25 16.20 17.63 19.21 19.46 19.02 18.99 17.21 17.00 17.03 17.06 19.47 18.07 18.65 19.61 20.55 21.15 21.77 21.98 21.80 22.20 24.10 25.67 25.58 25.46 26.80 26.61 27.22 27.67
22.11 22.17 21.66 21.50 21.18 20.02 18.89 19.29 18.97 19.48 19.88 17.30 15.79 14.97 14.69 14.00 16.40 19.52 18.75 17.09 16.17 15.48 13.47 13.32 12.30 12.75 13.15 14.06 15.17 16.22 17.60 17.97 18.30 20.28 21.09 21.80 22.87 23.96 24.28 25.78 25.37 25.87 24.00
20.52 20.40 20.33 19.94 19.20 18.81 17.77 16.51 21.52 21.80 22.05 21.82 21.75 19.61 15.70 20.11 20.08 19.55 18.96 18.47 17.79 16.36 10.45 8.29 7.93 8.85 9.80 10.59 10.93 11.71 13.30 13.58 15.03 17.37 18.10 19.58 20.69 22.03 22.79 23.91 24.52 23.68 22.75
18.67 19.04 17.81 18.02 17.01 15.81 14.77 13.55 10.75 14.15 19.56 20.10 20.50 20.55 20.45 19.73 19.31 18.57 17.47 15.72 15.99 12.86 7.31 6.34 5.93 6.32 7.56 8.76 8.72 9.34 9.47 11.01 13.44 13.73 15.11 15.99 17.26 20.99 21.71 21.44 22.06 22.64 22.48
11.04 12.47 10.78 10.86 9.50 8.29 1.33 2.06 -0.30 2.22 0.06 5.19 12.70 17.97 18.65 18.79 18.41 17.32 15.87 12.53 7.37 8.33 7.15 5.54 4.79 5.31 5.98 6.19 5.77 5.66 6.93 7.90 8.92 10.36 11.80 13.15 13.95 16.60 19.44 20.01 20.34 19.76 20.72
6.32 3.81 3.04 4.97 5.33 4.86 6.59 6.54 5.19 5.14 5.46 6.46 7.69 11.36 9.34 17.01 16.71 15.25 12.96 2.84 4.90 4.89 6.18 5.66 5.21 4.53 3.95 4.06 2.15 1.46 3.10 3.68 5.00 6.17 8.19 10.23 11.60 13.88 15.54 17.58 18.76 19.32 19.47
8.36 10.69 10.20 10.57 10.06 10.05 9.74 9.52 10.33 9.23 8.54 7.54 8.54 8.64 9.96 8.55 3.21 2.88 0.83 -3.39 2.18 4.83 4.01 5.22 4.93 3.44 2.05 1.76 1.04 -0.92 1.30 1.03 2.19 3.71 4.61 7.11 9.07 12.20 13.16 14.40 16.33 17.14 18.66
11.10 12.91 10.27 13.17 11.61 10.99 10.07 10.02 9.67 8.67 8.27 7.87 6.95 3.80 6.27 8.30 6.38 4.19 4.71 2.65 1.41 3.91 2.08 2.37 2.70 1.21 1.24 1.11 0.80 -2.65 -0.62 -0.47 0.66 1.21 2.12 5.03 7.13 9.05 10.86 12.73 13.92 15.69 17.13
12.64 13.82 13.41 12.28 11.28 8.44 9.48 9.16 6.61 5.95 5.51 4.45 4.38 5.66 4.50 4.05 4.30 5.23 5.75 2.80 -1.08 1.88 3.35 1.48 0.49 1.31 0.99 -2.63 -3.88 -6.52 -2.61 -1.85 -0.64 0.01 0.53 2.98 6.44 9.28 8.78 8.74 9.49 11.04 13.41
11.27 9.29 9.96 8.33 8.20 4.02 2.32 4.00 2.26 1.47 1.47 0.37 2.32 3.56 4.17 3.80 2.75 2.12 1.03 0.03 2.24 0.89 -0.52 -1.36 -2.87 0.25 1.13 -4.06 -6.73 -5.23 -4.09 -2.62 -2.02 -1.56 0.44 2.16 5.06 6.87 8.03 7.51 7.15 7.16 7.53
8.29 5.31 7.73 4.70 0.74 0.44 -6.67 -8.13 -5.32 -3.80 -2.22 -3.29 -6.28 -1.32 -1.00 0.89 1.39 1.14 2.20 2.51 3.13 2.65 2.69 -0.84 0.16 0.76 1.39 0.35 -2.97 -3.37 -1.21 -3.77 -2.22 -1.54 -4.27 1.53 3.90 5.20 5.50 6.35 6.84 4.82 5.32
1.44 -1.33 -2.58 -4.11 -8.64 -13.90 -13.73 -11.38 -14.09 -15.17 -13.91 -12.11 -9.91 -5.93 -3.41 -2.89 -2.76 -3.65 -2.69 -0.98 -0.53 0.58 1.06 1.02 0.57 0.52 1.19 0.88 0.88 0.85 -5.35 -7.03 -6.52 -8.82 -3.75 -1.23 -0.62 1.92 3.43 2.84 0.68 3.99 3.12
1.21 -0.38 -4.54 -5.95 -10.09 -12.81 -17.34 -21.33 -22.96 -23.14 -20.97 -17.88 -16.62 -15.17 -14.26 -11.05 -7.97 -10.01 -7.36 -6.43 -5.68 -4.91 -3.92 -1.56 -0.82 -1.04 -1.21 1.45 2.83 5.59 -2.15 -7.58 -6.70 -8.28 -9.20 -3.25 -3.68 -1.84 -0.52 1.21 0.48 0.66 1.22

GFSGL_sfc_wetblb_123.txt.gz
Wetbulb
34.61 34.81 33.91 33.49 34.11 34.23 33.10 33.08 33.13 34.01 33.94 33.94 34.83 35.64 35.91 36.14 36.76 36.62 37.61 39.66 39.74 41.74 44.29 45.69 47.98 52.83 55.85 57.65 58.72 58.62 58.12 57.46 55.30 58.72 62.34 62.64 62.75 63.10 62.20 60.89 60.84 60.83 60.06
33.90 33.53 33.14 33.37 33.51 32.46 32.22 32.29 32.25 31.82 32.75 32.44 33.65 34.44 34.99 35.35 35.88 35.31 36.39 37.03 37.23 37.98 40.03 41.10 43.28 43.48 49.70 57.65 58.18 57.88 57.72 57.74 56.66 55.20 58.97 61.21 61.70 61.60 62.00 60.46 60.22 59.79 59.84
32.78 32.13 31.81 31.85 31.59 31.53 31.50 31.64 31.65 31.28 31.15 31.28 32.10 32.73 33.90 33.91 34.23 34.54 34.64 34.31 34.89 35.56 35.61 37.21 38.11 38.33 37.62 39.47 42.00 55.73 58.43 57.71 57.31 56.83 57.15 60.32 60.04 60.66 59.58 59.42 58.52 58.01 58.95
31.15 30.17 29.13 29.93 30.06 30.57 31.24 30.62 30.64 30.61 30.28 30.10 30.66 31.47 32.82 32.98 33.48 33.62 33.91 33.44 33.89 33.64 34.09 34.71 34.52 34.57 34.48 35.37 39.00 42.49 47.96 56.60 57.01 57.53 56.09 55.04 56.05 57.42 57.78 56.97 56.07 57.34 57.55
29.74 28.75 28.27 29.17 29.00 29.32 29.20 29.61 29.71 29.70 29.64 29.63 29.36 29.88 31.33 31.64 32.17 32.61 32.47 32.57 32.07 32.05 33.23 32.70 33.28 33.91 34.42 34.53 37.37 38.06 38.80 42.53 56.11 55.79 55.00 55.63 55.53 55.03 54.91 57.23 55.71 56.07 54.94
28.90 28.00 28.02 27.88 27.41 27.13 27.64 27.98 28.14 28.07 28.32 28.22 27.77 27.92 29.26 30.24 31.41 31.08 31.43 31.09 31.29 30.63 30.68 30.96 32.11 32.36 32.46 32.93 35.12 35.65 34.64 33.74 34.12 54.00 55.22 54.97 55.53 55.69 56.57 55.36 54.94 50.20 49.46
28.13 27.37 27.09 26.60 26.00 25.86 26.40 26.55 26.02 26.09 26.40 26.47 26.56 26.95 27.56 29.53 29.83 29.77 29.66 30.47 29.76 29.58 29.09 29.78 29.70 30.83 31.23 31.20 31.49 33.26 33.82 32.60 33.02 33.65 37.45 48.04 48.73 55.74 58.56 55.20 54.52 54.31 53.03
27.49 26.57 26.30 25.84 25.20 25.59 24.94 24.48 24.80 25.99 25.10 24.91 25.41 25.75 26.56 28.53 28.58 28.10 27.96 29.74 29.89 28.95 28.35 29.51 29.76 30.41 30.65 29.95 29.04 28.82 29.57 29.65 30.58 32.35 32.49 32.25 33.07 34.10 36.50 54.41 56.45 50.47 39.55
26.12 25.68 25.48 24.84 23.46 23.69 22.87 24.01 24.75 24.44 24.31 24.52 24.23 24.27 25.19 25.87 27.47 27.31 26.30 27.54 27.47 27.66 28.03 28.05 28.46 29.24 29.75 30.42 28.68 26.99 26.98 27.49 30.48 32.01 32.44 33.32 33.52 34.03 34.25 41.73 48.74 46.33 35.20
25.79 25.74 26.17 25.39 23.52 22.23 23.45 24.21 25.19 24.34 23.48 24.04 22.88 23.25 23.60 24.82 25.79 26.14 26.00 25.74 23.50 25.18 25.81 26.59 26.42 26.51 27.81 28.05 27.04 26.27 25.52 25.83 27.09 27.72 28.57 29.75 31.41 31.00 32.49 32.10 32.71 39.89 37.55
27.39 26.88 26.03 25.88 24.10 23.60 24.00 24.56 24.57 23.21 21.83 21.54 21.43 22.37 22.10 23.12 23.97 24.88 24.47 23.68 22.49 22.52 22.89 23.48 25.23 24.99 25.46 26.24 26.06 24.96 24.75 27.09 27.46 27.23 26.85 27.01 27.58 28.06 28.99 30.75 32.00 31.76 32.40
27.14 26.41 25.71 24.57 24.46 24.18 22.79 23.60 23.36 22.43 20.77 20.24 20.53 20.81 22.51 22.90 22.66 22.62 22.86 21.67 20.78 20.82 20.39 21.55 22.62 22.37 22.87 23.25 23.13 23.69 23.67 23.88 25.11 25.15 25.30 24.36 24.99 25.69 27.77 28.77 31.15 31.84 31.92
26.36 25.04 24.99 24.32 23.92 23.88 22.71 22.48 22.34 22.09 20.52 19.33 19.53 19.03 20.08 22.24 22.61 21.26 21.13 20.43 18.88 17.85 19.58 18.88 19.17 19.62 19.65 19.90 20.68 21.12 20.00 20.60 21.50 21.05 21.71 24.01 26.21 27.02 27.97 27.78 29.59 30.82 31.90
24.72 24.29 24.56 23.77 22.55 22.94 23.39 22.71 22.14 21.30 20.62 19.09 18.02 18.44 18.65 19.23 20.60 20.94 20.88 20.28 17.23 16.46 16.24 16.84 16.21 17.14 15.87 16.24 17.06 18.13 17.80 17.69 18.46 19.50 19.86 22.05 25.47 27.21 26.83 27.16 26.31 26.98 27.71
23.96 23.75 23.32 22.95 22.00 21.38 21.58 21.81 21.31 21.87 21.23 19.98 19.33 18.74 18.14 17.57 18.89 19.34 18.98 18.26 17.37 15.12 15.17 15.08 14.13 14.19 13.61 13.70 14.09 14.37 15.68 15.83 15.47 17.70 18.74 19.43 20.64 24.43 25.21 26.62 26.74 26.80 24.45
22.78 22.31 21.88 21.56 21.28 20.75 20.09 19.43 20.93 21.02 21.20 21.01 21.17 20.62 20.05 19.88 19.16 18.49 17.58 17.37 16.35 15.31 13.41 12.05 11.48 11.46 11.24 11.30 10.82 11.57 13.02 12.60 14.14 15.91 16.78 17.76 18.17 20.38 23.21 24.85 25.11 25.26 24.71
21.04 20.78 20.62 20.03 19.35 18.54 17.98 17.37 16.12 18.03 18.66 19.25 18.98 19.65 19.65 18.67 18.28 17.39 16.42 15.55 15.57 14.62 12.12 10.86 9.96 9.85 10.43 9.91 9.40 9.84 10.21 11.42 12.47 14.09 14.92 15.09 16.90 18.04 19.98 21.80 23.34 23.52 23.17
17.73 15.88 18.87 18.77 18.50 17.67 17.08 16.65 16.04 14.44 14.25 15.49 17.22 17.27 18.03 18.16 17.52 16.67 15.67 15.46 13.42 13.57 12.29 10.77 10.00 10.17 10.08 9.74 8.97 8.60 9.24 9.48 10.37 10.71 12.46 13.61 14.58 16.56 17.38 19.01 20.54 21.54 22.49
18.59 17.95 18.07 18.21 17.71 17.15 17.59 17.22 16.71 16.00 15.30 15.67 16.57 16.09 16.15 16.74 16.73 16.48 15.67 13.75 12.43 11.90 12.20 11.97 11.68 10.94 10.71 10.63 9.75 9.11 9.64 8.47 8.79 9.48 10.49 11.39 13.26 15.34 16.02 16.61 18.12 19.13 21.05
17.58 15.73 17.07 18.53 18.24 17.46 17.08 16.11 15.31 14.76 14.48 14.48 13.68 11.85 13.95 15.89 14.50 14.13 14.57 13.69 13.02 12.73 12.60 12.03 12.06 11.71 11.04 10.51 10.45 9.45 9.49 9.11 8.99 8.68 9.53 10.70 11.94 14.54 15.06 15.66 17.04 17.22 18.65
19.41 18.66 15.84 17.20 16.19 15.85 15.03 13.68 13.15 12.42 11.67 11.61 11.81 9.70 8.44 11.96 11.46 11.63 11.39 10.69 10.53 11.38 11.38 11.86 12.20 12.03 11.61 10.85 10.14 9.44 8.57 8.58 7.98 7.56 8.47 9.47 10.67 12.38 14.28 15.75 16.20 16.73 17.32
18.13 17.12 16.46 15.16 14.08 12.69 12.68 11.94 10.82 10.15 9.28 8.79 9.86 9.94 7.59 10.30 9.78 9.13 8.87 8.08 9.41 9.84 9.46 9.28 10.51 11.00 11.12 9.63 8.59 8.72 8.42 7.61 7.42 7.29 7.12 7.67 10.02 11.70 12.66 14.09 15.20 15.44 15.88
15.90 14.76 13.79 12.78 11.82 8.62 8.98 8.66 8.02 7.85 6.98 6.49 6.98 7.08 7.12 6.78 6.30 5.97 6.13 6.25 7.07 7.57 7.95 7.57 7.35 6.83 8.40 8.70 10.04 9.33 8.38 7.51 7.37 7.34 6.11 7.02 8.12 9.13 10.89 11.65 12.74 13.33 13.63
13.73 13.33 11.86 9.97 9.02 7.81 6.63 4.93 5.09 2.49 3.22 3.65 4.25 4.53 3.52 3.90 3.34 2.56 2.23 2.89 2.92 3.80 4.27 4.13 5.10 4.11 4.45 5.07 8.15 8.79 9.48 8.37 8.10 7.51 5.63 6.81 7.40 7.62 8.73 9.38 11.12 11.22 12.28
10.80 9.46 8.43 7.39 6.04 4.80 4.34 3.13 2.18 1.38 1.38 0.86 1.12 1.39 1.24 1.27 0.40 0.21 -0.16 -0.44 -1.55 -0.66 -0.63 0.06 1.11 0.66 0.82 1.07 4.02 3.96 5.58 4.94 4.33 1.86 6.89 7.36 6.54 6.33 6.64 8.03 8.63 10.57 10.99
8.92 7.65 6.55 6.17 4.53 3.77 2.41 1.18 -0.17 -0.96 -2.05 -1.48 -1.31 -1.04 -1.59 -1.58 -2.01 -2.73 -3.17 -3.45 -4.49 -3.70 -3.39 -2.21 -1.73 -2.86 -2.31 1.17 1.81 1.24 2.48 4.89 5.05 1.65 4.20 7.64 6.39 6.35 5.86 6.35 7.00 9.10 10.02

GFSGL_sfc_wetblb_129.txt.gz
Wetbulb
38.26 38.35 38.38 38.18 38.27 37.93 37.01 36.62 36.92 36.72 36.30 35.97 36.09 37.03 37.35 37.04 37.74 37.07 36.70 36.34 35.69 35.61 36.14 36.14 35.07 36.28 36.94 38.48 39.38 40.48 42.76 46.09 49.87 55.71 60.24 61.82 60.80 62.78 64.51 63.94 62.18 64.00 64.36
38.24 38.06 38.11 38.49 38.34 37.66 36.65 36.17 36.88 36.15 35.62 35.21 35.97 36.43 36.46 35.79 35.97 36.70 35.82 35.47 34.42 33.83 34.14 34.04 33.50 34.30 34.63 35.60 36.40 39.10 40.32 42.51 44.13 44.06 54.12 58.70 58.51 62.54 63.30 63.48 63.69 64.24 65.51
39.38 39.20 38.98 38.33 38.05 37.39 37.23 37.21 36.97 36.75 36.41 35.97 36.26 35.97 34.97 34.32 34.50 36.42 36.69 36.04 35.20 34.63 34.36 33.63 33.01 32.75 32.74 33.07 35.09 35.48 36.87 37.68 40.38 42.14 45.08 51.39 57.41 60.79 61.22 62.39 62.44 63.22 63.86
38.40 38.06 36.94 36.54 36.48 35.93 36.25 36.55 36.81 36.08 35.52 35.66 36.42 35.81 35.34 33.38 32.08 33.78 35.56 34.95 34.85 34.51 34.83 34.75 33.71 32.46 32.65 32.88 32.89 32.72 33.15 33.85 35.81 37.20 42.29 44.63 46.31 47.04 51.69 57.49 57.58 61.88 62.11
37.24 36.31 35.35 35.93 35.90 35.76 35.28 35.32 35.41 35.13 34.78 34.42 34.71 34.34 33.84 31.42 30.25 30.92 34.21 33.97 33.22 32.78 33.01 33.04 33.28 32.54 32.68 33.89 32.83 31.63 30.84 30.89 32.03 32.93 34.24 34.77 36.11 35.07 36.60 36.78 38.26 41.74 57.27
35.11 34.24 34.66 34.56 34.05 33.52 33.33 33.46 33.43 33.00 32.50 32.67 32.50 32.26 30.42 29.83 28.35 30.10 32.26 31.84 31.04 30.12 29.48 30.16 31.72 31.07 31.23 32.97 33.63 32.72 31.86 29.95 29.09 29.96 30.88 29.54 30.56 31.22 32.68 33.02 35.26 36.32 41.97
34.13 33.39 32.85 32.35 31.36 31.19 31.52 31.29 30.96 30.45 30.56 29.26 29.56 30.63 28.97 27.84 26.95 28.91 31.07 32.07 31.15 29.53 28.61 27.61 28.25 28.64 28.96 30.75 32.27 32.31 32.08 31.19 30.81 30.91 29.03 28.63 28.54 29.88 30.94 30.41 32.01 33.27 35.05
32.24 31.17 31.38 30.93 29.99 30.60 29.80 28.93 29.45 29.79 28.81 28.19 27.32 27.56 28.15 26.88 26.16 26.59 29.82 31.65 31.16 29.55 28.67 26.31 26.25 26.47 26.93 27.51 28.40 28.64 29.82 30.54 30.85 31.58 31.43 31.23 31.33 31.49 31.37 31.17 32.79 32.25 35.91
30.05 28.77 28.89 28.48 28.02 28.51 27.43 27.78 28.78 28.99 28.74 28.04 27.75 26.46 25.52 26.01 25.85 25.10 27.51 31.15 29.95 29.05 28.68 26.50 24.60 24.79 24.89 25.96 25.11 25.18 25.81 28.01 30.58 30.98 31.49 31.19 30.89 31.95 32.43 32.01 29.23 28.98 28.64
29.94 29.64 29.54 28.77 27.49 27.10 28.00 27.74 28.79 29.56 28.42 29.36 28.07 27.43 26.12 25.14 25.21 24.85 24.92 25.88 26.37 26.66 26.93 26.73 23.47 23.01 23.53 23.83 23.44 23.09 21.61 24.84 27.76 28.72 30.42 30.50 30.62 30.83 31.21 31.45 31.37 28.74 27.90
29.95 29.40 29.15 29.43 28.10 28.82 28.55 29.33 29.15 28.76 29.06 28.22 28.25 28.48 27.26 26.35 25.40 24.59 23.85 23.29 24.45 24.33 23.28 23.52 24.30 22.80 23.32 23.41 23.12 22.31 21.97 25.39 26.71 27.27 28.38 28.69 28.95 29.27 29.64 31.13 31.69 31.53 29.44
29.72 27.84 27.73 28.55 28.71 28.99 28.59 29.37 29.13 29.33 27.79 27.53 27.36 27.31 27.93 26.64 24.16 24.00 23.64 22.54 22.42 22.66 22.08 22.12 23.16 22.64 22.91 22.79 22.92 22.54 22.44 23.46 25.78 25.24 25.03 24.87 24.88 25.46 27.74 29.21 30.74 31.91 32.45
27.88 26.75 27.42 28.01 28.29 28.78 27.89 27.92 28.04 28.84 27.13 26.20 25.64 24.93 24.32 24.86 24.59 22.59 22.76 22.49 21.91 22.90 23.64 22.52 22.40 22.62 22.37 22.67 22.10 22.05 21.45 22.05 22.02 22.05 22.21 22.80 24.22 25.45 27.98 27.99 29.22 29.78 32.12
30.07 29.09 28.44 27.78 27.68 28.44 28.55 27.19 25.05 24.71 24.94 24.63 24.08 22.22 22.05 21.29 20.63 21.75 22.28 22.96 21.75 22.52 23.51 23.98 22.73 22.62 21.66 21.45 22.13 22.37 22.25 21.63 20.39 20.69 21.52 23.06 24.31 24.02 24.85 26.79 25.68 26.61 26.67
29.59 28.83 28.25 28.13 27.56 25.21 23.54 24.19 24.11 22.09 21.73 21.49 21.77 22.41 19.60 18.31 19.48 20.63 20.67 21.07 22.13 21.79 23.29 23.00 22.19 21.59 20.92 21.09 21.11 20.11 21.29 20.25 18.73 19.87 20.34 20.16 20.38 21.35 22.77 25.37 24.91 24.55 22.75
28.88 28.58 28.16 27.97 27.47 27.75 26.56 22.77 21.30 21.08 20.64 20.51 20.54 20.65 21.93 20.29 20.42 20.74 20.99 21.09 21.20 22.08 22.10 20.80 20.13 20.23 19.51 19.55 19.03 19.11 19.91 18.10 18.25 18.85 19.02 18.44 17.84 18.42 20.27 22.74 23.72 22.58 21.36
28.50 26.86 26.10 26.56 26.15 25.44 25.57 24.95 23.77 20.23 19.78 19.85 20.07 19.95 19.70 19.57 20.31 20.54 20.74 21.81 21.72 21.73 19.96 19.53 19.11 19.34 18.95 18.26 18.24 17.62 17.42 17.75 17.89 17.72 17.54 16.82 16.80 17.28 19.06 19.48 20.04 20.68 20.01
25.46 25.39 26.80 26.32 25.90 25.38 24.64 24.19 24.18 22.89 22.20 23.27 19.81 20.30 19.56 20.20 20.14 20.05 19.92 21.19 20.08 20.08 18.99 18.13 17.64 17.82 17.63 17.01 16.54 16.01 16.49 16.98 16.44 16.06 16.21 15.98 15.62 15.82 16.95 16.96 17.70 17.67 18.67
25.71 25.84 25.93 25.62 24.92 24.04 24.89 24.44 23.74 23.24 22.55 22.46 22.59 20.11 19.58 20.35 20.25 19.95 19.25 18.11 16.83 16.73 16.56 16.61 16.84 16.38 15.93 15.69 16.33 16.51 16.17 16.39 16.08 15.40 15.16 14.03 14.36 14.60 15.40 15.28 16.22 15.54 16.78
24.08 22.60 24.52 25.06 24.42 24.00 23.55 22.74 22.30 21.68 21.28 21.04 20.12 16.02 16.83 19.81 18.69 18.20 18.14 16.63 15.73 15.55 15.00 14.87 15.14 15.05 14.27 13.75 14.78 15.10 14.98 14.89 14.67 14.26 13.91 13.69 14.07 14.45 14.00 13.18 14.59 14.54 15.80
24.66 23.37 21.37 23.62 22.97 22.49 21.76 20.55 20.33 19.72 18.86 19.03 18.93 13.97 11.96 16.17 16.37 16.09 15.59 14.39 14.01 13.63 13.31 12.95 13.13 13.37 12.85 11.92 11.30 11.94 12.09 12.37 12.65 12.27 12.22 12.30 12.29 12.46 13.70 13.76 14.01 14.16 14.74
24.79 23.50 22.94 21.58 21.15 19.92 19.78 19.69 19.08 18.30 17.10 16.46 16.89 16.38 13.22 16.45 15.37 14.36 13.78 12.75 12.54 12.62 12.77 11.54 10.69 11.17 10.54 8.72 8.38 8.81 9.87 9.58 10.00 9.72 9.96 10.54 11.11 12.38 12.64 12.44 12.32 12.16 13.28
23.26 21.86 21.08 20.09 18.91 16.27 18.15 17.54 16.66 16.71 16.10 16.27 16.16 15.51 14.74 14.04 13.26 12.34 11.74 11.18 10.55 9.90 10.42 9.50 8.62 7.92 8.10 7.11 7.31 8.30 7.16 5.95 6.12 7.24 7.94 8.98 9.71 11.28 11.81 11.31 10.86 10.32 10.52
22.36 21.51 19.53 18.76 18.33 17.88 17.46 16.63 16.07 12.15 13.71 15.07 15.14 14.40 12.98 12.38 11.94 10.81 10.45 9.45 7.98 7.72 8.02 7.13 7.26 6.32 5.01 4.68 6.36 7.67 5.71 4.64 5.48 6.28 6.80 7.54 8.88 10.00 10.83 10.25 10.18 9.10 9.68
21.20 20.13 19.02 18.02 17.13 16.60 16.04 16.45 16.01 15.59 15.25 14.34 13.42 13.06 12.10 11.40 10.54 9.84 9.37 7.59 5.18 4.78 5.44 5.63 5.65 5.30 4.44 3.07 5.19 2.76 2.49 2.58 3.67 3.85 6.41 6.85 8.19 9.44 9.28 9.41 8.60 9.01 8.71
19.38 17.97 17.53 17.12 16.54 16.88 16.82 15.92 15.09 14.20 13.04 12.43 12.24 11.41 10.51 9.88 8.73 7.35 7.06 4.92 2.45 2.58 4.34 4.39 4.66 3.79 3.48 4.85 4.48 2.29 1.55 2.12 2.20 3.68 6.15 7.73 9.22 9.41 9.81 7.84 7.23 8.68 8.13

GFSGL_sfc_wetblb_132.txt.gz
Wetbulb
38.09 38.18 38.21 38.09 38.08 37.67 36.70 36.56 36.56 36.75 36.83 36.60 36.83 36.34 35.40 35.19 36.05 37.19 36.72 36.27 35.28 35.23 35.32 34.50 33.70 34.94 34.75 35.18 36.43 38.33 39.30 39.93 39.00 42.06 45.62 49.87 52.15 55.91 58.29 60.72 60.78 61.54 59.34
38.39 38.51 38.24 38.43 38.31 37.45 36.89 36.66 37.13 36.52 36.60 36.70 36.54 35.10 34.02 32.91 33.88 34.88 35.74 36.07 35.23 34.63 34.83 33.49 32.31 34.03 34.20 34.30 35.05 34.26 34.97 36.28 36.57 37.64 41.85 44.91 47.74 50.62 45.36 48.96 58.23 60.54 60.55
39.19 38.95 37.96 37.15 36.37 35.77 35.74 36.22 35.79 35.41 35.35 35.95 34.78 33.29 31.17 31.57 31.60 32.83 35.05 34.58 34.21 33.72 33.54 32.46 30.98 31.52 31.72 32.95 33.25 32.38 32.75 34.30 35.73 35.42 37.90 39.62 41.66 39.32 40.17 42.89 42.32 44.47 47.16
38.37 37.34 36.24 35.69 35.47 35.24 35.31 34.90 34.67 34.48 33.39 33.87 33.07 31.18 30.10 29.27 30.29 31.48 33.75 32.77 32.31 31.96 32.11 32.73 30.22 29.45 30.28 32.64 32.25 31.63 31.83 31.72 32.55 33.41 33.65 34.73 35.24 35.59 36.47 34.83 34.43 38.18 39.42
36.55 35.74 34.93 35.07 34.79 34.47 33.95 33.52 33.32 32.32 32.13 32.56 31.68 29.44 28.23 27.27 28.96 30.02 32.01 30.41 29.53 28.29 28.43 29.32 28.57 28.72 30.31 31.95 32.05 31.32 30.28 29.71 30.24 30.53 30.45 30.47 30.04 29.67 29.80 31.94 32.21 34.11 37.00
34.85 33.90 34.14 33.33 32.54 31.91 32.02 31.52 31.02 30.08 29.23 29.01 29.28 27.66 25.57 26.77 28.42 30.26 31.69 29.90 29.03 26.42 23.60 25.00 25.96 26.28 26.55 29.32 30.44 30.87 30.47 28.55 27.82 28.80 29.03 27.69 28.65 29.13 30.26 30.06 30.53 30.77 31.64
33.46 32.91 31.93 31.41 30.29 29.81 30.21 29.73 28.75 27.81 27.82 26.76 26.31 27.03 24.43 24.93 27.24 28.93 31.02 29.06 27.33 25.60 22.26 21.78 23.06 24.34 24.89 24.91 26.39 27.15 28.02 29.26 29.72 30.01 27.74 27.20 27.44 29.52 30.25 29.36 30.09 30.02 30.02
31.22 30.62 30.47 30.14 29.62 28.86 28.38 28.29 28.24 28.15 26.58 25.72 24.54 24.44 24.31 24.98 26.25 26.80 28.39 27.68 27.35 25.33 23.69 21.18 20.71 21.02 23.33 23.08 22.32 22.24 22.40 25.02 27.46 29.07 28.80 28.23 29.13 30.10 30.28 30.27 30.44 30.56 31.22
28.81 28.18 28.19 28.31 27.13 27.05 24.99 26.27 27.41 27.85 26.61 25.09 25.10 24.01 22.20 22.46 25.96 25.31 23.94 24.60 23.80 23.08 22.88 21.85 21.09 20.38 25.06 25.43 19.96 19.20 18.62 20.67 26.75 28.98 29.45 28.99 28.82 29.41 29.80 28.40 26.82 26.77 26.24
28.99 28.36 28.29 27.91 25.67 22.49 26.22 25.10 27.59 28.24 27.06 27.61 25.06 23.71 24.59 20.80 25.55 25.41 22.44 20.95 21.26 20.85 20.26 20.30 23.94 22.67 24.52 24.50 18.55 17.81 16.15 18.00 21.17 21.63 22.77 23.69 25.03 25.15 28.37 26.64 26.50 24.99 25.63
29.82 29.50 28.66 28.35 28.25 28.20 27.31 27.42 26.93 26.45 26.33 27.44 26.33 23.49 21.46 21.45 20.88 24.87 24.36 19.49 20.74 20.18 19.31 18.98 20.39 24.13 24.06 24.30 23.35 18.88 18.34 18.67 19.13 20.04 20.03 20.19 20.37 21.15 23.57 24.83 25.40 25.83 24.56
28.20 27.81 27.02 28.09 28.24 28.60 27.67 27.98 27.86 27.82 24.72 24.44 24.50 22.77 21.18 20.08 22.80 22.96 23.86 22.91 22.53 19.82 18.62 19.20 19.91 23.72 23.30 23.38 21.42 22.27 21.26 17.40 17.67 17.33 16.85 16.67 17.21 17.87 21.13 23.07 23.94 24.48 26.48
27.16 24.56 26.16 27.69 28.52 27.95 26.92 25.99 25.86 25.90 24.61 23.71 21.81 20.30 18.58 18.75 18.71 21.85 22.37 22.79 22.03 19.52 21.06 21.78 22.72 22.63 22.12 20.53 21.96 21.69 17.56 15.71 15.10 14.51 14.22 14.46 16.05 17.48 19.79 21.16 22.04 22.88 22.52
27.09 27.20 27.59 26.86 26.51 26.74 25.14 23.07 21.40 21.02 21.29 21.45 20.72 17.96 17.58 17.24 17.63 18.88 18.96 18.70 19.99 19.71 18.78 17.94 17.44 20.90 16.23 15.28 17.18 17.99 16.43 15.29 13.94 13.61 13.46 14.25 15.40 15.29 16.17 18.95 17.72 19.85 19.09
28.67 27.16 25.91 25.69 23.20 21.72 22.12 21.81 19.92 19.67 20.08 17.94 18.60 18.71 15.54 14.69 17.44 20.72 20.68 17.87 18.29 19.42 16.63 15.30 14.80 14.89 14.77 14.81 15.00 15.06 15.33 14.53 12.76 13.30 12.83 12.32 12.56 13.08 14.18 16.87 16.28 16.91 15.38
27.57 26.90 26.91 26.26 25.19 22.08 20.36 19.14 22.38 21.42 21.56 21.38 20.77 19.13 18.30 20.04 21.54 21.62 22.19 23.15 22.73 22.53 17.01 14.73 14.05 14.10 13.50 13.52 12.75 12.78 13.52 13.13 13.00 12.83 12.18 11.75 10.68 11.07 12.38 13.65 14.05 13.81 12.99
26.90 26.07 25.66 25.83 24.87 24.25 23.94 21.34 17.66 19.00 21.06 20.87 21.28 20.66 20.65 20.78 21.39 21.28 21.54 22.18 21.95 19.67 14.59 13.89 12.78 12.71 12.38 12.76 12.27 12.17 11.37 13.00 14.35 12.25 11.51 10.59 10.16 10.61 11.83 10.89 11.21 11.80 11.31
25.68 25.69 25.50 25.04 24.46 23.94 23.18 22.24 21.66 20.67 17.51 17.12 20.08 19.62 20.50 21.47 21.11 20.93 20.46 19.26 14.89 15.61 13.79 12.43 11.20 11.66 11.94 11.59 11.15 11.07 11.21 11.38 11.47 11.19 10.13 9.77 8.76 9.37 10.07 9.23 9.63 9.39 9.63
25.09 24.93 24.73 24.11 23.44 22.32 23.41 22.72 21.90 20.87 19.74 19.25 18.46 15.14 14.92 19.62 21.37 20.24 19.00 13.54 11.83 11.67 12.06 11.62 11.58 11.50 10.95 10.51 8.68 8.70 8.56 8.53 8.76 8.01 7.67 8.09 7.31 8.17 8.69 8.99 8.80 8.69 8.69
23.74 21.94 23.45 23.30 23.12 22.86 22.33 21.44 20.71 19.79 18.85 18.35 14.35 11.77 13.96 14.95 13.45 12.48 13.16 11.42 10.98 10.94 10.55 10.15 10.14 10.18 9.09 7.57 6.45 5.69 6.08 6.52 6.58 6.20 5.12 5.27 6.07 6.89 7.22 8.31 8.02 7.34 7.96
22.74 23.33 19.65 23.12 21.88 21.30 20.66 19.33 19.09 17.94 16.65 16.24 11.98 10.47 9.83 13.68 12.93 12.17 11.58 10.04 9.18 9.14 8.46 8.27 7.59 7.57 6.69 4.67 5.03 3.82 4.50 4.36 3.38 2.56 2.07 3.05 4.61 4.16 7.22 8.34 8.16 8.00 8.04
22.45 22.38 22.52 20.82 20.31 19.24 18.70 18.82 17.89 16.80 15.91 15.14 14.81 11.38 10.52 13.29 12.10 10.97 10.31 8.11 7.98 8.28 8.45 7.22 5.92 6.39 5.50 3.09 2.81 1.78 3.24 0.81 -0.04 -0.21 0.17 1.85 2.90 4.19 5.67 6.74 6.69 6.12 6.06
22.32 21.07 20.20 19.32 17.50 14.23 16.98 16.40 15.43 15.14 14.82 14.61 13.79 13.43 12.54 10.74 10.08 9.45 8.96 6.46 6.73 5.38 5.64 5.73 4.27 4.01 3.58 1.86 1.90 3.96 1.11 -0.44 -0.48 0.72 0.01 -0.27 1.06 3.02 4.27 6.15 5.48 5.36 3.81
21.86 20.52 19.25 17.92 17.54 17.05 16.39 15.50 11.18 9.22 12.38 12.86 12.27 11.90 9.78 8.76 8.67 5.90 6.77 3.90 1.89 0.61 1.25 1.15 3.76 2.49 1.13 -0.78 1.30 2.01 0.91 -0.33 0.86 0.59 -0.52 -0.09 1.01 2.32 4.31 6.08 5.93 3.75 3.86
21.41 19.31 17.49 15.52 15.44 14.71 13.38 14.73 13.48 13.12 12.80 11.50 10.70 10.03 9.46 9.33 7.41 4.71 5.11 1.74 -1.49 -2.76 0.17 -0.01 -0.78 0.23 -1.08 -1.95 -0.70 -2.57 -4.18 -1.56 -1.67 -2.06 0.49 1.41 1.06 2.98 5.97 6.39 3.40 3.94 4.54
19.89 18.49 17.58 17.21 16.42 16.27 15.40 14.33 13.19 11.60 9.29 9.23 8.69 8.09 7.53 7.29 5.27 1.64 2.21 -1.00 -3.71 -2.29 -1.42 -1.36 0.47 -1.32 -1.17 0.97 0.05 0.44 -3.60 -2.87 -3.41 -2.14 0.32 1.98 2.24 3.94 6.63 3.88 3.39 3.82 4.92

GFSGL_sfc_wetblb_135.txt.gz
Wetbulb
37.51 37.69 37.43 37.09 37.27 36.37 35.89 35.75 35.86 34.07 34.73 35.64 33.08 31.88 31.53 32.65 33.51 35.81 35.64 35.16 34.12 34.80 32.84 31.92 32.05 33.26 34.44 34.75 34.98 34.90 34.66 34.49 34.27 36.02 40.40 43.60 42.24 39.57 39.04 44.12 46.11 47.36 47.13
37.44 37.68 37.77 35.14 34.48 33.25 33.20 32.85 32.87 32.41 33.88 32.36 31.16 28.79 29.56 31.00 31.80 33.62 33.36 33.30 31.94 31.54 31.31 29.50 29.02 31.45 32.15 33.79 33.88 32.57 32.85 34.44 33.40 33.08 37.13 36.68 36.61 36.63 36.51 38.31 40.45 43.40 42.15
37.92 35.50 33.53 32.97 32.74 31.87 31.85 32.15 32.06 31.46 31.69 30.24 29.74 28.37 27.72 29.37 30.37 31.53 31.81 31.00 29.33 29.10 30.31 26.63 26.71 28.35 29.30 31.83 32.19 30.90 31.36 32.77 33.34 33.17 32.47 34.47 33.89 33.95 33.60 35.10 36.41 37.00 39.81
37.24 34.14 32.20 31.92 32.04 31.58 31.63 31.14 30.19 30.14 29.74 28.14 27.11 26.63 27.18 28.33 29.92 31.00 31.01 29.02 26.13 26.08 26.77 26.44 25.48 26.64 27.93 29.03 30.26 29.65 29.92 29.92 31.05 31.36 30.80 31.01 31.37 32.05 32.81 30.90 31.12 34.01 34.31
35.68 32.56 31.22 31.24 31.27 31.15 30.08 29.48 28.67 27.88 27.95 28.37 25.90 25.34 25.51 27.43 30.17 30.04 29.55 27.46 23.95 23.05 24.07 23.97 24.84 26.78 28.09 28.48 27.92 27.93 28.22 27.40 28.47 27.65 26.85 27.57 27.55 27.70 27.83 30.33 30.48 30.93 34.25
32.07 31.08 31.27 30.44 30.05 29.02 28.50 27.79 26.96 26.05 25.76 26.14 24.73 24.33 23.87 26.59 30.01 30.88 28.95 26.36 23.83 21.84 21.30 22.20 23.72 25.43 24.03 25.53 26.73 27.23 27.73 26.71 26.19 26.33 25.89 24.85 25.86 26.41 27.82 28.61 28.45 28.13 28.64
31.08 30.54 30.04 29.16 27.86 27.57 27.94 26.80 25.63 24.61 24.61 23.35 23.70 23.43 23.24 24.22 28.24 29.11 28.89 25.65 24.45 22.78 21.67 21.20 22.43 24.07 23.71 21.65 23.02 23.42 23.82 26.94 27.77 26.52 24.10 23.79 24.20 26.28 26.34 26.13 26.41 27.44 27.46
28.94 29.20 29.59 28.25 26.56 26.43 26.05 24.11 22.87 23.81 19.49 19.51 20.86 21.30 21.64 24.83 26.21 26.36 26.27 23.99 22.06 21.04 21.02 21.89 20.89 21.53 23.32 21.54 20.54 18.97 18.15 20.57 24.46 25.44 23.82 23.33 24.28 26.29 26.04 26.06 25.94 26.68 27.75
26.97 26.82 27.21 26.50 24.68 24.07 17.41 17.09 18.84 23.34 20.82 20.41 20.56 19.15 18.41 19.41 25.75 24.67 22.12 21.47 18.83 18.08 20.75 20.87 21.40 20.88 25.13 23.76 18.62 16.68 15.26 16.16 22.15 24.61 24.41 24.35 24.09 25.53 26.18 23.70 21.60 21.84 21.35
26.43 26.65 26.85 25.90 21.11 14.04 14.67 16.39 19.13 20.98 24.01 22.15 19.88 17.51 22.03 16.77 25.61 25.00 20.48 19.09 17.78 18.33 18.81 19.57 24.34 22.58 24.41 23.56 16.56 15.00 12.98 13.29 15.16 15.91 16.38 17.60 18.90 18.85 23.49 21.12 20.81 19.41 20.00
28.46 27.60 26.76 26.14 24.62 23.11 21.03 19.25 18.57 18.81 24.35 21.35 18.06 16.93 15.64 18.37 17.48 24.70 24.26 14.45 17.30 19.09 18.65 18.02 19.49 23.55 23.99 23.58 21.53 16.25 15.24 14.14 14.08 14.30 13.77 14.10 14.62 15.23 16.86 18.89 19.04 19.10 18.07
27.08 26.09 24.19 24.87 26.84 26.52 22.34 22.95 24.40 21.24 20.71 19.95 16.50 14.70 12.57 11.35 21.82 22.92 23.84 23.34 22.33 17.05 13.27 14.71 17.26 22.61 22.17 22.40 19.72 20.40 18.81 13.52 13.53 12.14 11.20 11.14 11.46 12.26 14.62 16.92 17.16 18.32 19.27
24.87 19.07 23.13 26.09 26.06 25.17 23.60 21.49 20.98 20.84 20.12 18.46 17.12 12.03 8.89 11.76 9.13 21.62 22.77 23.05 22.15 14.71 15.45 20.77 22.00 21.34 20.45 17.67 20.32 19.36 14.38 12.33 11.50 10.21 9.18 9.62 10.51 11.81 13.97 15.07 15.38 16.60 17.18
24.81 24.83 24.80 24.25 23.37 21.51 21.21 20.49 18.98 18.09 18.47 18.50 16.00 11.86 8.84 10.77 10.59 12.60 13.87 12.04 16.38 15.70 11.33 12.05 12.36 17.80 9.77 8.56 11.87 13.63 12.50 10.20 9.06 8.21 7.93 9.18 10.45 10.92 12.36 12.74 11.37 12.87 12.26
25.67 24.80 23.03 22.21 21.21 20.58 19.34 17.48 18.81 16.01 18.40 16.78 13.51 12.35 5.47 4.54 10.89 20.12 20.97 13.38 14.80 16.00 11.35 8.46 5.38 3.85 5.51 8.12 8.24 8.16 8.70 11.37 9.81 9.29 8.84 8.40 7.98 9.35 10.60 11.41 10.73 10.80 8.81
24.36 23.45 22.56 20.73 20.20 19.22 19.16 18.00 22.32 21.94 22.28 21.72 20.94 15.75 10.91 19.70 21.90 22.12 22.86 22.37 20.69 19.65 9.40 2.20 -0.42 0.46 5.70 8.09 7.93 8.39 9.57 8.98 10.10 9.74 8.09 8.65 6.81 7.21 8.36 9.81 9.38 8.52 6.90
23.83 24.39 24.00 22.54 19.57 18.12 18.04 17.74 13.78 18.07 22.02 21.95 21.30 21.28 21.74 21.39 21.59 21.30 20.81 19.92 19.09 16.19 5.36 3.34 -2.51 -0.24 7.65 8.21 7.75 7.57 7.40 8.55 10.11 8.15 6.60 6.13 6.36 6.41 6.96 8.43 7.69 7.66 6.51
22.69 23.52 22.00 20.81 19.95 18.82 16.25 16.96 14.63 14.09 11.64 8.74 17.86 17.62 20.60 21.33 21.36 19.87 18.21 15.92 9.33 11.11 9.81 7.85 6.88 7.94 7.99 6.90 6.30 5.56 5.54 6.71 6.13 5.63 4.36 3.62 3.76 4.94 4.90 6.20 7.23 5.74 5.53
22.87 20.59 18.93 16.92 15.68 14.51 13.85 13.81 15.34 15.45 14.43 12.45 8.12 8.71 10.32 20.81 19.59 17.65 15.91 6.77 4.94 7.41 8.48 7.76 7.50 7.26 5.87 4.97 1.72 1.45 0.43 3.60 1.88 0.25 0.33 0.99 0.67 3.42 3.53 5.22 6.12 6.00 5.25
21.54 19.46 19.29 19.10 17.53 17.38 17.20 16.51 16.06 15.10 13.83 9.08 5.14 4.24 10.05 12.02 5.84 2.91 4.05 0.96 5.81 6.80 6.64 6.23 6.55 5.97 2.64 2.15 -0.56 -2.09 2.18 0.80 -0.49 -1.30 -2.32 -1.93 -0.52 1.50 1.75 3.95 4.54 4.82 5.07
20.87 21.29 18.99 20.05 19.13 17.81 16.28 15.45 15.09 13.69 12.90 9.51 4.39 3.80 7.51 10.22 5.72 5.39 6.54 2.04 2.53 4.27 2.11 3.57 1.33 0.16 -1.14 -1.71 0.94 -1.41 1.26 -4.60 -2.79 -2.78 -2.42 -1.45 -2.34 -2.14 1.12 3.00 4.21 5.91 5.63
20.11 20.37 19.97 18.48 17.99 15.97 16.55 16.59 14.59 13.67 13.57 11.41 9.18 6.26 6.52 4.07 5.88 5.56 3.97 -3.02 -3.45 2.03 3.18 -0.30 -0.59 1.92 -0.18 -1.83 -2.02 -3.51 -2.87 -11.73 -6.31 -3.22 -3.25 -3.16 -2.95 -1.54 0.17 0.70 3.08 4.23 3.29
20.27 18.98 18.20 16.73 14.92 11.68 13.28 13.65 10.98 10.11 9.75 8.33 9.74 8.69 7.06 0.82 -0.96 3.46 0.16 -8.64 -2.28 -5.82 -4.36 -3.99 -7.19 -4.67 -4.55 -8.60 -8.54 -0.37 -5.76 -4.98 -3.56 -2.83 -4.47 -4.89 -3.20 -1.67 -1.10 0.17 3.11 2.45 1.41
19.17 16.88 16.32 13.39 12.28 13.42 10.31 5.29 5.65 8.46 9.23 4.41 1.64 1.90 -0.32 -3.60 -6.83 -5.75 -8.28 -12.10 -11.62 -13.05 -12.88 -11.00 -6.91 -6.58 -6.25 -10.22 -5.56 -4.58 -3.74 -9.07 -4.58 -3.97 -7.47 -4.59 -2.96 -1.52 -1.10 0.78 4.13 1.82 1.84
16.47 14.32 12.30 11.35 10.88 9.02 9.22 11.20 7.32 3.93 5.07 4.47 1.80 -1.69 -1.18 -0.20 -3.56 -10.82 -11.37 -13.07 -11.84 -13.99 -8.85 -10.92 -10.57 -6.23 -8.10 -9.66 -5.81 -8.04 -12.87 -6.89 -8.88 -8.83 -4.97 -3.45 -2.42 -2.58 -0.54 1.75 2.17 1.89 1.46
16.96 15.92 14.14 13.23 12.39 10.71 9.32 8.50 7.57 6.13 5.17 2.10 -2.23 -6.66 -7.21 -3.01 -8.01 -12.10 -11.25 -12.58 -12.05 -11.85 -11.32 -10.78 -7.17 -6.77 -6.68 -3.91 -3.11 -4.20 -8.38 -8.10 -9.01 -7.52 -5.39 -1.58 -2.19 0.83 2.81 0.85 0.21 0.97 1.67

GFSGL_sfc_wetblb_138.txt.gz
Wetbulb
37.55 37.28 36.45 35.56 34.09 33.59 32.46 32.43 32.50 32.09 31.31 28.69 28.54 29.23 29.90 31.55 32.89 32.95 33.22 31.88 31.91 29.75 29.23 28.97 29.31 31.14 32.68 33.97 33.51 33.60 33.01 34.13 32.44 34.58 37.59 37.06 35.93 35.05 35.80 36.68 39.39 41.77 40.62
36.52 36.63 33.26 33.08 32.54 31.68 31.02 30.67 30.79 29.63 29.21 28.81 27.85 27.65 29.17 30.42 30.51 30.43 28.67 28.49 27.74 27.92 25.84 26.38 27.05 29.48 29.66 31.91 31.56 30.85 30.76 33.10 32.26 31.57 33.50 33.39 32.75 33.58 34.70 35.08 36.55 38.45 38.19
35.70 32.72 32.00 31.48 31.11 30.14 29.65 29.55 29.58 28.07 26.66 26.07 26.22 26.59 27.84 29.64 30.20 29.37 25.98 26.00 25.74 25.41 25.26 25.29 25.33 26.84 26.58 28.77 29.20 29.17 29.20 30.85 31.50 30.42 28.58 31.07 30.42 31.24 31.80 33.60 34.63 34.58 37.35
34.56 32.18 31.10 30.47 30.29 29.46 28.81 28.00 27.89 27.94 24.89 24.38 24.89 25.76 28.09 29.90 29.53 28.12 25.15 23.74 23.92 23.65 24.54 25.23 25.22 24.76 25.50 26.75 26.54 26.81 27.27 28.39 29.08 27.98 26.73 27.00 26.62 28.46 29.32 28.33 29.07 31.02 34.37
33.86 31.60 29.60 29.82 29.57 28.62 27.51 26.79 26.76 26.78 24.73 24.53 24.73 24.94 28.00 29.81 28.96 26.09 24.23 22.90 22.58 22.54 23.53 24.33 25.69 25.36 26.92 26.42 25.75 25.28 25.81 25.29 25.48 25.18 23.86 24.06 23.44 24.21 23.27 26.39 26.31 27.70 32.43
30.79 29.83 29.85 29.26 28.28 27.35 26.63 25.61 25.12 24.28 24.32 23.68 23.56 24.25 25.63 27.87 29.73 28.02 25.38 22.82 22.49 22.06 21.64 23.19 24.70 24.20 23.19 24.45 25.06 25.40 25.77 23.54 22.15 21.11 21.10 20.11 21.52 22.96 22.95 24.38 23.90 24.29 25.40
29.97 29.59 28.66 28.31 27.53 26.55 26.10 25.11 23.29 21.78 21.68 21.15 21.96 23.21 23.49 26.18 27.47 26.70 24.14 21.83 21.01 21.03 20.76 21.43 23.16 23.52 22.37 21.31 21.58 21.65 21.64 24.56 23.81 20.48 18.86 19.68 19.99 22.54 21.82 22.34 22.59 23.21 22.81
29.22 28.29 27.45 27.00 26.32 25.67 24.75 22.96 21.18 19.53 13.53 13.72 17.82 19.26 21.99 24.62 25.98 24.68 23.29 20.92 19.93 20.20 20.36 21.33 20.28 21.82 21.51 19.59 18.67 17.41 16.15 16.93 20.23 21.05 19.19 19.62 20.80 22.56 20.85 21.85 21.73 22.22 22.44
27.51 27.18 26.84 26.38 24.86 24.42 19.78 17.99 18.34 19.63 14.63 11.60 14.33 17.84 17.75 19.33 24.82 24.24 21.97 18.91 16.80 16.86 20.41 21.08 21.05 20.90 23.30 21.49 16.48 14.73 12.79 12.98 18.06 20.29 20.50 20.83 20.53 22.07 21.58 18.32 16.67 17.49 15.45
26.34 26.42 26.15 25.23 21.63 18.18 14.57 19.59 18.11 16.27 13.38 17.08 14.89 13.65 21.22 14.41 25.20 24.21 18.79 15.55 14.40 16.20 16.58 18.25 24.03 22.29 23.06 21.50 14.49 13.11 10.76 10.65 11.10 10.95 11.23 12.52 13.69 14.78 19.23 15.17 14.73 14.57 14.43
26.85 26.74 26.22 25.74 24.44 22.34 18.95 16.61 22.84 19.09 13.53 10.93 11.21 10.46 11.63 17.00 18.77 24.64 23.77 11.17 10.82 16.08 16.74 16.13 18.46 22.45 22.89 21.51 19.63 14.53 13.28 10.34 10.71 10.06 9.32 9.54 10.02 11.15 12.58 12.84 12.63 12.74 11.78
26.42 25.68 24.79 25.28 26.83 25.59 21.13 22.94 23.68 21.12 13.46 7.10 7.89 9.90 9.81 9.18 21.80 23.79 23.95 22.83 20.55 14.17 8.06 11.72 17.10 20.78 20.20 20.76 17.69 18.55 16.91 10.89 9.99 8.34 7.23 6.78 7.29 8.45 10.45 11.06 10.14 11.02 10.47
25.75 23.81 24.46 26.21 25.95 25.02 22.39 22.27 20.76 19.18 16.58 15.07 14.33 7.81 8.62 11.77 8.93 21.54 23.30 22.96 21.35 12.23 13.42 19.39 19.13 18.23 17.27 13.90 17.77 16.74 10.99 9.51 8.31 6.26 5.56 5.37 6.46 8.03 10.18 10.61 10.94 11.36 9.92
25.08 24.89 25.42 22.58 21.47 21.46 21.38 21.29 19.72 18.47 17.04 16.50 13.77 8.44 7.05 10.69 11.01 12.84 13.17 12.78 16.00 12.44 10.14 8.68 9.08 13.86 4.18 3.46 6.12 9.36 8.94 7.16 3.94 2.31 2.52 0.33 6.57 7.56 8.34 9.79 7.95 8.65 7.58
25.40 25.05 23.84 21.95 20.34 19.24 18.61 18.10 18.83 15.77 18.09 14.85 11.29 12.21 7.21 6.31 11.66 20.43 17.17 13.06 9.31 10.98 6.21 4.13 0.64 -2.41 -0.14 3.94 5.16 5.55 6.96 7.48 6.15 5.54 4.10 4.60 4.69 5.67 5.95 9.25 8.20 7.13 4.62
24.70 22.91 22.14 20.62 18.62 18.31 18.67 18.17 22.47 21.94 22.04 21.38 20.16 16.29 11.09 19.81 22.45 22.61 21.62 20.14 18.61 16.55 7.17 -0.96 -1.31 -2.71 1.12 3.92 3.51 3.50 5.98 5.73 5.26 5.14 2.97 3.22 2.70 3.40 4.33 6.42 7.75 5.46 3.61
24.18 22.99 21.86 20.95 19.33 17.95 18.21 18.24 16.54 20.41 22.57 21.75 21.93 22.20 21.56 21.45 21.14 20.80 19.87 18.65 16.94 13.46 4.20 -0.67 -5.54 -3.01 2.05 4.15 3.65 3.60 3.29 4.49 4.32 2.40 0.66 0.38 0.55 2.06 3.09 4.32 5.28 5.58 3.74
23.81 23.53 20.84 19.05 18.35 17.91 15.88 13.84 12.36 10.79 6.51 6.43 15.94 17.94 20.72 21.69 19.89 18.34 16.87 13.49 6.39 7.94 7.11 5.06 3.00 2.80 3.67 2.98 2.46 2.09 2.42 1.64 0.24 -0.33 -1.35 -2.18 -2.52 0.12 0.78 2.34 3.57 3.33 3.58
22.56 20.93 20.46 19.72 19.13 17.07 16.64 15.21 14.10 12.19 7.64 3.17 4.42 8.77 9.77 20.09 18.00 16.02 13.90 2.16 0.17 3.16 5.86 5.75 4.60 3.03 2.14 2.26 -4.71 -4.43 -6.63 -4.48 -5.76 -9.28 -5.08 -4.34 -5.22 -1.63 -1.28 0.59 2.27 2.44 3.77
21.66 20.07 20.85 20.51 19.61 18.75 17.86 16.70 15.61 15.33 12.36 6.90 5.91 4.57 9.68 9.24 2.20 -2.49 -5.54 -6.81 -0.70 3.78 2.98 4.31 4.22 1.62 -0.93 -0.39 -8.65 -12.98 -6.85 -7.51 -4.73 -5.06 -6.47 -7.86 -7.52 -3.87 -2.73 -0.56 0.08 0.84 3.57
21.55 20.86 19.52 19.96 18.96 18.25 16.84 15.71 15.56 14.01 11.02 8.37 4.59 2.60 7.23 8.45 5.56 3.62 2.90 -5.18 -2.83 1.97 -3.39 1.45 -0.86 -4.11 -5.73 -6.16 -1.15 -6.64 -6.81 -11.72 -7.32 -5.56 -5.22 -4.75 -7.19 -6.18 -2.51 -0.95 -0.42 1.43 3.60
21.26 20.89 20.82 19.15 18.37 16.77 16.65 15.98 14.57 13.21 11.04 9.96 8.39 4.81 6.98 6.35 5.30 2.90 1.00 -5.36 -6.81 -1.04 0.89 -3.97 -1.58 -1.12 -2.93 -4.63 -6.82 -14.07 -12.43 -17.69 -14.79 -8.87 -7.30 -6.48 -5.62 -4.88 -3.13 -2.77 -2.10 -0.04 2.48
21.14 19.62 18.55 17.20 16.18 13.12 13.62 13.77 11.62 11.35 10.41 8.11 9.50 8.65 6.02 1.71 1.19 2.71 -1.48 -12.80 -6.15 -9.25 -8.47 -7.40 -10.98 -7.54 -6.85 -12.66 -11.53 -7.91 -10.26 -9.53 -7.90 -10.80 -10.08 -8.35 -6.59 -5.36 -4.32 -3.38 -2.37 0.32 1.20
19.20 17.36 16.45 13.88 14.30 12.65 9.95 7.47 8.62 9.09 9.61 7.00 5.13 4.67 3.07 -2.55 -5.55 -7.38 -13.70 -16.97 -15.37 -17.71 -18.24 -14.79 -10.48 -8.26 -8.35 -14.43 -12.25 -8.12 -5.41 -11.17 -10.49 -7.76 -11.00 -9.36 -7.08 -4.88 -3.80 -3.25 -0.56 1.05 -0.03
17.46 15.57 13.90 13.38 12.30 10.04 7.20 7.39 5.49 6.17 6.83 5.71 3.17 2.51 0.08 -2.74 -4.83 -13.70 -17.51 -16.62 -15.21 -17.51 -12.98 -14.46 -14.99 -11.00 -11.18 -13.57 -10.26 -12.67 -14.85 -11.36 -14.44 -13.06 -11.56 -7.74 -5.61 -6.33 -3.19 0.26 0.71 -0.22 -1.16
15.67 14.32 12.48 12.07 10.20 9.81 10.11 7.93 5.52 6.49 5.41 3.21 0.17 -0.50 -1.44 -4.25 -4.20 -11.96 -17.16 -15.91 -14.30 -14.31 -14.28 -14.30 -12.01 -11.39 -11.29 -7.18 -6.24 -6.63 -12.62 -12.11 -14.47 -12.00 -12.07 -6.33 -6.49 -5.11 -2.24 -2.24 -2.12 -1.62 -0.94